# Wetter Temperatur Luftdruck Luftfeuchtigkeit Sichtweite Windgeschwindigkeit Windrichtung Zeit
1 Clouds 22 1017 64 10000 2.57 0 13:20 22.04.2021
2 Clouds 22 1016 73 10000 2.57 330 12:45 22.04.2021
3 Clouds 22 1016 73 10000 2.57 330 12:20 22.04.2021
4 Clouds 23 1016 73 10000 3.6 330 11:45 22.04.2021
5 Clouds 23 1016 73 10000 3.6 330 11:23 22.04.2021
6 Clouds 23 1016 78 10000 2.06 310 10:45 22.04.2021
7 Clouds 23 1016 78 10000 2.06 310 10:24 22.04.2021
8 Clouds 23 1016 78 10000 1.54 0 09:45 22.04.2021
9 Clouds 23 1016 78 10000 1.54 0 09:20 22.04.2021
10 Clouds 24 1016 88 10000 2.06 330 08:39 22.04.2021
11 Clouds 24 1016 88 10000 2.06 330 08:19 22.04.2021
12 Clouds 24 1016 88 10000 2.06 280 07:44 22.04.2021
13 Clouds 24 1016 88 10000 2.06 280 07:20 22.04.2021
14 Clouds 24 1017 83 10000 1.54 290 06:27 22.04.2021
15 Clouds 25 1016 83 10000 2.7 327 05:26 22.04.2021
16 Clouds 25 1016 78 10000 2.57 260 04:30 22.04.2021
17 Clouds 27 1015 74 10000 4.63 300 00:57 22.04.2021
18 Clouds 27 1015 78 10000 2.06 360 23:48 21.04.2021
19 Clouds 27 1015 78 10000 2.06 360 23:28 21.04.2021
20 Clouds 28 1015 69 10000 3.09 310 22:44 21.04.2021
21 Clouds 29 1015 69 10000 3.09 310 22:24 21.04.2021
22 Clouds 29 1015 69 10000 3.6 280 21:50 21.04.2021
23 Clouds 29 1015 69 10000 3.6 280 21:24 21.04.2021
24 Clouds 30 1016 55 10000 5.14 250 20:59 21.04.2021
25 Clouds 30 1016 55 10000 5.14 250 20:59 21.04.2021
26 Clouds 31 1016 55 10000 5.14 250 20:21 21.04.2021
27 Clouds 30 1016 58 10000 3.09 270 19:44 21.04.2021
28 Clouds 30 1016 58 10000 3.09 270 19:25 21.04.2021
29 Clouds 30 1016 61 10000 3.09 220 18:46 21.04.2021
30 Clouds 29 1016 61 10000 3.09 220 18:28 21.04.2021
31 Clouds 29 1016 61 10000 2.57 270 17:49 21.04.2021
32 Clouds 29 1016 61 10000 2.57 270 17:25 21.04.2021
33 Clouds 29 1016 61 10000 2.57 270 17:25 21.04.2021
34 Clouds 28 1017 69 10000 3.09 310 16:55 21.04.2021
35 Clouds 27 1017 69 10000 3.09 310 16:30 21.04.2021
36 Clouds 26 1016 73 10000 1.54 0 15:42 21.04.2021
37 Clouds 26 1016 73 10000 1.54 0 15:42 21.04.2021
38 Clouds 25 1016 73 10000 1.54 0 15:18 21.04.2021
39 Clouds 25 1016 88 10000 4.88 244 14:42 21.04.2021
40 Clouds 24 1016 88 10000 5.32 230 14:22 21.04.2021
41 Clouds 24 1015 83 10000 4.56 250 13:45 21.04.2021
42 Clouds 24 1015 83 10000 4.94 237 13:21 21.04.2021
43 Clouds 25 1015 94 10000 2.06 320 12:32 21.04.2021
44 Rain 25 1015 94 9656 4.12 300 11:58 21.04.2021
45 Rain 25 1015 88 10000 4.12 300 11:39 21.04.2021
46 Rain 25 1015 83 8047 2.06 190 11:21 21.04.2021
47 Clouds 25 1015 89 10000 1.54 230 10:36 21.04.2021
48 Clouds 25 1015 89 10000 5.74 231 09:56 21.04.2021
49 Clouds 25 1015 89 10000 5.51 234 09:20 21.04.2021
50 Clouds 26 1015 89 10000 2.06 230 08:41 21.04.2021
51 Clouds 26 1015 89 10000 2.06 230 08:22 21.04.2021
52 Clouds 26 1016 89 10000 2.06 230 07:43 21.04.2021
53 Clouds 26 1016 89 10000 2.06 230 07:21 21.04.2021
54 Clouds 26 1015 83 10000 1.54 160 05:45 21.04.2021
55 Clouds 27 1013 69 10000 5.14 210 01:34 21.04.2021
56 Clouds 28 1013 69 10000 4.12 220 00:19 21.04.2021
57 Clouds 28 1014 74 10000 5.66 220 23:38 20.04.2021
58 Clouds 28 1015 70 10000 6.17 230 22:45 20.04.2021
59 Clouds 29 1015 70 10000 6.17 230 22:23 20.04.2021
60 Clouds 29 1015 65 10000 7.2 220 21:48 20.04.2021
61 Clouds 29 1015 65 10000 7.2 220 21:28 20.04.2021
62 Clouds 28 1015 74 10000 6.69 210 20:58 20.04.2021
63 Clouds 28 1015 74 10000 6.69 210 20:38 20.04.2021
64 Clouds 28 1015 74 10000 6.69 210 20:18 20.04.2021
65 Clouds 29 1016 69 10000 8.23 220 19:44 20.04.2021
66 Clouds 28 1016 69 10000 8.23 220 19:26 20.04.2021
67 Clouds 29 1016 78 10000 5.66 210 18:41 20.04.2021
68 Clouds 28 1016 78 10000 5.66 210 18:22 20.04.2021
69 Clouds 27 1016 83 10000 2.57 180 17:40 20.04.2021
70 Clouds 26 1015 83 10000 4.12 170 16:50 20.04.2021
71 Clouds 26 1015 83 10000 4.12 170 16:18 20.04.2021
72 Clouds 25 1015 88 10000 2.57 160 15:30 20.04.2021
73 Clouds 23 1015 88 10000 1.54 150 14:59 20.04.2021
74 Clouds 23 1015 88 10000 1.54 150 14:36 20.04.2021
75 Clouds 22 1015 83 10000 1.54 220 13:55 20.04.2021
76 Clouds 22 1015 83 10000 1.54 220 13:26 20.04.2021
77 Rain 22 1015 78 10000 2.57 210 12:51 20.04.2021
78 Rain 22 1015 78 10000 2.57 210 12:23 20.04.2021
79 Clouds 22 1015 83 10000 5.56 205 11:46 20.04.2021
80 Rain 22 1015 83 10000 4.56 204 11:25 20.04.2021
81 Rain 22 1015 83 10000 3.6 220 10:47 20.04.2021
82 Rain 22 1015 83 10000 3.6 220 10:24 20.04.2021
83 Rain 22 1015 88 4828 4.63 270 09:45 20.04.2021
84 Rain 23 1016 94 4023 4.63 180 08:57 20.04.2021
85 Rain 23 1016 94 4023 4.63 180 08:33 20.04.2021
86 Rain 24 1014 88 10000 3.6 80 07:52 20.04.2021
87 Clouds 23 1015 94 10000 3.09 110 07:21 20.04.2021
88 Rain 25 1015 88 10000 2.57 320 05:41 20.04.2021
89 Rain 26 1014 74 10000 3.09 40 04:42 20.04.2021
90 Clouds 28 1013 65 10000 4.12 250 02:58 20.04.2021
91 Clouds 30 1013 58 10000 5.66 260 00:50 20.04.2021
92 Clouds 30 1012 58 10000 8.75 250 23:47 19.04.2021
93 Clouds 31 1012 58 10000 8.75 250 23:27 19.04.2021
94 Clouds 32 1012 52 10000 7.72 230 22:37 19.04.2021
95 Clouds 32 1012 49 10000 8.75 220 21:59 19.04.2021
96 Clouds 33 1012 49 10000 8.75 220 21:37 19.04.2021
97 Clouds 33 1012 49 10000 8.75 220 21:19 19.04.2021
98 Clouds 32 1013 52 10000 7.2 240 20:40 19.04.2021
99 Clouds 32 1013 52 10000 7.2 240 20:20 19.04.2021
100 Clouds 32 1013 55 10000 7.2 210 19:43 19.04.2021
101 Clouds 32 1013 55 10000 7.2 210 19:24 19.04.2021
102 Clouds 32 1014 58 10000 6.17 220 18:47 19.04.2021
103 Clouds 31 1014 58 10000 6.17 220 18:24 19.04.2021
104 Clouds 31 1014 62 10000 5.14 200 17:56 19.04.2021
105 Clouds 31 1014 62 10000 5.14 200 17:35 19.04.2021
106 Clouds 30 1014 70 10000 5.14 200 16:59 19.04.2021
107 Clouds 29 1015 70 10000 5.66 220 16:40 19.04.2021
108 Clouds 29 1015 70 10000 5.66 220 16:21 19.04.2021
109 Clouds 28 1014 83 10000 4.63 200 15:40 19.04.2021
110 Clouds 28 1014 83 10000 4.63 200 15:20 19.04.2021
111 Clouds 27 1013 83 10000 3.6 180 14:38 19.04.2021
112 Clouds 27 1013 83 10000 3.6 180 14:19 19.04.2021
113 Clouds 26 1012 83 10000 3.6 170 13:44 19.04.2021
114 Clouds 26 1012 83 10000 3.6 170 13:24 19.04.2021
115 Clouds 26 1012 83 10000 4.12 180 12:42 19.04.2021
116 Clouds 26 1012 83 10000 4.12 180 12:23 19.04.2021
117 Clouds 26 1013 83 10000 3.6 160 11:54 19.04.2021
118 Clouds 26 1013 83 10000 3.6 160 11:25 19.04.2021
119 Clouds 26 1013 78 10000 3.6 160 10:46 19.04.2021
120 Clouds 26 1013 78 10000 3.6 160 10:25 19.04.2021
121 Clouds 26 1014 78 10000 3.6 150 09:49 19.04.2021
122 Clouds 26 1014 78 10000 3.6 150 09:28 19.04.2021
123 Clouds 25 1014 78 10000 3.09 170 08:58 19.04.2021
124 Clouds 25 1014 78 10000 3.09 170 08:26 19.04.2021
125 Clouds 26 1015 78 10000 3.09 170 07:48 19.04.2021
126 Clouds 26 1015 78 10000 3.09 170 07:19 19.04.2021
127 Clouds 26 1015 78 10000 3.09 170 07:19 19.04.2021
128 Clouds 27 1015 78 10000 3.09 190 06:28 19.04.2021
129 Clouds 27 1012 65 10000 4.12 170 02:35 19.04.2021
130 Clouds 29 1012 62 10000 5.14 160 00:49 19.04.2021
131 Clouds 30 1012 62 10000 5.14 170 23:50 18.04.2021
132 Clouds 30 1012 62 10000 5.14 170 23:18 18.04.2021
133 Clouds 30 1012 62 10000 6.17 150 22:47 18.04.2021
134 Clouds 31 1012 62 10000 6.17 150 22:29 18.04.2021
135 Clouds 30 1013 66 10000 4.63 140 21:29 18.04.2021
136 Clouds 31 1013 58 10000 4.12 180 20:59 18.04.2021
137 Clouds 31 1013 58 10000 4.12 180 20:39 18.04.2021
138 Clouds 31 1013 58 10000 4.12 180 20:39 18.04.2021
139 Clouds 31 1013 58 10000 4.12 180 20:20 18.04.2021
140 Clouds 31 1014 65 10000 4.12 160 19:45 18.04.2021
141 Clouds 30 1014 65 10000 4.12 160 19:25 18.04.2021
142 Clouds 30 1015 65 10000 4.12 110 18:54 18.04.2021
143 Clouds 30 1015 65 10000 4.12 110 18:54 18.04.2021
144 Clouds 30 1015 65 10000 4.12 110 18:30 18.04.2021
145 Clouds 29 1015 69 10000 3.09 140 17:50 18.04.2021
146 Clouds 29 1015 69 10000 3.09 140 17:50 18.04.2021
147 Clouds 29 1015 69 10000 3.09 140 17:31 18.04.2021
148 Clouds 29 1016 65 10000 3.09 160 16:55 18.04.2021
149 Clouds 29 1016 65 10000 3.09 160 16:36 18.04.2021
150 Clouds 28 1015 65 10000 1.54 100 15:57 18.04.2021
151 Clouds 27 1015 65 10000 1.54 100 15:38 18.04.2021
152 Clouds 27 1015 65 10000 1.54 100 15:18 18.04.2021
153 Clouds 25 1015 78 10000 2.2 226 14:41 18.04.2021
154 Clouds 24 1015 78 10000 2.03 239 14:18 18.04.2021
155 Clouds 23 1015 83 10000 2.03 239 13:45 18.04.2021
156 Clouds 23 1015 83 10000 2.19 262 13:27 18.04.2021
157 Clouds 23 1014 73 10000 2.19 262 12:37 18.04.2021
158 Clouds 23 1014 78 10000 2.53 265 11:55 18.04.2021
159 Clouds 23 1014 78 10000 2.64 252 11:28 18.04.2021
160 Clouds 23 1014 83 10000 1.54 220 10:58 18.04.2021
161 Clouds 23 1014 83 10000 1.54 220 10:40 18.04.2021
162 Clouds 23 1014 83 10000 1.54 220 10:18 18.04.2021
163 Clouds 23 1014 83 10000 3.21 246 09:39 18.04.2021
164 Clouds 23 1014 83 10000 3.36 247 09:20 18.04.2021
165 Clouds 23 1014 83 10000 2.06 200 08:44 18.04.2021
166 Clouds 23 1014 83 10000 2.06 200 08:24 18.04.2021
167 Clouds 23 1014 78 10000 1.54 170 07:40 18.04.2021
168 Clear 24 1013 69 10000 2.57 270 05:56 18.04.2021
169 Clear 24 1013 69 10000 2.57 270 05:26 18.04.2021
170 Clear 26 1013 61 10000 3.09 280 04:31 18.04.2021
171 Clouds 28 1012 57 10000 5.14 240 02:23 18.04.2021
172 Clouds 30 1011 45 10000 6.69 250 00:56 18.04.2021
173 Clouds 31 1011 45 10000 5.66 250 23:52 17.04.2021
174 Clouds 32 1011 45 10000 5.66 250 23:22 17.04.2021
175 Clouds 32 1012 45 10000 6.17 250 22:43 17.04.2021
176 Clouds 32 1012 45 10000 6.17 250 22:21 17.04.2021
177 Clouds 32 1012 45 10000 6.17 270 21:43 17.04.2021
178 Clouds 32 1012 45 10000 6.17 270 21:21 17.04.2021
179 Clouds 32 1013 45 10000 6.17 220 20:37 17.04.2021
180 Clouds 32 1013 45 10000 6.17 220 20:19 17.04.2021
181 Clouds 32 1013 48 10000 5.66 240 19:39 17.04.2021
182 Clouds 32 1013 48 10000 5.66 240 19:19 17.04.2021
183 Clouds 31 1014 54 10000 6.17 250 18:46 17.04.2021
184 Clouds 30 1014 54 10000 6.17 250 18:21 17.04.2021
185 Clouds 30 1014 61 10000 4.12 270 17:41 17.04.2021
186 Clouds 29 1014 65 10000 4.12 250 16:56 17.04.2021
187 Clouds 28 1014 65 10000 4.12 250 16:34 17.04.2021
188 Clouds 27 1014 74 10000 5.14 250 15:58 17.04.2021
189 Clouds 25 1013 83 10000 1.54 220 14:51 17.04.2021
190 Clouds 25 1013 83 10000 1.54 220 14:33 17.04.2021
191 Clouds 22 1012 88 10000 1.54 180 13:59 17.04.2021
192 Clouds 22 1012 88 10000 1.54 180 13:40 17.04.2021
193 Clear 22 1012 88 10000 1.54 190 12:42 17.04.2021
194 Clear 23 1012 88 10000 1.54 190 12:22 17.04.2021
195 Clear 23 1011 88 10000 1.54 190 11:50 17.04.2021
196 Clear 23 1011 88 10000 1.54 190 11:31 17.04.2021
197 Clear 23 1011 88 10000 1.54 220 10:48 17.04.2021
198 Clear 23 1011 88 10000 1.54 220 10:29 17.04.2021
199 Clear 23 1012 88 10000 2.06 190 09:44 17.04.2021
200 Clear 24 1012 78 10000 2.06 190 08:42 17.04.2021
201 Clear 24 1012 78 10000 2.06 190 08:24 17.04.2021
202 Clear 24 1013 78 10000 2.57 180 07:20 17.04.2021
203 Rain 26 1012 57 10000 4.12 230 03:57 17.04.2021
204 Clouds 26 1012 57 10000 4.12 230 03:38 17.04.2021
205 Clouds 28 1011 65 10000 5.14 120 00:49 17.04.2021
206 Clouds 28 1011 65 10000 5.14 120 00:29 17.04.2021
207 Rain 29 1010 61 10000 6.69 120 23:48 16.04.2021
208 Clouds 29 1010 61 10000 6.69 120 23:29 16.04.2021
209 Clouds 29 1011 51 10000 6.69 130 22:50 16.04.2021
210 Rain 29 1011 51 10000 6.69 130 22:22 16.04.2021
211 Clouds 30 1011 51 10000 4.63 150 21:51 16.04.2021
212 Clouds 30 1011 51 10000 4.63 150 21:30 16.04.2021
213 Clouds 29 1012 58 10000 4.63 150 20:50 16.04.2021
214 Clouds 29 1012 58 10000 4.63 150 20:27 16.04.2021
215 Clouds 29 1012 54 10000 3.09 0 19:55 16.04.2021
216 Clouds 29 1012 54 10000 3.09 0 19:30 16.04.2021
217 Clouds 29 1013 51 10000 3.6 200 18:43 16.04.2021
218 Clouds 29 1013 51 10000 3.6 200 18:20 16.04.2021
219 Clouds 28 1013 54 10000 1.54 0 17:45 16.04.2021
220 Clouds 28 1013 54 10000 1.54 0 17:19 16.04.2021
221 Rain 27 1013 69 10000 2.57 0 16:43 16.04.2021
222 Clouds 27 1013 69 10000 2.57 0 16:24 16.04.2021
223 Rain 25 1013 78 10000 2.06 210 15:48 16.04.2021
224 Clouds 25 1013 78 10000 2.06 210 15:20 16.04.2021
225 Rain 23 1013 78 10000 1.54 210 14:42 16.04.2021
226 Clouds 22 1013 78 10000 1.54 210 14:19 16.04.2021
227 Clouds 21 1013 88 10000 2.57 210 13:46 16.04.2021
228 Clouds 22 1013 88 10000 2.57 210 13:20 16.04.2021
229 Clear 21 1013 88 10000 1.54 210 12:48 16.04.2021
230 Clear 22 1013 88 10000 1.54 210 12:27 16.04.2021
231 Clear 21 1013 83 10000 2.93 237 11:54 16.04.2021
232 Clear 21 1013 83 10000 2.85 251 11:27 16.04.2021
233 Clear 21 1013 83 10000 1.54 180 10:55 16.04.2021
234 Clear 21 1013 83 10000 1.54 180 10:35 16.04.2021
235 Clear 22 1013 83 10000 1.54 210 09:53 16.04.2021
236 Clear 22 1013 83 10000 1.54 210 09:25 16.04.2021
237 Clouds 22 1013 78 10000 2.06 230 08:55 16.04.2021
238 Clouds 22 1013 78 10000 2.06 230 08:36 16.04.2021
239 Clouds 23 1013 78 10000 2.06 230 08:18 16.04.2021
240 Clouds 22 1013 78 10000 2.06 190 07:35 16.04.2021
241 Clouds 22 1013 78 10000 2.06 190 07:35 16.04.2021
242 Clouds 23 1014 78 10000 2.06 250 06:58 16.04.2021
243 Clouds 23 1014 73 10000 3.09 210 05:34 16.04.2021
244 Clouds 24 1014 69 10000 4.12 200 04:21 16.04.2021
245 Clouds 26 1013 57 10000 4.63 130 00:58 16.04.2021
246 Clouds 27 1013 57 10000 4.63 130 00:40 16.04.2021
247 Clouds 27 1013 57 10000 4.63 130 00:19 16.04.2021
248 Clouds 27 1013 57 10000 4.63 160 23:41 15.04.2021
249 Clouds 28 1013 57 10000 4.63 160 23:23 15.04.2021
250 Clouds 28 1013 57 10000 4.63 160 23:23 15.04.2021
251 Clouds 28 1014 54 10000 4.12 160 22:40 15.04.2021
252 Clouds 28 1014 54 10000 4.12 160 22:21 15.04.2021
253 Clouds 28 1014 54 10000 6.34 150 21:42 15.04.2021
254 Clouds 28 1014 54 10000 5.69 153 21:20 15.04.2021
255 Clouds 28 1014 61 10000 5.14 170 20:44 15.04.2021
256 Clouds 28 1014 61 10000 5.14 170 20:44 15.04.2021
257 Clouds 28 1014 61 10000 5.14 170 20:24 15.04.2021
258 Clouds 27 1014 57 10000 6.17 140 19:44 15.04.2021
259 Clouds 27 1014 57 10000 6.17 140 19:26 15.04.2021
260 Clouds 27 1015 61 10000 4.63 150 18:43 15.04.2021
261 Clouds 27 1015 61 10000 4.63 150 18:21 15.04.2021
262 Clouds 27 1016 61 10000 4.12 160 17:55 15.04.2021
263 Clouds 27 1016 61 10000 4.12 160 17:36 15.04.2021
264 Clouds 27 1016 61 10000 4.12 160 17:36 15.04.2021
265 Clouds 26 1016 61 10000 4.63 130 16:59 15.04.2021
266 Clouds 26 1016 61 10000 4.63 130 16:40 15.04.2021
267 Clouds 26 1016 61 10000 4.63 130 16:22 15.04.2021
268 Clouds 25 1016 69 10000 3.6 130 15:45 15.04.2021
269 Clouds 25 1016 69 10000 3.6 130 15:25 15.04.2021
270 Clouds 23 1016 73 10000 1.54 120 14:41 15.04.2021
271 Clouds 23 1016 73 10000 1.54 120 14:23 15.04.2021
272 Clouds 23 1016 73 10000 1.54 120 14:23 15.04.2021
273 Rain 22 1016 73 10000 2.06 0 13:42 15.04.2021
274 Clouds 21 1016 73 10000 2.06 0 13:19 15.04.2021
275 Clouds 21 1016 73 10000 1.54 170 12:41 15.04.2021
276 Clouds 22 1016 73 10000 1.54 170 12:21 15.04.2021
277 Clouds 22 1016 73 10000 2.57 120 11:46 15.04.2021
278 Clouds 21 1016 73 10000 2.57 120 11:24 15.04.2021
279 Clouds 21 1016 78 10000 4.06 136 10:55 15.04.2021
280 Clouds 21 1016 78 10000 4.36 139 10:28 15.04.2021
281 Clear 22 1016 73 10000 1.54 110 09:50 15.04.2021
282 Clear 22 1016 73 10000 1.54 110 09:28 15.04.2021
283 Clear 21 1017 73 10000 3.6 110 08:49 15.04.2021
284 Clear 22 1017 73 10000 3.6 110 08:23 15.04.2021
285 Clear 22 1018 68 10000 2.57 100 07:25 15.04.2021
286 Clear 23 1019 64 10000 3.6 80 06:50 15.04.2021
287 Rain 22 1019 64 10000 3.6 80 06:32 15.04.2021
288 Rain 23 1018 68 10000 4.63 90 04:52 15.04.2021
289 Rain 23 1018 64 10000 5.66 80 02:51 15.04.2021
290 Rain 26 1018 54 10000 5.14 90 23:47 14.04.2021
291 Clouds 26 1018 54 10000 5.14 90 23:28 14.04.2021
292 Clouds 27 1018 54 10000 6.69 110 22:47 14.04.2021
293 Clouds 27 1018 54 10000 6.69 110 22:27 14.04.2021
294 Clouds 27 1018 51 10000 7.72 120 21:53 14.04.2021
295 Rain 27 1018 51 10000 7.72 120 21:32 14.04.2021
296 Clouds 27 1019 51 10000 5.14 80 20:58 14.04.2021
297 Clouds 27 1019 51 10000 5.14 80 20:35 14.04.2021
298 Clouds 27 1020 54 10000 5.14 80 19:55 14.04.2021
299 Clouds 27 1020 54 10000 5.14 80 19:37 14.04.2021
300 Clouds 27 1020 54 10000 5.14 80 19:18 14.04.2021
301 Clouds 27 1021 57 10000 5.14 70 18:47 14.04.2021
302 Clouds 27 1021 57 10000 5.14 70 18:18 14.04.2021
303 Clouds 27 1021 57 10000 6.69 90 17:51 14.04.2021
304 Clouds 27 1021 57 10000 6.69 90 17:23 14.04.2021
305 Clouds 26 1020 61 10000 6.17 80 16:42 14.04.2021
306 Clouds 26 1020 61 10000 6.17 80 16:21 14.04.2021
307 Clouds 25 1019 69 10000 5.14 90 15:39 14.04.2021
308 Clouds 25 1019 69 10000 5.14 90 15:18 14.04.2021
309 Clouds 24 1020 73 10000 3.6 80 14:41 14.04.2021
310 Clouds 23 1020 73 10000 3.6 80 14:21 14.04.2021
311 Clouds 23 1019 78 10000 1.54 50 13:47 14.04.2021
312 Clouds 22 1019 78 10000 1.54 10 12:47 14.04.2021
313 Clouds 23 1019 78 10000 1.54 10 12:24 14.04.2021
314 Clear 22 1018 83 10000 1.54 30 11:42 14.04.2021
315 Clear 23 1018 83 10000 1.54 30 11:23 14.04.2021
316 Clear 23 1018 78 10000 2.06 40 10:34 14.04.2021
317 Clear 23 1018 78 10000 1.54 30 09:46 14.04.2021
318 Clear 23 1018 78 10000 1.54 30 09:27 14.04.2021
319 Clear 23 1018 78 10000 2.06 30 08:56 14.04.2021
320 Clear 23 1018 78 10000 2.06 30 08:32 14.04.2021
321 Clear 23 1018 73 10000 2.06 40 07:51 14.04.2021
322 Clear 24 1018 69 10000 2.06 50 06:35 14.04.2021
323 Clear 24 1018 64 10000 2.06 40 05:50 14.04.2021
324 Clear 25 1017 39 10000 2.57 70 02:57 14.04.2021
325 Clear 27 1017 34 10000 4.63 50 01:19 14.04.2021
326 Clear 28 1016 26 10000 5.14 90 00:34 14.04.2021
327 Clear 29 1016 23 10000 5.66 100 23:38 13.04.2021
328 Clear 29 1016 25 10000 4.12 120 22:45 13.04.2021
329 Clear 30 1016 25 10000 4.12 120 22:23 13.04.2021
330 Clear 30 1017 25 10000 6.17 90 21:51 13.04.2021
331 Clear 30 1017 25 10000 6.17 90 21:33 13.04.2021
332 Clouds 30 1017 25 10000 4.63 50 20:55 13.04.2021
333 Clouds 30 1017 25 10000 4.63 50 20:55 13.04.2021
334 Clouds 30 1017 25 10000 4.63 50 20:37 13.04.2021
335 Clouds 30 1017 25 10000 4.63 50 20:19 13.04.2021
336 Clear 30 1018 27 10000 6.69 90 19:27 13.04.2021
337 Clear 30 1018 27 10000 6.69 90 19:27 13.04.2021
338 Clear 29 1018 39 10000 1.54 0 18:58 13.04.2021
339 Clear 29 1018 39 10000 1.54 0 18:33 13.04.2021
340 Clear 28 1018 44 10000 2.57 10 17:45 13.04.2021
341 Clear 28 1018 44 10000 2.57 10 17:23 13.04.2021
342 Clouds 27 1018 54 10000 3.09 360 16:57 13.04.2021
343 Clouds 27 1018 54 10000 3.09 360 16:38 13.04.2021
344 Clouds 26 1018 54 10000 3.09 360 16:19 13.04.2021
345 Clear 25 1017 69 10000 4.74 45 15:39 13.04.2021
346 Clear 23 1017 83 10000 4.13 44 14:59 13.04.2021
347 Clear 23 1017 83 10000 4.13 44 14:59 13.04.2021
348 Clear 22 1017 83 10000 4.07 44 14:38 13.04.2021
349 Clear 22 1017 83 10000 3.4 40 14:18 13.04.2021
350 Clouds 20 1016 88 10000 3.4 40 13:40 13.04.2021
351 Clouds 20 1016 88 10000 3.17 44 13:22 13.04.2021
352 Clouds 20 1016 88 10000 3.17 44 12:52 13.04.2021
353 Clear 20 1015 88 10000 3.15 47 12:23 13.04.2021
354 Clouds 20 1015 94 10000 3.15 47 11:40 13.04.2021
355 Clouds 20 1015 94 10000 3.68 48 11:18 13.04.2021
356 Clear 20 1014 94 10000 3.68 48 10:41 13.04.2021
357 Clear 20 1014 94 10000 4.11 47 10:20 13.04.2021
358 Clouds 21 1014 94 10000 4.11 47 09:52 13.04.2021
359 Clouds 21 1014 94 10000 4.23 47 09:26 13.04.2021
360 Clouds 22 1014 88 10000 4.69 56 08:47 13.04.2021
361 Clouds 22 1014 88 10000 4.74 54 08:24 13.04.2021
362 Clear 22 1014 88 10000 4.74 54 07:48 13.04.2021
363 Clear 22 1014 88 10000 4.95 52 07:26 13.04.2021
364 Clouds 23 1014 83 10000 2.06 60 06:24 13.04.2021
365 Clouds 24 1013 88 10000 3.6 30 03:44 13.04.2021
366 Rain 25 1012 83 10000 4.12 110 01:32 13.04.2021
367 Mist 26 1011 88 4828 2.57 350 23:55 12.04.2021
368 Rain 27 1011 88 4828 2.57 350 23:32 12.04.2021
369 Rain 29 1010 65 10000 2.57 0 22:55 12.04.2021
370 Rain 28 1010 65 10000 2.57 0 22:33 12.04.2021
371 Clouds 28 1011 58 10000 2.57 0 21:49 12.04.2021
372 Clouds 29 1011 58 10000 2.57 0 21:25 12.04.2021
373 Rain 28 1011 61 10000 3.09 0 20:59 12.04.2021
374 Clouds 28 1011 61 10000 3.09 0 20:36 12.04.2021
375 Clouds 27 1012 74 10000 3.09 0 20:18 12.04.2021
376 Clouds 28 1012 65 10000 4.12 260 19:40 12.04.2021
377 Clouds 28 1012 65 10000 4.12 260 19:21 12.04.2021
378 Clouds 28 1012 69 10000 3.6 230 18:51 12.04.2021
379 Clouds 28 1012 69 10000 3.6 230 18:33 12.04.2021
380 Clouds 28 1012 69 10000 4.12 220 17:59 12.04.2021
381 Clouds 28 1012 69 10000 4.12 220 17:40 12.04.2021
382 Clouds 27 1012 69 10000 4.12 220 17:19 12.04.2021
383 Clouds 26 1012 83 10000 2.57 210 16:38 12.04.2021
384 Clouds 25 1012 83 10000 2.57 210 16:19 12.04.2021
385 Clouds 25 1011 88 10000 1.54 230 15:39 12.04.2021
386 Clouds 23 1011 88 10000 6.62 203 14:59 12.04.2021
387 Clouds 23 1011 88 10000 6.62 203 14:40 12.04.2021
388 Clouds 22 1011 88 10000 6.13 198 14:22 12.04.2021
389 Clouds 22 1009 94 10000 6.86 201 13:41 12.04.2021
390 Clouds 22 1009 94 10000 6.51 195 13:20 12.04.2021
391 Clouds 22 1010 88 10000 2.06 220 12:44 12.04.2021
392 Clouds 21 1010 88 10000 2.06 220 12:23 12.04.2021
393 Clouds 20 1009 88 10000 6.52 192 11:43 12.04.2021
394 Clouds 20 1009 94 10000 3.09 190 10:53 12.04.2021
395 Rain 20 1009 94 10000 3.09 190 10:28 12.04.2021
396 Rain 20 1009 94 10000 3.09 190 10:28 12.04.2021
397 Rain 19 1009 94 10000 4.12 160 09:54 12.04.2021
398 Rain 19 1009 94 10000 4.12 160 09:31 12.04.2021
399 Rain 19 1011 94 10000 3.09 180 08:58 12.04.2021
400 Rain 19 1013 88 6437 3.09 260 08:22 12.04.2021
401 Clouds 21 1012 78 9656 1.54 350 07:30 12.04.2021
402 Rain 21 1012 88 10000 5.98 145 06:47 12.04.2021
403 Rain 21 1012 88 10000 2.57 70 05:48 12.04.2021
404 Clouds 20 1011 88 10000 2.57 0 03:58 12.04.2021
405 Rain 19 1012 88 10000 6.69 360 00:46 12.04.2021
406 Rain 19 1012 88 6437 6.69 350 00:23 12.04.2021
407 Rain 23 1011 73 10000 7.2 360 23:44 11.04.2021
408 Rain 28 1010 68 10000 7.2 10 23:22 11.04.2021
409 Clouds 31 1007 58 10000 9.26 220 22:39 11.04.2021
410 Clouds 31 1007 58 10000 9.26 220 22:20 11.04.2021
411 Clouds 32 1008 51 10000 6.69 230 21:45 11.04.2021
412 Clouds 31 1008 51 10000 6.69 230 21:24 11.04.2021
413 Clouds 31 1009 55 10000 8.23 220 20:49 11.04.2021
414 Clouds 31 1009 55 10000 8.23 220 20:25 11.04.2021
415 Clouds 30 1009 58 10000 6.69 180 19:44 11.04.2021
416 Clouds 30 1009 58 10000 6.69 180 19:21 11.04.2021
417 Clouds 30 1010 58 10000 4.63 200 18:59 11.04.2021
418 Clouds 30 1010 58 10000 4.63 200 18:41 11.04.2021
419 Clouds 30 1010 58 10000 4.63 200 18:22 11.04.2021
420 Clouds 29 1010 62 10000 6.17 200 17:43 11.04.2021
421 Clouds 29 1010 62 10000 5.14 190 17:24 11.04.2021
422 Clouds 28 1009 69 10000 6.17 180 16:46 11.04.2021
423 Clouds 28 1009 69 10000 6.17 180 16:22 11.04.2021
424 Clouds 27 1009 74 10000 6.17 180 15:48 11.04.2021
425 Clouds 27 1009 74 10000 6.17 180 15:26 11.04.2021
426 Clouds 26 1010 83 10000 4.63 170 14:52 11.04.2021
427 Clouds 25 1010 83 10000 4.63 170 14:30 11.04.2021
428 Clouds 25 1010 88 10000 3.6 170 13:47 11.04.2021
429 Clouds 24 1010 88 10000 3.6 170 13:28 11.04.2021
430 Clouds 24 1010 88 10000 3.6 160 12:48 11.04.2021
431 Clouds 24 1010 88 10000 3.6 160 12:21 11.04.2021
432 Clouds 24 1010 83 10000 3.09 170 11:49 11.04.2021
433 Clouds 24 1010 83 10000 3.09 170 11:22 11.04.2021
434 Clouds 24 1010 83 10000 4.12 160 10:47 11.04.2021
435 Clouds 24 1010 83 10000 4.12 160 10:47 11.04.2021
436 Clouds 24 1010 83 10000 4.12 160 10:27 11.04.2021
437 Clouds 24 1012 78 10000 2.06 110 09:56 11.04.2021
438 Clouds 24 1012 78 10000 2.06 110 09:32 11.04.2021
439 Clouds 23 1012 78 10000 2.57 110 08:42 11.04.2021
440 Clouds 23 1013 78 10000 3.09 100 08:21 11.04.2021
441 Clouds 23 1013 68 10000 4.12 80 07:21 11.04.2021
442 Clouds 23 1014 68 10000 2.06 0 06:50 11.04.2021
443 Clouds 24 1015 78 10000 5.14 350 05:41 11.04.2021
444 Clouds 24 1014 88 10000 2.06 140 05:19 11.04.2021
445 Clouds 25 1014 83 10000 4.12 150 04:34 11.04.2021
446 Clouds 25 1013 33 10000 1.34 137 01:45 11.04.2021
447 Clouds 27 1012 69 10000 7.2 140 00:33 11.04.2021
448 Clouds 27 1012 65 10000 4.63 150 23:47 10.04.2021
449 Clouds 28 1012 65 10000 4.63 150 23:24 10.04.2021
450 Clouds 28 1013 65 10000 6.17 130 22:43 10.04.2021
451 Clouds 28 1013 65 10000 6.17 130 22:20 10.04.2021
452 Clouds 28 1013 65 10000 6.17 130 22:20 10.04.2021
453 Clouds 28 1013 65 10000 6.17 130 21:40 10.04.2021
454 Clouds 28 1013 65 10000 6.17 130 21:20 10.04.2021
455 Clouds 28 1014 65 10000 7.2 120 20:42 10.04.2021
456 Clouds 28 1014 65 10000 7.2 120 20:23 10.04.2021
457 Clouds 28 1015 61 10000 5.66 160 19:44 10.04.2021
458 Clouds 28 1015 61 10000 5.66 160 19:25 10.04.2021
459 Clouds 28 1015 61 10000 5.66 160 19:25 10.04.2021
460 Clouds 28 1015 61 10000 6.69 180 18:50 10.04.2021
461 Clouds 28 1015 61 10000 6.69 180 18:28 10.04.2021
462 Clouds 27 1015 61 10000 7.2 140 17:38 10.04.2021
463 Clouds 27 1014 65 10000 7.72 140 16:57 10.04.2021
464 Clouds 26 1014 65 10000 7.72 140 16:27 10.04.2021
465 Clouds 26 1014 69 10000 6.69 140 15:54 10.04.2021
466 Clouds 25 1014 69 10000 6.69 140 15:23 10.04.2021
467 Clouds 24 1014 73 10000 3.6 150 14:42 10.04.2021
468 Clouds 23 1014 73 10000 3.6 150 14:19 10.04.2021
469 Clouds 23 1014 73 10000 3.6 150 13:42 10.04.2021
470 Clouds 23 1014 73 10000 4.12 140 12:53 10.04.2021
471 Clouds 22 1014 73 10000 4.12 140 12:28 10.04.2021
472 Rain 23 1014 73 10000 4.12 140 11:49 10.04.2021
473 Rain 22 1014 73 10000 4.12 140 11:25 10.04.2021
474 Rain 22 1014 73 10000 4.12 140 11:25 10.04.2021
475 Clouds 22 1015 68 10000 5.66 140 10:52 10.04.2021
476 Clouds 22 1015 68 10000 5.66 140 10:31 10.04.2021
477 Clouds 22 1016 73 10000 3.09 130 09:48 10.04.2021
478 Clouds 22 1016 73 10000 3.09 130 09:20 10.04.2021
479 Clouds 22 1016 73 10000 3.09 130 09:20 10.04.2021
480 Clouds 22 1017 73 10000 2.57 120 08:48 10.04.2021
481 Clouds 22 1017 73 10000 2.57 120 08:29 10.04.2021
482 Clouds 22 1017 73 10000 2.57 120 08:29 10.04.2021
483 Clouds 22 1017 73 10000 3.6 90 07:38 10.04.2021
484 Clouds 23 1017 73 10000 3.6 90 07:19 10.04.2021
485 Clouds 23 1018 73 10000 5.14 90 06:24 10.04.2021
486 Rain 23 1017 73 10000 4.63 110 03:49 10.04.2021
487 Clouds 23 1017 64 10000 4.63 110 02:51 10.04.2021
488 Clouds 23 1017 64 10000 4.63 110 02:21 10.04.2021
489 Clouds 25 1016 57 10000 7.2 120 00:43 10.04.2021
490 Rain 25 1016 57 10000 7.2 120 00:25 10.04.2021
491 Clouds 26 1016 57 10000 7.2 150 23:41 09.04.2021
492 Clouds 26 1016 53 10000 7.72 140 22:59 09.04.2021
493 Clouds 26 1016 53 10000 7.72 140 22:38 09.04.2021
494 Clouds 26 1017 54 10000 6.17 110 21:56 09.04.2021
495 Clouds 27 1017 54 10000 6.17 110 21:38 09.04.2021
496 Clouds 27 1017 54 10000 6.17 110 21:18 09.04.2021
497 Clouds 27 1017 54 10000 7.2 130 20:42 09.04.2021
498 Clouds 27 1017 54 10000 7.2 130 20:22 09.04.2021
499 Clouds 27 1017 54 10000 7.2 130 19:54 09.04.2021
500 Clouds 27 1017 54 10000 7.2 130 19:36 09.04.2021
501 Clouds 27 1017 54 10000 7.2 130 19:18 09.04.2021
502 Clouds 27 1018 57 10000 5.66 130 18:41 09.04.2021
503 Clouds 26 1018 57 10000 5.66 130 18:19 09.04.2021
504 Clouds 27 1018 57 10000 3.6 120 17:37 09.04.2021
505 Clouds 26 1018 61 10000 3.6 150 16:56 09.04.2021
506 Clouds 26 1018 61 10000 3.6 150 16:35 09.04.2021
507 Clouds 25 1017 64 10000 3.6 120 15:52 09.04.2021
508 Clouds 25 1017 64 10000 3.6 120 15:34 09.04.2021
509 Clouds 23 1017 73 10000 1.54 140 14:58 09.04.2021
510 Clouds 23 1017 73 10000 1.54 140 14:39 09.04.2021
511 Clouds 21 1016 73 10000 3.68 144 13:52 09.04.2021
512 Clouds 21 1016 73 10000 3.9 154 13:25 09.04.2021
513 Clouds 20 1016 78 10000 2.57 120 12:51 09.04.2021
514 Clouds 20 1016 78 10000 2.57 120 12:32 09.04.2021
515 Clouds 20 1016 83 10000 3.68 143 11:46 09.04.2021
516 Clouds 21 1016 83 10000 3.79 131 11:22 09.04.2021
517 Clouds 21 1016 78 10000 1.54 140 10:47 09.04.2021
518 Clouds 21 1016 78 10000 1.54 140 10:20 09.04.2021
519 Clouds 21 1016 78 10000 2.57 120 09:49 09.04.2021
520 Clouds 21 1016 78 10000 2.57 120 09:22 09.04.2021
521 Clear 22 1016 73 10000 3.6 110 08:51 09.04.2021
522 Clear 22 1016 73 10000 4.12 120 07:38 09.04.2021
523 Clear 22 1016 68 10000 4.63 120 06:34 09.04.2021
524 Clear 22 1017 64 10000 4.12 120 05:56 09.04.2021
525 Rain 22 1017 60 10000 5.14 100 03:53 09.04.2021
526 Clouds 23 1016 53 10000 5.14 110 01:35 09.04.2021
527 Clouds 24 1016 47 10000 4.12 110 00:37 09.04.2021
528 Clouds 25 1016 47 10000 4.12 110 00:19 09.04.2021
529 Clouds 25 1016 47 10000 4.63 120 23:21 08.04.2021
530 Clouds 26 1017 44 10000 4.12 150 22:43 08.04.2021
531 Clouds 26 1017 44 10000 4.12 150 22:22 08.04.2021
532 Clouds 26 1017 47 10000 2.06 0 21:55 08.04.2021
533 Clouds 26 1017 47 10000 2.06 0 21:55 08.04.2021
534 Clouds 26 1017 47 10000 2.06 0 21:55 08.04.2021
535 Clouds 26 1017 47 10000 2.06 0 21:36 08.04.2021
536 Clouds 26 1017 47 10000 2.06 0 21:18 08.04.2021
537 Clouds 26 1017 50 10000 5.66 120 20:49 08.04.2021
538 Clouds 26 1017 50 10000 5.66 120 20:26 08.04.2021
539 Clouds 26 1018 50 10000 4.63 120 19:45 08.04.2021
540 Clouds 26 1018 50 10000 4.63 120 19:19 08.04.2021
541 Clouds 26 1018 53 10000 4.63 110 18:46 08.04.2021
542 Clouds 26 1018 53 10000 4.63 110 18:21 08.04.2021
543 Clouds 25 1018 53 10000 5.66 130 17:49 08.04.2021
544 Clouds 25 1018 53 10000 5.66 130 17:24 08.04.2021
545 Clouds 25 1018 57 10000 5.66 130 16:51 08.04.2021
546 Clouds 24 1018 57 10000 5.66 130 16:31 08.04.2021
547 Clouds 24 1017 64 10000 4.12 110 15:48 08.04.2021
548 Clouds 24 1017 64 10000 4.12 110 15:28 08.04.2021
549 Clouds 22 1017 73 10000 2.57 100 14:46 08.04.2021
550 Clouds 20 1017 73 10000 2.57 100 14:27 08.04.2021
551 Clouds 20 1017 77 10000 3.79 136 13:57 08.04.2021
552 Clouds 20 1017 77 10000 3.79 136 13:39 08.04.2021
553 Clouds 20 1017 77 10000 3.65 133 13:21 08.04.2021
554 Clouds 18 1016 77 10000 3.65 133 12:38 08.04.2021
555 Clouds 18 1016 77 10000 2.86 135 12:18 08.04.2021
556 Clouds 20 1016 77 10000 2.86 135 11:43 08.04.2021
557 Clear 21 1016 68 10000 2.06 120 10:59 08.04.2021
558 Clear 21 1016 68 10000 2.06 120 10:36 08.04.2021
559 Clear 21 1016 68 10000 2.06 120 10:18 08.04.2021
560 Clear 20 1016 73 10000 2.57 110 09:41 08.04.2021
561 Clouds 21 1016 64 10000 2.57 110 08:46 08.04.2021
562 Clouds 21 1016 64 10000 2.57 110 08:28 08.04.2021
563 Clouds 21 1017 64 10000 2.57 120 07:57 08.04.2021
564 Clouds 21 1017 64 10000 2.57 120 07:35 08.04.2021
565 Clouds 21 1018 60 10000 4.63 110 03:48 08.04.2021
566 Clouds 23 1017 56 10000 4.12 130 01:19 08.04.2021
567 Clouds 25 1017 50 10000 6.17 110 23:59 07.04.2021
568 Clouds 25 1017 50 10000 6.17 110 23:39 07.04.2021
569 Clouds 25 1017 50 10000 6.17 110 23:21 07.04.2021
570 Clouds 25 1018 47 10000 6.17 100 22:47 07.04.2021
571 Clouds 25 1018 47 10000 6.17 100 22:29 07.04.2021
572 Clouds 25 1018 47 10000 6.69 100 21:44 07.04.2021
573 Clouds 25 1018 47 10000 6.69 100 21:24 07.04.2021
574 Clouds 26 1019 44 10000 5.14 80 20:43 07.04.2021
575 Clouds 26 1019 44 10000 5.14 80 20:21 07.04.2021
576 Clouds 26 1019 41 10000 3.6 40 19:44 07.04.2021
577 Clouds 26 1019 41 10000 3.6 40 19:26 07.04.2021
578 Clouds 26 1020 44 10000 5.66 80 18:47 07.04.2021
579 Clouds 26 1020 44 10000 5.66 80 18:20 07.04.2021
580 Clouds 25 1020 50 10000 4.63 90 17:55 07.04.2021
581 Clouds 25 1020 50 10000 4.63 90 17:36 07.04.2021
582 Clouds 24 1019 50 10000 4.63 110 16:49 07.04.2021
583 Clouds 24 1019 50 10000 4.63 110 16:24 07.04.2021
584 Clouds 24 1019 56 10000 1.54 50 15:59 07.04.2021
585 Clouds 24 1019 56 10000 1.54 50 15:39 07.04.2021
586 Clouds 22 1019 64 10000 3.17 86 14:57 07.04.2021
587 Clouds 20 1019 64 10000 3.17 86 14:32 07.04.2021
588 Clouds 17 1018 72 10000 2.81 86 13:52 07.04.2021
589 Clouds 17 1018 72 10000 2.94 91 13:24 07.04.2021
590 Clouds 17 1018 72 10000 2.94 91 12:53 07.04.2021
591 Clouds 17 1018 72 10000 3.05 90 12:25 07.04.2021
592 Clouds 16 1018 77 10000 3.05 90 11:55 07.04.2021
593 Clouds 16 1018 77 10000 3.47 93 11:26 07.04.2021
594 Clouds 17 1018 72 10000 3.47 93 10:52 07.04.2021
595 Clouds 17 1018 72 10000 3.54 100 10:21 07.04.2021
596 Clear 18 1019 68 10000 3.54 100 09:43 07.04.2021
597 Clear 18 1019 68 10000 3.89 99 09:25 07.04.2021
598 Clear 20 1019 60 10000 2.57 90 08:42 07.04.2021
599 Clear 20 1019 60 10000 2.57 90 08:21 07.04.2021
600 Clear 21 1020 56 10000 3.6 110 07:43 07.04.2021
601 Clear 21 1020 56 10000 3.6 110 07:24 07.04.2021
602 Clouds 21 1020 60 10000 3.09 110 06:27 07.04.2021
603 Clear 22 1020 60 10000 5.66 100 04:23 07.04.2021
604 Clouds 23 1018 56 10000 5.66 80 00:22 07.04.2021
605 Clouds 24 1018 53 10000 5.66 70 23:47 06.04.2021
606 Clouds 24 1018 53 10000 5.66 70 23:21 06.04.2021
607 Clouds 24 1019 53 10000 5.14 70 22:48 06.04.2021
608 Clouds 24 1019 53 10000 5.14 70 22:19 06.04.2021
609 Clouds 25 1019 50 10000 5.14 80 21:42 06.04.2021
610 Clouds 25 1019 50 10000 5.14 80 21:22 06.04.2021
611 Clouds 25 1020 53 10000 5.66 80 20:54 06.04.2021
612 Clouds 25 1020 53 10000 5.66 80 20:25 06.04.2021
613 Clouds 25 1021 53 10000 4.63 90 19:58 06.04.2021
614 Clouds 25 1021 53 10000 4.63 90 19:58 06.04.2021
615 Clouds 25 1021 53 10000 4.63 90 19:35 06.04.2021
616 Clouds 25 1021 53 10000 3.6 60 18:57 06.04.2021
617 Clouds 25 1021 53 10000 3.6 60 18:57 06.04.2021
618 Clouds 25 1021 53 10000 3.6 60 18:39 06.04.2021
619 Clouds 25 1021 53 10000 3.6 60 18:19 06.04.2021
620 Clouds 24 1021 50 10000 2.57 0 17:41 06.04.2021
621 Clouds 24 1021 50 10000 2.57 0 17:18 06.04.2021
622 Clouds 24 1021 49 10000 1.54 80 16:43 06.04.2021
623 Clear 23 1020 53 10000 2.06 350 15:59 06.04.2021
624 Clear 23 1020 53 10000 2.06 350 15:25 06.04.2021
625 Clouds 20 1020 68 10000 1.54 360 14:43 06.04.2021
626 Clouds 18 1020 68 10000 1.54 360 14:24 06.04.2021
627 Clouds 17 1020 68 10000 2.06 350 13:46 06.04.2021
628 Clouds 17 1020 68 10000 2.06 350 13:25 06.04.2021
629 Clouds 17 1019 72 10000 3.5 76 12:45 06.04.2021
630 Clouds 17 1019 72 10000 2.98 80 12:27 06.04.2021
631 Clouds 16 1019 77 10000 2.98 80 11:55 06.04.2021
632 Clouds 16 1019 77 10000 2.98 80 11:36 06.04.2021
633 Clouds 16 1019 77 10000 2.82 77 11:18 06.04.2021
634 Clear 16 1019 77 10000 2.82 77 10:39 06.04.2021
635 Clear 16 1019 77 10000 3.01 77 10:21 06.04.2021
636 Clouds 17 1019 68 10000 3.01 77 09:43 06.04.2021
637 Clouds 17 1019 68 10000 3.2 80 09:20 06.04.2021
638 Clouds 19 1019 63 10000 3.86 89 08:26 06.04.2021
639 Clouds 20 1020 60 10000 2.06 80 07:22 06.04.2021
640 Clouds 20 1020 56 10000 4.12 90 06:51 06.04.2021
641 Clouds 21 1020 49 10000 4.12 90 03:54 06.04.2021
642 Clouds 22 1019 49 10000 6.17 70 00:49 06.04.2021
643 Clouds 23 1019 49 10000 6.17 70 00:22 06.04.2021
644 Clouds 23 1019 46 10000 6.69 100 23:52 05.04.2021
645 Clouds 23 1019 46 10000 6.69 100 23:30 05.04.2021
646 Clouds 23 1020 46 10000 6.69 80 22:58 05.04.2021
647 Clouds 24 1020 46 10000 6.69 80 22:38 05.04.2021
648 Clouds 24 1020 43 10000 6.69 80 21:50 05.04.2021
649 Clouds 24 1020 43 10000 6.69 80 21:27 05.04.2021
650 Clouds 25 1021 43 10000 4.63 40 20:49 05.04.2021
651 Clouds 24 1021 43 10000 4.63 40 20:31 05.04.2021
652 Clouds 24 1021 43 10000 5.14 50 19:55 05.04.2021
653 Clouds 25 1021 43 10000 5.14 50 19:36 05.04.2021
654 Clouds 25 1021 43 10000 5.14 50 19:18 05.04.2021
655 Clouds 24 1022 41 10000 3.6 90 18:40 05.04.2021
656 Clouds 24 1022 41 10000 3.6 90 18:40 05.04.2021
657 Clouds 24 1022 41 10000 3.6 90 18:19 05.04.2021
658 Clouds 24 1022 41 10000 3.6 90 18:19 05.04.2021
659 Clouds 24 1022 46 10000 4.12 60 17:47 05.04.2021
660 Clouds 23 1022 46 10000 4.12 60 17:23 05.04.2021
661 Clouds 23 1022 46 10000 5.14 40 16:45 05.04.2021
662 Clouds 23 1022 46 10000 5.14 40 16:45 05.04.2021
663 Clouds 23 1022 46 10000 5.14 40 16:45 05.04.2021
664 Clouds 23 1022 46 10000 5.14 40 16:22 05.04.2021
665 Clouds 23 1022 53 10000 2.57 30 15:57 05.04.2021
666 Clouds 22 1022 53 10000 2.57 30 15:32 05.04.2021
667 Clear 21 1021 59 10000 5.24 66 14:59 05.04.2021
668 Clear 20 1021 59 10000 5.24 66 14:36 05.04.2021
669 Clear 17 1021 63 10000 1.54 10 13:52 05.04.2021
670 Clear 17 1021 63 10000 1.54 10 13:27 05.04.2021
671 Clear 17 1021 59 10000 2.06 20 12:46 05.04.2021
672 Clear 17 1021 59 10000 2.06 20 12:25 05.04.2021
673 Clear 17 1021 59 10000 1.54 10 11:48 05.04.2021
674 Clear 17 1021 59 10000 1.54 10 11:28 05.04.2021
675 Clouds 19 1021 59 10000 2.06 30 10:55 05.04.2021
676 Clouds 19 1021 59 10000 2.06 30 10:29 05.04.2021
677 Clouds 19 1021 59 10000 2.06 30 09:48 05.04.2021
678 Clouds 20 1021 59 10000 2.06 30 09:26 05.04.2021
679 Clouds 20 1021 56 10000 1.54 40 08:46 05.04.2021
680 Clouds 20 1021 56 10000 1.54 40 08:26 05.04.2021
681 Clouds 20 1022 56 10000 2.57 40 07:38 05.04.2021
682 Clouds 20 1022 56 10000 2.57 40 07:18 05.04.2021
683 Clouds 21 1022 46 10000 2.57 40 03:42 05.04.2021
684 Clouds 22 1021 43 10000 4.63 40 00:54 05.04.2021
685 Clouds 23 1021 46 10000 6.17 70 23:53 04.04.2021
686 Clouds 23 1021 46 10000 6.17 70 23:31 04.04.2021
687 Clouds 23 1022 40 10000 7.2 80 22:57 04.04.2021
688 Clouds 23 1022 40 10000 7.2 80 22:34 04.04.2021
689 Clouds 23 1022 41 10000 6.69 70 21:56 04.04.2021
690 Clouds 24 1022 41 10000 6.69 70 21:21 04.04.2021
691 Clouds 23 1023 43 10000 5.66 50 20:42 04.04.2021
692 Clouds 23 1023 43 10000 5.66 50 20:20 04.04.2021
693 Clouds 24 1024 41 10000 6.17 50 19:40 04.04.2021
694 Clouds 24 1024 41 10000 6.17 50 19:19 04.04.2021
695 Clouds 23 1024 41 10000 6.17 90 18:50 04.04.2021
696 Clouds 23 1024 41 10000 6.17 90 18:24 04.04.2021
697 Clouds 23 1025 43 10000 5.66 50 17:58 04.04.2021
698 Clouds 23 1025 43 10000 5.66 50 17:25 04.04.2021
699 Clouds 23 1025 40 10000 6.17 50 16:56 04.04.2021
700 Clouds 23 1025 40 10000 6.17 50 16:37 04.04.2021
701 Clouds 22 1024 43 10000 4.63 50 15:51 04.04.2021
702 Clouds 22 1024 43 10000 4.63 50 15:31 04.04.2021
703 Clouds 21 1024 52 10000 2.57 40 14:39 04.04.2021
704 Clouds 21 1024 52 10000 2.57 40 14:19 04.04.2021
705 Clouds 20 1024 56 10000 3.09 50 13:27 04.04.2021
706 Clouds 20 1023 60 10000 2.57 20 12:51 04.04.2021
707 Clouds 20 1023 60 10000 2.57 20 12:28 04.04.2021
708 Clouds 20 1023 59 10000 2.57 30 11:49 04.04.2021
709 Clouds 20 1023 59 10000 2.57 30 11:30 04.04.2021
710 Clouds 20 1023 52 10000 2.57 30 10:47 04.04.2021
711 Clouds 20 1023 52 10000 2.57 30 10:23 04.04.2021
712 Clouds 19 1023 52 10000 3.09 0 09:44 04.04.2021
713 Clouds 19 1023 52 10000 3.09 0 09:20 04.04.2021
714 Clouds 20 1024 43 10000 3.09 60 08:44 04.04.2021
715 Clouds 20 1024 43 10000 3.09 60 08:24 04.04.2021
716 Clouds 20 1025 49 10000 3.6 60 06:39 04.04.2021
717 Clouds 20 1025 46 10000 4.12 50 05:44 04.04.2021
718 Clouds 21 1024 56 10000 4.12 50 02:20 04.04.2021
719 Clouds 21 1024 46 10000 6.69 50 00:48 04.04.2021
720 Clouds 22 1024 46 10000 6.69 50 00:18 04.04.2021
721 Clouds 22 1024 40 10000 5.14 60 23:41 03.04.2021
722 Clouds 23 1024 46 10000 5.66 60 22:56 03.04.2021
723 Clouds 23 1024 46 10000 5.66 60 22:37 03.04.2021
724 Clouds 23 1024 46 10000 5.66 60 22:18 03.04.2021
725 Clouds 23 1024 49 10000 7.2 50 21:39 03.04.2021
726 Clouds 23 1024 49 10000 7.2 50 21:21 03.04.2021
727 Clouds 22 1025 53 10000 8.23 60 20:40 03.04.2021
728 Clouds 22 1025 53 10000 8.23 60 20:20 03.04.2021
729 Clouds 22 1025 49 10000 5.66 50 19:43 03.04.2021
730 Clouds 22 1025 49 10000 5.66 50 19:19 03.04.2021
731 Clouds 22 1025 46 10000 6.69 50 18:45 03.04.2021
732 Clouds 22 1025 46 10000 6.69 50 18:18 03.04.2021
733 Clouds 22 1025 49 10000 6.69 60 17:41 03.04.2021
734 Clouds 22 1025 49 10000 6.69 60 17:21 03.04.2021
735 Clouds 21 1026 62 10000 1.79 43 16:43 03.04.2021
736 Clouds 21 1025 43 10000 6.17 70 16:21 03.04.2021
737 Clouds 21 1025 56 10000 4.12 50 15:46 03.04.2021
738 Clouds 20 1025 56 10000 4.12 50 15:21 03.04.2021
739 Clouds 20 1024 45 10000 5.66 40 14:42 03.04.2021
740 Clouds 20 1024 45 10000 5.66 40 14:20 03.04.2021
741 Clouds 19 1024 48 10000 3.6 20 13:48 03.04.2021
742 Clouds 19 1024 48 10000 3.6 20 13:23 03.04.2021
743 Clouds 19 1023 45 10000 6.69 40 12:49 03.04.2021
744 Clouds 19 1023 59 10000 4.12 30 12:21 03.04.2021
745 Clouds 19 1023 48 10000 4.12 30 11:38 03.04.2021
746 Clouds 19 1022 63 10000 3.09 320 10:51 03.04.2021
747 Clouds 19 1022 63 10000 3.09 320 10:31 03.04.2021
748 Clouds 20 1022 56 10000 4.12 20 09:54 03.04.2021
749 Clouds 20 1022 56 10000 4.12 20 09:28 03.04.2021
750 Clouds 20 1023 52 10000 6.17 60 08:47 03.04.2021
751 Clouds 20 1023 52 10000 6.17 60 08:28 03.04.2021
752 Clouds 20 1023 45 10000 5.66 30 07:28 03.04.2021
753 Clouds 20 1023 45 10000 4.12 30 05:50 03.04.2021
754 Clouds 20 1022 49 10000 6.17 30 03:52 03.04.2021
755 Clouds 20 1021 52 10000 7.2 30 02:51 03.04.2021
756 Clear 20 1021 49 10000 8.23 30 02:25 03.04.2021
757 Clouds 22 1019 60 10000 8.23 40 00:21 03.04.2021
758 Clouds 23 1019 36 10000 6.69 30 23:48 02.04.2021
759 Clouds 24 1019 36 10000 6.69 30 23:24 02.04.2021
760 Clouds 24 1019 43 10000 7.72 30 22:53 02.04.2021
761 Clouds 24 1019 43 10000 7.72 30 22:34 02.04.2021
762 Clouds 24 1019 46 10000 5.66 50 21:46 02.04.2021
763 Clouds 24 1019 46 10000 5.66 50 21:24 02.04.2021
764 Clouds 25 1019 41 10000 7.2 40 20:52 02.04.2021
765 Clouds 25 1019 41 10000 7.2 40 20:33 02.04.2021
766 Clouds 25 1020 41 10000 4.63 20 19:58 02.04.2021
767 Clouds 25 1020 41 10000 4.63 20 19:39 02.04.2021
768 Clouds 25 1020 41 10000 4.63 20 19:20 02.04.2021
769 Clouds 24 1020 46 10000 4.12 30 18:39 02.04.2021
770 Clouds 24 1020 46 10000 4.12 30 18:39 02.04.2021
771 Clouds 24 1020 46 10000 4.12 30 18:20 02.04.2021
772 Clouds 23 1020 46 10000 5.14 360 17:37 02.04.2021
773 Clouds 20 1019 55 10000 6.69 330 16:51 02.04.2021
774 Clouds 20 1019 55 10000 6.69 330 16:50 02.04.2021
775 Clouds 18 1019 55 10000 6.69 330 16:22 02.04.2021
776 Clear 18 1019 55 10000 5.66 330 15:35 02.04.2021
777 Clouds 17 1018 55 10000 5.66 330 14:57 02.04.2021
778 Clouds 16 1018 55 10000 5.66 330 14:31 02.04.2021
779 Clouds 16 1018 55 10000 5.14 350 13:44 02.04.2021
780 Clouds 16 1018 55 10000 5.14 350 13:25 02.04.2021
781 Clouds 18 1017 52 10000 6.17 340 12:41 02.04.2021
782 Clouds 18 1017 52 10000 6.17 340 12:20 02.04.2021
783 Clouds 18 1017 59 10000 5.66 340 11:56 02.04.2021
784 Clouds 18 1017 59 10000 5.66 340 11:21 02.04.2021
785 Clouds 19 1016 59 10000 5.14 340 10:51 02.04.2021
786 Clouds 19 1016 59 10000 5.14 340 10:30 02.04.2021
787 Clouds 19 1017 59 10000 5.66 360 09:53 02.04.2021
788 Clouds 20 1016 60 10000 4.12 350 09:27 02.04.2021
789 Clouds 20 1017 56 10000 4.12 10 08:58 02.04.2021
790 Clouds 21 1017 56 10000 4.12 10 08:33 02.04.2021
791 Clouds 21 1017 60 10000 5.14 360 07:31 02.04.2021
792 Clouds 21 1017 64 10000 4.12 360 06:53 02.04.2021
793 Clouds 21 1017 78 10000 5.14 350 05:59 02.04.2021
794 Clouds 23 1014 78 10000 7.72 30 02:47 02.04.2021
795 Clouds 25 1013 73 4828 5.82 77 00:53 02.04.2021
796 Clouds 25 1013 73 4828 5.82 77 00:53 02.04.2021
797 Clouds 27 1013 65 10000 3.6 160 00:23 02.04.2021
798 Clouds 27 1013 69 10000 5.66 130 23:41 01.04.2021
799 Clouds 27 1013 69 10000 5.66 130 23:18 01.04.2021
800 Clouds 29 1014 65 10000 4.63 140 22:21 01.04.2021
801 Clear 29 1015 42 10000 3.09 300 21:51 01.04.2021
802 Clear 30 1015 42 10000 3.09 300 21:29 01.04.2021
803 Clouds 29 1016 61 10000 2.57 150 20:54 01.04.2021
804 Clouds 29 1016 61 10000 2.57 150 20:28 01.04.2021
805 Clouds 29 1017 51 10000 1.77 126 19:56 01.04.2021
806 Clouds 29 1017 51 10000 1.77 126 19:36 01.04.2021
807 Clouds 28 1018 57 10000 3.09 300 18:47 01.04.2021
808 Clouds 28 1018 57 10000 3.09 300 18:19 01.04.2021
809 Clouds 28 1018 61 10000 1.54 0 17:54 01.04.2021
810 Clouds 28 1018 61 10000 1.54 0 17:33 01.04.2021
811 Clouds 27 1017 73 10000 2.05 318 16:54 01.04.2021
812 Clouds 27 1017 73 10000 2.05 318 16:34 01.04.2021
813 Clouds 26 1017 69 10000 1.54 320 15:49 01.04.2021
814 Clouds 25 1017 69 10000 1.54 320 15:20 01.04.2021
815 Clouds 24 1018 73 10000 2.7 326 14:48 01.04.2021
816 Clouds 23 1018 73 10000 2.73 296 14:28 01.04.2021
817 Clouds 22 1017 83 10000 2.73 296 13:58 01.04.2021
818 Clouds 22 1017 83 10000 2.73 296 13:31 01.04.2021
819 Clouds 22 1017 88 10000 2.06 350 12:56 01.04.2021
820 Clouds 22 1017 88 10000 2.06 350 12:34 01.04.2021
821 Clouds 22 1017 88 10000 2.57 330 11:58 01.04.2021
822 Clouds 23 1017 88 10000 2.57 330 11:40 01.04.2021
823 Clouds 23 1017 88 10000 2.57 330 11:18 01.04.2021
824 Clouds 23 1017 83 10000 1.54 330 10:45 01.04.2021
825 Clouds 23 1017 83 10000 1.54 330 10:24 01.04.2021
826 Clouds 24 1018 83 10000 2.06 330 09:32 01.04.2021
827 Clear 23 1018 78 10000 1.38 123 08:54 01.04.2021
828 Clear 23 1018 78 10000 1.9 107 08:28 01.04.2021
829 Clouds 23 1019 83 10000 1.54 0 07:22 01.04.2021
830 Clouds 24 1019 83 10000 1.54 110 06:56 01.04.2021
831 Clouds 24 1019 78 10000 3.12 110 05:34 01.04.2021
832 Clouds 25 1018 69 10000 2.06 140 03:20 01.04.2021
833 Clouds 27 1017 65 10000 6.69 120 00:19 01.04.2021
834 Clouds 28 1018 65 10000 5.66 120 23:40 31.03.2021
835 Clouds 28 1018 61 10000 6.17 130 22:45 31.03.2021
836 Clouds 29 1018 61 10000 6.17 130 22:23 31.03.2021
837 Clouds 29 1019 48 10000 6.17 130 21:57 31.03.2021
838 Clouds 29 1019 48 10000 6.17 130 21:39 31.03.2021
839 Clouds 29 1019 48 10000 6.17 130 21:19 31.03.2021
840 Clouds 30 1020 51 10000 6.69 130 20:40 31.03.2021
841 Clouds 30 1020 51 10000 6.69 130 20:21 31.03.2021
842 Clouds 29 1020 54 10000 7.72 140 19:42 31.03.2021
843 Clouds 29 1020 54 10000 7.72 140 19:20 31.03.2021
844 Clouds 29 1021 61 10000 6.17 120 18:55 31.03.2021
845 Clouds 29 1021 61 10000 6.17 120 18:35 31.03.2021
846 Clouds 29 1021 61 10000 7.72 120 17:44 31.03.2021
847 Clouds 29 1021 61 10000 7.72 120 17:20 31.03.2021
848 Clouds 28 1021 69 10000 7.72 120 16:55 31.03.2021
849 Clouds 28 1021 69 10000 7.72 120 16:35 31.03.2021
850 Clouds 27 1020 74 10000 6.17 130 15:54 31.03.2021
851 Clouds 27 1020 74 10000 6.17 130 15:22 31.03.2021
852 Clouds 26 1020 78 10000 5.66 120 14:53 31.03.2021
853 Clouds 26 1020 78 10000 5.66 120 14:26 31.03.2021
854 Clouds 25 1020 78 10000 4.63 110 13:57 31.03.2021
855 Clouds 25 1020 78 10000 4.63 110 13:24 31.03.2021
856 Clouds 25 1019 78 10000 5.14 120 12:41 31.03.2021
857 Clouds 25 1019 78 10000 5.14 120 12:18 31.03.2021
858 Clouds 25 1019 83 10000 5.14 120 11:23 31.03.2021
859 Clouds 25 1019 78 10000 3.6 120 10:51 31.03.2021
860 Clouds 25 1019 78 10000 3.6 120 10:28 31.03.2021
861 Clouds 25 1020 78 10000 4.63 120 09:58 31.03.2021
862 Clouds 25 1020 78 10000 4.63 120 09:33 31.03.2021
863 Clouds 25 1020 78 10000 4.63 120 09:33 31.03.2021
864 Clouds 25 1020 78 10000 5.66 100 08:48 31.03.2021
865 Clouds 25 1020 78 10000 5.66 100 08:30 31.03.2021
866 Clouds 26 1021 78 10000 5.66 100 07:41 31.03.2021
867 Clouds 26 1021 78 10000 7.72 100 05:52 31.03.2021
868 Clouds 26 1020 69 10000 4.12 100 02:42 31.03.2021
869 Clouds 27 1020 61 10000 6.69 110 00:54 31.03.2021
870 Clouds 27 1020 61 10000 6.69 110 00:26 31.03.2021
871 Clouds 28 1020 61 10000 6.17 100 23:58 30.03.2021
872 Clouds 29 1020 61 10000 6.17 100 23:27 30.03.2021
873 Clouds 29 1020 65 10000 7.72 100 22:55 30.03.2021
874 Clouds 29 1020 65 10000 7.72 100 22:37 30.03.2021
875 Clouds 29 1020 65 10000 7.72 100 22:19 30.03.2021
876 Clouds 29 1020 58 10000 5.66 110 21:38 30.03.2021
877 Clouds 29 1020 58 10000 5.66 110 21:18 30.03.2021
878 Clouds 29 1021 65 10000 4.63 100 20:45 30.03.2021
879 Clouds 29 1021 65 10000 4.63 100 20:26 30.03.2021
880 Clouds 28 1022 65 10000 7.2 100 19:43 30.03.2021
881 Clouds 28 1022 65 10000 7.2 100 19:18 30.03.2021
882 Clouds 28 1022 61 10000 7.2 110 18:33 30.03.2021
883 Clouds 27 1022 69 10000 7.72 100 17:49 30.03.2021
884 Clouds 27 1022 69 10000 7.72 100 17:31 30.03.2021
885 Clouds 28 1022 69 10000 7.2 100 16:47 30.03.2021
886 Clouds 27 1022 69 10000 7.2 100 16:28 30.03.2021
887 Clouds 27 1021 69 10000 6.17 100 15:39 30.03.2021
888 Clouds 27 1021 69 10000 6.17 100 15:19 30.03.2021
889 Clouds 26 1021 78 10000 3.6 100 14:45 30.03.2021
890 Clouds 25 1021 78 10000 3.6 100 14:21 30.03.2021
891 Clouds 25 1020 78 10000 3.09 120 13:51 30.03.2021
892 Clouds 25 1020 78 10000 3.09 120 13:30 30.03.2021
893 Clouds 25 1020 78 10000 3.09 100 12:42 30.03.2021
894 Clouds 25 1020 78 10000 3.09 100 12:42 30.03.2021
895 Clouds 25 1020 78 10000 3.09 100 12:23 30.03.2021
896 Clear 25 1019 78 10000 4.12 100 11:48 30.03.2021
897 Clear 25 1019 78 10000 4.12 100 11:20 30.03.2021
898 Clouds 25 1019 83 10000 4.12 80 10:43 30.03.2021
899 Clouds 25 1019 83 10000 4.12 80 10:19 30.03.2021
900 Clouds 24 1019 78 10000 4.63 100 09:43 30.03.2021
901 Clouds 24 1019 78 10000 4.63 100 09:43 30.03.2021
902 Clouds 24 1019 78 10000 4.63 100 09:24 30.03.2021
903 Clouds 24 1020 78 10000 4.63 80 08:51 30.03.2021
904 Clouds 25 1020 78 10000 4.63 80 08:31 30.03.2021
905 Clouds 24 1020 78 10000 5.14 90 07:45 30.03.2021
906 Clouds 25 1020 73 10000 6.17 80 06:56 30.03.2021
907 Clouds 25 1020 73 10000 4.12 70 05:25 30.03.2021
908 Clouds 25 1019 65 10000 4.63 90 03:23 30.03.2021
909 Clouds 28 1018 57 10000 4.12 120 00:22 30.03.2021
910 Clouds 28 1018 58 10000 5.14 140 23:28 29.03.2021
911 Clouds 29 1019 61 10000 5.66 110 22:43 29.03.2021
912 Clouds 29 1019 61 10000 5.14 150 21:59 29.03.2021
913 Clouds 29 1019 61 10000 5.14 150 21:37 29.03.2021
914 Clouds 29 1020 61 10000 6.17 120 20:59 29.03.2021
915 Clouds 29 1020 61 10000 6.17 120 20:37 29.03.2021
916 Clouds 29 1020 61 10000 4.63 130 19:57 29.03.2021
917 Clouds 29 1020 61 10000 4.63 130 19:34 29.03.2021
918 Clouds 28 1020 65 10000 4.12 130 18:58 29.03.2021
919 Clouds 28 1020 65 10000 4.12 130 18:39 29.03.2021
920 Clouds 28 1020 65 10000 4.12 130 18:20 29.03.2021
921 Clouds 28 1020 65 10000 4.12 130 18:20 29.03.2021
922 Clouds 28 1020 61 10000 4.86 130 17:38 29.03.2021
923 Clear 28 1020 69 10000 1.54 0 16:59 29.03.2021
924 Clear 28 1020 69 10000 1.54 0 16:35 29.03.2021
925 Clouds 27 1020 73 10000 2.06 40 15:51 29.03.2021
926 Clouds 26 1020 73 10000 2.06 40 15:31 29.03.2021
927 Clouds 24 1019 83 10000 1.92 158 14:54 29.03.2021
928 Clouds 24 1019 83 10000 1.92 158 14:31 29.03.2021
929 Clouds 23 1019 83 10000 2.24 147 13:47 29.03.2021
930 Clouds 23 1019 83 10000 1.66 157 13:26 29.03.2021
931 Clouds 23 1019 83 10000 1.66 157 12:50 29.03.2021
932 Clouds 23 1018 88 10000 1.26 180 11:53 29.03.2021
933 Clouds 24 1018 88 10000 1.26 180 11:35 29.03.2021
934 Clouds 23 1019 83 10000 1.28 183 10:59 29.03.2021
935 Clouds 23 1019 83 10000 1.28 183 10:36 29.03.2021
936 Clouds 24 1019 83 10000 1.9 166 09:42 29.03.2021
937 Clouds 24 1019 78 10000 1.6 140 08:52 29.03.2021
938 Clouds 24 1019 78 10000 1.93 140 08:28 29.03.2021
939 Clouds 24 1020 83 10000 1.93 140 07:41 29.03.2021
940 Clouds 25 1020 83 10000 1.54 170 06:27 29.03.2021
941 Clouds 25 1019 73 10000 3.09 150 03:59 29.03.2021
942 Clouds 26 1018 69 10000 4.63 130 01:54 29.03.2021
943 Clouds 27 1018 65 10000 5.66 140 00:23 29.03.2021
944 Clouds 28 1018 65 10000 5.14 140 23:44 28.03.2021
945 Clouds 28 1018 65 10000 5.14 140 23:19 28.03.2021
946 Clouds 28 1019 65 10000 5.66 120 22:41 28.03.2021
947 Clouds 29 1019 65 10000 5.66 120 22:21 28.03.2021
948 Clouds 29 1019 61 10000 6.17 120 21:41 28.03.2021
949 Clouds 29 1019 61 10000 6.17 120 21:22 28.03.2021
950 Clouds 29 1020 61 10000 6.17 120 20:49 28.03.2021
951 Clouds 29 1020 61 10000 6.17 120 20:31 28.03.2021
952 Clouds 29 1020 61 10000 4.12 130 19:45 28.03.2021
953 Clouds 29 1020 61 10000 4.12 130 19:23 28.03.2021
954 Clouds 29 1021 61 10000 5.66 140 18:58 28.03.2021
955 Clouds 28 1021 61 10000 5.66 140 18:27 28.03.2021
956 Clouds 28 1021 61 10000 7.2 130 17:50 28.03.2021
957 Clouds 28 1021 61 10000 7.2 130 17:27 28.03.2021
958 Clouds 27 1020 65 10000 7.2 140 16:46 28.03.2021
959 Clouds 27 1020 65 10000 7.2 140 16:23 28.03.2021
960 Clouds 26 1020 73 10000 5.14 140 15:42 28.03.2021
961 Clouds 26 1020 73 10000 5.14 140 15:19 28.03.2021
962 Clouds 25 1019 73 10000 4.12 140 14:37 28.03.2021
963 Clouds 24 1018 83 10000 4.12 130 13:49 28.03.2021
964 Clouds 24 1018 83 10000 4.12 130 13:24 28.03.2021
965 Clouds 24 1018 83 10000 6.17 130 12:52 28.03.2021
966 Clouds 24 1018 83 10000 6.17 130 12:33 28.03.2021
967 Clouds 24 1018 78 10000 6.17 130 11:46 28.03.2021
968 Clouds 24 1018 78 10000 6.17 130 11:26 28.03.2021
969 Clouds 24 1018 83 10000 6.17 120 10:45 28.03.2021
970 Clouds 24 1018 83 10000 6.17 120 10:26 28.03.2021
971 Clouds 25 1019 78 10000 6.17 120 09:47 28.03.2021
972 Clouds 25 1019 78 10000 6.17 120 09:25 28.03.2021
973 Clouds 25 1019 78 10000 6.69 110 08:46 28.03.2021
974 Clear 25 1020 73 10000 6.69 120 07:51 28.03.2021
975 Clouds 25 1020 78 10000 7.2 100 07:19 28.03.2021
976 Clouds 25 1021 73 10000 6.69 110 04:18 28.03.2021
977 Clouds 26 1020 69 10000 4.12 100 01:26 28.03.2021
978 Clouds 26 1020 65 10000 5.66 110 00:21 28.03.2021
979 Clouds 27 1020 65 10000 6.69 110 23:44 27.03.2021
980 Clouds 27 1020 65 10000 6.69 110 23:19 27.03.2021
981 Clouds 28 1020 65 10000 6.17 110 22:37 27.03.2021
982 Clouds 28 1020 57 10000 5.14 100 21:59 27.03.2021
983 Clouds 28 1020 57 10000 5.14 100 21:38 27.03.2021
984 Clouds 28 1020 57 10000 5.14 100 21:19 27.03.2021
985 Clouds 29 1021 54 10000 8.23 110 20:44 27.03.2021
986 Clouds 29 1021 54 10000 8.23 110 20:24 27.03.2021
987 Clouds 29 1022 54 10000 6.69 120 19:44 27.03.2021
988 Clouds 29 1022 54 10000 6.69 120 19:23 27.03.2021
989 Clouds 29 1022 65 10000 6.69 110 18:50 27.03.2021
990 Clouds 28 1022 65 10000 6.69 120 18:29 27.03.2021
991 Clouds 29 1022 65 10000 6.69 130 17:56 27.03.2021
992 Clouds 28 1022 65 10000 6.69 130 17:26 27.03.2021
993 Clouds 28 1022 61 10000 7.2 100 16:51 27.03.2021
994 Clouds 28 1022 61 10000 7.2 100 16:51 27.03.2021
995 Clouds 28 1022 61 10000 7.2 100 16:30 27.03.2021
996 Clouds 28 1022 69 10000 5.66 120 15:54 27.03.2021
997 Clouds 27 1022 69 10000 5.66 120 15:33 27.03.2021
998 Clouds 27 1022 69 10000 6.17 110 14:52 27.03.2021
999 Clouds 26 1022 83 10000 3.09 100 13:59 27.03.2021
1000 Clouds 25 1022 83 10000 3.09 100 13:26 27.03.2021
1001 Clouds 24 1021 83 10000 2.57 90 12:56 27.03.2021
1002 Clouds 24 1021 83 10000 2.57 90 12:31 27.03.2021
1003 Clouds 24 1020 83 10000 3.09 100 11:47 27.03.2021
1004 Clouds 24 1020 83 10000 3.09 100 11:27 27.03.2021
1005 Clouds 24 1020 83 10000 4.12 100 10:46 27.03.2021
1006 Clouds 24 1020 83 10000 4.12 100 10:24 27.03.2021
1007 Clouds 24 1020 88 10000 5.14 110 09:29 27.03.2021
1008 Clouds 24 1021 88 10000 5.14 100 08:48 27.03.2021
1009 Clouds 24 1021 88 10000 5.14 100 08:30 27.03.2021
1010 Clouds 24 1021 88 10000 5.14 100 07:36 27.03.2021
1011 Clouds 24 1022 88 10000 4.12 100 06:52 27.03.2021
1012 Clouds 24 1022 88 10000 4.12 100 06:33 27.03.2021
1013 Clouds 24 1022 78 10000 4.63 100 04:40 27.03.2021
1014 Clouds 26 1020 61 10000 4.63 110 00:55 27.03.2021
1015 Clouds 26 1020 61 10000 4.63 110 00:31 27.03.2021
1016 Clouds 27 1020 54 10000 6.69 120 23:55 26.03.2021
1017 Clouds 27 1020 54 10000 6.69 120 23:22 26.03.2021
1018 Clouds 28 1020 54 10000 6.17 120 22:35 26.03.2021
1019 Clouds 28 1020 57 10000 6.17 130 21:38 26.03.2021
1020 Clouds 29 1020 57 10000 6.17 130 21:20 26.03.2021
1021 Clouds 29 1021 61 10000 7.2 130 20:44 26.03.2021
1022 Clouds 29 1021 61 10000 7.2 130 20:24 26.03.2021
1023 Clouds 29 1021 65 10000 6.69 130 19:49 26.03.2021
1024 Clouds 29 1021 65 10000 6.69 130 19:30 26.03.2021
1025 Clouds 29 1022 65 10000 6.17 110 18:45 26.03.2021
1026 Clouds 29 1022 65 10000 6.17 110 18:26 26.03.2021
1027 Clouds 28 1022 65 10000 7.2 140 17:47 26.03.2021
1028 Clouds 28 1022 65 10000 7.72 120 16:58 26.03.2021
1029 Clouds 28 1022 69 10000 8.23 110 16:33 26.03.2021
1030 Clouds 27 1021 74 10000 5.66 120 15:57 26.03.2021
1031 Clouds 27 1021 74 10000 5.66 120 15:24 26.03.2021
1032 Clouds 26 1021 78 10000 5.66 130 14:34 26.03.2021
1033 Clouds 26 1021 78 10000 5.14 130 13:42 26.03.2021
1034 Clouds 24 1020 88 10000 2.57 140 12:58 26.03.2021
1035 Clouds 24 1020 88 10000 2.57 140 12:34 26.03.2021
1036 Clouds 24 1019 88 10000 4.63 130 11:40 26.03.2021
1037 Clouds 24 1019 88 10000 4.63 130 11:19 26.03.2021
1038 Clouds 24 1019 88 10000 4.63 130 10:41 26.03.2021
1039 Clouds 24 1019 88 10000 5.14 120 09:58 26.03.2021
1040 Clouds 24 1019 88 10000 4.12 120 09:40 26.03.2021
1041 Clouds 24 1019 88 10000 5.14 110 08:45 26.03.2021
1042 Clouds 25 1019 88 10000 5.14 110 08:24 26.03.2021
1043 Clouds 24 1019 88 10000 4.12 100 07:42 26.03.2021
1044 Clouds 24 1020 94 10000 4.12 110 07:20 26.03.2021
1045 Clouds 24 1020 88 10000 3.09 100 06:54 26.03.2021
1046 Clouds 24 1020 83 10000 4.12 90 05:31 26.03.2021
1047 Clear 25 1019 83 10000 4.63 120 02:32 26.03.2021
1048 Clouds 26 1018 74 10000 4.63 150 00:32 26.03.2021
1049 Clouds 27 1018 69 10000 5.66 130 23:46 25.03.2021
1050 Clouds 27 1018 69 10000 5.66 130 23:21 25.03.2021
1051 Clouds 28 1018 69 10000 5.66 140 22:39 25.03.2021
1052 Clouds 29 1018 69 10000 5.66 130 21:53 25.03.2021
1053 Clouds 29 1018 69 10000 5.66 130 21:35 25.03.2021
1054 Clouds 29 1019 65 10000 5.66 130 20:47 25.03.2021
1055 Clouds 29 1019 65 10000 5.66 130 20:28 25.03.2021
1056 Clouds 29 1019 65 10000 5.66 130 19:51 25.03.2021
1057 Clouds 29 1019 65 10000 5.66 130 19:32 25.03.2021
1058 Clouds 29 1020 69 10000 6.69 140 18:58 25.03.2021
1059 Clouds 29 1020 69 10000 6.69 140 18:39 25.03.2021
1060 Clouds 29 1020 69 10000 6.69 140 18:21 25.03.2021
1061 Clouds 28 1020 69 10000 4.63 150 17:38 25.03.2021
1062 Clouds 28 1020 69 10000 6.69 140 16:57 25.03.2021
1063 Clouds 28 1020 69 10000 6.69 140 16:34 25.03.2021
1064 Clouds 27 1019 74 10000 7.2 150 15:49 25.03.2021
1065 Clouds 27 1019 74 10000 7.2 150 15:26 25.03.2021
1066 Clouds 27 1019 78 10000 6.69 140 14:50 25.03.2021
1067 Clouds 26 1019 78 10000 6.69 140 14:30 25.03.2021
1068 Clouds 25 1018 88 10000 4.12 140 13:28 25.03.2021
1069 Clouds 24 1018 88 10000 3.6 140 12:46 25.03.2021
1070 Clouds 24 1018 88 10000 3.6 140 12:22 25.03.2021
1071 Clouds 24 1017 88 10000 4.12 150 11:58 25.03.2021
1072 Clouds 24 1017 88 10000 4.12 150 11:40 25.03.2021
1073 Clouds 24 1017 88 10000 4.12 150 11:21 25.03.2021
1074 Clouds 24 1016 88 10000 4.12 140 10:48 25.03.2021
1075 Clouds 24 1016 88 10000 4.12 140 10:21 25.03.2021
1076 Clouds 24 1017 94 10000 4.63 120 09:50 25.03.2021
1077 Clouds 24 1017 94 10000 4.63 120 09:31 25.03.2021
1078 Clouds 24 1017 94 10000 5.14 130 08:37 25.03.2021
1079 Clouds 24 1018 88 10000 4.12 110 07:50 25.03.2021
1080 Rain 24 1018 88 10000 3.6 110 06:49 25.03.2021
1081 Clear 24 1018 88 10000 3.6 110 06:24 25.03.2021
1082 Clouds 24 1019 88 10000 4.12 110 05:21 25.03.2021
1083 Rain 24 1018 83 10000 4.12 120 02:28 25.03.2021
1084 Clouds 26 1016 73 10000 5.14 130 00:20 25.03.2021
1085 Clouds 26 1016 69 10000 4.63 130 23:42 24.03.2021
1086 Clouds 27 1016 69 10000 4.63 130 23:23 24.03.2021
1087 Clouds 27 1016 69 10000 5.14 130 22:40 24.03.2021
1088 Clouds 28 1016 69 10000 5.14 130 22:19 24.03.2021
1089 Clouds 28 1016 61 10000 6.17 130 21:41 24.03.2021
1090 Clouds 28 1016 61 10000 6.17 130 21:20 24.03.2021
1091 Clouds 29 1016 58 10000 8.23 120 20:41 24.03.2021
1092 Clouds 29 1016 58 10000 8.23 120 20:19 24.03.2021
1093 Clouds 29 1017 65 10000 6.69 130 19:34 24.03.2021
1094 Clouds 29 1017 65 10000 6.69 130 19:34 24.03.2021
1095 Clouds 28 1017 61 10000 4.12 140 18:57 24.03.2021
1096 Clouds 28 1017 61 10000 4.12 140 18:39 24.03.2021
1097 Clouds 28 1017 61 10000 4.12 140 18:19 24.03.2021
1098 Clouds 28 1017 61 10000 4.12 140 18:19 24.03.2021
1099 Clouds 28 1018 57 10000 3.09 0 17:40 24.03.2021
1100 Clouds 27 1018 57 10000 3.09 0 17:22 24.03.2021
1101 Clouds 27 1018 65 10000 3.6 180 16:41 24.03.2021
1102 Clouds 26 1018 65 10000 3.6 180 16:22 24.03.2021
1103 Clouds 25 1018 65 10000 4.12 160 15:43 24.03.2021
1104 Clouds 25 1018 65 10000 4.12 160 15:23 24.03.2021
1105 Clouds 24 1017 68 10000 2.6 186 14:42 24.03.2021
1106 Clouds 23 1017 68 10000 2.24 203 14:23 24.03.2021
1107 Clouds 18 1016 82 10000 2.24 203 13:45 24.03.2021
1108 Clouds 17 1016 82 10000 2.08 204 13:24 24.03.2021
1109 Clouds 16 1016 82 10000 2.08 204 12:41 24.03.2021
1110 Clouds 16 1016 82 10000 2.42 194 12:20 24.03.2021
1111 Clear 16 1015 88 10000 2.42 194 11:41 24.03.2021
1112 Clear 17 1015 82 10000 2.53 178 10:53 24.03.2021
1113 Clear 17 1015 82 10000 2.53 178 10:32 24.03.2021
1114 Clear 17 1015 82 10000 2.69 164 09:58 24.03.2021
1115 Clear 17 1015 82 10000 2.69 164 09:36 24.03.2021
1116 Clear 17 1015 82 10000 2.72 158 09:18 24.03.2021
1117 Clear 17 1016 77 10000 2.72 158 08:43 24.03.2021
1118 Clear 18 1016 77 10000 1.59 168 07:50 24.03.2021
1119 Clear 18 1016 77 10000 1.62 145 07:25 24.03.2021
1120 Clear 19 1016 68 10000 1.62 145 06:46 24.03.2021
1121 Clouds 20 1015 60 10000 3.56 187 02:41 24.03.2021
1122 Clouds 22 1014 56 10000 5.14 130 00:44 24.03.2021
1123 Clouds 23 1014 53 10000 4.12 160 23:52 23.03.2021
1124 Clouds 24 1014 53 10000 4.12 160 23:20 23.03.2021
1125 Clouds 24 1014 50 10000 6.69 110 22:51 23.03.2021
1126 Clouds 24 1014 50 10000 6.69 110 22:25 23.03.2021
1127 Clouds 25 1014 47 10000 4.63 110 21:47 23.03.2021
1128 Clouds 25 1014 47 10000 4.63 110 21:29 23.03.2021
1129 Clouds 25 1015 47 10000 4.63 110 20:47 23.03.2021
1130 Clouds 25 1015 47 10000 4.63 110 20:25 23.03.2021
1131 Clouds 25 1016 41 10000 2.06 0 19:50 23.03.2021
1132 Clouds 25 1016 41 10000 2.06 0 19:26 23.03.2021
1133 Clouds 25 1017 44 10000 2.57 0 18:47 23.03.2021
1134 Clouds 24 1017 44 10000 2.57 0 18:24 23.03.2021
1135 Clouds 24 1017 49 10000 2.57 260 17:50 23.03.2021
1136 Clouds 24 1017 49 10000 2.57 260 17:23 23.03.2021
1137 Clouds 23 1017 49 10000 1.68 177 16:58 23.03.2021
1138 Clouds 23 1017 49 10000 1.45 217 16:25 23.03.2021
1139 Clouds 22 1017 68 10000 2.06 270 15:47 23.03.2021
1140 Clouds 22 1017 68 10000 2.06 270 15:21 23.03.2021
1141 Clouds 20 1017 82 10000 1.54 250 14:40 23.03.2021
1142 Clouds 19 1017 82 10000 1.54 250 14:18 23.03.2021
1143 Clouds 18 1016 94 10000 2.06 230 13:43 23.03.2021
1144 Clouds 17 1016 94 10000 2.06 230 13:21 23.03.2021
1145 Clouds 16 1015 88 10000 1.54 240 12:43 23.03.2021
1146 Clouds 16 1015 88 10000 1.54 240 12:23 23.03.2021
1147 Clouds 17 1015 94 10000 2.06 240 11:47 23.03.2021
1148 Clouds 16 1015 94 10000 1.54 260 10:56 23.03.2021
1149 Clouds 16 1015 94 10000 1.54 260 10:38 23.03.2021
1150 Clouds 17 1015 94 10000 1.54 260 10:20 23.03.2021
1151 Clouds 17 1015 88 10000 3.09 260 09:42 23.03.2021
1152 Clouds 17 1015 88 10000 3.09 260 09:21 23.03.2021
1153 Clouds 17 1015 88 10000 2.06 260 08:40 23.03.2021
1154 Clouds 18 1015 88 10000 2.06 260 08:22 23.03.2021
1155 Clouds 18 1015 88 10000 2.57 250 07:59 23.03.2021
1156 Clouds 18 1015 88 10000 2.57 250 07:22 23.03.2021
1157 Clouds 18 1015 88 10000 3.09 250 06:41 23.03.2021
1158 Clouds 20 1015 64 10000 4.63 250 03:23 23.03.2021
1159 Clouds 21 1014 64 10000 5.14 250 02:22 23.03.2021
1160 Clouds 23 1013 41 10000 3.6 260 23:46 22.03.2021
1161 Clouds 24 1014 46 10000 2.57 350 22:59 22.03.2021
1162 Clouds 24 1014 46 10000 2.57 350 22:39 22.03.2021
1163 Clouds 25 1014 46 10000 2.57 350 22:20 22.03.2021
1164 Clouds 25 1014 41 10000 5.14 250 21:43 22.03.2021
1165 Clouds 25 1014 41 10000 5.14 250 21:24 22.03.2021
1166 Clouds 25 1015 46 10000 3.6 230 20:42 22.03.2021
1167 Clouds 25 1015 46 10000 3.6 230 20:22 22.03.2021
1168 Clouds 25 1016 49 10000 3.6 280 19:55 22.03.2021
1169 Clouds 24 1016 49 10000 3.6 280 19:37 22.03.2021
1170 Clouds 24 1016 49 10000 3.6 280 19:19 22.03.2021
1171 Clouds 23 1017 56 10000 5.14 260 18:40 22.03.2021
1172 Clouds 23 1017 56 10000 5.14 260 18:21 22.03.2021
1173 Clouds 22 1017 53 10000 3.6 290 17:44 22.03.2021
1174 Clouds 21 1017 60 10000 3.6 290 17:21 22.03.2021
1175 Clouds 21 1017 60 10000 3.09 320 16:45 22.03.2021
1176 Clouds 20 1017 64 10000 3.6 330 16:20 22.03.2021
1177 Clear 19 1017 68 10000 3.6 310 15:39 22.03.2021
1178 Clear 18 1017 68 10000 3.6 310 15:19 22.03.2021
1179 Clouds 18 1017 72 10000 2.57 310 14:53 22.03.2021
1180 Clouds 17 1017 72 10000 2.57 310 14:34 22.03.2021
1181 Clouds 16 1017 77 10000 2.06 320 13:48 22.03.2021
1182 Clouds 16 1017 77 10000 2.06 320 13:27 22.03.2021
1183 Clouds 15 1016 77 10000 1.54 280 12:55 22.03.2021
1184 Clouds 15 1016 77 10000 1.54 280 12:26 22.03.2021
1185 Clouds 15 1016 82 10000 1.54 280 11:49 22.03.2021
1186 Clouds 15 1016 82 10000 1.54 280 11:29 22.03.2021
1187 Clouds 14 1016 88 10000 4.06 294 10:46 22.03.2021
1188 Clouds 14 1016 88 10000 4.48 300 10:25 22.03.2021
1189 Clear 14 1016 88 10000 4.48 300 09:49 22.03.2021
1190 Clear 14 1016 88 10000 4.48 300 09:30 22.03.2021
1191 Clear 15 1016 82 10000 1.54 270 08:46 22.03.2021
1192 Clear 15 1016 82 10000 1.54 270 08:27 22.03.2021
1193 Clouds 15 1017 82 10000 1.54 270 07:50 22.03.2021
1194 Clouds 16 1017 82 10000 1.54 270 07:30 22.03.2021
1195 Clouds 16 1017 77 10000 2.06 290 06:49 22.03.2021
1196 Clear 19 1017 60 10000 2.57 290 02:47 22.03.2021
1197 Clouds 22 1016 43 10000 5.14 240 00:48 22.03.2021
1198 Clouds 24 1015 46 10000 4.63 260 23:59 21.03.2021
1199 Clouds 24 1015 46 10000 4.63 260 23:20 21.03.2021
1200 Clouds 25 1016 47 10000 4.12 270 22:59 21.03.2021
1201 Clouds 25 1016 47 10000 4.12 270 22:41 21.03.2021
1202 Clouds 25 1016 47 10000 3.6 280 21:43 21.03.2021
1203 Clouds 25 1016 47 10000 3.6 280 21:25 21.03.2021
1204 Clouds 24 1017 56 10000 4.12 290 20:56 21.03.2021
1205 Clouds 24 1017 56 10000 4.12 290 20:38 21.03.2021
1206 Clouds 24 1017 56 10000 4.12 290 20:19 21.03.2021
1207 Clouds 24 1017 56 10000 3.6 280 19:40 21.03.2021
1208 Clouds 24 1017 56 10000 3.6 280 19:19 21.03.2021
1209 Clouds 23 1018 60 10000 3.6 310 18:41 21.03.2021
1210 Clouds 23 1018 60 10000 3.6 310 18:18 21.03.2021
1211 Clouds 22 1018 64 10000 3.6 320 17:42 21.03.2021
1212 Clouds 22 1018 64 10000 3.6 320 17:18 21.03.2021
1213 Clouds 22 1018 68 10000 3.09 0 16:49 21.03.2021
1214 Clouds 21 1018 68 10000 3.09 0 16:23 21.03.2021
1215 Clouds 21 1018 68 10000 3.09 0 16:23 21.03.2021
1216 Clouds 20 1018 72 10000 3.6 330 15:46 21.03.2021
1217 Clouds 19 1018 72 10000 3.6 330 15:21 21.03.2021
1218 Clouds 18 1018 82 10000 3.09 330 14:48 21.03.2021
1219 Clouds 18 1018 82 10000 3.09 330 14:48 21.03.2021
1220 Clouds 17 1018 82 10000 3.09 330 14:27 21.03.2021
1221 Clouds 17 1018 82 10000 3.09 330 13:58 21.03.2021
1222 Clouds 16 1018 82 10000 3.09 330 13:39 21.03.2021
1223 Clouds 15 1017 82 10000 3.09 330 12:44 21.03.2021
1224 Clouds 15 1017 82 10000 3.09 330 12:25 21.03.2021
1225 Clouds 15 1017 82 10000 3.09 330 12:25 21.03.2021
1226 Clouds 16 1017 82 10000 3.6 320 11:41 21.03.2021
1227 Clouds 16 1017 82 10000 3.6 320 11:21 21.03.2021
1228 Clouds 16 1017 82 10000 3.6 330 10:45 21.03.2021
1229 Clouds 16 1017 82 10000 3.6 330 10:27 21.03.2021
1230 Clouds 16 1017 77 10000 3.09 0 09:50 21.03.2021
1231 Clouds 16 1017 77 10000 3.09 0 09:32 21.03.2021
1232 Clouds 17 1017 77 10000 3.6 330 08:57 21.03.2021
1233 Clouds 17 1017 77 10000 3.6 330 08:36 21.03.2021
1234 Clouds 17 1017 77 10000 3.6 330 08:18 21.03.2021
1235 Clouds 18 1018 72 10000 4.63 330 07:29 21.03.2021
1236 Rain 19 1018 72 10000 5.14 340 06:21 21.03.2021
1237 Clouds 20 1018 73 10000 3.6 330 04:52 21.03.2021
1238 Clouds 23 1016 64 10000 4.12 50 00:58 21.03.2021
1239 Clouds 23 1016 64 10000 4.12 50 00:38 21.03.2021
1240 Clouds 23 1016 64 10000 4.12 50 00:20 21.03.2021
1241 Clouds 24 1016 64 10000 4.63 70 23:45 20.03.2021
1242 Clouds 24 1016 64 10000 4.63 70 23:19 20.03.2021
1243 Clouds 25 1016 47 10000 2.06 0 22:24 20.03.2021
1244 Clouds 26 1016 47 10000 3.09 0 21:51 20.03.2021
1245 Clouds 26 1016 50 10000 3.09 300 21:33 20.03.2021
1246 Clouds 26 1017 54 10000 3.2 276 20:58 20.03.2021
1247 Clouds 26 1017 54 10000 3.2 276 20:39 20.03.2021
1248 Clouds 26 1017 54 10000 2.95 270 20:21 20.03.2021
1249 Clouds 26 1018 60 10000 3.09 270 19:41 20.03.2021
1250 Clouds 25 1018 60 10000 3.09 270 19:22 20.03.2021
1251 Clouds 25 1018 60 10000 3.09 0 18:45 20.03.2021
1252 Clouds 25 1018 60 10000 3.09 0 18:45 20.03.2021
1253 Clouds 24 1018 60 10000 2.57 0 18:21 20.03.2021
1254 Clouds 23 1019 64 10000 1.54 0 17:44 20.03.2021
1255 Clouds 23 1019 64 10000 1.54 0 17:23 20.03.2021
1256 Clouds 22 1019 68 10000 3.09 0 16:44 20.03.2021
1257 Clouds 21 1019 68 10000 3.09 0 16:20 20.03.2021
1258 Clouds 20 1019 72 10000 2.57 310 15:49 20.03.2021
1259 Clouds 19 1019 72 10000 2.57 310 15:29 20.03.2021
1260 Clouds 17 1019 77 10000 4.12 300 14:42 20.03.2021
1261 Clouds 17 1019 77 10000 4.12 300 14:22 20.03.2021
1262 Clouds 15 1019 77 10000 3.09 280 13:32 20.03.2021
1263 Clouds 14 1018 82 10000 3.6 280 12:44 20.03.2021
1264 Clouds 14 1018 82 10000 3.6 280 12:25 20.03.2021
1265 Clouds 14 1018 82 10000 3.6 280 11:44 20.03.2021
1266 Clouds 14 1018 82 10000 3.6 280 11:24 20.03.2021
1267 Clouds 15 1018 77 10000 3.6 280 10:47 20.03.2021
1268 Clouds 15 1018 77 10000 3.6 280 10:27 20.03.2021
1269 Clouds 15 1018 72 10000 3.6 280 09:54 20.03.2021
1270 Clouds 15 1018 72 10000 3.6 280 09:27 20.03.2021
1271 Clouds 15 1018 77 10000 4.12 270 08:56 20.03.2021
1272 Clouds 16 1018 72 10000 3.09 300 08:29 20.03.2021
1273 Clear 17 1018 67 10000 4.63 310 07:51 20.03.2021
1274 Clear 16 1018 67 10000 4.63 310 07:31 20.03.2021
1275 Clear 17 1018 72 10000 3.6 320 06:46 20.03.2021
1276 Clear 18 1018 72 10000 3.6 320 06:18 20.03.2021
1277 Clouds 21 1017 60 10000 4.63 290 03:46 20.03.2021
1278 Clouds 23 1016 60 10000 4.12 280 02:44 20.03.2021
1279 Clouds 27 1015 57 10000 5.66 260 23:57 19.03.2021
1280 Clouds 27 1015 57 10000 5.66 260 23:29 19.03.2021
1281 Clouds 28 1014 54 10000 6.17 260 22:48 19.03.2021
1282 Clouds 29 1014 54 10000 6.17 260 22:27 19.03.2021
1283 Clouds 29 1015 54 10000 5.14 260 21:53 19.03.2021
1284 Clouds 29 1015 54 10000 5.14 260 21:22 19.03.2021
1285 Clouds 29 1015 58 10000 3.6 280 20:57 19.03.2021
1286 Clouds 29 1015 58 10000 3.6 280 20:39 19.03.2021
1287 Clouds 29 1015 58 10000 3.6 280 20:21 19.03.2021
1288 Clouds 29 1015 61 10000 4.12 290 19:43 19.03.2021
1289 Clouds 29 1015 61 10000 4.12 290 19:19 19.03.2021
1290 Clouds 27 1016 69 10000 3.6 290 18:40 19.03.2021
1291 Clouds 27 1016 69 10000 3.6 290 18:18 19.03.2021
1292 Clouds 26 1017 78 10000 3.6 300 17:51 19.03.2021
1293 Clouds 26 1017 78 10000 3.6 300 17:27 19.03.2021
1294 Clouds 24 1017 94 10000 3.6 300 16:52 19.03.2021
1295 Rain 24 1017 94 10000 3.6 300 16:27 19.03.2021
1296 Clouds 27 1016 74 10000 5.66 240 15:46 19.03.2021
1297 Clouds 27 1016 74 10000 5.66 240 15:22 19.03.2021
1298 Clouds 26 1016 83 10000 4.12 210 14:45 19.03.2021
1299 Clouds 25 1016 83 10000 4.12 210 14:26 19.03.2021
1300 Clouds 24 1015 88 10000 3.6 220 13:39 19.03.2021
1301 Clouds 23 1015 94 10000 3.09 210 12:50 19.03.2021
1302 Clouds 23 1015 94 10000 3.09 210 12:32 19.03.2021
1303 Clouds 23 1015 94 10000 3.09 210 11:40 19.03.2021
1304 Mist 23 1015 94 9656 3.6 210 10:53 19.03.2021
1305 Mist 23 1015 94 9656 3.6 210 10:30 19.03.2021
1306 Mist 23 1015 94 9656 3.09 190 09:49 19.03.2021
1307 Mist 23 1015 94 9656 3.09 190 09:30 19.03.2021
1308 Clouds 23 1016 94 10000 2.57 200 08:54 19.03.2021
1309 Clouds 23 1016 94 10000 2.57 200 08:36 19.03.2021
1310 Clouds 23 1016 94 10000 3.6 210 07:54 19.03.2021
1311 Clouds 23 1016 94 10000 3.6 210 07:35 19.03.2021
1312 Clouds 23 1016 94 10000 2.06 190 06:48 19.03.2021
1313 Clouds 25 1016 78 10000 3.09 190 02:45 19.03.2021
1314 Clouds 26 1015 74 10000 5.14 170 00:52 19.03.2021
1315 Clouds 27 1015 74 10000 6.17 160 23:30 18.03.2021
1316 Clouds 27 1015 74 10000 6.17 160 23:30 18.03.2021
1317 Clouds 27 1015 69 10000 7.2 150 22:58 18.03.2021
1318 Clouds 27 1015 69 10000 7.2 150 22:38 18.03.2021
1319 Clouds 27 1015 69 10000 7.2 150 22:18 18.03.2021
1320 Clouds 28 1015 69 10000 6.17 160 21:39 18.03.2021
1321 Clouds 28 1016 65 10000 7.2 160 20:51 18.03.2021
1322 Clouds 28 1016 65 10000 7.2 160 20:32 18.03.2021
1323 Clouds 28 1016 69 10000 8.75 150 19:48 18.03.2021
1324 Clouds 28 1016 69 10000 8.75 150 19:27 18.03.2021
1325 Clouds 28 1017 69 10000 8.23 140 18:58 18.03.2021
1326 Clouds 28 1017 69 10000 8.23 140 18:33 18.03.2021
1327 Clouds 28 1018 69 10000 6.69 130 17:50 18.03.2021
1328 Clouds 28 1018 69 10000 6.69 130 17:25 18.03.2021
1329 Clouds 27 1019 69 10000 4.63 170 16:49 18.03.2021
1330 Clouds 27 1019 69 10000 4.63 170 16:30 18.03.2021
1331 Clouds 27 1019 69 10000 5.14 130 15:48 18.03.2021
1332 Clouds 27 1019 73 10000 3.6 140 15:28 18.03.2021
1333 Clouds 26 1019 73 10000 3.09 160 14:55 18.03.2021
1334 Clouds 26 1018 83 10000 3.09 0 14:32 18.03.2021
1335 Clouds 24 1018 83 10000 2.57 140 13:53 18.03.2021
1336 Clouds 24 1018 83 10000 2.57 140 13:26 18.03.2021
1337 Clouds 24 1018 83 10000 4.12 140 12:45 18.03.2021
1338 Clouds 24 1018 83 10000 4.12 140 12:26 18.03.2021
1339 Clouds 24 1017 83 10000 5.14 130 11:55 18.03.2021
1340 Clouds 24 1017 83 10000 5.14 130 11:34 18.03.2021
1341 Clouds 24 1017 83 10000 3.6 150 10:49 18.03.2021
1342 Clouds 24 1017 83 10000 3.6 150 10:27 18.03.2021
1343 Clouds 24 1017 83 10000 3.09 140 09:57 18.03.2021
1344 Clouds 24 1017 83 10000 3.09 140 09:30 18.03.2021
1345 Clouds 24 1017 83 10000 5.14 140 08:55 18.03.2021
1346 Clouds 24 1017 83 10000 5.14 140 08:33 18.03.2021
1347 Clouds 24 1017 83 10000 4.63 150 07:54 18.03.2021
1348 Clouds 24 1017 83 10000 4.63 150 07:29 18.03.2021
1349 Clouds 24 1017 83 10000 3.6 140 06:37 18.03.2021
1350 Clouds 24 1017 83 10000 3.6 140 06:18 18.03.2021
1351 Clouds 23 1018 88 10000 2.06 130 03:41 18.03.2021
1352 Clouds 25 1016 69 10000 5.14 140 00:19 18.03.2021
1353 Clouds 26 1017 61 10000 5.66 150 22:58 17.03.2021
1354 Clouds 27 1017 61 10000 5.66 150 22:36 17.03.2021
1355 Clouds 27 1017 61 10000 5.66 150 22:18 17.03.2021
1356 Clouds 27 1017 65 10000 5.66 140 21:45 17.03.2021
1357 Clouds 27 1017 65 10000 5.66 140 21:27 17.03.2021
1358 Clouds 28 1018 57 10000 6.17 170 20:45 17.03.2021
1359 Clouds 28 1018 57 10000 6.17 170 20:25 17.03.2021
1360 Clouds 28 1018 57 10000 6.69 130 19:54 17.03.2021
1361 Clouds 28 1018 57 10000 6.69 130 19:25 17.03.2021
1362 Clouds 28 1019 57 10000 5.66 150 18:58 17.03.2021
1363 Clouds 28 1019 57 10000 5.66 150 18:40 17.03.2021
1364 Clouds 27 1020 61 10000 6.69 140 17:58 17.03.2021
1365 Clouds 27 1020 61 10000 6.69 140 17:27 17.03.2021
1366 Clouds 27 1020 61 10000 7.2 130 16:57 17.03.2021
1367 Clouds 27 1020 61 10000 7.2 130 16:37 17.03.2021
1368 Clouds 27 1020 61 10000 7.2 130 16:19 17.03.2021
1369 Clouds 26 1020 65 10000 7.2 130 15:40 17.03.2021
1370 Clouds 25 1019 69 10000 4.12 130 14:46 17.03.2021
1371 Clouds 25 1019 69 10000 4.12 130 14:28 17.03.2021
1372 Clouds 24 1019 78 10000 2.57 130 13:56 17.03.2021
1373 Clouds 24 1019 78 10000 2.57 130 13:38 17.03.2021
1374 Clouds 23 1018 78 10000 3.09 130 12:59 17.03.2021
1375 Clouds 23 1018 78 10000 3.09 130 12:34 17.03.2021
1376 Clouds 23 1018 78 10000 3.6 120 11:54 17.03.2021
1377 Clouds 23 1018 78 10000 3.6 120 11:27 17.03.2021
1378 Clouds 23 1018 78 10000 4.12 110 10:59 17.03.2021
1379 Clouds 23 1018 78 10000 4.12 110 10:40 17.03.2021
1380 Clouds 23 1018 78 10000 4.63 120 09:59 17.03.2021
1381 Clouds 23 1018 78 10000 4.63 120 09:41 17.03.2021
1382 Clouds 23 1018 78 10000 4.63 120 09:20 17.03.2021
1383 Clouds 23 1018 78 10000 4.63 130 08:44 17.03.2021
1384 Clouds 23 1018 78 10000 4.63 130 08:25 17.03.2021
1385 Clouds 23 1018 69 10000 4.63 140 07:37 17.03.2021
1386 Clouds 23 1018 73 10000 3.6 130 06:48 17.03.2021
1387 Clouds 23 1019 73 10000 4.12 130 05:28 17.03.2021
1388 Clouds 23 1019 73 10000 2.57 140 03:31 17.03.2021
1389 Clouds 23 1018 64 10000 4.12 140 01:19 17.03.2021
1390 Clouds 24 1018 64 10000 4.63 140 00:33 17.03.2021
1391 Clouds 25 1018 57 10000 5.14 160 23:26 16.03.2021
1392 Clouds 26 1018 57 10000 6.17 130 22:44 16.03.2021
1393 Clouds 26 1018 57 10000 6.17 130 22:26 16.03.2021
1394 Clouds 27 1019 54 10000 5.14 140 21:44 16.03.2021
1395 Clouds 27 1019 54 10000 5.14 140 21:25 16.03.2021
1396 Clouds 27 1019 57 10000 7.72 120 20:56 16.03.2021
1397 Clouds 27 1019 57 10000 7.72 120 20:19 16.03.2021
1398 Clouds 27 1020 61 10000 6.69 130 19:48 16.03.2021
1399 Clouds 26 1020 61 10000 6.69 130 19:28 16.03.2021
1400 Clouds 27 1021 57 10000 5.14 130 18:57 16.03.2021
1401 Clouds 27 1021 57 10000 5.14 130 18:38 16.03.2021
1402 Clouds 27 1021 61 10000 7.2 140 17:59 16.03.2021
1403 Clouds 26 1021 61 10000 7.2 140 17:40 16.03.2021
1404 Clouds 26 1021 61 10000 7.2 140 17:20 16.03.2021
1405 Clouds 26 1021 65 10000 7.2 120 16:46 16.03.2021
1406 Clouds 26 1021 65 10000 7.2 120 16:25 16.03.2021
1407 Clouds 25 1020 69 10000 7.72 120 15:45 16.03.2021
1408 Clouds 25 1020 69 10000 7.72 120 15:20 16.03.2021
1409 Clouds 25 1020 73 10000 5.66 120 14:56 16.03.2021
1410 Clouds 25 1020 73 10000 5.66 120 14:38 16.03.2021
1411 Clouds 24 1020 73 10000 5.66 120 14:18 16.03.2021
1412 Clouds 23 1019 78 10000 3.6 130 13:42 16.03.2021
1413 Clouds 23 1019 78 10000 3.6 130 13:21 16.03.2021
1414 Clouds 23 1019 78 10000 2.57 130 12:40 16.03.2021
1415 Clouds 23 1019 78 10000 2.57 130 12:19 16.03.2021
1416 Clouds 22 1018 78 10000 3.6 120 11:36 16.03.2021
1417 Clouds 23 1018 78 10000 3.6 110 10:53 16.03.2021
1418 Clouds 23 1018 78 10000 3.6 110 10:53 16.03.2021
1419 Clouds 23 1018 83 10000 3.6 120 10:22 16.03.2021
1420 Clouds 23 1018 78 10000 4.12 100 09:47 16.03.2021
1421 Clouds 22 1018 78 10000 4.12 100 09:24 16.03.2021
1422 Clouds 22 1019 78 10000 3.09 110 08:57 16.03.2021
1423 Clouds 23 1019 78 10000 3.09 110 08:39 16.03.2021
1424 Clouds 23 1020 73 10000 4.12 110 07:57 16.03.2021
1425 Clouds 23 1020 73 10000 4.12 110 07:30 16.03.2021
1426 Clouds 23 1020 73 10000 3.6 110 06:38 16.03.2021
1427 Clouds 23 1020 73 10000 5.14 110 05:37 16.03.2021
1428 Clouds 23 1020 68 10000 5.66 110 04:28 16.03.2021
1429 Clouds 23 1020 68 10000 4.12 100 02:44 16.03.2021
1430 Clouds 23 1020 64 10000 4.63 100 01:59 16.03.2021
1431 Clouds 25 1019 57 10000 5.66 80 23:55 15.03.2021
1432 Clouds 25 1019 57 10000 5.66 80 23:28 15.03.2021
1433 Clouds 26 1019 54 10000 4.12 80 22:50 15.03.2021
1434 Clouds 26 1019 54 10000 4.12 80 22:31 15.03.2021
1435 Clouds 27 1019 50 10000 4.12 120 21:53 15.03.2021
1436 Clouds 27 1019 50 10000 4.12 120 21:33 15.03.2021
1437 Clouds 27 1020 54 10000 4.63 140 20:57 15.03.2021
1438 Clouds 27 1020 54 10000 4.63 140 20:57 15.03.2021
1439 Clouds 27 1020 54 10000 4.63 140 20:39 15.03.2021
1440 Clouds 27 1020 54 10000 4.63 140 20:20 15.03.2021
1441 Clouds 27 1020 54 10000 4.12 130 19:49 15.03.2021
1442 Clouds 27 1020 54 10000 4.12 130 19:31 15.03.2021
1443 Clouds 27 1021 57 10000 2.57 0 18:50 15.03.2021
1444 Clouds 27 1021 57 10000 2.57 0 18:26 15.03.2021
1445 Clouds 27 1021 57 10000 2.06 0 17:56 15.03.2021
1446 Clouds 27 1021 57 10000 2.06 0 17:32 15.03.2021
1447 Clouds 26 1021 61 10000 2.57 90 16:50 15.03.2021
1448 Clouds 26 1021 61 10000 2.57 90 16:32 15.03.2021
1449 Clouds 26 1021 65 10000 4.12 120 15:45 15.03.2021
1450 Clouds 25 1021 65 10000 4.12 120 15:26 15.03.2021
1451 Clouds 24 1020 78 10000 2.06 90 14:44 15.03.2021
1452 Clouds 23 1020 78 10000 2.06 90 14:23 15.03.2021
1453 Clouds 20 1020 83 10000 3.42 115 13:47 15.03.2021
1454 Clouds 20 1020 83 10000 2.93 109 13:25 15.03.2021
1455 Clouds 19 1019 94 10000 2.93 109 12:49 15.03.2021
1456 Clouds 19 1019 94 10000 2.56 107 12:20 15.03.2021
1457 Clouds 19 1019 94 10000 2.56 107 11:52 15.03.2021
1458 Clouds 18 1019 94 10000 2.56 107 11:33 15.03.2021
1459 Clouds 19 1019 94 10000 2.54 104 10:55 15.03.2021
1460 Clouds 19 1019 94 10000 2.54 104 10:31 15.03.2021
1461 Clouds 19 1019 88 10000 2.55 101 09:53 15.03.2021
1462 Clouds 19 1019 88 10000 2.55 101 09:35 15.03.2021
1463 Clouds 20 1019 83 10000 2.49 98 08:54 15.03.2021
1464 Clouds 20 1019 83 10000 2.49 98 08:34 15.03.2021
1465 Clear 19 1019 88 10000 2.27 102 07:55 15.03.2021
1466 Clear 19 1019 88 10000 2.27 102 07:32 15.03.2021
1467 Clear 21 1020 83 10000 2.72 94 06:40 15.03.2021
1468 Clear 22 1020 78 10000 2.55 104 05:33 15.03.2021
1469 Clouds 23 1019 73 10000 3.09 140 01:47 15.03.2021
1470 Clouds 25 1019 61 10000 4.63 140 23:59 14.03.2021
1471 Clouds 25 1019 61 10000 4.63 140 23:21 14.03.2021
1472 Clouds 26 1019 61 10000 4.63 130 22:47 14.03.2021
1473 Clouds 26 1019 61 10000 4.63 130 22:23 14.03.2021
1474 Clouds 26 1019 57 10000 4.63 110 21:49 14.03.2021
1475 Clouds 27 1019 57 10000 4.63 110 21:20 14.03.2021
1476 Clouds 27 1020 57 10000 5.14 110 20:50 14.03.2021
1477 Clouds 27 1020 57 10000 5.14 110 20:27 14.03.2021
1478 Clouds 27 1021 57 10000 3.6 130 19:50 14.03.2021
1479 Clouds 27 1021 57 10000 3.6 130 19:24 14.03.2021
1480 Clouds 27 1021 61 10000 4.12 120 18:56 14.03.2021
1481 Clouds 26 1021 61 10000 4.12 120 18:28 14.03.2021
1482 Clouds 26 1022 61 10000 4.63 150 17:41 14.03.2021
1483 Clouds 26 1022 61 10000 4.63 150 17:23 14.03.2021
1484 Clouds 26 1022 61 10000 4.63 110 16:52 14.03.2021
1485 Clouds 26 1022 61 10000 4.63 110 16:32 14.03.2021
1486 Clouds 25 1021 69 10000 3.6 130 15:57 14.03.2021
1487 Clouds 25 1021 69 10000 3.6 130 15:39 14.03.2021
1488 Clouds 24 1021 73 10000 3.86 110 14:42 14.03.2021
1489 Clouds 23 1021 73 10000 3.79 108 14:23 14.03.2021
1490 Clouds 20 1021 88 10000 3.79 108 13:50 14.03.2021
1491 Clouds 20 1021 88 10000 4.06 104 13:29 14.03.2021
1492 Clouds 18 1020 82 10000 1.54 350 12:47 14.03.2021
1493 Clouds 18 1020 82 10000 1.54 350 12:28 14.03.2021
1494 Clouds 18 1020 88 10000 3.21 102 11:54 14.03.2021
1495 Clouds 18 1020 88 10000 3.21 102 11:36 14.03.2021
1496 Clouds 19 1020 88 10000 3.18 99 10:56 14.03.2021
1497 Clouds 19 1020 88 10000 3.18 99 10:37 14.03.2021
1498 Clouds 18 1020 88 10000 3.29 101 10:18 14.03.2021
1499 Clouds 20 1020 77 10000 3.29 101 09:44 14.03.2021
1500 Clouds 19 1020 77 10000 3.35 96 09:22 14.03.2021
1501 Clouds 21 1021 68 10000 1.54 120 08:49 14.03.2021
1502 Clouds 21 1021 68 10000 1.54 120 08:31 14.03.2021
1503 Clouds 21 1022 78 10000 3.44 99 07:47 14.03.2021
1504 Clouds 21 1022 78 10000 4.24 104 07:19 14.03.2021
1505 Clouds 22 1022 68 10000 3.09 90 05:32 14.03.2021
1506 Clouds 23 1022 53 10000 3.6 60 00:53 14.03.2021
1507 Clouds 23 1022 53 10000 3.6 60 00:19 14.03.2021
1508 Clouds 24 1022 50 10000 4.12 60 23:53 13.03.2021
1509 Clouds 24 1022 50 10000 4.12 60 23:53 13.03.2021
1510 Clouds 24 1022 50 10000 4.12 60 23:35 13.03.2021
1511 Clouds 25 1022 47 10000 4.63 90 22:55 13.03.2021
1512 Clouds 25 1022 47 10000 4.63 90 22:36 13.03.2021
1513 Clouds 26 1022 47 10000 4.63 50 21:49 13.03.2021
1514 Clouds 26 1022 47 10000 4.63 50 21:27 13.03.2021
1515 Clouds 26 1023 47 10000 6.17 80 20:54 13.03.2021
1516 Clouds 26 1023 47 10000 5.14 110 20:31 13.03.2021
1517 Clouds 26 1023 50 10000 6.17 70 19:56 13.03.2021
1518 Clouds 26 1023 50 10000 6.17 70 19:32 13.03.2021
1519 Clouds 26 1024 50 10000 3.09 60 18:58 13.03.2021
1520 Clouds 26 1024 50 10000 3.09 60 18:40 13.03.2021
1521 Clouds 26 1024 50 10000 3.09 60 18:18 13.03.2021
1522 Clouds 26 1024 53 10000 4.63 70 17:44 13.03.2021
1523 Clouds 26 1024 53 10000 4.63 70 17:25 13.03.2021
1524 Clouds 26 1025 53 10000 5.14 70 16:45 13.03.2021
1525 Clouds 25 1025 53 10000 5.14 70 16:27 13.03.2021
1526 Clouds 25 1024 60 10000 4.63 60 15:41 13.03.2021
1527 Clouds 23 1024 73 10000 1.54 350 14:51 13.03.2021
1528 Clouds 23 1024 73 10000 1.54 350 14:32 13.03.2021
1529 Clouds 22 1023 78 10000 2.06 350 13:51 13.03.2021
1530 Clouds 22 1023 78 10000 2.06 350 13:25 13.03.2021
1531 Clouds 22 1022 73 10000 2.57 10 12:46 13.03.2021
1532 Clouds 22 1022 73 10000 2.57 10 12:28 13.03.2021
1533 Clouds 22 1022 73 10000 2.06 30 11:51 13.03.2021
1534 Clouds 21 1022 73 10000 2.06 30 11:30 13.03.2021
1535 Clouds 21 1022 73 10000 1.54 60 10:51 13.03.2021
1536 Clouds 21 1022 73 10000 1.54 60 10:51 13.03.2021
1537 Clouds 21 1022 73 10000 1.54 60 10:30 13.03.2021
1538 Clouds 21 1023 73 10000 3.09 40 09:47 13.03.2021
1539 Clouds 22 1023 73 10000 3.09 40 09:24 13.03.2021
1540 Clear 22 1024 73 10000 3.09 60 08:44 13.03.2021
1541 Clear 22 1024 73 10000 3.09 60 08:19 13.03.2021
1542 Clouds 22 1024 68 10000 4.63 70 07:54 13.03.2021
1543 Clouds 22 1024 68 10000 3.09 40 06:53 13.03.2021
1544 Clouds 22 1024 64 10000 3.09 40 02:56 13.03.2021
1545 Clouds 22 1024 60 10000 3.09 60 01:20 13.03.2021
1546 Clouds 24 1024 46 10000 4.63 50 23:59 12.03.2021
1547 Clouds 24 1024 46 10000 4.63 50 23:32 12.03.2021
1548 Clouds 24 1024 50 10000 5.66 80 22:46 12.03.2021
1549 Clouds 24 1024 50 10000 5.66 80 22:28 12.03.2021
1550 Clouds 25 1024 44 10000 5.66 70 21:46 12.03.2021
1551 Clouds 25 1024 44 10000 5.66 70 21:27 12.03.2021
1552 Clouds 26 1025 44 10000 3.6 60 20:59 12.03.2021
1553 Clouds 26 1025 44 10000 3.6 60 20:40 12.03.2021
1554 Clouds 26 1025 44 10000 3.6 60 20:18 12.03.2021
1555 Clouds 26 1025 50 10000 6.17 30 19:42 12.03.2021
1556 Clouds 26 1025 50 10000 6.17 30 19:24 12.03.2021
1557 Clouds 25 1026 47 10000 5.66 60 18:36 12.03.2021
1558 Clouds 25 1026 47 10000 5.66 60 18:36 12.03.2021
1559 Clouds 25 1026 47 10000 5.66 60 18:18 12.03.2021
1560 Clouds 25 1027 47 10000 5.66 60 17:40 12.03.2021
1561 Clouds 26 1027 47 10000 5.66 60 17:22 12.03.2021
1562 Clouds 25 1026 53 10000 6.17 70 16:42 12.03.2021
1563 Clouds 25 1026 53 10000 6.17 70 16:18 12.03.2021
1564 Clouds 24 1026 57 10000 5.66 80 15:37 12.03.2021
1565 Clouds 24 1025 64 10000 5.14 80 14:49 12.03.2021
1566 Clouds 23 1025 64 10000 5.14 80 14:22 12.03.2021
1567 Clouds 22 1025 73 10000 4.12 80 13:54 12.03.2021
1568 Clouds 22 1025 73 10000 4.12 80 13:36 12.03.2021
1569 Clouds 22 1025 73 10000 4.12 80 13:18 12.03.2021
1570 Clouds 21 1024 68 10000 4.63 90 12:42 12.03.2021
1571 Clouds 22 1024 68 10000 4.63 90 12:23 12.03.2021
1572 Clouds 21 1024 78 10000 2.57 40 11:52 12.03.2021
1573 Clouds 21 1024 78 10000 2.57 40 11:24 12.03.2021
1574 Clouds 21 1024 73 10000 2.06 360 10:55 12.03.2021
1575 Clouds 21 1024 73 10000 2.06 360 10:26 12.03.2021
1576 Clouds 21 1024 68 10000 2.06 10 09:57 12.03.2021
1577 Clouds 22 1024 68 10000 2.06 10 09:26 12.03.2021
1578 Clouds 21 1024 60 10000 2.06 30 08:46 12.03.2021
1579 Clouds 21 1025 60 10000 2.57 30 07:59 12.03.2021
1580 Clouds 21 1025 60 10000 2.57 30 07:38 12.03.2021
1581 Clouds 22 1026 56 10000 3.09 60 06:54 12.03.2021
1582 Clouds 22 1026 56 10000 3.09 60 06:28 12.03.2021
1583 Clouds 22 1025 56 10000 5.14 60 02:58 12.03.2021
1584 Clouds 23 1024 64 10000 5.14 70 00:51 12.03.2021
1585 Clouds 24 1024 53 10000 7.72 70 23:34 11.03.2021
1586 Clouds 24 1024 53 10000 7.2 70 22:51 11.03.2021
1587 Clouds 25 1024 53 10000 7.2 70 22:31 11.03.2021
1588 Clouds 25 1024 53 10000 9.77 90 21:56 11.03.2021
1589 Clouds 25 1024 53 10000 9.77 90 21:37 11.03.2021
1590 Clouds 25 1024 53 10000 9.77 90 21:19 11.03.2021
1591 Clouds 25 1025 53 10000 8.23 80 20:41 11.03.2021
1592 Clouds 25 1025 53 10000 8.23 80 20:19 11.03.2021
1593 Clouds 25 1026 53 10000 9.26 90 19:45 11.03.2021
1594 Clouds 25 1026 53 10000 9.26 90 19:26 11.03.2021
1595 Clouds 26 1027 53 10000 9.26 80 18:47 11.03.2021
1596 Clouds 26 1027 53 10000 9.26 80 18:29 11.03.2021
1597 Clouds 25 1027 53 10000 10.8 80 17:44 11.03.2021
1598 Clouds 24 1027 60 10000 8.23 90 16:54 11.03.2021
1599 Clouds 24 1027 60 10000 8.23 90 16:28 11.03.2021
1600 Clouds 24 1027 60 10000 7.72 90 15:49 11.03.2021
1601 Clouds 23 1027 60 10000 7.72 90 15:22 11.03.2021
1602 Clouds 23 1026 78 10000 3.09 70 14:49 11.03.2021
1603 Clouds 22 1026 78 10000 3.09 70 14:20 11.03.2021
1604 Clouds 21 1025 83 10000 4.63 90 13:59 11.03.2021
1605 Clouds 21 1025 83 10000 4.63 90 13:38 11.03.2021
1606 Clouds 20 1025 83 10000 4.63 90 13:18 11.03.2021
1607 Clouds 20 1025 73 10000 6.17 110 12:43 11.03.2021
1608 Clouds 20 1025 73 10000 6.17 110 12:25 11.03.2021
1609 Clouds 20 1024 73 10000 5.66 80 11:43 11.03.2021
1610 Clouds 20 1024 73 10000 5.66 80 11:25 11.03.2021
1611 Clouds 21 1024 73 10000 3.6 70 10:42 11.03.2021
1612 Clouds 21 1024 73 10000 3.6 70 10:20 11.03.2021
1613 Clouds 21 1024 73 10000 3.6 70 09:44 11.03.2021
1614 Clouds 21 1024 73 10000 3.6 70 09:23 11.03.2021
1615 Clouds 21 1025 78 10000 6.17 90 08:47 11.03.2021
1616 Clouds 21 1025 78 10000 6.17 90 08:19 11.03.2021
1617 Clouds 21 1026 78 10000 5.14 60 07:30 11.03.2021
1618 Clouds 21 1026 73 10000 6.69 80 06:50 11.03.2021
1619 Clouds 21 1026 73 10000 6.69 80 06:30 11.03.2021
1620 Clouds 21 1027 68 10000 7.2 70 04:43 11.03.2021
1621 -273 0 0 0 0 0 01:20 11.03.2021
1622 Clouds 22 1025 73 10000 7.2 90 23:48 10.03.2021
1623 Clouds 22 1025 73 10000 7.2 90 23:19 10.03.2021
1624 Clouds 22 1025 73 10000 7.2 90 23:19 10.03.2021
1625 Clouds 22 1025 83 10000 6.17 80 22:39 10.03.2021
1626 Clouds 22 1025 83 10000 6.17 80 22:39 10.03.2021
1627 Rain 22 1025 83 10000 7.72 80 21:47 10.03.2021
1628 Clouds 22 1025 83 10000 7.72 80 21:26 10.03.2021
1629 Clouds 22 1026 83 10000 6.69 90 20:58 10.03.2021
1630 Clouds 22 1026 57 10000 8.23 80 20:37 10.03.2021
1631 Rain 22 1027 68 10000 7.2 100 20:19 10.03.2021
1632 Clouds 23 1027 64 10000 6.69 60 19:39 10.03.2021
1633 Clouds 24 1027 64 10000 6.69 60 19:20 10.03.2021
1634 Clouds 23 1028 60 10000 8.23 50 18:37 10.03.2021
1635 Clouds 23 1028 60 10000 8.23 50 18:18 10.03.2021
1636 Clouds 24 1028 53 10000 7.72 80 17:41 10.03.2021
1637 Clouds 23 1028 53 10000 7.72 80 17:19 10.03.2021
1638 Clouds 23 1028 64 10000 5.66 60 16:52 10.03.2021
1639 Clouds 23 1028 64 10000 5.66 60 16:29 10.03.2021
1640 Clouds 23 1028 60 10000 6.17 70 15:54 10.03.2021
1641 Clouds 22 1028 60 10000 6.17 70 15:36 10.03.2021
1642 Clouds 22 1028 60 10000 6.17 70 15:18 10.03.2021
1643 Clouds 21 1027 60 10000 7.2 70 14:23 10.03.2021
1644 Clouds 21 1026 64 10000 3.6 40 13:58 10.03.2021
1645 Clouds 21 1026 64 10000 3.6 40 13:34 10.03.2021
1646 Clouds 21 1026 64 10000 4.63 40 12:53 10.03.2021
1647 Clouds 20 1026 64 10000 4.63 40 12:32 10.03.2021
1648 Clouds 20 1026 60 10000 3.6 60 11:56 10.03.2021
1649 Clouds 21 1026 60 10000 3.6 60 11:29 10.03.2021
1650 Clouds 21 1025 56 10000 3.6 60 10:56 10.03.2021
1651 Clouds 21 1025 56 10000 3.6 60 10:34 10.03.2021
1652 Clouds 21 1026 56 10000 5.66 50 09:57 10.03.2021
1653 Clouds 21 1026 56 10000 5.66 50 09:38 10.03.2021
1654 Clouds 21 1026 56 10000 5.66 50 09:19 10.03.2021
1655 Clouds 21 1026 56 10000 6.69 60 08:45 10.03.2021
1656 Clouds 21 1026 56 10000 6.69 60 08:27 10.03.2021
1657 Clouds 21 1027 56 10000 4.63 60 07:44 10.03.2021
1658 Clouds 21 1027 56 10000 4.63 60 07:24 10.03.2021
1659 Clouds 21 1027 60 10000 6.17 60 06:52 10.03.2021
1660 Clouds 21 1028 46 10000 5.66 60 02:45 10.03.2021
1661 Clouds 21 1028 49 10000 7.2 70 00:36 10.03.2021
1662 Clouds 22 1027 49 10000 6.69 60 23:45 09.03.2021
1663 Clouds 22 1027 53 10000 7.2 70 22:56 09.03.2021
1664 Clouds 22 1027 53 10000 7.2 70 22:37 09.03.2021
1665 Clouds 22 1027 53 10000 7.2 70 22:18 09.03.2021
1666 Clouds 22 1028 49 10000 6.17 50 21:42 09.03.2021
1667 Clouds 23 1028 49 10000 6.17 50 21:20 09.03.2021
1668 Clouds 22 1028 49 10000 7.72 50 20:55 09.03.2021
1669 Clouds 22 1028 49 10000 7.72 50 20:37 09.03.2021
1670 Clouds 22 1028 49 10000 7.72 50 20:18 09.03.2021
1671 Clouds 22 1029 46 10000 7.2 60 19:43 09.03.2021
1672 Clouds 23 1029 46 10000 7.2 60 19:24 09.03.2021
1673 Clouds 23 1030 49 10000 6.17 60 18:42 09.03.2021
1674 Clouds 23 1030 49 10000 6.17 60 18:19 09.03.2021
1675 Clouds 22 1030 46 10000 8.23 60 17:46 09.03.2021
1676 Clouds 22 1030 46 10000 8.23 60 17:26 09.03.2021
1677 Clouds 22 1030 40 10000 6.17 70 16:41 09.03.2021
1678 Clouds 22 1030 40 10000 6.17 70 16:21 09.03.2021
1679 Clouds 22 1030 49 10000 6.17 50 15:56 09.03.2021
1680 Clouds 21 1030 46 10000 8.23 60 15:25 09.03.2021
1681 Clouds 21 1029 52 10000 6.69 70 14:52 09.03.2021
1682 Clouds 21 1029 52 10000 6.69 70 14:26 09.03.2021
1683 Clouds 20 1028 52 10000 5.66 70 13:42 09.03.2021
1684 Clouds 21 1028 52 10000 5.66 70 13:21 09.03.2021
1685 Clouds 21 1028 52 10000 4.63 60 12:54 09.03.2021
1686 Clouds 20 1028 52 10000 4.63 60 12:35 09.03.2021
1687 Clouds 20 1028 60 10000 4.63 70 11:44 09.03.2021
1688 Clouds 20 1028 60 10000 4.63 70 11:22 09.03.2021
1689 Clouds 21 1028 56 10000 4.12 60 10:59 09.03.2021
1690 Clouds 21 1028 56 10000 4.12 60 10:39 09.03.2021
1691 Clouds 21 1028 56 10000 4.12 60 10:20 09.03.2021
1692 Clouds 20 1027 56 10000 5.66 70 09:46 09.03.2021
1693 Clouds 20 1027 56 10000 5.66 70 09:26 09.03.2021
1694 Clouds 21 1028 56 10000 7.2 70 08:49 09.03.2021
1695 Clouds 21 1028 56 10000 7.2 70 08:30 09.03.2021
1696 Clouds 21 1028 60 10000 5.66 60 07:46 09.03.2021
1697 Clouds 21 1028 60 10000 5.66 60 07:23 09.03.2021
1698 Clouds 20 1029 52 10000 5.14 60 06:44 09.03.2021
1699 Clouds 21 1029 52 10000 5.66 60 05:48 09.03.2021
1700 Clouds 21 1027 56 10000 5.14 50 01:31 09.03.2021
1701 Clouds 21 1027 56 10000 5.14 50 01:31 09.03.2021
1702 Clouds 21 1027 56 10000 5.14 50 01:31 09.03.2021
1703 Clouds 21 1027 56 10000 5.14 50 01:31 09.03.2021
1704 Clouds 21 1027 56 10000 5.14 50 01:31 09.03.2021
1705 Clouds 21 1027 53 10000 7.72 50 23:56 08.03.2021
1706 Clouds 22 1027 53 10000 7.72 50 23:37 08.03.2021
1707 Clouds 22 1027 53 10000 7.72 50 23:18 08.03.2021
1708 Clouds 22 1027 60 10000 4.12 50 22:40 08.03.2021
1709 Clouds 22 1027 60 10000 4.12 50 22:21 08.03.2021
1710 Clouds 21 1027 49 10000 4.12 60 21:48 08.03.2021
1711 Clouds 22 1027 49 10000 4.12 60 21:29 08.03.2021
1712 Clouds 22 1028 43 10000 8.75 80 20:40 08.03.2021
1713 Clouds 22 1028 43 10000 8.75 80 20:21 08.03.2021
1714 Clouds 22 1028 43 10000 6.69 50 19:45 08.03.2021
1715 Clouds 22 1028 43 10000 6.69 50 19:20 08.03.2021
1716 Clouds 21 1028 46 10000 6.17 50 18:37 08.03.2021
1717 Clouds 20 1028 46 10000 6.17 50 18:19 08.03.2021
1718 Clouds 20 1029 46 10000 6.17 40 17:43 08.03.2021
1719 Clouds 21 1029 46 10000 6.17 40 17:22 08.03.2021
1720 Clouds 19 1028 59 10000 2.57 10 16:42 08.03.2021
1721 Clouds 20 1028 59 10000 2.57 10 16:22 08.03.2021
1722 Clouds 18 1028 59 10000 2.06 30 15:42 08.03.2021
1723 Clouds 18 1028 59 10000 2.06 30 15:23 08.03.2021
1724 Clouds 16 1027 63 10000 2.57 0 14:21 08.03.2021
1725 Clouds 16 1027 63 10000 2.57 0 14:21 08.03.2021
1726 Clouds 15 1026 67 10000 1.54 350 13:57 08.03.2021
1727 Clouds 13 1026 67 10000 1.54 350 13:23 08.03.2021
1728 Clouds 13 1026 67 10000 2.57 330 12:58 08.03.2021
1729 Clouds 13 1026 67 10000 2.57 330 12:35 08.03.2021
1730 Clouds 13 1025 67 10000 3.09 340 11:55 08.03.2021
1731 Clouds 13 1025 67 10000 3.09 340 11:34 08.03.2021
1732 Clouds 13 1025 72 10000 4.12 340 10:57 08.03.2021
1733 Clouds 13 1025 72 10000 4.12 340 10:39 08.03.2021
1734 Clouds 13 1025 72 10000 4.12 340 10:18 08.03.2021
1735 Clouds 14 1025 67 10000 3.6 340 09:29 08.03.2021
1736 Clouds 15 1025 67 10000 3.6 340 08:54 08.03.2021
1737 Clouds 15 1025 67 10000 3.6 340 08:25 08.03.2021
1738 Clear 16 1025 72 10000 3.6 340 07:22 08.03.2021
1739 Clouds 16 1025 67 10000 2.57 350 06:33 08.03.2021
1740 Clouds 19 1023 60 10000 4.63 350 02:57 08.03.2021
1741 Clear 21 1021 46 10000 6.17 20 00:43 08.03.2021
1742 Clouds 22 1019 43 10000 5.66 340 23:54 07.03.2021
1743 Clouds 23 1019 43 10000 5.66 340 23:23 07.03.2021
1744 Clouds 23 1019 46 10000 5.66 360 22:50 07.03.2021
1745 Clouds 24 1019 46 10000 5.66 360 22:29 07.03.2021
1746 Clouds 24 1019 44 10000 4.63 350 21:58 07.03.2021
1747 Clouds 24 1019 44 10000 4.63 350 21:39 07.03.2021
1748 Clouds 24 1019 44 10000 4.63 350 21:21 07.03.2021
1749 Clouds 24 1019 50 10000 4.12 340 20:41 07.03.2021
1750 Clouds 24 1019 50 10000 4.12 340 20:23 07.03.2021
1751 Clouds 24 1020 56 10000 5.14 340 19:55 07.03.2021
1752 Clouds 24 1020 56 10000 5.14 340 19:37 07.03.2021
1753 Clouds 24 1020 56 10000 5.14 340 19:19 07.03.2021
1754 Clouds 24 1020 56 10000 5.14 340 19:19 07.03.2021
1755 Clear 24 1020 56 10000 4.63 350 18:40 07.03.2021
1756 Clear 23 1020 56 10000 4.63 350 18:18 07.03.2021
1757 Clouds 22 1020 64 10000 5.66 340 17:39 07.03.2021
1758 Clouds 22 1020 64 10000 5.66 340 17:20 07.03.2021
1759 Clear 21 1020 72 10000 6.17 340 16:44 07.03.2021
1760 Clear 20 1020 72 10000 6.17 340 16:21 07.03.2021
1761 Clouds 19 1019 72 10000 5.14 350 15:56 07.03.2021
1762 Clouds 19 1019 72 10000 5.14 350 15:38 07.03.2021
1763 Clouds 18 1019 72 10000 5.14 350 15:19 07.03.2021
1764 Clouds 17 1018 82 10000 3.6 340 14:30 07.03.2021
1765 Clouds 17 1017 88 10000 5.14 340 13:57 07.03.2021
1766 Clouds 17 1017 88 10000 5.14 340 13:38 07.03.2021
1767 Clouds 17 1017 88 10000 5.14 340 13:18 07.03.2021
1768 Clouds 17 1016 88 10000 5.66 330 12:40 07.03.2021
1769 Clouds 18 1016 88 10000 5.66 330 12:21 07.03.2021
1770 Clouds 17 1015 88 10000 2.57 340 11:24 07.03.2021
1771 Clouds 18 1014 88 10000 4.63 340 10:59 07.03.2021
1772 Clouds 18 1014 88 10000 4.63 340 10:38 07.03.2021
1773 Clouds 18 1014 88 10000 3.6 330 09:59 07.03.2021
1774 Clouds 18 1014 88 10000 3.6 330 09:39 07.03.2021
1775 Clouds 18 1014 88 10000 3.6 320 09:20 07.03.2021
1776 Clouds 19 1014 88 10000 2.57 340 08:45 07.03.2021
1777 Clouds 19 1014 88 10000 2.57 340 08:22 07.03.2021
1778 Clouds 19 1014 88 10000 2.06 360 07:23 07.03.2021
1779 Clouds 19 1014 88 10000 3.6 360 02:40 07.03.2021
1780 Clouds 18 1012 100 10000 4.63 360 00:36 07.03.2021
1781 Rain 20 1012 94 2414 5.66 340 23:41 06.03.2021
1782 Rain 22 1011 94 805 5.14 330 23:22 06.03.2021
1783 Clouds 24 1010 73 10000 4.63 220 22:47 06.03.2021
1784 Clouds 24 1010 69 10000 7.72 150 22:25 06.03.2021
1785 Clouds 24 1012 69 10000 6.17 110 21:52 06.03.2021
1786 Clouds 24 1012 69 10000 6.17 110 21:21 06.03.2021
1787 Clouds 25 1012 61 10000 6.17 120 20:45 06.03.2021
1788 Clouds 25 1012 61 10000 6.17 120 20:26 06.03.2021
1789 Clouds 25 1013 53 10000 8.23 120 19:41 06.03.2021
1790 Clouds 26 1013 53 10000 8.23 120 19:19 06.03.2021
1791 Clouds 26 1014 50 10000 5.66 130 18:45 06.03.2021
1792 Clouds 26 1014 50 10000 5.66 130 18:23 06.03.2021
1793 Clouds 25 1015 50 10000 7.2 100 17:56 06.03.2021
1794 Clouds 25 1015 50 10000 7.2 100 17:37 06.03.2021
1795 Clouds 25 1015 50 10000 7.2 100 17:18 06.03.2021
1796 Clouds 25 1016 50 10000 4.63 120 16:39 06.03.2021
1797 Clouds 25 1016 50 10000 4.63 120 16:20 06.03.2021
1798 Clouds 24 1016 53 10000 5.66 100 15:41 06.03.2021
1799 Clouds 24 1016 53 10000 5.66 100 15:23 06.03.2021
1800 Clear 23 1015 60 10000 2.06 70 14:49 06.03.2021
1801 Clear 22 1015 60 10000 2.06 70 14:25 06.03.2021
1802 Clouds 20 1016 72 10000 3.09 88 13:39 06.03.2021
1803 Clouds 19 1016 72 10000 2.75 74 13:20 06.03.2021
1804 Clouds 19 1015 72 10000 2.06 350 12:44 06.03.2021
1805 Clouds 19 1015 72 10000 2.06 350 12:19 06.03.2021
1806 Clouds 17 1015 77 10000 2.78 60 11:49 06.03.2021
1807 Clouds 17 1015 77 10000 2.3 57 11:21 06.03.2021
1808 Clouds 18 1014 68 10000 2.06 340 10:48 06.03.2021
1809 Clouds 18 1014 68 10000 2.06 340 10:19 06.03.2021
1810 Clouds 20 1014 64 10000 2.06 360 09:42 06.03.2021
1811 Clouds 20 1014 64 10000 2.06 360 09:19 06.03.2021
1812 Clouds 20 1015 60 10000 1.54 20 08:40 06.03.2021
1813 Clouds 21 1014 60 10000 2.57 90 07:57 06.03.2021
1814 Clouds 21 1014 60 10000 2.57 90 07:24 06.03.2021
1815 Clouds 21 1015 60 10000 2.57 90 06:58 06.03.2021
1816 Clouds 21 1015 56 10000 4.12 90 05:34 06.03.2021
1817 Clouds 21 1015 60 10000 4.63 60 02:38 06.03.2021
1818 Clouds 22 1014 56 10000 6.17 90 00:56 06.03.2021
1819 Clouds 23 1014 53 10000 4.63 70 23:54 05.03.2021
1820 Clouds 24 1014 53 10000 4.63 70 23:29 05.03.2021
1821 Clouds 24 1014 50 10000 5.14 80 22:49 05.03.2021
1822 Clouds 25 1014 50 10000 5.14 80 22:25 05.03.2021
1823 Clouds 25 1014 47 10000 6.69 80 21:54 05.03.2021
1824 Clouds 25 1014 47 10000 6.69 80 21:36 05.03.2021
1825 Clouds 26 1014 44 10000 5.14 90 20:58 05.03.2021
1826 Clouds 26 1014 44 10000 5.14 90 20:40 05.03.2021
1827 Clouds 26 1014 44 10000 5.14 90 20:22 05.03.2021
1828 Clouds 26 1015 44 10000 4.12 80 19:41 05.03.2021
1829 Clouds 25 1015 44 10000 4.12 80 19:20 05.03.2021
1830 Clouds 25 1016 41 10000 2.06 0 18:43 05.03.2021
1831 Clouds 25 1016 41 10000 2.06 0 18:23 05.03.2021
1832 Clouds 25 1016 38 10000 5.08 41 17:37 05.03.2021
1833 Clouds 24 1016 38 10000 5.14 29 17:19 05.03.2021
1834 Clouds 23 1016 37 10000 2.06 320 16:41 05.03.2021
1835 Clouds 23 1016 37 10000 2.06 320 16:22 05.03.2021
1836 Clouds 22 1016 43 10000 3.6 350 15:52 05.03.2021
1837 Clouds 21 1016 43 10000 3.6 350 15:23 05.03.2021
1838 Clouds 19 1016 68 10000 3.09 350 14:39 05.03.2021
1839 Clouds 18 1016 68 10000 3.09 350 14:19 05.03.2021
1840 Clouds 16 1015 77 10000 3.6 340 13:40 05.03.2021
1841 Clouds 17 1015 77 10000 3.6 340 13:19 05.03.2021
1842 Clouds 17 1015 77 10000 2.57 330 12:40 05.03.2021
1843 Clouds 17 1014 77 10000 2.06 310 11:37 05.03.2021
1844 Clouds 17 1014 77 10000 2.06 310 11:18 05.03.2021
1845 Clouds 17 1014 77 10000 1.54 320 10:43 05.03.2021
1846 Clouds 17 1014 77 10000 1.54 320 10:24 05.03.2021
1847 Clouds 18 1014 82 10000 3.6 310 09:52 05.03.2021
1848 Clouds 18 1014 82 10000 3.6 310 09:27 05.03.2021
1849 Clouds 18 1015 88 10000 1.54 300 08:56 05.03.2021
1850 Clouds 18 1015 88 10000 1.54 300 08:36 05.03.2021
1851 Clouds 18 1015 88 10000 1.54 300 08:18 05.03.2021
1852 Clouds 17 1015 82 10000 2.06 290 07:30 05.03.2021
1853 Clouds 17 1015 77 10000 1.54 280 06:33 05.03.2021
1854 Clouds 18 1015 68 10000 4.03 346 05:39 05.03.2021
1855 Clouds 21 1014 53 10000 1.54 300 00:54 05.03.2021
1856 Clouds 22 1014 53 10000 3.09 300 23:45 04.03.2021
1857 Clouds 22 1014 53 10000 3.09 300 23:24 04.03.2021
1858 Clouds 23 1014 53 10000 3.09 0 22:29 04.03.2021
1859 Clouds 23 1014 53 10000 3.09 0 22:29 04.03.2021
1860 Clouds 24 1014 49 10000 3.6 320 21:53 04.03.2021
1861 Clouds 24 1014 49 10000 3.6 320 21:29 04.03.2021
1862 Clouds 24 1014 46 10000 4.12 350 20:57 04.03.2021
1863 Clouds 24 1014 46 10000 4.12 350 20:38 04.03.2021
1864 Clouds 23 1014 46 10000 4.12 350 20:18 04.03.2021
1865 Clouds 23 1016 53 10000 3.09 300 19:43 04.03.2021
1866 Clouds 23 1016 53 10000 3.09 300 19:23 04.03.2021
1867 Clouds 22 1016 60 10000 2.57 0 18:47 04.03.2021
1868 Clouds 21 1016 60 10000 2.57 0 18:26 04.03.2021
1869 Clouds 20 1017 63 10000 4.12 320 17:47 04.03.2021
1870 Clouds 20 1017 68 10000 4.12 290 17:29 04.03.2021
1871 Clouds 20 1017 68 10000 4.12 310 16:48 04.03.2021
1872 Clouds 19 1017 68 10000 4.12 310 16:29 04.03.2021
1873 Clouds 19 1017 68 10000 3.09 280 15:52 04.03.2021
1874 Clouds 18 1017 68 10000 3.09 280 15:33 04.03.2021
1875 Clouds 18 1017 72 10000 3.09 300 14:53 04.03.2021
1876 Clouds 17 1017 72 10000 3.6 280 14:31 04.03.2021
1877 Clouds 16 1016 77 10000 2.57 310 13:50 04.03.2021
1878 Clouds 16 1016 77 10000 2.57 310 13:32 04.03.2021
1879 Clouds 15 1016 77 10000 3.6 280 12:58 04.03.2021
1880 Clouds 15 1016 77 10000 3.6 280 12:39 04.03.2021
1881 Clouds 16 1016 77 10000 3.6 280 11:47 04.03.2021
1882 Clouds 15 1016 77 10000 3.6 280 11:26 04.03.2021
1883 Clouds 15 1015 77 10000 3.6 310 10:55 04.03.2021
1884 Clouds 16 1015 77 10000 3.6 310 10:31 04.03.2021
1885 Clouds 16 1016 82 10000 4.12 300 09:47 04.03.2021
1886 Clouds 16 1016 82 10000 4.12 300 09:24 04.03.2021
1887 Clouds 17 1016 77 10000 5.14 310 08:37 04.03.2021
1888 Clouds 18 1015 77 10000 3.09 300 07:54 04.03.2021
1889 Clouds 18 1015 77 10000 3.09 300 07:54 04.03.2021
1890 Clouds 18 1016 72 10000 3.6 310 07:31 04.03.2021
1891 Clouds 19 1016 82 10000 4.63 280 06:25 04.03.2021
1892 Clouds 20 1016 73 10000 4.12 280 05:40 04.03.2021
1893 Clear 25 1014 69 10000 6.17 290 01:44 04.03.2021
1894 Clouds 27 1013 61 10000 4.63 260 22:56 03.03.2021
1895 Clouds 28 1013 61 10000 4.63 260 22:28 03.03.2021
1896 Clouds 28 1013 57 10000 6.69 270 21:55 03.03.2021
1897 Clouds 28 1013 57 10000 6.69 270 21:37 03.03.2021
1898 Clouds 29 1013 57 10000 6.69 270 21:18 03.03.2021
1899 Clouds 29 1013 54 10000 8.75 250 20:42 03.03.2021
1900 Clouds 29 1013 54 10000 8.75 250 20:23 03.03.2021
1901 Clouds 29 1014 57 10000 5.66 260 19:45 03.03.2021
1902 Clouds 29 1014 57 10000 5.66 260 19:26 03.03.2021
1903 Clouds 29 1015 57 10000 6.69 230 18:48 03.03.2021
1904 Clouds 29 1015 57 10000 6.69 230 18:30 03.03.2021
1905 Clouds 28 1016 61 10000 6.69 240 17:56 03.03.2021
1906 Clouds 28 1016 61 10000 6.69 240 17:20 03.03.2021
1907 Clouds 27 1016 65 10000 6.17 240 16:50 03.03.2021
1908 Clouds 27 1016 65 10000 6.17 240 16:27 03.03.2021
1909 Clouds 26 1015 73 10000 5.14 240 15:51 03.03.2021
1910 Clouds 26 1015 73 10000 5.14 240 15:31 03.03.2021
1911 Clouds 24 1015 88 10000 3.09 230 14:39 03.03.2021
1912 Clouds 23 1015 88 10000 3.09 230 14:20 03.03.2021
1913 Clouds 22 1015 88 10000 1.54 220 13:39 03.03.2021
1914 Clouds 22 1015 88 10000 1.54 220 13:21 03.03.2021
1915 Clouds 22 1014 88 10000 1.54 230 12:41 03.03.2021
1916 Clouds 22 1014 88 10000 1.54 230 12:22 03.03.2021
1917 Clouds 22 1014 83 10000 1.54 210 11:44 03.03.2021
1918 Clouds 22 1014 83 10000 1.54 210 11:26 03.03.2021
1919 Clouds 22 1014 83 10000 2.06 220 10:45 03.03.2021
1920 Clouds 22 1014 83 10000 2.06 220 10:21 03.03.2021
1921 Clouds 22 1015 83 10000 2.06 200 09:41 03.03.2021
1922 Clouds 22 1015 83 10000 1.54 230 08:52 03.03.2021
1923 Clouds 22 1015 83 10000 1.54 230 08:24 03.03.2021
1924 Clouds 22 1015 83 10000 2.06 220 07:55 03.03.2021
1925 Clouds 23 1015 83 10000 2.06 220 07:28 03.03.2021
1926 Clear 23 1016 78 10000 2.57 160 06:22 03.03.2021
1927 Clear 23 1017 78 10000 2.06 180 05:44 03.03.2021
1928 Clouds 23 1017 78 10000 2.06 190 04:36 03.03.2021
1929 Clear 23 1017 73 10000 3.09 190 03:54 03.03.2021
1930 Clouds 25 1016 65 10000 4.12 150 00:28 03.03.2021
1931 Clouds 27 1016 61 10000 4.63 130 23:35 02.03.2021
1932 Clouds 27 1016 57 10000 5.14 120 22:53 02.03.2021
1933 Clouds 28 1016 57 10000 5.14 120 22:22 02.03.2021
1934 Clouds 28 1016 57 10000 4.12 120 21:54 02.03.2021
1935 Clouds 28 1016 57 10000 4.12 120 21:36 02.03.2021
1936 Clouds 28 1016 61 10000 4.12 140 20:56 02.03.2021
1937 Clouds 28 1016 61 10000 4.12 140 20:38 02.03.2021
1938 Clouds 28 1016 61 10000 4.12 140 20:20 02.03.2021
1939 Clouds 29 1017 61 10000 4.63 140 19:47 02.03.2021
1940 Clouds 29 1017 61 10000 4.63 140 19:28 02.03.2021
1941 Clouds 28 1018 65 10000 3.6 150 18:42 02.03.2021
1942 Clouds 28 1018 65 10000 3.6 150 18:22 02.03.2021
1943 Clouds 28 1018 65 10000 3.6 180 17:58 02.03.2021
1944 Clouds 28 1018 69 10000 3.6 200 17:39 02.03.2021
1945 Clouds 28 1018 69 10000 3.6 200 17:19 02.03.2021
1946 Clouds 28 1018 69 10000 3.6 200 17:19 02.03.2021
1947 Clouds 27 1019 69 10000 3.09 150 16:45 02.03.2021
1948 Clouds 27 1019 78 10000 2.68 179 15:54 02.03.2021
1949 Clouds 26 1019 78 10000 2.3 188 15:27 02.03.2021
1950 Clouds 24 1018 88 10000 1.54 30 14:49 02.03.2021
1951 Clouds 23 1018 88 10000 1.54 30 14:19 02.03.2021
1952 Clouds 23 1018 88 10000 1.54 30 14:19 02.03.2021
1953 Clouds 23 1018 88 10000 2.05 200 13:44 02.03.2021
1954 Clouds 22 1018 88 10000 1.28 215 13:24 02.03.2021
1955 Clouds 22 1018 88 10000 1.28 215 12:45 02.03.2021
1956 Clouds 22 1018 88 10000 1.23 211 12:25 02.03.2021
1957 Clouds 22 1018 88 10000 1.23 211 11:45 02.03.2021
1958 Clouds 23 1018 88 10000 1.38 197 11:22 02.03.2021
1959 Clouds 22 1018 94 10000 1.38 197 10:49 02.03.2021
1960 Clouds 22 1018 94 10000 1.5 179 10:29 02.03.2021
1961 Clouds 23 1018 94 10000 1.5 179 09:43 02.03.2021
1962 Clouds 23 1018 94 10000 1.54 161 09:24 02.03.2021
1963 Clouds 23 1018 88 10000 1.54 161 08:44 02.03.2021
1964 Clouds 23 1018 88 10000 2 139 08:26 02.03.2021
1965 Clouds 23 1018 88 10000 2 139 07:43 02.03.2021
1966 Clouds 23 1018 88 10000 2.58 128 06:37 02.03.2021
1967 Clouds 24 1019 83 10000 2.99 122 05:49 02.03.2021
1968 Clouds 24 1019 83 10000 2.99 122 05:30 02.03.2021
1969 Clouds 24 1019 83 10000 1.54 150 04:24 02.03.2021
1970 Clouds 25 1018 78 10000 4.63 130 01:42 02.03.2021
1971 Clouds 25 1018 78 10000 4.63 130 01:19 02.03.2021
1972 Clouds 27 1017 74 10000 4.63 130 23:29 01.03.2021
1973 Clouds 27 1017 65 10000 5.14 130 22:43 01.03.2021
1974 Clouds 27 1017 65 10000 5.14 130 22:25 01.03.2021
1975 Clouds 28 1018 65 10000 5.14 120 21:53 01.03.2021
1976 Clouds 28 1018 65 10000 5.14 120 21:24 01.03.2021
1977 Clouds 28 1018 65 10000 6.17 130 21:00 01.03.2021
1978 Clouds 28 1018 65 10000 6.17 130 20:41 01.03.2021
1979 Clouds 28 1018 65 10000 6.17 130 20:19 01.03.2021
1980 Clouds 28 1019 65 10000 4.63 170 19:43 01.03.2021
1981 Clouds 28 1019 65 10000 4.63 170 19:20 01.03.2021
1982 Clouds 28 1020 69 10000 4.12 170 18:42 01.03.2021
1983 Clouds 28 1020 69 10000 4.12 170 18:22 01.03.2021
1984 Clouds 27 1020 69 10000 6.17 140 17:46 01.03.2021
1985 Clouds 27 1020 69 10000 6.17 140 17:21 01.03.2021
1986 Clouds 27 1020 69 10000 4.63 140 16:46 01.03.2021
1987 Clouds 27 1020 69 10000 4.63 140 16:27 01.03.2021
1988 Clouds 26 1020 73 10000 4.63 150 15:47 01.03.2021
1989 Clouds 26 1020 73 10000 4.63 150 15:22 01.03.2021
1990 Clouds 25 1020 78 10000 3.09 150 14:58 01.03.2021
1991 Clouds 25 1020 78 10000 3.09 150 14:39 01.03.2021
1992 Clouds 24 1019 83 10000 3.09 140 13:50 01.03.2021
1993 Clouds 24 1019 83 10000 3.09 140 13:29 01.03.2021
1994 Clouds 24 1018 83 10000 3.6 140 12:59 01.03.2021
1995 Clouds 24 1018 83 10000 3.6 140 12:41 01.03.2021
1996 Clouds 24 1018 83 10000 3.6 140 12:21 01.03.2021
1997 Clouds 24 1018 83 10000 4.63 140 11:47 01.03.2021
1998 Clouds 24 1018 83 10000 4.63 140 11:18 01.03.2021
1999 Clouds 24 1018 83 10000 3.09 140 10:37 01.03.2021
2000 Clouds 24 1018 83 10000 3.09 140 10:18 01.03.2021
2001 Clouds 24 1019 83 10000 4.63 130 09:48 01.03.2021
2002 Clouds 24 1019 83 10000 4.63 130 09:25 01.03.2021
2003 Clouds 24 1019 83 10000 4.63 130 08:55 01.03.2021
2004 Clouds 24 1019 83 10000 4.63 130 08:22 01.03.2021
2005 Clouds 24 1020 78 10000 5.66 120 06:55 01.03.2021
2006 Clouds 24 1020 78 10000 5.66 120 06:24 01.03.2021
2007 Clouds 25 1021 78 10000 4.63 90 02:38 01.03.2021
2008 Clouds 26 1020 74 10000 6.17 100 23:44 28.02.2021
2009 Clouds 27 1020 74 10000 6.17 140 22:57 28.02.2021
2010 Clouds 27 1020 74 10000 6.17 140 22:28 28.02.2021
2011 Clouds 27 1020 74 10000 6.17 140 22:28 28.02.2021
2012 Clouds 28 1020 65 10000 8.75 110 21:58 28.02.2021
2013 Clouds 27 1020 65 10000 8.75 110 21:33 28.02.2021
2014 Clouds 28 1021 74 10000 8.75 120 20:59 28.02.2021
2015 Clouds 27 1021 74 10000 8.75 120 20:39 28.02.2021
2016 Clouds 28 1021 74 10000 8.75 120 20:18 28.02.2021
2017 Clouds 27 1022 69 10000 7.2 120 19:46 28.02.2021
2018 Clouds 28 1022 69 10000 7.2 120 19:24 28.02.2021
2019 Clouds 28 1022 65 10000 9.26 110 18:44 28.02.2021
2020 Clouds 28 1022 65 10000 9.26 110 18:26 28.02.2021
2021 Clouds 28 1023 65 10000 8.75 120 17:53 28.02.2021
2022 Clouds 28 1023 65 10000 8.75 120 17:28 28.02.2021
2023 Clouds 27 1023 69 10000 7.72 120 16:57 28.02.2021
2024 Clouds 27 1023 69 10000 7.72 120 16:38 28.02.2021
2025 Clouds 27 1023 69 10000 7.72 120 16:19 28.02.2021
2026 Clouds 26 1023 73 10000 6.69 100 15:49 28.02.2021
2027 Clouds 26 1023 73 10000 6.69 100 15:25 28.02.2021
2028 Clouds 25 1022 73 10000 6.17 100 14:53 28.02.2021
2029 Clouds 25 1022 73 10000 6.17 100 14:30 28.02.2021
2030 Clouds 24 1022 73 10000 5.14 100 13:52 28.02.2021
2031 Clouds 24 1022 73 10000 5.14 100 13:22 28.02.2021
2032 Clouds 24 1022 73 10000 5.14 100 13:22 28.02.2021
2033 Clouds 24 1021 73 10000 5.14 110 12:59 28.02.2021
2034 Clouds 24 1021 73 10000 5.14 110 12:59 28.02.2021
2035 Clouds 24 1021 73 10000 5.14 110 12:40 28.02.2021
2036 Clouds 24 1021 73 10000 5.14 110 12:22 28.02.2021
2037 Clouds 24 1021 73 10000 5.14 100 11:53 28.02.2021
2038 Clouds 24 1021 73 10000 5.14 100 11:26 28.02.2021
2039 Clouds 24 1021 73 10000 6.69 100 10:59 28.02.2021
2040 Clouds 24 1021 73 10000 6.69 100 10:29 28.02.2021
2041 Clouds 24 1022 73 10000 6.17 110 09:57 28.02.2021
2042 Clouds 24 1022 73 10000 6.17 110 09:35 28.02.2021
2043 Clouds 24 1022 69 10000 5.14 110 08:55 28.02.2021
2044 Clouds 24 1022 69 10000 5.14 110 08:33 28.02.2021
2045 Clouds 24 1023 69 10000 6.17 110 07:59 28.02.2021
2046 Clouds 24 1023 69 10000 6.17 110 07:39 28.02.2021
2047 Clouds 24 1023 69 10000 6.17 110 07:19 28.02.2021
2048 Clouds 24 1023 69 10000 6.69 100 06:23 28.02.2021
2049 Clouds 25 1023 83 10000 3.6 100 03:46 28.02.2021
2050 Clouds 25 1022 83 10000 4.63 90 02:20 28.02.2021
2051 Clouds 25 1022 83 10000 5.14 90 01:20 28.02.2021
2052 Clouds 25 1021 73 10000 6.17 80 00:37 28.02.2021
2053 Clouds 26 1021 65 10000 7.2 90 23:49 27.02.2021
2054 Clouds 26 1021 65 10000 7.2 90 23:21 27.02.2021
2055 Clouds 27 1021 65 10000 5.66 120 22:49 27.02.2021
2056 Clouds 27 1021 65 10000 5.66 120 22:23 27.02.2021
2057 Clouds 27 1021 65 10000 7.72 120 21:55 27.02.2021
2058 Clouds 27 1021 65 10000 7.72 120 21:35 27.02.2021
2059 Clouds 28 1022 65 10000 6.69 120 20:54 27.02.2021
2060 Clouds 28 1022 65 10000 6.69 120 20:35 27.02.2021
2061 Clouds 28 1022 65 10000 6.69 120 20:35 27.02.2021
2062 Clouds 28 1022 65 10000 8.23 120 19:58 27.02.2021
2063 Clouds 28 1022 65 10000 8.23 120 19:39 27.02.2021
2064 Clouds 27 1022 65 10000 8.23 120 19:21 27.02.2021
2065 Clouds 28 1023 65 10000 6.69 120 18:38 27.02.2021
2066 Clouds 28 1023 65 10000 6.69 120 18:19 27.02.2021
2067 Clouds 28 1023 61 10000 6.69 120 17:43 27.02.2021
2068 Clouds 28 1023 61 10000 6.69 120 17:20 27.02.2021
2069 Clouds 27 1023 65 10000 8.23 140 16:51 27.02.2021
2070 Clouds 27 1023 65 10000 8.23 140 16:31 27.02.2021
2071 Clouds 27 1023 65 10000 8.23 110 15:49 27.02.2021
2072 Clouds 26 1023 65 10000 8.23 110 15:31 27.02.2021
2073 Clouds 26 1022 78 10000 5.14 110 14:43 27.02.2021
2074 Clouds 25 1022 78 10000 5.14 110 14:25 27.02.2021
2075 Clouds 24 1022 83 10000 4.63 110 13:49 27.02.2021
2076 Clouds 24 1022 83 10000 4.63 110 13:26 27.02.2021
2077 Clouds 24 1021 83 10000 4.12 110 12:51 27.02.2021
2078 Clouds 24 1021 83 10000 4.12 110 12:28 27.02.2021
2079 Clouds 24 1021 83 10000 4.63 110 11:56 27.02.2021
2080 Clouds 24 1021 83 10000 4.63 110 11:36 27.02.2021
2081 Clouds 24 1021 83 10000 4.63 110 11:18 27.02.2021
2082 Clouds 24 1020 83 10000 5.66 110 10:41 27.02.2021
2083 Clouds 24 1020 83 10000 5.66 110 10:18 27.02.2021
2084 Clouds 24 1020 83 10000 3.09 120 09:37 27.02.2021
2085 Clouds 24 1020 83 10000 4.63 110 08:58 27.02.2021
2086 Clouds 24 1020 83 10000 4.63 110 08:39 27.02.2021
2087 Clouds 24 1020 83 10000 4.63 110 08:18 27.02.2021
2088 Clouds 24 1021 78 10000 6.17 110 07:34 27.02.2021
2089 Clouds 24 1021 73 10000 3.6 90 02:56 27.02.2021
2090 Clouds 25 1020 65 10000 3.6 90 00:35 27.02.2021
2091 Clouds 26 1020 61 10000 4.63 110 23:48 26.02.2021
2092 Clouds 26 1020 61 10000 4.63 110 23:25 26.02.2021
2093 Clouds 27 1020 57 10000 4.63 120 22:42 26.02.2021
2094 Clouds 27 1020 57 10000 4.63 120 22:23 26.02.2021
2095 Clouds 28 1020 57 10000 4.12 130 21:37 26.02.2021
2096 Clouds 28 1020 57 10000 5.14 110 21:00 26.02.2021
2097 Clouds 28 1020 57 10000 5.14 110 20:41 26.02.2021
2098 Clouds 28 1020 57 10000 5.14 110 20:20 26.02.2021
2099 Clouds 28 1021 57 10000 4.63 140 19:40 26.02.2021
2100 Clouds 28 1021 57 10000 4.63 140 19:18 26.02.2021
2101 Clouds 28 1022 61 10000 5.66 110 18:41 26.02.2021
2102 Clouds 28 1022 61 10000 5.66 110 18:21 26.02.2021
2103 Clouds 27 1022 65 10000 5.66 120 17:39 26.02.2021
2104 Clouds 27 1022 65 10000 5.66 120 17:20 26.02.2021
2105 Clouds 27 1021 65 10000 6.17 130 16:49 26.02.2021
2106 Clouds 27 1021 65 10000 6.17 130 16:30 26.02.2021
2107 Clouds 26 1021 73 10000 6.69 130 15:51 26.02.2021
2108 Clouds 26 1021 73 10000 6.69 130 15:30 26.02.2021
2109 Clouds 25 1020 88 10000 5.26 124 14:59 26.02.2021
2110 Clouds 24 1020 88 10000 5.26 124 14:41 26.02.2021
2111 Clouds 24 1020 88 10000 5.17 117 14:22 26.02.2021
2112 Clouds 23 1020 88 10000 5.17 117 13:39 26.02.2021
2113 Clouds 23 1020 88 10000 3.87 97 13:20 26.02.2021
2114 Clouds 23 1019 88 10000 1.54 50 12:33 26.02.2021
2115 Clouds 23 1019 83 10000 1.54 30 11:49 26.02.2021
2116 Clouds 23 1019 83 10000 1.54 30 11:28 26.02.2021
2117 Clouds 23 1019 83 10000 2.06 30 10:45 26.02.2021
2118 Clouds 23 1019 88 10000 1.54 90 09:49 26.02.2021
2119 Clouds 23 1019 88 10000 1.54 90 09:29 26.02.2021
2120 Clouds 23 1020 83 10000 1.54 50 08:51 26.02.2021
2121 Clouds 23 1020 83 10000 1.54 50 08:18 26.02.2021
2122 Clouds 23 1021 83 10000 4.17 88 07:41 26.02.2021
2123 Clouds 24 1021 78 10000 3.09 60 06:35 26.02.2021
2124 Clouds 23 1021 88 10000 2.06 40 05:21 26.02.2021
2125 Clouds 24 1021 83 10000 2.06 30 03:28 26.02.2021
2126 Clouds 24 1020 78 10000 4.12 90 01:29 26.02.2021
2127 Clouds 26 1020 65 10000 3.09 130 23:44 25.02.2021
2128 Clouds 26 1020 65 10000 3.09 130 23:25 25.02.2021
2129 Clouds 26 1020 65 10000 3.6 150 22:47 25.02.2021
2130 Clouds 27 1020 65 10000 2.57 110 21:58 25.02.2021
2131 Clouds 27 1020 65 10000 2.57 110 21:36 25.02.2021
2132 Clouds 27 1020 65 10000 2.57 110 21:18 25.02.2021
2133 Clouds 28 1020 51 10000 2.57 130 20:40 25.02.2021
2134 Clouds 28 1020 51 10000 2.57 130 20:21 25.02.2021
2135 Clouds 28 1021 48 10000 3.09 200 19:51 25.02.2021
2136 Clouds 28 1021 48 10000 3.09 200 19:21 25.02.2021
2137 Clouds 28 1022 57 10000 2.06 50 18:56 25.02.2021
2138 Clouds 27 1022 57 10000 2.06 50 18:19 25.02.2021
2139 Clouds 27 1023 65 10000 2.57 320 17:46 25.02.2021
2140 Clouds 27 1023 65 10000 2.57 320 17:25 25.02.2021
2141 Clear 26 1023 73 10000 1.54 280 16:42 25.02.2021
2142 Clear 26 1023 73 10000 1.54 280 16:24 25.02.2021
2143 Clear 24 1022 83 10000 2.06 300 15:29 25.02.2021
2144 Clear 22 1022 94 10000 1.97 331 14:41 25.02.2021
2145 Clear 22 1022 94 10000 1.77 320 14:21 25.02.2021
2146 Mist 21 1021 94 8047 1.77 320 13:50 25.02.2021
2147 Mist 20 1021 94 8047 1.76 323 13:25 25.02.2021
2148 Clouds 20 1021 88 10000 1.54 308 12:47 25.02.2021
2149 Clouds 20 1021 88 10000 1.71 314 12:21 25.02.2021
2150 Clouds 20 1020 94 10000 1.71 314 11:45 25.02.2021
2151 Clouds 20 1020 94 10000 2.23 317 11:19 25.02.2021
2152 Clouds 21 1020 88 10000 2.23 317 10:38 25.02.2021
2153 Clouds 21 1020 88 10000 2.74 313 09:58 25.02.2021
2154 Clouds 21 1020 88 10000 2.74 313 09:38 25.02.2021
2155 Clear 21 1020 88 10000 2.56 297 08:54 25.02.2021
2156 Clear 21 1020 88 10000 2.55 281 08:23 25.02.2021
2157 Clouds 22 1021 88 10000 2.55 281 07:52 25.02.2021
2158 Clouds 22 1021 88 10000 2.44 264 07:26 25.02.2021
2159 Clouds 23 1021 83 10000 2.76 255 06:47 25.02.2021
2160 Clouds 24 1020 69 10000 1.54 320 01:57 25.02.2021
2161 Clouds 24 1020 69 10000 1.54 320 01:34 25.02.2021
2162 Clouds 24 1019 65 10000 2.06 140 00:39 25.02.2021
2163 Clouds 24 1019 73 10000 3.09 150 23:47 24.02.2021
2164 Clouds 24 1019 73 10000 3.09 150 23:22 24.02.2021
2165 Clouds 25 1019 83 10000 3.6 130 22:44 24.02.2021
2166 Clouds 25 1019 83 10000 3.6 130 22:24 24.02.2021
2167 Clouds 24 1019 88 10000 3.6 120 21:44 24.02.2021
2168 Clouds 24 1020 94 10000 3.6 120 20:53 24.02.2021
2169 Clouds 24 1020 94 10000 3.6 120 20:29 24.02.2021
2170 Clouds 25 1021 61 10000 2.57 0 19:54 24.02.2021
2171 Clouds 25 1021 78 10000 4.12 180 19:26 24.02.2021
2172 Clouds 25 1021 69 10000 2.57 0 18:55 24.02.2021
2173 Clouds 25 1021 69 10000 2.57 0 18:33 24.02.2021
2174 Clouds 26 1022 65 10000 3.09 80 17:50 24.02.2021
2175 Clouds 25 1022 65 10000 3.09 80 17:29 24.02.2021
2176 Clouds 24 1022 73 10000 3.09 50 16:52 24.02.2021
2177 Clouds 24 1022 73 10000 3.09 50 16:22 24.02.2021
2178 Clouds 23 1022 88 10000 2.06 70 15:58 24.02.2021
2179 Clouds 23 1022 88 10000 2.06 70 15:36 24.02.2021
2180 Clouds 23 1022 83 10000 3.09 70 14:52 24.02.2021
2181 Clouds 23 1021 88 10000 2.06 70 14:32 24.02.2021
2182 Clouds 23 1020 88 10000 2.57 90 13:56 24.02.2021
2183 Clouds 23 1020 88 10000 2.57 90 13:37 24.02.2021
2184 Mist 23 1020 88 6437 4.63 100 13:19 24.02.2021
2185 Clouds 22 1019 88 10000 4.49 95 12:42 24.02.2021
2186 Clouds 23 1019 88 10000 4.46 92 12:23 24.02.2021
2187 Clouds 23 1019 88 10000 2.06 70 11:42 24.02.2021
2188 Clouds 23 1019 83 10000 1.54 80 10:48 24.02.2021
2189 Clouds 23 1018 83 10000 2.06 80 10:26 24.02.2021
2190 Clear 22 1018 83 10000 3.09 90 09:33 24.02.2021
2191 Clouds 22 1019 83 10000 3.6 90 08:58 24.02.2021
2192 Clouds 22 1019 83 10000 3.6 90 08:33 24.02.2021
2193 Clouds 23 1019 78 10000 3.6 80 07:55 24.02.2021
2194 Clouds 22 1019 78 10000 3.6 80 07:19 24.02.2021
2195 Clouds 23 1020 78 10000 4.12 80 06:20 24.02.2021
2196 Clouds 23 1019 73 10000 3.6 50 02:44 24.02.2021
2197 Clouds 25 1017 73 10000 4.12 130 23:55 23.02.2021
2198 Clouds 25 1017 73 10000 3.6 100 23:20 23.02.2021
2199 Clouds 26 1017 69 10000 4.12 100 22:24 23.02.2021
2200 Clouds 27 1017 57 10000 2.57 320 21:56 23.02.2021
2201 Clouds 27 1017 57 10000 2.57 320 21:37 23.02.2021
2202 Clouds 27 1017 57 10000 2.57 320 21:18 23.02.2021
2203 Clouds 27 1017 54 10000 4.63 240 20:45 23.02.2021
2204 Clouds 27 1017 54 10000 4.63 240 20:27 23.02.2021
2205 Clouds 27 1018 65 10000 3.09 340 19:47 23.02.2021
2206 Clouds 27 1018 65 10000 3.09 340 19:26 23.02.2021
2207 Clouds 27 1019 74 10000 2.06 0 18:47 23.02.2021
2208 Clouds 27 1019 74 10000 2.06 0 18:29 23.02.2021
2209 Clouds 26 1020 78 10000 2.06 320 17:54 23.02.2021
2210 Clouds 25 1020 78 10000 2.06 320 17:28 23.02.2021
2211 Clouds 24 1020 88 10000 2.57 300 16:47 23.02.2021
2212 Clouds 24 1020 94 10000 3.08 268 16:24 23.02.2021
2213 Mist 24 1020 94 8047 2.57 210 15:51 23.02.2021
2214 Mist 25 1020 88 4828 2.06 250 15:33 23.02.2021
2215 Clouds 24 1019 94 10000 2.06 220 14:57 23.02.2021
2216 Clouds 24 1019 94 10000 2.06 220 14:38 23.02.2021
2217 Clouds 23 1019 94 10000 2.06 220 14:19 23.02.2021
2218 Clouds 22 1019 94 10000 1.54 240 13:38 23.02.2021
2219 Clouds 22 1019 94 10000 1.54 240 13:18 23.02.2021
2220 Clouds 22 1018 94 10000 3.2 211 12:44 23.02.2021
2221 Clouds 22 1018 94 10000 3.13 221 12:19 23.02.2021
2222 Clouds 22 1018 94 10000 2.06 170 11:45 23.02.2021
2223 Clouds 22 1018 94 10000 2.06 170 11:18 23.02.2021
2224 Clouds 22 1018 94 10000 3.86 216 10:39 23.02.2021
2225 Clouds 22 1018 94 10000 3.86 216 10:39 23.02.2021
2226 Clouds 22 1018 94 10000 4.37 210 10:18 23.02.2021
2227 Clouds 22 1018 94 10000 4.37 210 09:41 23.02.2021
2228 Clouds 22 1018 94 10000 4.47 195 09:21 23.02.2021
2229 Clouds 23 1019 88 10000 1.54 170 08:45 23.02.2021
2230 Clouds 23 1019 88 10000 1.54 170 08:20 23.02.2021
2231 Clouds 23 1019 88 10000 4.94 174 07:34 23.02.2021
2232 Clear 23 1020 88 10000 3.09 160 05:27 23.02.2021
2233 Clouds 23 1020 83 10000 3.09 0 02:43 23.02.2021
2234 Clouds 24 1020 83 10000 3.09 0 02:24 23.02.2021
2235 Clouds 24 1020 78 10000 5.66 120 00:19 23.02.2021
2236 Clouds 25 1019 73 10000 6.69 120 23:43 22.02.2021
2237 Clouds 25 1019 69 10000 6.69 110 22:57 22.02.2021
2238 Clouds 26 1019 69 10000 6.69 110 22:38 22.02.2021
2239 Clouds 26 1019 69 10000 6.69 110 22:19 22.02.2021
2240 Clouds 26 1020 69 10000 6.17 150 21:38 22.02.2021
2241 Clouds 26 1020 69 10000 6.17 150 21:20 22.02.2021
2242 Clouds 27 1021 65 10000 6.17 130 20:45 22.02.2021
2243 Clouds 27 1021 65 10000 6.17 130 20:26 22.02.2021
2244 Clouds 27 1022 65 10000 7.72 140 19:49 22.02.2021
2245 Clouds 27 1022 65 10000 7.72 140 19:30 22.02.2021
2246 Clouds 26 1023 65 10000 5.14 120 18:49 22.02.2021
2247 Clouds 26 1023 65 10000 5.14 120 18:29 22.02.2021
2248 Clouds 26 1023 65 10000 7.2 110 17:51 22.02.2021
2249 Clouds 26 1023 65 10000 7.2 110 17:22 22.02.2021
2250 Clouds 25 1023 69 10000 6.17 120 16:51 22.02.2021
2251 Clouds 24 1023 69 10000 6.17 120 16:30 22.02.2021
2252 Clouds 24 1023 73 10000 5.66 110 15:36 22.02.2021
2253 Clouds 23 1022 78 10000 3.6 110 14:54 22.02.2021
2254 Clouds 23 1022 78 10000 3.6 110 14:35 22.02.2021
2255 Clouds 22 1022 83 10000 5.14 120 13:58 22.02.2021
2256 Clouds 22 1022 83 10000 5.14 110 13:36 22.02.2021
2257 Clouds 22 1021 78 10000 5.14 100 12:55 22.02.2021
2258 Clouds 22 1021 78 10000 5.14 100 12:23 22.02.2021
2259 Clouds 22 1021 78 10000 5.14 90 11:56 22.02.2021
2260 Clouds 22 1021 78 10000 5.14 90 11:32 22.02.2021
2261 Clouds 22 1021 78 10000 5.66 100 10:59 22.02.2021
2262 Clouds 22 1021 78 10000 5.66 100 10:40 22.02.2021
2263 Clouds 22 1021 78 10000 5.66 100 10:20 22.02.2021
2264 Clouds 22 1021 73 10000 5.66 100 09:38 22.02.2021
2265 Clouds 22 1021 73 10000 5.66 100 09:19 22.02.2021
2266 Clouds 22 1022 78 10000 6.17 100 08:49 22.02.2021
2267 Clouds 22 1022 78 10000 6.17 100 08:21 22.02.2021
2268 Clouds 21 1022 78 10000 7.72 90 07:48 22.02.2021
2269 Clouds 21 1022 78 10000 7.72 90 07:22 22.02.2021
2270 Clouds 21 1023 73 10000 6.69 90 06:27 22.02.2021
2271 Clouds 22 1024 68 10000 8.23 80 04:27 22.02.2021
2272 Clouds 21 1024 78 10000 7.72 80 03:22 22.02.2021
2273 Clouds 21 1024 73 10000 9.26 80 00:54 22.02.2021
2274 Clouds 21 1024 73 10000 9.26 80 00:29 22.02.2021
2275 Clouds 22 1024 68 10000 5.14 70 23:57 21.02.2021
2276 Clouds 22 1024 68 10000 5.14 70 23:25 21.02.2021
2277 Clouds 23 1023 64 10000 9.77 80 22:30 21.02.2021
2278 Clouds 23 1023 60 10000 9.26 70 21:52 21.02.2021
2279 Clouds 23 1023 60 10000 9.26 70 21:52 21.02.2021
2280 Clouds 23 1023 60 10000 9.26 70 21:34 21.02.2021
2281 Clouds 23 1023 60 10000 9.26 70 21:34 21.02.2021
2282 Clouds 24 1024 56 10000 8.75 60 20:58 21.02.2021
2283 Clouds 24 1024 56 10000 8.75 60 20:38 21.02.2021
2284 Clouds 24 1024 56 10000 8.75 60 20:18 21.02.2021
2285 Clouds 24 1024 57 10000 8.23 60 19:44 21.02.2021
2286 Clouds 24 1024 57 10000 8.23 60 19:24 21.02.2021
2287 Clouds 24 1025 53 10000 8.75 60 18:30 21.02.2021
2288 Clouds 24 1025 53 10000 8.75 70 17:59 21.02.2021
2289 Clouds 24 1025 53 10000 8.75 70 17:28 21.02.2021
2290 Clouds 23 1025 49 10000 7.72 50 16:53 21.02.2021
2291 Clouds 23 1025 49 10000 7.72 50 16:32 21.02.2021
2292 Clouds 22 1025 53 10000 8.75 70 15:47 21.02.2021
2293 Clouds 22 1025 53 10000 8.75 70 15:20 21.02.2021
2294 Clouds 21 1024 60 10000 6.17 60 14:42 21.02.2021
2295 Clouds 21 1024 60 10000 6.17 60 14:21 21.02.2021
2296 Clouds 21 1024 60 10000 4.12 60 13:45 21.02.2021
2297 Clouds 20 1024 60 10000 4.12 60 13:22 21.02.2021
2298 Clouds 20 1023 64 10000 5.14 50 12:29 21.02.2021
2299 Clouds 20 1023 64 10000 3.6 50 11:44 21.02.2021
2300 Clouds 20 1023 60 10000 5.66 40 10:59 21.02.2021
2301 Clouds 20 1023 60 10000 5.66 40 10:23 21.02.2021
2302 Clouds 20 1023 77 10000 2.06 360 09:55 21.02.2021
2303 Clouds 20 1023 77 10000 2.06 360 09:55 21.02.2021
2304 Clouds 20 1023 77 10000 2.06 360 09:29 21.02.2021
2305 Clouds 19 1023 77 10000 2.06 360 08:58 21.02.2021
2306 Clouds 20 1023 77 10000 2.06 360 08:23 21.02.2021
2307 Clouds 20 1024 77 10000 3.09 360 07:35 21.02.2021
2308 Clouds 19 1024 72 10000 2.57 0 06:55 21.02.2021
2309 Clouds 20 1023 68 10000 3.6 30 03:39 21.02.2021
2310 Clouds 20 1022 64 10000 3.09 30 02:30 21.02.2021
2311 Clouds 21 1021 60 10000 6.17 30 00:47 21.02.2021
2312 Clouds 21 1021 60 10000 6.17 30 00:20 21.02.2021
2313 Clouds 22 1021 60 10000 5.14 40 23:25 20.02.2021
2314 Clouds 22 1020 56 10000 6.17 30 22:46 20.02.2021
2315 Clouds 22 1020 56 10000 6.17 30 22:27 20.02.2021
2316 Clouds 23 1020 57 10000 6.17 50 21:45 20.02.2021
2317 Clouds 23 1020 57 10000 6.17 50 21:26 20.02.2021
2318 Clouds 23 1020 57 10000 4.63 30 20:49 20.02.2021
2319 Clouds 23 1020 57 10000 4.63 30 20:28 20.02.2021
2320 Clouds 23 1021 56 10000 5.14 40 19:53 20.02.2021
2321 Clouds 23 1021 56 10000 5.14 40 19:31 20.02.2021
2322 Clouds 23 1022 60 10000 3.09 350 18:45 20.02.2021
2323 Clouds 22 1022 60 10000 3.09 350 18:24 20.02.2021
2324 Clouds 22 1023 67 10000 2.24 340 17:43 20.02.2021
2325 Clouds 21 1022 68 10000 4.63 340 17:25 20.02.2021
2326 Clear 20 1023 68 10000 4.12 360 16:43 20.02.2021
2327 Clear 19 1023 68 10000 4.12 360 16:22 20.02.2021
2328 Clouds 17 1022 72 10000 5.66 330 15:37 20.02.2021
2329 Clouds 18 1022 72 10000 5.66 340 14:49 20.02.2021
2330 Clouds 17 1022 72 10000 5.66 340 14:24 20.02.2021
2331 Clouds 17 1021 72 10000 3.6 20 13:53 20.02.2021
2332 Clouds 17 1021 72 10000 3.6 20 13:27 20.02.2021
2333 Clouds 17 1021 77 10000 5.66 360 12:53 20.02.2021
2334 Clouds 17 1021 77 10000 5.66 360 12:32 20.02.2021
2335 Clouds 18 1021 77 10000 5.14 350 11:48 20.02.2021
2336 Clouds 19 1020 82 10000 5.66 340 11:30 20.02.2021
2337 Clouds 19 1019 88 10000 4.63 330 10:50 20.02.2021
2338 Clouds 19 1019 88 10000 4.63 330 10:21 20.02.2021
2339 Clouds 19 1019 88 10000 4.12 340 09:41 20.02.2021
2340 Clouds 19 1019 88 10000 2.06 330 08:49 20.02.2021
2341 Clouds 19 1019 88 10000 2.06 330 08:22 20.02.2021
2342 Clouds 22 1020 94 10000 4.63 320 04:37 20.02.2021
2343 Clouds 24 1018 88 10000 2.57 250 02:32 20.02.2021
2344 Clouds 25 1018 88 10000 2.06 240 01:54 20.02.2021
2345 Clouds 26 1017 74 10000 4.12 180 00:49 20.02.2021
2346 Clouds 26 1017 74 10000 4.12 180 00:30 20.02.2021
2347 Clouds 28 1017 65 10000 5.66 190 23:24 19.02.2021
2348 Clouds 28 1017 61 10000 4.63 190 22:42 19.02.2021
2349 Clouds 28 1017 61 10000 4.63 190 22:19 19.02.2021
2350 Clouds 28 1017 69 10000 6.69 170 21:39 19.02.2021
2351 Clouds 28 1017 69 10000 6.69 170 21:21 19.02.2021
2352 Clouds 28 1017 74 10000 6.17 160 20:40 19.02.2021
2353 Clouds 28 1017 74 10000 6.17 160 20:22 19.02.2021
2354 Clouds 28 1018 74 10000 3.6 150 19:44 19.02.2021
2355 Clouds 28 1018 74 10000 3.6 150 19:20 19.02.2021
2356 Clouds 28 1018 70 10000 5.66 150 18:46 19.02.2021
2357 Clouds 28 1019 74 10000 4.12 190 18:26 19.02.2021
2358 Clouds 28 1020 74 10000 4.63 170 17:36 19.02.2021
2359 Clouds 27 1020 74 10000 4.63 170 16:41 19.02.2021
2360 Clouds 27 1020 74 10000 4.63 170 16:22 19.02.2021
2361 Rain 26 1020 83 10000 4.12 160 15:54 19.02.2021
2362 Clouds 26 1020 83 10000 4.12 160 15:27 19.02.2021
2363 Clouds 26 1019 88 10000 3.6 170 14:49 19.02.2021
2364 Clouds 25 1019 88 10000 3.6 170 14:29 19.02.2021
2365 Clouds 25 1019 88 10000 2.57 0 13:56 19.02.2021
2366 Clouds 25 1018 88 10000 2.57 160 13:36 19.02.2021
2367 Clouds 24 1018 88 10000 3.09 150 12:53 19.02.2021
2368 Clouds 24 1018 88 10000 2.57 160 12:27 19.02.2021
2369 Clouds 25 1018 88 10000 3.09 170 11:57 19.02.2021
2370 Clouds 25 1018 88 10000 3.09 170 11:32 19.02.2021
2371 Clouds 25 1018 88 10000 3.09 150 10:55 19.02.2021
2372 Clouds 25 1018 88 10000 3.09 150 10:32 19.02.2021
2373 Clouds 25 1018 83 10000 4.63 160 09:52 19.02.2021
2374 Clouds 25 1018 83 10000 4.63 160 09:27 19.02.2021
2375 Clouds 25 1018 88 10000 4.12 150 08:55 19.02.2021
2376 Clouds 25 1018 88 10000 4.12 150 08:28 19.02.2021
2377 Clouds 25 1019 88 10000 5.14 140 07:54 19.02.2021
2378 Clouds 25 1019 88 10000 5.14 140 07:36 19.02.2021
2379 Clouds 25 1019 88 10000 4.63 140 06:58 19.02.2021
2380 Clouds 25 1019 88 10000 4.63 140 06:29 19.02.2021
2381 Rain 24 1019 94 10000 3.09 130 04:41 19.02.2021
2382 Clouds 25 1019 78 10000 3.6 140 01:49 19.02.2021
2383 Clouds 26 1018 74 10000 4.63 130 00:59 19.02.2021
2384 Clouds 26 1018 74 10000 4.63 130 00:26 19.02.2021
2385 Clouds 27 1018 69 10000 4.12 150 23:43 18.02.2021
2386 Clouds 27 1018 69 10000 4.12 150 23:25 18.02.2021
2387 Clouds 28 1018 65 10000 4.63 160 22:36 18.02.2021
2388 Clouds 28 1018 65 10000 4.63 160 22:18 18.02.2021
2389 Clouds 29 1018 65 10000 4.63 160 21:28 18.02.2021
2390 Clouds 29 1018 65 10000 6.17 170 20:58 18.02.2021
2391 Clouds 29 1018 65 10000 6.17 170 20:38 18.02.2021
2392 Clouds 29 1018 65 10000 6.17 170 20:19 18.02.2021
2393 Clouds 28 1019 65 10000 6.69 170 19:43 18.02.2021
2394 Clouds 28 1019 65 10000 6.69 170 19:19 18.02.2021
2395 Clouds 28 1020 69 10000 5.66 160 18:47 18.02.2021
2396 Clouds 28 1020 69 10000 5.66 160 18:25 18.02.2021
2397 Clouds 28 1020 69 10000 8.23 160 17:45 18.02.2021
2398 Clouds 27 1020 74 10000 5.66 160 17:23 18.02.2021
2399 Clouds 27 1020 69 10000 6.17 140 16:45 18.02.2021
2400 Clouds 27 1020 69 10000 6.17 140 16:26 18.02.2021
2401 Clouds 27 1019 73 10000 7.2 160 15:42 18.02.2021
2402 Clouds 26 1019 73 10000 7.2 160 15:22 18.02.2021
2403 Clear 26 1019 73 10000 3.6 160 14:50 18.02.2021
2404 Clear 25 1019 73 10000 3.6 160 14:31 18.02.2021
2405 Clouds 24 1018 83 10000 4.12 150 13:49 18.02.2021
2406 Clouds 24 1018 83 10000 4.12 150 13:21 18.02.2021
2407 Clouds 24 1018 83 10000 3.6 130 12:54 18.02.2021
2408 Clouds 24 1018 83 10000 3.6 130 12:30 18.02.2021
2409 Clouds 24 1018 78 10000 4.63 150 11:47 18.02.2021
2410 Clouds 24 1018 78 10000 4.63 150 11:47 18.02.2021
2411 Clouds 24 1018 78 10000 4.63 150 11:27 18.02.2021
2412 Clouds 24 1018 83 10000 6.69 130 10:57 18.02.2021
2413 Clouds 24 1018 83 10000 6.69 130 10:36 18.02.2021
2414 Clouds 24 1018 83 10000 6.69 130 10:18 18.02.2021
2415 Clouds 24 1018 83 10000 4.12 130 09:28 18.02.2021
2416 Clouds 24 1018 88 10000 6.69 130 08:49 18.02.2021
2417 Clouds 24 1018 88 10000 6.69 130 08:31 18.02.2021
2418 Clouds 24 1018 78 10000 6.17 130 07:48 18.02.2021
2419 Clouds 24 1018 78 10000 6.17 130 07:23 18.02.2021
2420 Clouds 24 1019 83 10000 4.63 120 05:42 18.02.2021
2421 Clouds 24 1019 83 10000 4.63 120 05:42 18.02.2021
2422 Clouds 24 1019 83 10000 4.63 120 05:42 18.02.2021
2423 Clouds 25 1017 78 10000 6.69 130 00:29 18.02.2021
2424 Clouds 26 1017 74 10000 6.17 150 23:38 17.02.2021
2425 Clouds 27 1017 74 10000 4.12 160 22:59 17.02.2021
2426 Clouds 27 1017 74 10000 4.12 160 22:39 17.02.2021
2427 Clouds 27 1017 74 10000 4.12 160 22:21 17.02.2021
2428 Clouds 27 1017 74 10000 6.17 130 21:44 17.02.2021
2429 Clouds 27 1017 74 10000 6.17 130 21:20 17.02.2021
2430 Clouds 28 1018 74 10000 6.17 120 20:42 17.02.2021
2431 Clouds 28 1018 74 10000 6.17 120 20:22 17.02.2021
2432 Clouds 28 1018 74 10000 4.12 160 19:38 17.02.2021
2433 Clouds 28 1018 74 10000 5.66 160 18:59 17.02.2021
2434 Clouds 27 1019 74 10000 5.66 150 18:40 17.02.2021
2435 Clouds 27 1019 78 10000 5.14 150 17:47 17.02.2021
2436 Clouds 27 1019 78 10000 5.14 150 17:23 17.02.2021
2437 Clouds 27 1020 78 10000 3.6 150 16:54 17.02.2021
2438 Clouds 26 1020 78 10000 3.6 150 16:36 17.02.2021
2439 Clouds 26 1020 78 10000 3.6 150 16:18 17.02.2021
2440 Clouds 25 1019 88 10000 4.12 150 15:42 17.02.2021
2441 Clouds 25 1019 88 10000 4.12 150 15:22 17.02.2021
2442 Clouds 24 1019 88 10000 2.57 140 14:44 17.02.2021
2443 Clouds 23 1019 88 10000 2.57 140 14:26 17.02.2021
2444 Clouds 23 1018 94 10000 3.09 160 13:45 17.02.2021
2445 Clouds 23 1018 94 10000 3.9 164 12:59 17.02.2021
2446 Clouds 23 1018 94 10000 2.74 172 12:26 17.02.2021
2447 Mist 23 1017 94 9656 2.57 150 11:59 17.02.2021
2448 Mist 23 1017 94 9656 2.57 150 11:36 17.02.2021
2449 Mist 23 1017 94 9656 2.57 150 11:18 17.02.2021
2450 Clouds 23 1017 94 10000 2.06 140 10:43 17.02.2021
2451 Mist 23 1017 94 8047 1.85 222 10:21 17.02.2021
2452 Mist 23 1017 94 9656 1.85 222 09:41 17.02.2021
2453 Mist 23 1017 94 9656 1.63 231 09:19 17.02.2021
2454 Mist 23 1017 94 8047 1.63 231 08:42 17.02.2021
2455 Mist 23 1017 94 8047 1.48 240 08:21 17.02.2021
2456 Rain 23 1018 94 8047 1.9 134 07:25 17.02.2021
2457 Clouds 23 1018 88 10000 2.06 360 04:54 17.02.2021
2458 Clouds 24 1017 88 10000 2.57 350 02:33 17.02.2021
2459 Clouds 24 1016 94 10000 2.06 90 01:49 17.02.2021
2460 Clouds 24 1016 94 10000 2.57 120 00:32 17.02.2021
2461 Rain 25 1016 88 10000 5.19 193 23:53 16.02.2021
2462 Rain 25 1015 88 8047 4.12 170 23:34 16.02.2021
2463 Clouds 26 1015 83 10000 5.74 190 22:42 16.02.2021
2464 Rain 26 1015 83 10000 1.54 260 22:23 16.02.2021
2465 Clouds 26 1015 69 10000 6.17 240 21:42 16.02.2021
2466 Clouds 27 1015 69 10000 3.6 230 21:22 16.02.2021
2467 Clouds 27 1015 69 10000 4.12 240 20:58 16.02.2021
2468 Rain 27 1015 69 10000 4.12 240 20:39 16.02.2021
2469 Clouds 27 1015 78 10000 4.12 180 20:20 16.02.2021
2470 Rain 25 1016 88 10000 4.12 200 19:40 16.02.2021
2471 Rain 25 1016 88 10000 4.12 200 19:22 16.02.2021
2472 Rain 27 1017 69 10000 5.14 200 18:40 16.02.2021
2473 Clouds 27 1017 69 10000 5.14 200 18:21 16.02.2021
2474 Clouds 27 1017 74 10000 5.66 200 17:50 16.02.2021
2475 Clouds 26 1017 74 10000 5.66 200 17:25 16.02.2021
2476 Rain 26 1017 83 10000 5.14 190 16:51 16.02.2021
2477 Rain 25 1017 88 10000 3.6 190 16:27 16.02.2021
2478 Clouds 26 1017 89 10000 4.12 200 15:47 16.02.2021
2479 Clouds 26 1017 89 10000 4.12 200 15:26 16.02.2021
2480 Clouds 26 1017 89 10000 4.63 170 14:50 16.02.2021
2481 Clouds 26 1017 89 10000 4.63 170 14:32 16.02.2021
2482 Clouds 25 1016 94 10000 2.57 160 13:58 16.02.2021
2483 Clouds 25 1016 94 10000 2.57 160 13:35 16.02.2021
2484 Clouds 25 1015 88 10000 3.09 170 12:47 16.02.2021
2485 Clouds 25 1015 88 10000 3.09 170 12:26 16.02.2021
2486 Clouds 25 1016 88 10000 3.6 170 11:50 16.02.2021
2487 Clouds 25 1016 88 10000 3.6 170 11:24 16.02.2021
2488 Clouds 25 1015 88 10000 3.6 170 10:58 16.02.2021
2489 Clouds 25 1015 83 10000 4.12 170 10:39 16.02.2021
2490 Clouds 25 1015 83 10000 4.12 170 10:20 16.02.2021
2491 Clouds 25 1016 83 10000 4.12 160 09:48 16.02.2021
2492 Clouds 25 1016 83 10000 4.12 160 09:26 16.02.2021
2493 Mist 25 1016 83 9656 3.09 170 08:45 16.02.2021
2494 Mist 25 1016 83 9656 3.09 170 08:45 16.02.2021
2495 Mist 25 1016 83 9656 3.09 170 08:22 16.02.2021
2496 Mist 25 1017 88 9656 3.6 170 07:30 16.02.2021
2497 Mist 25 1016 94 9656 2.57 140 06:21 16.02.2021
2498 Clouds 25 1016 78 10000 3.09 140 01:52 16.02.2021
2499 Clouds 26 1015 74 10000 7.2 160 23:46 15.02.2021
2500 Clouds 27 1015 74 10000 7.2 160 23:24 15.02.2021
2501 Clouds 27 1015 69 10000 7.2 140 22:46 15.02.2021
2502 Clouds 28 1015 69 10000 7.2 140 22:23 15.02.2021
2503 Clouds 28 1015 70 10000 6.17 140 21:42 15.02.2021
2504 Clouds 29 1015 70 10000 6.17 140 21:23 15.02.2021
2505 Clouds 29 1016 65 10000 6.69 140 20:49 15.02.2021
2506 Clouds 29 1016 65 10000 6.69 140 20:29 15.02.2021
2507 Clouds 29 1016 65 10000 5.66 160 19:48 15.02.2021
2508 Clouds 29 1016 65 10000 5.66 160 19:24 15.02.2021
2509 Clouds 29 1017 65 10000 6.69 160 18:49 15.02.2021
2510 Clouds 29 1017 65 10000 6.69 160 18:26 15.02.2021
2511 Clouds 29 1018 65 10000 6.17 170 17:45 15.02.2021
2512 Clouds 29 1018 65 10000 6.17 170 17:27 15.02.2021
2513 Clouds 28 1017 69 10000 5.14 150 16:57 15.02.2021
2514 Clouds 28 1017 69 10000 5.14 150 16:29 15.02.2021
2515 Clouds 27 1017 78 10000 4.63 160 15:58 15.02.2021
2516 Clouds 27 1017 78 10000 4.63 160 15:40 15.02.2021
2517 Clouds 27 1017 78 10000 4.63 160 15:18 15.02.2021
2518 Clouds 26 1017 88 10000 2.57 160 14:40 15.02.2021
2519 Clouds 25 1017 88 10000 2.57 160 14:20 15.02.2021
2520 Clouds 24 1017 94 10000 1.54 160 13:48 15.02.2021
2521 Clouds 24 1017 94 10000 1.54 160 13:20 15.02.2021
2522 Clouds 24 1016 94 10000 2.06 160 12:45 15.02.2021
2523 Clouds 24 1016 94 10000 2.06 160 12:22 15.02.2021
2524 Clouds 24 1016 94 10000 2.06 150 11:49 15.02.2021
2525 Clouds 24 1016 94 10000 2.06 150 11:23 15.02.2021
2526 Clouds 24 1015 88 10000 3.09 140 10:50 15.02.2021
2527 Clouds 24 1015 88 10000 3.09 140 10:25 15.02.2021
2528 Clouds 24 1015 88 10000 3.6 140 09:56 15.02.2021
2529 Clouds 24 1016 88 10000 3.6 160 09:33 15.02.2021
2530 Clouds 24 1016 88 10000 3.6 140 08:57 15.02.2021
2531 Clouds 24 1017 88 10000 3.6 160 07:55 15.02.2021
2532 Clouds 24 1017 94 10000 2.57 140 06:59 15.02.2021
2533 Clouds 25 1017 94 10000 2.57 140 06:40 15.02.2021
2534 Clouds 25 1015 83 10000 2.57 180 02:34 15.02.2021
2535 Clouds 25 1015 78 10000 3.6 170 01:27 15.02.2021
2536 Clouds 27 1014 74 10000 4.63 150 23:58 14.02.2021
2537 Clouds 27 1014 74 10000 4.63 150 23:23 14.02.2021
2538 Clouds 28 1014 69 10000 6.17 170 22:40 14.02.2021
2539 Clouds 28 1014 69 10000 6.17 170 22:21 14.02.2021
2540 Clouds 28 1014 65 10000 6.17 150 21:48 14.02.2021
2541 Clouds 29 1014 65 10000 6.17 150 21:29 14.02.2021
2542 Clear 29 1014 65 10000 6.17 160 20:52 14.02.2021
2543 Clear 29 1014 65 10000 6.17 160 20:27 14.02.2021
2544 Clouds 29 1015 65 10000 6.69 180 19:48 14.02.2021
2545 Clouds 29 1016 65 10000 7.72 150 18:56 14.02.2021
2546 Clouds 29 1016 65 10000 7.72 150 18:37 14.02.2021
2547 Clouds 29 1016 70 10000 6.69 180 17:57 14.02.2021
2548 Clouds 29 1016 70 10000 6.69 180 17:36 14.02.2021
2549 Clouds 28 1016 78 10000 4.63 170 16:55 14.02.2021
2550 Clouds 28 1016 78 10000 4.63 170 16:33 14.02.2021
2551 Clouds 27 1016 78 10000 5.14 160 15:53 14.02.2021
2552 Clouds 27 1016 78 10000 5.14 160 15:35 14.02.2021
2553 Clouds 26 1015 83 10000 3.6 160 14:49 14.02.2021
2554 Clouds 25 1015 83 10000 3.6 160 14:27 14.02.2021
2555 Clouds 25 1014 94 10000 3.09 150 13:53 14.02.2021
2556 Clouds 24 1014 94 10000 3.09 150 13:30 14.02.2021
2557 Clouds 24 1014 88 10000 3.09 160 12:40 14.02.2021
2558 Clouds 24 1014 88 10000 3.09 160 12:19 14.02.2021
2559 Clouds 24 1014 88 10000 3.6 160 11:50 14.02.2021
2560 Clouds 24 1014 88 10000 3.6 160 11:50 14.02.2021
2561 Clouds 24 1014 88 10000 3.6 160 11:21 14.02.2021
2562 Clouds 25 1014 88 10000 4.63 150 10:37 14.02.2021
2563 Clouds 25 1014 88 10000 5.66 160 09:55 14.02.2021
2564 Clouds 25 1014 88 10000 5.66 160 09:37 14.02.2021
2565 Clouds 25 1014 88 10000 5.66 160 09:19 14.02.2021
2566 Clouds 24 1015 94 10000 3.09 150 08:35 14.02.2021
2567 Clouds 24 1015 88 10000 4.12 140 07:55 14.02.2021
2568 Clouds 24 1015 83 10000 5.14 140 06:49 14.02.2021
2569 Clouds 24 1015 83 10000 3.09 130 05:37 14.02.2021
2570 Clouds 24 1014 83 10000 3.09 130 03:23 14.02.2021
2571 Clouds 24 1013 83 10000 4.63 140 01:42 14.02.2021
2572 Clouds 25 1013 78 10000 3.6 150 00:46 14.02.2021
2573 Clouds 25 1013 78 10000 3.6 150 00:18 14.02.2021
2574 Clouds 26 1013 69 10000 6.17 140 23:38 13.02.2021
2575 Clouds 26 1013 69 10000 6.17 140 23:20 13.02.2021
2576 Clouds 26 1013 69 10000 6.17 140 23:20 13.02.2021
2577 Clouds 27 1013 69 10000 4.63 150 22:33 13.02.2021
2578 Clouds 27 1013 69 10000 6.69 140 21:53 13.02.2021
2579 Clouds 27 1013 69 10000 6.69 140 21:35 13.02.2021
2580 Clouds 28 1014 69 10000 6.17 150 20:49 13.02.2021
2581 Clouds 28 1014 69 10000 6.17 150 20:28 13.02.2021
2582 Clouds 28 1014 69 10000 5.66 150 19:49 13.02.2021
2583 Clouds 28 1014 69 10000 5.66 150 19:49 13.02.2021
2584 Clouds 28 1014 69 10000 5.66 150 19:24 13.02.2021
2585 Clouds 28 1015 69 10000 7.2 150 18:50 13.02.2021
2586 Clouds 28 1015 69 10000 7.2 150 18:28 13.02.2021
2587 Clouds 27 1016 74 10000 7.2 140 17:45 13.02.2021
2588 Clouds 27 1016 74 10000 7.2 140 17:26 13.02.2021
2589 Clouds 27 1016 74 10000 6.17 160 16:55 13.02.2021
2590 Clouds 27 1016 74 10000 6.17 160 16:37 13.02.2021
2591 Clouds 26 1016 83 10000 6.17 140 15:46 13.02.2021
2592 Clouds 25 1015 83 10000 3.6 150 15:26 13.02.2021
2593 Clouds 24 1015 83 10000 3.09 140 14:41 13.02.2021
2594 Clouds 24 1015 83 10000 3.09 140 14:19 13.02.2021
2595 Clouds 24 1015 88 10000 3.6 150 13:40 13.02.2021
2596 Clouds 24 1015 88 10000 3.6 150 13:22 13.02.2021
2597 Clouds 23 1014 88 10000 2.57 140 12:36 13.02.2021
2598 Clouds 24 1014 88 10000 2.57 140 12:18 13.02.2021
2599 Clouds 24 1014 88 10000 3.09 150 11:40 13.02.2021
2600 Clouds 24 1014 88 10000 3.09 150 11:18 13.02.2021
2601 Clouds 24 1014 94 10000 3.6 140 10:43 13.02.2021
2602 Clouds 24 1014 94 10000 3.6 140 10:23 13.02.2021
2603 Clouds 24 1014 88 10000 4.12 140 09:48 13.02.2021
2604 Clouds 24 1014 88 10000 4.12 140 09:28 13.02.2021
2605 Clouds 24 1014 88 10000 4.12 130 08:50 13.02.2021
2606 Clouds 24 1014 88 10000 4.12 130 08:19 13.02.2021
2607 Clouds 24 1015 88 10000 3.09 140 07:43 13.02.2021
2608 Clouds 24 1015 88 10000 4.12 130 06:25 13.02.2021
2609 Clouds 24 1015 88 10000 3.09 140 05:18 13.02.2021
2610 Clouds 24 1015 88 10000 3.09 140 02:44 13.02.2021
2611 Clouds 25 1014 83 10000 5.66 130 00:57 13.02.2021
2612 Clouds 25 1014 83 10000 5.66 130 00:57 13.02.2021
2613 Clouds 25 1014 83 10000 5.66 130 00:19 13.02.2021
2614 Clouds 25 1014 78 10000 5.14 130 23:45 12.02.2021
2615 Clouds 26 1014 78 10000 5.14 130 23:19 12.02.2021
2616 Clouds 26 1014 78 10000 5.66 140 22:32 12.02.2021
2617 Clouds 26 1014 65 10000 5.14 130 21:59 12.02.2021
2618 Clouds 26 1014 65 10000 5.14 130 21:40 12.02.2021
2619 Clouds 27 1014 65 10000 5.14 130 21:21 12.02.2021
2620 Clouds 27 1015 69 10000 6.69 140 20:41 12.02.2021
2621 Clouds 27 1015 69 10000 6.69 140 20:23 12.02.2021
2622 Clouds 28 1015 65 10000 6.17 130 19:54 12.02.2021
2623 Clouds 28 1015 65 10000 6.17 130 19:29 12.02.2021
2624 Clouds 28 1016 65 10000 5.14 150 18:35 12.02.2021
2625 Clouds 28 1017 69 10000 5.14 130 17:56 12.02.2021
2626 Clouds 28 1017 69 10000 5.14 130 17:38 12.02.2021
2627 Clouds 27 1017 73 10000 4.63 140 16:54 12.02.2021
2628 Clouds 26 1017 73 10000 4.63 140 16:18 12.02.2021
2629 Clouds 26 1017 78 10000 2.57 100 15:43 12.02.2021
2630 Clouds 26 1017 78 10000 2.57 100 15:20 12.02.2021
2631 Clouds 24 1016 88 10000 4.74 150 14:36 12.02.2021
2632 Clouds 23 1016 94 10000 4.12 152 13:49 12.02.2021
2633 Clouds 22 1016 94 10000 3.83 158 13:29 12.02.2021
2634 Clouds 23 1015 88 10000 2.57 130 12:53 12.02.2021
2635 Clouds 22 1015 88 10000 2.57 130 12:35 12.02.2021
2636 Clouds 22 1015 88 10000 2.57 120 11:48 12.02.2021
2637 Clouds 22 1015 88 10000 2.57 120 11:22 12.02.2021
2638 Clouds 23 1015 88 10000 3.6 120 10:48 12.02.2021
2639 Clouds 23 1015 88 10000 3.6 120 10:19 12.02.2021
2640 Clouds 23 1015 88 10000 3.09 130 09:42 12.02.2021
2641 Clouds 23 1015 88 10000 3.09 130 09:23 12.02.2021
2642 Clouds 23 1016 88 10000 2.57 150 08:45 12.02.2021
2643 Clouds 23 1016 88 10000 2.57 150 08:22 12.02.2021
2644 Clouds 23 1016 88 10000 2.57 150 07:52 12.02.2021
2645 Clouds 23 1016 88 10000 2.57 150 07:24 12.02.2021
2646 Clear 23 1016 88 10000 2.06 140 06:53 12.02.2021
2647 Clouds 23 1016 88 10000 2.57 110 05:37 12.02.2021
2648 Clouds 23 1017 88 10000 2.06 120 03:46 12.02.2021
2649 Clouds 24 1016 83 10000 4.12 130 00:34 12.02.2021
2650 Clouds 25 1016 69 10000 5.14 120 23:38 11.02.2021
2651 Clouds 26 1016 69 10000 5.14 120 23:18 11.02.2021
2652 Clouds 26 1016 69 10000 5.14 130 22:42 11.02.2021
2653 Clouds 26 1016 69 10000 5.14 130 22:23 11.02.2021
2654 Clouds 26 1016 69 10000 6.17 120 21:43 11.02.2021
2655 Clouds 26 1016 69 10000 6.17 120 21:24 11.02.2021
2656 Clouds 27 1017 61 10000 7.72 120 20:56 11.02.2021
2657 Clouds 27 1017 61 10000 7.72 120 20:37 11.02.2021
2658 Clouds 27 1017 61 10000 7.72 120 20:18 11.02.2021
2659 Clouds 27 1018 61 10000 6.69 110 19:46 11.02.2021
2660 Clouds 27 1018 61 10000 6.69 110 19:25 11.02.2021
2661 Clouds 27 1019 61 10000 6.69 110 18:41 11.02.2021
2662 Clouds 27 1019 61 10000 6.69 110 18:19 11.02.2021
2663 Clouds 27 1019 61 10000 6.17 130 17:43 11.02.2021
2664 Clouds 27 1019 61 10000 6.17 130 17:20 11.02.2021
2665 Clouds 26 1019 69 10000 6.69 130 16:44 11.02.2021
2666 Clouds 26 1019 69 10000 6.69 130 16:25 11.02.2021
2667 Clouds 25 1019 73 10000 5.14 130 15:45 11.02.2021
2668 Clouds 25 1019 73 10000 5.14 130 15:26 11.02.2021
2669 Clouds 25 1019 73 10000 5.14 130 15:26 11.02.2021
2670 Clouds 24 1019 83 10000 4.12 120 14:55 11.02.2021
2671 Clouds 24 1019 83 10000 4.12 120 14:31 11.02.2021
2672 Clouds 23 1018 88 10000 3.6 110 13:43 11.02.2021
2673 Clouds 23 1018 88 10000 3.6 110 13:20 11.02.2021
2674 Clouds 22 1018 88 10000 3.6 110 12:56 11.02.2021
2675 Clouds 23 1018 88 10000 3.6 110 12:33 11.02.2021
2676 Clouds 23 1018 88 10000 3.09 110 11:48 11.02.2021
2677 Clouds 23 1018 88 10000 3.09 110 11:27 11.02.2021
2678 Clouds 23 1018 88 10000 2.57 110 10:46 11.02.2021
2679 Clouds 23 1018 88 10000 2.57 110 10:46 11.02.2021
2680 Clouds 23 1018 88 10000 2.57 110 10:27 11.02.2021
2681 Clouds 23 1018 88 10000 4.12 110 09:59 11.02.2021
2682 Clouds 23 1018 88 10000 4.12 110 09:36 11.02.2021
2683 Clouds 23 1018 88 10000 4.12 110 09:18 11.02.2021
2684 Clouds 23 1018 88 10000 4.12 120 08:43 11.02.2021
2685 Clouds 23 1019 88 10000 4.63 100 07:43 11.02.2021
2686 Clouds 23 1019 88 10000 5.66 100 06:44 11.02.2021
2687 Clouds 23 1020 83 10000 4.63 100 05:54 11.02.2021
2688 Clouds 23 1020 78 10000 3.6 100 03:43 11.02.2021
2689 Clouds 23 1019 78 10000 4.63 90 02:21 11.02.2021
2690 Clouds 24 1019 78 10000 5.14 110 00:23 11.02.2021
2691 Clouds 24 1019 65 10000 5.14 130 23:52 10.02.2021
2692 Clouds 25 1019 65 10000 5.14 130 23:20 10.02.2021
2693 Clouds 26 1019 61 10000 5.66 100 22:43 10.02.2021
2694 Clouds 26 1019 61 10000 5.66 100 22:23 10.02.2021
2695 Clouds 27 1019 65 10000 4.63 120 21:40 10.02.2021
2696 Clouds 26 1019 65 10000 4.63 120 21:21 10.02.2021
2697 Clouds 27 1019 61 10000 5.14 120 20:51 10.02.2021
2698 Clouds 27 1019 61 10000 5.14 120 20:28 10.02.2021
2699 Clouds 27 1020 57 10000 6.17 120 19:50 10.02.2021
2700 Clouds 27 1020 57 10000 6.17 120 19:29 10.02.2021
2701 Clouds 27 1021 61 10000 5.14 120 18:49 10.02.2021
2702 Clouds 27 1021 61 10000 5.14 120 18:29 10.02.2021
2703 Clouds 27 1021 65 10000 4.63 130 17:59 10.02.2021
2704 Clouds 27 1021 65 10000 4.63 130 17:40 10.02.2021
2705 Clouds 27 1021 65 10000 4.63 130 17:20 10.02.2021
2706 Clouds 26 1022 69 10000 5.66 100 16:46 10.02.2021
2707 Clouds 26 1022 69 10000 5.66 100 16:24 10.02.2021
2708 Clouds 25 1021 83 10000 5.14 120 15:25 10.02.2021
2709 Clouds 24 1021 88 10000 3.09 100 14:58 10.02.2021
2710 Clouds 23 1021 88 10000 3.09 100 14:39 10.02.2021
2711 Clouds 22 1020 94 10000 2.57 100 13:55 10.02.2021
2712 Clouds 22 1020 94 10000 2.57 100 13:31 10.02.2021
2713 Clouds 22 1020 94 10000 2.57 90 12:55 10.02.2021
2714 Clouds 22 1020 94 10000 2.57 90 12:31 10.02.2021
2715 Clouds 22 1019 94 10000 2.57 120 11:59 10.02.2021
2716 Clouds 22 1019 94 10000 2.57 120 11:40 10.02.2021
2717 Clouds 22 1019 94 10000 2.57 120 11:22 10.02.2021
2718 Clouds 22 1019 88 10000 2.06 90 10:37 10.02.2021
2719 Clouds 22 1019 88 10000 2.06 90 10:18 10.02.2021
2720 Clouds 22 1019 88 10000 2.06 90 10:18 10.02.2021
2721 Clouds 22 1019 88 10000 2.06 90 09:35 10.02.2021
2722 Clouds 22 1019 88 10000 2.06 120 08:57 10.02.2021
2723 Clouds 22 1019 88 10000 2.06 120 08:39 10.02.2021
2724 Clouds 22 1020 88 10000 2.57 100 07:52 10.02.2021
2725 Clouds 23 1020 88 10000 3.6 110 06:44 10.02.2021
2726 Rain 23 1020 83 10000 4.12 100 02:26 10.02.2021
2727 Rain 25 1020 73 10000 4.12 110 00:25 10.02.2021
2728 Clouds 26 1019 69 10000 3.6 110 23:34 09.02.2021
2729 Clouds 26 1019 69 10000 4.12 130 22:54 09.02.2021
2730 Clouds 27 1019 69 10000 4.12 130 22:24 09.02.2021
2731 Clouds 27 1019 69 10000 3.09 130 21:52 09.02.2021
2732 Clouds 27 1019 74 10000 4.63 120 21:32 09.02.2021
2733 Clouds 28 1019 65 10000 5.66 150 20:49 09.02.2021
2734 Clouds 28 1019 65 10000 5.66 150 20:26 09.02.2021
2735 Clouds 28 1020 69 10000 5.14 140 19:58 09.02.2021
2736 Clouds 27 1020 69 10000 5.14 140 19:36 09.02.2021
2737 Clouds 28 1021 69 10000 5.66 120 18:58 09.02.2021
2738 Clouds 28 1021 69 10000 5.66 120 18:58 09.02.2021
2739 Clouds 28 1021 69 10000 5.66 120 18:58 09.02.2021
2740 Clouds 28 1021 69 10000 5.66 120 18:58 09.02.2021
2741 Clouds 27 1021 69 10000 5.66 120 18:36 09.02.2021
2742 Clouds 27 1021 69 10000 5.66 140 17:57 09.02.2021
2743 Clouds 27 1021 69 10000 4.63 150 17:37 09.02.2021
2744 Clouds 27 1021 69 10000 4.63 150 17:19 09.02.2021
2745 Clouds 26 1022 73 10000 4.12 150 16:41 09.02.2021
2746 Clouds 26 1022 78 10000 5.14 130 16:18 09.02.2021
2747 Clouds 26 1022 78 10000 4.12 130 15:48 09.02.2021
2748 Clouds 25 1021 83 10000 3.6 130 15:25 09.02.2021
2749 Clouds 23 1021 94 10000 4.01 129 14:53 09.02.2021
2750 Clouds 23 1021 94 10000 4.08 126 14:27 09.02.2021
2751 Clouds 22 1020 100 10000 1.54 120 13:51 09.02.2021
2752 Clouds 22 1020 100 10000 1.54 120 13:25 09.02.2021
2753 Clouds 22 1020 94 10000 2.06 100 12:51 09.02.2021
2754 Clouds 22 1020 94 10000 2.06 100 12:32 09.02.2021
2755 Mist 22 1020 94 6437 2.57 100 11:56 09.02.2021
2756 Mist 22 1020 94 6437 2.57 100 11:38 09.02.2021
2757 Mist 22 1020 94 6437 2.57 100 11:19 09.02.2021
2758 Mist 22 1020 100 1609 3.28 110 10:43 09.02.2021
2759 Mist 22 1020 100 4828 2.9 104 10:18 09.02.2021
2760 Mist 22 1020 94 6437 2.9 104 09:42 09.02.2021
2761 Mist 21 1020 94 6437 2.44 103 09:24 09.02.2021
2762 Mist 21 1020 100 6437 2.44 103 08:42 09.02.2021
2763 Mist 22 1020 94 4828 2.05 112 08:22 09.02.2021
2764 Clear 22 1021 94 10000 2.04 117 06:18 09.02.2021
2765 Clear 23 1021 88 10000 1.54 120 04:18 09.02.2021
2766 Clear 23 1021 88 10000 1.54 170 03:34 09.02.2021
2767 Clouds 25 1019 78 10000 4.12 130 00:33 09.02.2021
2768 Clouds 26 1018 65 10000 5.14 180 23:57 08.02.2021
2769 Clouds 26 1018 65 10000 5.14 180 23:21 08.02.2021
2770 Clouds 27 1018 65 10000 5.66 140 22:44 08.02.2021
2771 Clouds 27 1018 65 10000 5.66 140 22:24 08.02.2021
2772 Clouds 28 1018 61 10000 6.69 130 21:55 08.02.2021
2773 Clouds 28 1018 61 10000 6.69 130 21:32 08.02.2021
2774 Clouds 28 1019 65 10000 5.66 160 20:59 08.02.2021
2775 Clouds 28 1019 65 10000 5.66 160 20:38 08.02.2021
2776 Clouds 28 1019 65 10000 5.66 160 20:20 08.02.2021
2777 Clouds 28 1019 69 10000 5.66 150 19:42 08.02.2021
2778 Clouds 28 1019 69 10000 5.66 150 19:22 08.02.2021
2779 Clouds 28 1020 65 10000 5.14 140 18:48 08.02.2021
2780 Clouds 28 1020 65 10000 5.14 140 18:23 08.02.2021
2781 Clouds 28 1020 74 10000 6.17 130 17:45 08.02.2021
2782 Clouds 28 1020 74 10000 6.17 130 17:25 08.02.2021
2783 Clouds 27 1020 78 10000 4.63 150 16:44 08.02.2021
2784 Clouds 26 1020 78 10000 4.63 150 16:21 08.02.2021
2785 Clouds 25 1020 88 10000 2.06 0 15:48 08.02.2021
2786 Clouds 25 1020 88 10000 2.06 0 15:20 08.02.2021
2787 Mist 24 1019 94 9656 2.06 160 14:52 08.02.2021
2788 Mist 24 1019 94 9656 2.06 160 14:32 08.02.2021
2789 Clouds 23 1019 94 10000 2.06 180 13:57 08.02.2021
2790 Mist 23 1018 100 4828 2.06 170 13:38 08.02.2021
2791 Mist 23 1018 100 9656 2.57 150 13:20 08.02.2021
2792 Mist 23 1017 94 9656 0.7 223 12:37 08.02.2021
2793 Mist 22 1017 94 9656 0.81 248 11:51 08.02.2021
2794 Mist 23 1017 94 9656 1.01 241 11:22 08.02.2021
2795 Mist 22 1017 94 9656 1.01 241 10:45 08.02.2021
2796 Mist 22 1017 94 9656 1.28 238 10:24 08.02.2021
2797 Mist 22 1017 94 9656 1.28 238 09:54 08.02.2021
2798 Mist 23 1017 94 9656 1.28 238 09:36 08.02.2021
2799 Clouds 23 1017 94 10000 1.76 249 08:51 08.02.2021
2800 Mist 22 1017 94 9656 2.14 245 08:23 08.02.2021
2801 Clouds 22 1018 94 10000 2.14 245 07:36 08.02.2021
2802 Clouds 22 1017 94 10000 2 282 06:30 08.02.2021
2803 Clouds 23 1017 88 10000 1.54 160 04:53 08.02.2021
2804 Clouds 25 1016 78 10000 2.57 260 01:51 08.02.2021
2805 Clouds 26 1015 69 10000 3.09 240 00:23 08.02.2021
2806 Clouds 27 1014 65 10000 4.63 220 23:52 07.02.2021
2807 Clouds 27 1014 65 10000 4.63 220 23:27 07.02.2021
2808 Clouds 28 1014 65 10000 5.66 250 22:55 07.02.2021
2809 Clouds 28 1014 65 10000 5.66 250 22:37 07.02.2021
2810 Clouds 28 1014 65 10000 5.66 250 22:19 07.02.2021
2811 Clouds 28 1014 61 10000 6.69 210 21:47 07.02.2021
2812 Clouds 29 1014 61 10000 6.69 210 21:21 07.02.2021
2813 Clouds 29 1014 65 10000 6.17 220 20:48 07.02.2021
2814 Clouds 29 1014 65 10000 6.17 220 20:27 07.02.2021
2815 Clouds 29 1015 65 10000 7.2 220 19:43 07.02.2021
2816 Clouds 29 1015 65 10000 7.2 220 19:25 07.02.2021
2817 Clouds 28 1015 65 10000 7.2 220 18:44 07.02.2021
2818 Clouds 29 1015 65 10000 7.2 220 18:26 07.02.2021
2819 Clouds 28 1016 69 10000 5.66 200 17:44 07.02.2021
2820 Clouds 28 1016 69 10000 5.66 200 17:22 07.02.2021
2821 Clouds 27 1016 74 10000 7.2 210 16:58 07.02.2021
2822 Clouds 26 1016 83 10000 6.17 200 16:39 07.02.2021
2823 Clouds 26 1016 83 10000 6.17 200 16:19 07.02.2021
2824 Clouds 25 1016 83 10000 4.63 200 15:42 07.02.2021
2825 Clouds 24 1016 88 10000 4.12 200 15:21 07.02.2021
2826 Clouds 23 1015 100 10000 3.6 180 14:43 07.02.2021
2827 Clouds 23 1015 100 10000 3.6 180 14:25 07.02.2021
2828 Clouds 23 1015 94 10000 2.57 190 13:43 07.02.2021
2829 Clouds 22 1015 94 10000 2.57 190 13:25 07.02.2021
2830 Clouds 22 1014 94 10000 2.57 180 12:39 07.02.2021
2831 Mist 23 1014 94 9656 3.09 190 12:20 07.02.2021
2832 Clear 22 1013 94 10000 3.09 190 11:42 07.02.2021
2833 Clear 22 1013 94 10000 3.09 190 11:24 07.02.2021
2834 Clouds 22 1013 94 10000 2.06 170 10:29 07.02.2021
2835 Clouds 23 1013 100 10000 2.57 180 09:57 07.02.2021
2836 Clouds 23 1013 100 10000 2.57 180 09:38 07.02.2021
2837 Clouds 23 1013 94 10000 4.63 180 09:18 07.02.2021
2838 Mist 23 1014 94 9656 4.12 160 07:57 07.02.2021
2839 Mist 23 1014 94 9656 4.12 160 06:32 07.02.2021
2840 Mist 23 1015 88 9656 3.6 130 04:36 07.02.2021
2841 Clouds 22 1014 94 10000 2.57 120 02:52 07.02.2021
2842 Clouds 23 1014 88 10000 1.54 280 00:39 07.02.2021
2843 Clouds 23 1014 94 10000 3.09 180 23:53 06.02.2021
2844 Clouds 23 1014 88 10000 2.57 150 22:59 06.02.2021
2845 Clouds 23 1014 88 10000 2.57 150 22:21 06.02.2021
2846 Mist 23 1014 94 9656 3.09 160 21:37 06.02.2021
2847 Mist 23 1014 94 8047 4.12 160 21:19 06.02.2021
2848 Mist 23 1014 94 4828 5.66 150 20:44 06.02.2021
2849 Mist 23 1014 94 4828 5.66 150 20:22 06.02.2021
2850 Mist 24 1015 94 2414 5.14 170 19:46 06.02.2021
2851 Rain 24 1015 100 1609 5.66 150 19:25 06.02.2021
2852 Rain 25 1016 94 6437 5.14 170 18:45 06.02.2021
2853 Rain 26 1016 74 10000 7.2 160 18:26 06.02.2021
2854 Clouds 27 1017 74 10000 6.17 160 17:41 06.02.2021
2855 Clouds 27 1017 74 10000 6.17 160 17:21 06.02.2021
2856 Clouds 26 1016 78 10000 4.12 150 16:55 06.02.2021
2857 Clouds 26 1016 78 10000 4.12 150 16:30 06.02.2021
2858 Clouds 25 1016 88 10000 4.63 150 15:53 06.02.2021
2859 Clouds 24 1016 88 10000 4.63 150 15:34 06.02.2021
2860 Clouds 23 1016 94 10000 3.09 140 14:59 06.02.2021
2861 Clouds 23 1016 94 10000 3.09 140 14:39 06.02.2021
2862 Clouds 23 1016 94 10000 3.09 140 14:21 06.02.2021
2863 Clouds 22 1015 94 10000 2.57 140 13:45 06.02.2021
2864 Clouds 22 1015 94 10000 2.57 130 12:47 06.02.2021
2865 Clouds 22 1015 94 10000 2.57 130 12:20 06.02.2021
2866 Clouds 22 1015 94 10000 3.09 140 11:40 06.02.2021
2867 Clouds 22 1015 94 10000 3.09 140 11:20 06.02.2021
2868 Clouds 22 1015 94 10000 2.06 120 10:53 06.02.2021
2869 Clouds 22 1015 94 10000 2.06 120 10:27 06.02.2021
2870 Clouds 22 1015 94 10000 2.06 130 09:54 06.02.2021
2871 Clouds 22 1015 94 10000 2.06 130 09:36 06.02.2021
2872 Clouds 22 1015 94 10000 2.06 130 09:18 06.02.2021
2873 Clouds 21 1015 94 10000 1.54 150 08:29 06.02.2021
2874 Clouds 21 1016 88 10000 2.06 140 07:44 06.02.2021
2875 Clear 21 1016 88 10000 3.09 130 05:42 06.02.2021
2876 Clouds 21 1016 88 10000 3.09 130 03:47 06.02.2021
2877 Clouds 21 1015 78 10000 3.6 130 01:33 06.02.2021
2878 Clouds 22 1015 73 10000 4.12 150 00:46 06.02.2021
2879 Clouds 22 1015 73 10000 5.14 170 00:19 06.02.2021
2880 Clouds 23 1015 68 10000 5.14 140 23:42 05.02.2021
2881 Clouds 23 1015 68 10000 5.14 140 23:24 05.02.2021
2882 Clouds 24 1015 64 10000 4.63 130 22:45 05.02.2021
2883 Clouds 24 1015 64 10000 4.63 130 22:18 05.02.2021
2884 Clouds 25 1015 60 10000 6.17 140 21:41 05.02.2021
2885 Clouds 24 1015 60 10000 6.17 140 21:23 05.02.2021
2886 Clouds 25 1015 60 10000 4.12 140 20:39 05.02.2021
2887 Clouds 25 1016 60 10000 4.63 130 19:50 05.02.2021
2888 Clouds 25 1016 60 10000 4.63 130 19:19 05.02.2021
2889 Clouds 25 1017 57 10000 5.14 160 18:52 05.02.2021
2890 Clouds 25 1017 57 10000 5.14 160 18:19 05.02.2021
2891 Clouds 24 1018 56 10000 4.12 180 17:44 05.02.2021
2892 Clouds 24 1018 56 10000 4.12 180 17:21 05.02.2021
2893 Clouds 23 1018 64 10000 5.14 140 16:48 05.02.2021
2894 Clouds 23 1018 64 10000 5.14 140 16:23 05.02.2021
2895 Clouds 21 1018 73 10000 2.57 150 15:54 05.02.2021
2896 Clouds 21 1018 73 10000 2.57 150 15:26 05.02.2021
2897 Clouds 18 1017 77 10000 2.06 140 14:40 05.02.2021
2898 Clouds 16 1017 77 10000 2.06 140 14:22 05.02.2021
2899 Clouds 14 1017 82 10000 3.79 164 13:59 05.02.2021
2900 Clouds 14 1017 82 10000 3.79 164 13:36 05.02.2021
2901 Clouds 14 1017 82 10000 2.06 170 12:49 05.02.2021
2902 Clouds 14 1017 82 10000 2.06 170 12:28 05.02.2021
2903 Clouds 14 1016 82 10000 2.06 140 11:41 05.02.2021
2904 Clouds 14 1016 82 10000 2.06 140 11:21 05.02.2021
2905 Clouds 14 1017 82 10000 2.06 150 10:57 05.02.2021
2906 Clouds 14 1017 82 10000 2.06 150 10:27 05.02.2021
2907 Clouds 13 1017 82 10000 3.03 177 09:47 05.02.2021
2908 Clouds 13 1017 82 10000 3.07 176 09:28 05.02.2021
2909 Clouds 14 1018 77 10000 3.07 176 08:53 05.02.2021
2910 Clouds 14 1018 77 10000 4.12 169 08:22 05.02.2021
2911 Clouds 14 1018 77 10000 4.12 169 07:36 05.02.2021
2912 Clouds 15 1019 72 10000 2.06 110 06:52 05.02.2021
2913 Clouds 16 1019 72 10000 2.06 130 05:37 05.02.2021
2914 Clouds 17 1019 77 10000 2.06 0 03:18 05.02.2021
2915 Clouds 18 1019 68 10000 2.06 150 02:24 05.02.2021
2916 Clouds 19 1018 60 10000 4.12 130 00:40 05.02.2021
2917 Clouds 19 1018 60 10000 4.12 130 00:20 05.02.2021
2918 Clouds 20 1019 52 10000 4.12 120 23:57 04.02.2021
2919 Clouds 21 1019 52 10000 4.12 120 23:39 04.02.2021
2920 Clouds 21 1019 52 10000 4.12 120 23:20 04.02.2021
2921 Clouds 21 1019 52 10000 4.12 120 23:20 04.02.2021
2922 Clouds 21 1019 52 10000 4.12 120 23:20 04.02.2021
2923 Clouds 21 1019 53 10000 6.17 130 22:51 04.02.2021
2924 Clouds 21 1019 53 10000 6.17 130 22:51 04.02.2021
2925 Clouds 22 1019 53 10000 6.17 130 22:26 04.02.2021
2926 Clouds 22 1019 49 10000 4.63 140 21:42 04.02.2021
2927 Clouds 22 1019 49 10000 4.63 140 21:20 04.02.2021
2928 Clouds 22 1019 46 10000 3.6 150 20:49 04.02.2021
2929 Clouds 22 1019 46 10000 3.6 150 20:30 04.02.2021
2930 Clouds 22 1019 46 10000 3.6 150 20:30 04.02.2021
2931 Clouds 22 1019 46 10000 3.6 150 20:30 04.02.2021
2932 Clouds 22 1019 46 10000 3.6 150 20:30 04.02.2021
2933 Clouds 21 1020 43 10000 2.06 0 19:43 04.02.2021
2934 Clouds 20 1021 42 10000 2.57 80 18:57 04.02.2021
2935 Clouds 20 1021 42 10000 2.57 80 18:26 04.02.2021
2936 Clouds 20 1022 34 10000 2.06 90 17:56 04.02.2021
2937 Clouds 19 1022 34 10000 2.06 90 17:37 04.02.2021
2938 Clouds 19 1022 34 10000 2.06 90 17:18 04.02.2021
2939 Clear 17 1022 38 10000 1.54 360 16:41 04.02.2021
2940 Clear 16 1022 38 10000 1.54 360 16:18 04.02.2021
2941 Clouds 14 1021 44 10000 2.57 10 15:40 04.02.2021
2942 Clouds 13 1021 44 10000 2.57 10 15:21 04.02.2021
2943 Clouds 10 1021 50 10000 2.06 360 14:48 04.02.2021
2944 Clouds 9 1021 50 10000 2.06 360 14:21 04.02.2021
2945 Clouds 8 1020 57 10000 2.06 10 13:49 04.02.2021
2946 Clouds 8 1020 57 10000 2.06 10 13:28 04.02.2021
2947 Clouds 8 1020 62 10000 2.06 350 12:54 04.02.2021
2948 Clouds 9 1019 66 10000 2.57 340 11:58 04.02.2021
2949 Clouds 9 1019 66 10000 2.57 340 11:37 04.02.2021
2950 Clouds 9 1019 66 10000 2.57 340 11:18 04.02.2021
2951 Clear 9 1020 62 10000 2.06 320 10:36 04.02.2021
2952 Clear 10 1019 62 10000 3.09 340 09:46 04.02.2021
2953 Clear 10 1019 62 10000 3.09 340 09:23 04.02.2021
2954 Clear 11 1019 58 10000 2.57 320 08:58 04.02.2021
2955 Clear 11 1019 58 10000 2.57 320 08:27 04.02.2021
2956 Clear 11 1019 71 10000 2.06 310 07:59 04.02.2021
2957 Clear 11 1019 71 10000 2.06 310 07:35 04.02.2021
2958 Clear 12 1020 71 10000 1.54 310 06:54 04.02.2021
2959 Clear 12 1020 71 10000 1.54 310 06:34 04.02.2021
2960 Clear 15 1019 63 10000 3.6 250 02:43 04.02.2021
2961 Clear 15 1019 63 10000 3.6 250 02:24 04.02.2021
2962 Clear 17 1018 36 10000 1.54 0 00:33 04.02.2021
2963 Clear 18 1018 34 10000 2.57 300 23:39 03.02.2021
2964 Clear 19 1017 34 10000 3.6 270 22:42 03.02.2021
2965 Clear 19 1017 34 10000 3.6 270 22:21 03.02.2021
2966 Clear 19 1017 34 10000 3.09 330 21:56 03.02.2021
2967 Clear 19 1017 34 10000 3.09 330 21:25 03.02.2021
2968 Clear 19 1018 34 10000 6.17 300 20:58 03.02.2021
2969 Clear 19 1018 34 10000 6.17 300 20:38 03.02.2021
2970 Clear 18 1018 39 10000 4.63 290 20:18 03.02.2021
2971 Clear 18 1018 36 10000 4.63 310 19:41 03.02.2021
2972 Clear 18 1018 36 10000 4.63 310 19:18 03.02.2021
2973 Clear 17 1019 44 10000 4.63 290 18:41 03.02.2021
2974 Clear 17 1019 44 10000 4.63 290 18:19 03.02.2021
2975 Clear 16 1019 47 10000 5.14 300 17:49 03.02.2021
2976 Clear 15 1019 47 10000 5.14 300 17:30 03.02.2021
2977 Clear 15 1020 51 10000 2.57 320 16:52 03.02.2021
2978 Clear 14 1020 51 10000 2.57 320 16:27 03.02.2021
2979 Clear 13 1019 54 10000 4.12 320 15:45 03.02.2021
2980 Clear 12 1019 54 10000 4.12 320 15:25 03.02.2021
2981 Clear 11 1019 58 10000 3.09 320 14:53 03.02.2021
2982 Clear 11 1019 58 10000 3.09 320 14:25 03.02.2021
2983 Clear 10 1018 66 10000 4.63 330 13:54 03.02.2021
2984 Clear 9 1018 66 10000 4.63 330 13:28 03.02.2021
2985 Clear 10 1018 71 10000 3.6 310 12:49 03.02.2021
2986 Clear 10 1018 71 10000 3.6 310 12:27 03.02.2021
2987 Clear 10 1017 71 10000 2.57 0 11:54 03.02.2021
2988 Clear 10 1017 71 10000 2.57 0 11:34 03.02.2021
2989 Clear 10 1017 71 10000 4.63 310 10:54 03.02.2021
2990 Clear 10 1017 71 10000 4.63 310 10:22 03.02.2021
2991 Clear 10 1017 71 10000 3.09 310 09:47 03.02.2021
2992 Clear 10 1017 71 10000 3.09 310 09:28 03.02.2021
2993 Clear 10 1017 71 10000 2.57 320 08:53 03.02.2021
2994 Clear 11 1017 71 10000 2.57 320 08:28 03.02.2021
2995 Clear 11 1017 71 10000 4.63 300 07:39 03.02.2021
2996 Clear 11 1017 71 10000 4.12 310 06:41 03.02.2021
2997 Clear 12 1017 66 10000 4.12 290 04:54 03.02.2021
2998 Clear 12 1017 66 10000 4.12 290 04:29 03.02.2021
2999 Clear 12 1017 58 10000 5.66 280 03:18 03.02.2021
3000 Clear 13 1016 54 10000 5.66 280 02:36 03.02.2021
3001 Clear 15 1014 44 10000 8.23 280 00:36 03.02.2021
3002 Clear 16 1014 36 10000 5.66 280 23:53 02.02.2021
3003 Clear 17 1014 36 10000 5.66 280 23:29 02.02.2021
3004 Clouds 17 1013 36 10000 7.2 270 22:59 02.02.2021
3005 Clouds 18 1013 36 10000 7.2 270 22:23 02.02.2021
3006 Clouds 18 1013 36 10000 6.69 270 21:57 02.02.2021
3007 Clouds 18 1013 36 10000 6.69 270 21:37 02.02.2021
3008 Clouds 18 1013 36 10000 6.69 270 21:18 02.02.2021
3009 Clouds 18 1014 36 10000 7.72 260 20:43 02.02.2021
3010 Clouds 18 1014 36 10000 7.72 260 20:20 02.02.2021
3011 Clouds 18 1014 36 10000 7.72 260 20:20 02.02.2021
3012 Clouds 17 1015 42 10000 6.17 300 19:48 02.02.2021
3013 Clouds 17 1015 42 10000 6.17 300 19:29 02.02.2021
3014 Clouds 16 1016 44 10000 7.2 300 18:45 02.02.2021
3015 Clouds 16 1016 44 10000 7.2 300 18:25 02.02.2021
3016 Clouds 15 1016 55 10000 6.17 290 17:50 02.02.2021
3017 Clouds 15 1016 55 10000 6.17 290 17:23 02.02.2021
3018 Clouds 14 1017 54 10000 7.2 300 16:57 02.02.2021
3019 Clouds 14 1017 54 10000 7.2 300 16:38 02.02.2021
3020 Clouds 13 1016 62 10000 4.12 290 15:59 02.02.2021
3021 Clouds 13 1016 62 10000 4.12 290 15:41 02.02.2021
3022 Clouds 13 1016 62 10000 4.12 290 15:21 02.02.2021
3023 Clouds 12 1016 66 10000 3.09 290 14:41 02.02.2021
3024 Clouds 12 1016 66 10000 3.09 290 14:19 02.02.2021
3025 Clouds 11 1015 62 10000 4.12 290 13:46 02.02.2021
3026 Clouds 11 1015 62 10000 4.12 290 13:28 02.02.2021
3027 Clouds 11 1015 62 10000 3.6 300 12:57 02.02.2021
3028 Clouds 11 1015 62 10000 3.6 300 12:29 02.02.2021
3029 Clouds 11 1014 62 10000 4.12 300 11:43 02.02.2021
3030 Clouds 11 1014 62 10000 4.12 300 11:20 02.02.2021
3031 Clouds 11 1014 62 10000 4.12 290 10:51 02.02.2021
3032 Clouds 11 1014 62 10000 4.12 290 10:27 02.02.2021
3033 Clear 11 1014 62 10000 4.63 300 09:46 02.02.2021
3034 Clear 11 1014 62 10000 4.63 300 09:25 02.02.2021
3035 Clouds 12 1014 66 10000 3.6 300 08:48 02.02.2021
3036 Clouds 12 1014 66 10000 3.6 300 08:21 02.02.2021
3037 Clouds 12 1014 67 10000 5.66 290 07:28 02.02.2021
3038 Clouds 13 1014 62 10000 5.66 300 06:41 02.02.2021
3039 Clouds 14 1014 67 10000 5.66 320 05:52 02.02.2021
3040 Clouds 15 1014 59 10000 4.12 300 04:37 02.02.2021
3041 Clouds 16 1013 55 10000 6.17 270 02:25 02.02.2021
3042 Clouds 17 1012 55 10000 8.75 270 01:28 02.02.2021
3043 Clouds 18 1011 52 10000 7.72 270 00:31 02.02.2021
3044 Clear 20 1010 45 10000 10.8 290 23:18 01.02.2021
3045 Clouds 22 1010 43 10000 8.23 280 22:40 01.02.2021
3046 Clouds 22 1010 43 10000 8.23 280 22:21 01.02.2021
3047 Clouds 23 1010 40 10000 9.26 270 21:48 01.02.2021
3048 Clouds 23 1010 40 10000 9.26 270 21:26 01.02.2021
3049 Clouds 23 1010 46 10000 7.2 270 20:45 01.02.2021
3050 Clouds 23 1010 46 10000 7.2 270 20:25 01.02.2021
3051 Clouds 24 1011 46 10000 7.72 280 19:49 01.02.2021
3052 Clouds 24 1011 46 10000 7.72 280 19:22 01.02.2021
3053 Clouds 24 1011 46 10000 7.72 280 19:22 01.02.2021
3054 Clouds 24 1012 57 10000 6.69 260 18:59 01.02.2021
3055 Clouds 24 1012 57 10000 6.69 260 18:40 01.02.2021
3056 Clouds 23 1012 57 10000 6.69 260 18:22 01.02.2021
3057 Clouds 22 1013 73 10000 6.69 290 17:44 01.02.2021
3058 Clouds 22 1013 73 10000 6.69 290 17:21 01.02.2021
3059 Clouds 21 1013 83 10000 4.12 250 16:42 01.02.2021
3060 Clouds 21 1013 83 10000 4.12 250 16:42 01.02.2021
3061 Clouds 20 1013 83 10000 4.12 250 16:22 01.02.2021
3062 Rain 21 1013 78 10000 3.6 270 15:41 01.02.2021
3063 Rain 21 1013 78 10000 3.6 270 15:19 01.02.2021
3064 Clouds 22 1012 78 10000 5.14 210 14:51 01.02.2021
3065 Clouds 21 1012 78 10000 5.14 210 14:23 01.02.2021
3066 Clouds 21 1012 78 10000 4.63 220 13:44 01.02.2021
3067 Clouds 20 1012 78 10000 4.63 220 13:25 01.02.2021
3068 Clouds 19 1012 82 10000 3.09 210 12:44 01.02.2021
3069 Clouds 19 1012 82 10000 3.09 210 12:25 01.02.2021
3070 Clear 19 1013 82 10000 2.57 220 11:43 01.02.2021
3071 Clear 19 1013 82 10000 2.57 220 11:21 01.02.2021
3072 Clear 19 1013 88 10000 3.09 200 10:47 01.02.2021
3073 Clear 19 1013 88 10000 3.09 200 10:21 01.02.2021
3074 Clear 19 1013 94 10000 3.09 220 09:51 01.02.2021
3075 Clear 19 1013 94 10000 3.09 220 09:25 01.02.2021
3076 Clouds 20 1014 88 10000 2.06 190 08:56 01.02.2021
3077 Clouds 20 1014 88 10000 2.06 190 08:24 01.02.2021
3078 Clouds 21 1015 83 10000 2.57 0 06:58 01.02.2021
3079 Clouds 21 1017 78 10000 2.57 180 04:32 01.02.2021
3080 Clouds 22 1017 73 10000 3.09 190 02:38 01.02.2021
3081 Clouds 23 1017 64 10000 6.17 160 23:57 31.01.2021
3082 Clouds 24 1017 64 10000 4.63 160 22:56 31.01.2021
3083 Clouds 24 1017 64 10000 4.63 160 22:37 31.01.2021
3084 Clouds 24 1017 64 10000 4.63 160 22:18 31.01.2021
3085 Clouds 24 1017 64 10000 5.66 140 21:46 31.01.2021
3086 Clouds 24 1017 64 10000 5.66 140 21:19 31.01.2021
3087 Clouds 25 1018 64 10000 6.17 130 20:42 31.01.2021
3088 Clouds 25 1018 64 10000 6.17 130 20:20 31.01.2021
3089 Clouds 25 1019 61 10000 6.69 120 19:38 31.01.2021
3090 Clouds 25 1019 61 10000 6.69 120 19:19 31.01.2021
3091 Clouds 25 1020 61 10000 6.69 120 18:55 31.01.2021
3092 Clouds 25 1020 61 10000 6.69 120 18:37 31.01.2021
3093 Clouds 25 1020 61 10000 6.69 120 18:18 31.01.2021
3094 Clouds 25 1020 61 10000 6.69 120 18:18 31.01.2021
3095 Clouds 24 1021 64 10000 5.14 120 17:39 31.01.2021
3096 Clouds 25 1021 64 10000 5.14 120 17:19 31.01.2021
3097 Clear 24 1021 64 10000 7.2 130 16:41 31.01.2021
3098 Clear 24 1021 64 10000 7.2 130 16:20 31.01.2021
3099 Clouds 23 1021 68 10000 7.2 120 15:49 31.01.2021
3100 Clouds 23 1021 68 10000 7.2 120 15:21 31.01.2021
3101 Clouds 22 1020 73 10000 3.6 120 14:36 31.01.2021
3102 Clouds 21 1020 73 10000 3.6 120 14:18 31.01.2021
3103 Clouds 21 1020 73 10000 4.12 120 13:41 31.01.2021
3104 Clouds 21 1020 73 10000 4.12 120 13:18 31.01.2021
3105 Clouds 21 1020 73 10000 3.09 120 12:45 31.01.2021
3106 Clouds 21 1020 73 10000 3.09 120 12:20 31.01.2021
3107 Clouds 21 1019 73 10000 4.12 120 11:39 31.01.2021
3108 Clouds 21 1019 73 10000 4.12 120 11:20 31.01.2021
3109 Clouds 21 1020 68 10000 3.09 130 10:45 31.01.2021
3110 Clouds 21 1020 68 10000 3.09 130 10:26 31.01.2021
3111 Clouds 21 1020 68 10000 4.63 120 09:41 31.01.2021
3112 Clouds 20 1020 68 10000 4.12 130 08:53 31.01.2021
3113 Clouds 20 1020 68 10000 4.12 130 08:31 31.01.2021
3114 Clouds 20 1021 60 10000 5.66 100 06:47 31.01.2021
3115 Clouds 20 1022 60 10000 6.69 100 03:53 31.01.2021
3116 Clouds 20 1022 56 10000 5.66 100 00:28 31.01.2021
3117 Clouds 21 1022 52 10000 5.66 120 23:59 30.01.2021
3118 Clouds 21 1022 53 10000 7.2 100 23:28 30.01.2021
3119 Clouds 22 1022 53 10000 6.17 80 22:43 30.01.2021
3120 Clouds 22 1022 53 10000 6.17 80 22:23 30.01.2021
3121 Clouds 22 1021 49 10000 7.72 90 21:39 30.01.2021
3122 Clouds 22 1021 49 10000 7.72 90 21:20 30.01.2021
3123 Clouds 22 1022 53 10000 7.2 100 20:41 30.01.2021
3124 Clouds 22 1022 53 10000 7.2 100 20:23 30.01.2021
3125 Clouds 22 1022 46 10000 5.66 130 19:41 30.01.2021
3126 Clouds 23 1022 46 10000 5.66 130 19:22 30.01.2021
3127 Clouds 23 1023 46 10000 6.17 110 18:40 30.01.2021
3128 Clouds 23 1023 46 10000 6.17 110 18:21 30.01.2021
3129 Clouds 22 1023 46 10000 7.72 100 17:49 30.01.2021
3130 Clouds 22 1023 46 10000 7.72 100 17:19 30.01.2021
3131 Clouds 22 1023 53 10000 6.69 70 16:42 30.01.2021
3132 Clouds 22 1023 53 10000 6.69 70 16:23 30.01.2021
3133 Clear 21 1023 56 10000 2.57 60 15:49 30.01.2021
3134 Clear 21 1023 56 10000 2.57 60 15:25 30.01.2021
3135 Clouds 19 1022 72 10000 6.07 91 14:58 30.01.2021
3136 Clouds 19 1022 72 10000 6.07 91 14:39 30.01.2021
3137 Clouds 19 1022 72 10000 5.66 87 14:18 30.01.2021
3138 Clouds 13 1022 82 10000 5.88 78 13:24 30.01.2021
3139 Clouds 15 1022 77 10000 5.88 78 12:46 30.01.2021
3140 Clouds 15 1022 77 10000 5 74 12:28 30.01.2021
3141 Clouds 15 1022 72 10000 1.54 360 11:54 30.01.2021
3142 Clouds 15 1022 72 10000 1.54 360 11:24 30.01.2021
3143 Clouds 15 1022 77 10000 1.54 10 10:43 30.01.2021
3144 Clouds 16 1022 72 10000 2.06 20 09:43 30.01.2021
3145 Clouds 16 1022 72 10000 2.06 20 09:25 30.01.2021
3146 Clouds 16 1022 72 10000 2.06 360 08:47 30.01.2021
3147 Clouds 16 1023 72 10000 2.06 0 07:45 30.01.2021
3148 Clouds 16 1023 72 10000 2.06 360 06:36 30.01.2021
3149 Clouds 19 1023 68 10000 2.06 360 04:28 30.01.2021
3150 Clouds 19 1023 63 10000 2.06 350 03:33 30.01.2021
3151 Clouds 20 1023 56 10000 2.06 20 02:23 30.01.2021
3152 Clouds 19 1023 56 10000 2.57 40 01:26 30.01.2021
3153 Clouds 19 1023 56 10000 3.09 70 00:35 30.01.2021
3154 Clouds 20 1022 52 10000 4.63 80 23:55 29.01.2021
3155 Clouds 21 1022 52 10000 4.63 80 23:28 29.01.2021
3156 Clouds 21 1022 56 10000 4.63 20 22:56 29.01.2021
3157 Clouds 21 1022 56 10000 4.63 20 22:37 29.01.2021
3158 Clouds 22 1022 56 10000 5.14 40 21:59 29.01.2021
3159 Clouds 22 1022 56 10000 5.14 40 21:28 29.01.2021
3160 Clouds 22 1022 53 10000 4.63 40 20:45 29.01.2021
3161 Clouds 22 1022 53 10000 4.63 40 20:24 29.01.2021
3162 Clouds 22 1023 53 10000 5.14 30 19:42 29.01.2021
3163 Clouds 22 1023 53 10000 5.14 30 19:22 29.01.2021
3164 Clouds 21 1024 52 10000 3.6 40 18:57 29.01.2021
3165 Clear 21 1024 59 10000 2.57 0 17:59 29.01.2021
3166 Clear 20 1024 59 10000 2.57 0 17:37 29.01.2021
3167 Clear 20 1024 59 10000 2.57 0 17:18 29.01.2021
3168 Clouds 18 1024 59 10000 3.6 330 16:39 29.01.2021
3169 Clouds 18 1024 59 10000 3.6 330 16:21 29.01.2021
3170 Clouds 18 1024 59 10000 3.6 330 16:21 29.01.2021
3171 Clouds 16 1024 63 10000 4.63 350 15:41 29.01.2021
3172 Clouds 15 1024 63 10000 4.63 350 15:22 29.01.2021
3173 Clouds 13 1024 71 10000 3.09 340 14:30 29.01.2021
3174 Clouds 12 1023 76 10000 3.09 340 13:58 29.01.2021
3175 Clouds 12 1023 76 10000 3.09 340 13:34 29.01.2021
3176 Clouds 12 1023 76 10000 3.09 330 12:48 29.01.2021
3177 Clouds 12 1023 76 10000 3.09 330 12:20 29.01.2021
3178 Clouds 13 1023 76 10000 3.6 330 11:46 29.01.2021
3179 Clouds 13 1023 76 10000 3.6 330 11:18 29.01.2021
3180 Clouds 13 1023 72 10000 4.63 330 10:47 29.01.2021
3181 Clouds 13 1023 72 10000 4.63 330 10:26 29.01.2021
3182 Clouds 13 1023 72 10000 3.6 330 09:44 29.01.2021
3183 Clouds 13 1023 72 10000 3.6 330 08:52 29.01.2021
3184 Clouds 13 1023 72 10000 3.6 330 08:28 29.01.2021
3185 Clouds 13 1024 72 10000 2.57 330 07:58 29.01.2021
3186 Clouds 13 1024 72 10000 2.57 330 07:39 29.01.2021
3187 Clouds 13 1024 72 10000 2.57 330 07:39 29.01.2021
3188 Clouds 13 1024 72 10000 3.6 340 06:58 29.01.2021
3189 Clouds 15 1024 63 10000 4.63 350 05:19 29.01.2021
3190 Clouds 16 1024 59 10000 4.12 30 02:53 29.01.2021
3191 Clear 17 1022 39 10000 5.66 20 00:39 29.01.2021
3192 Clouds 18 1022 48 10000 4.12 30 00:20 29.01.2021
3193 Clear 19 1022 45 10000 6.17 40 23:41 28.01.2021
3194 Clear 19 1022 45 10000 6.17 40 23:23 28.01.2021
3195 Clouds 20 1021 37 10000 7.2 60 22:45 28.01.2021
3196 Clouds 21 1021 37 10000 7.2 60 22:26 28.01.2021
3197 Clouds 22 1021 23 10000 4.63 10 21:53 28.01.2021
3198 Clouds 22 1021 23 10000 4.63 10 21:33 28.01.2021
3199 Clouds 23 1021 22 10000 5.66 350 20:57 28.01.2021
3200 Clouds 23 1021 22 10000 5.66 350 20:39 28.01.2021
3201 Clouds 24 1021 22 10000 5.66 350 20:18 28.01.2021
3202 Clouds 24 1021 31 10000 5.14 350 19:40 28.01.2021
3203 Clouds 24 1021 31 10000 5.14 350 19:19 28.01.2021
3204 Clouds 24 1022 56 10000 5.14 330 18:43 28.01.2021
3205 Clouds 23 1022 56 10000 5.14 330 18:20 28.01.2021
3206 Clouds 23 1021 73 10000 6.17 330 17:45 28.01.2021
3207 Clouds 23 1021 73 10000 6.17 330 17:26 28.01.2021
3208 Clouds 23 1021 83 10000 5.66 330 16:45 28.01.2021
3209 Clouds 23 1021 83 10000 5.66 330 16:23 28.01.2021
3210 Clouds 22 1020 83 10000 4.12 320 15:43 28.01.2021
3211 Clouds 22 1020 83 10000 4.12 320 15:19 28.01.2021
3212 Clouds 22 1020 83 10000 4.12 320 14:42 28.01.2021
3213 Clouds 21 1020 83 10000 4.12 320 14:23 28.01.2021
3214 Clouds 22 1019 94 10000 2.57 290 13:48 28.01.2021
3215 Clouds 22 1019 94 10000 4.12 270 12:59 28.01.2021
3216 Clouds 21 1019 94 10000 4.12 270 12:40 28.01.2021
3217 Clouds 21 1018 94 10000 4.12 260 12:21 28.01.2021
3218 Clouds 21 1018 94 10000 3.09 250 11:43 28.01.2021
3219 Clouds 21 1018 94 10000 3.09 250 11:20 28.01.2021
3220 Clouds 21 1018 94 10000 3.09 260 10:54 28.01.2021
3221 Clouds 21 1018 94 10000 3.09 260 10:34 28.01.2021
3222 Clouds 21 1018 94 10000 2.06 250 09:50 28.01.2021
3223 Clouds 21 1018 94 10000 2.06 250 09:25 28.01.2021
3224 Clear 22 1018 94 10000 2.57 250 08:56 28.01.2021
3225 Rain 21 1018 94 10000 2.57 250 08:38 28.01.2021
3226 Clear 22 1019 94 10000 3.6 240 07:45 28.01.2021
3227 Rain 22 1019 88 10000 3.09 250 06:50 28.01.2021
3228 Rain 22 1019 88 10000 3.09 250 06:29 28.01.2021
3229 Rain 23 1019 88 10000 2.57 250 04:30 28.01.2021
3230 Clouds 25 1018 61 10000 2.57 260 01:39 28.01.2021
3231 Clouds 27 1017 51 10000 4.63 250 23:49 27.01.2021
3232 Clouds 28 1017 51 10000 4.63 250 23:24 27.01.2021
3233 Rain 28 1017 45 10000 5.14 270 22:42 27.01.2021
3234 Clouds 29 1017 45 10000 5.14 270 22:22 27.01.2021
3235 Clouds 28 1017 45 10000 5.66 250 21:43 27.01.2021
3236 Clouds 29 1017 45 10000 5.66 250 21:24 27.01.2021
3237 Clouds 29 1017 51 10000 4.12 270 20:55 27.01.2021
3238 Clouds 29 1017 51 10000 4.12 270 20:30 27.01.2021
3239 Clouds 28 1018 51 10000 6.17 250 19:56 27.01.2021
3240 Clouds 28 1018 51 10000 6.17 250 19:36 27.01.2021
3241 Clouds 28 1018 51 10000 6.17 250 19:18 27.01.2021
3242 Clouds 28 1019 57 10000 4.63 240 18:40 27.01.2021
3243 Clouds 28 1019 57 10000 4.63 240 18:21 27.01.2021
3244 Clouds 27 1019 61 10000 3.09 230 17:39 27.01.2021
3245 Clouds 27 1019 61 10000 3.09 230 17:18 27.01.2021
3246 Clouds 26 1019 73 10000 4.63 200 16:43 27.01.2021
3247 Clouds 26 1019 73 10000 4.63 200 16:24 27.01.2021
3248 Clouds 25 1019 88 10000 2.57 190 15:49 27.01.2021
3249 Clouds 24 1019 88 10000 2.57 190 15:29 27.01.2021
3250 Clouds 22 1019 94 10000 3.39 198 14:39 27.01.2021
3251 Clouds 21 1019 94 10000 2.88 184 14:19 27.01.2021
3252 Clouds 19 1018 88 10000 1.54 0 13:40 27.01.2021
3253 Clouds 19 1018 94 10000 2.54 176 12:46 27.01.2021
3254 Clouds 19 1018 94 10000 2.29 173 12:26 27.01.2021
3255 Clouds 19 1018 94 10000 2.29 173 12:26 27.01.2021
3256 Clouds 19 1017 94 10000 2.29 173 11:52 27.01.2021
3257 Clouds 19 1017 94 10000 2.43 165 11:26 27.01.2021
3258 Clouds 19 1017 94 10000 2.43 165 10:51 27.01.2021
3259 Clouds 19 1017 94 10000 2.23 162 10:26 27.01.2021
3260 Clouds 19 1017 94 10000 2.23 162 09:56 27.01.2021
3261 Clear 19 1017 94 10000 2.41 160 09:29 27.01.2021
3262 Mist 19 1017 100 2816 2.41 160 08:47 27.01.2021
3263 Rain 21 1017 88 10000 2.94 160 07:58 27.01.2021
3264 Clouds 21 1017 88 10000 2.94 160 07:38 27.01.2021
3265 Clouds 21 1018 94 10000 1.54 140 06:45 27.01.2021
3266 Clear 21 1018 88 10000 1.54 150 05:56 27.01.2021
3267 Clear 21 1018 88 10000 1.54 150 05:35 27.01.2021
3268 Clear 22 1018 78 10000 2.06 150 02:46 27.01.2021
3269 Clear 23 1018 78 10000 2.06 150 02:20 27.01.2021
3270 Clear 23 1017 83 10000 2.06 140 01:46 27.01.2021
3271 Clouds 24 1017 73 10000 4.63 140 00:29 27.01.2021
3272 Clouds 25 1016 65 10000 5.14 130 23:40 26.01.2021
3273 Clouds 25 1016 65 10000 5.14 130 23:21 26.01.2021
3274 Clear 26 1016 61 10000 4.63 140 22:40 26.01.2021
3275 Clear 26 1016 61 10000 4.63 140 22:19 26.01.2021
3276 Clear 27 1016 61 10000 4.63 130 21:52 26.01.2021
3277 Clear 27 1016 61 10000 4.63 130 21:25 26.01.2021
3278 Clouds 27 1017 57 10000 4.63 140 20:54 26.01.2021
3279 Clouds 27 1017 57 10000 4.63 140 20:36 26.01.2021
3280 Clouds 27 1017 57 10000 4.63 140 20:18 26.01.2021
3281 Clouds 27 1017 57 10000 4.63 140 20:18 26.01.2021
3282 Clouds 27 1018 61 10000 2.57 0 19:40 26.01.2021
3283 Clouds 27 1018 61 10000 2.57 0 19:19 26.01.2021
3284 Clouds 27 1018 61 10000 5.14 160 18:42 26.01.2021
3285 Clouds 27 1018 61 10000 5.14 160 18:23 26.01.2021
3286 Clouds 26 1019 65 10000 4.63 160 17:48 26.01.2021
3287 Clouds 26 1019 65 10000 4.63 160 17:23 26.01.2021
3288 Clouds 26 1019 65 10000 3.6 150 16:52 26.01.2021
3289 Clouds 25 1019 65 10000 3.6 150 16:21 26.01.2021
3290 Clouds 24 1018 83 10000 2.57 160 15:53 26.01.2021
3291 Clouds 24 1018 83 10000 2.57 160 15:35 26.01.2021
3292 Clouds 22 1018 88 10000 5.26 149 14:49 26.01.2021
3293 Clouds 22 1018 88 10000 5.26 149 14:30 26.01.2021
3294 Clouds 21 1017 88 10000 1.54 180 13:51 26.01.2021
3295 Clouds 21 1017 88 10000 1.54 180 13:28 26.01.2021
3296 Clear 21 1017 83 10000 2.06 150 12:46 26.01.2021
3297 Clear 21 1017 83 10000 2.06 150 12:46 26.01.2021
3298 Clear 21 1017 83 10000 2.06 150 12:26 26.01.2021
3299 Clouds 21 1016 88 10000 2.06 140 11:59 26.01.2021
3300 Clouds 21 1016 88 10000 2.06 140 11:40 26.01.2021
3301 Rain 21 1016 88 10000 1.54 130 10:56 26.01.2021
3302 Rain 21 1016 88 10000 1.54 130 10:33 26.01.2021
3303 Clouds 21 1016 88 10000 2.57 140 09:50 26.01.2021
3304 Clouds 22 1016 88 10000 2.57 140 09:32 26.01.2021
3305 Clouds 22 1017 88 10000 1.54 120 08:55 26.01.2021
3306 Clouds 22 1017 88 10000 1.54 120 08:37 26.01.2021
3307 Clouds 20 1017 88 10000 1.54 100 07:53 26.01.2021
3308 Clear 21 1018 88 10000 2.57 100 06:56 26.01.2021
3309 Rain 20 1018 94 10000 2.99 158 05:46 26.01.2021
3310 Clouds 21 1018 88 10000 3.06 151 05:24 26.01.2021
3311 Clouds 22 1018 78 10000 2.57 130 02:58 26.01.2021
3312 Clouds 23 1017 73 10000 3.6 130 00:59 26.01.2021
3313 Clouds 24 1017 73 10000 4.63 140 23:46 25.01.2021
3314 Clouds 24 1017 73 10000 4.63 140 23:26 25.01.2021
3315 Clouds 25 1017 69 10000 6.17 150 22:40 25.01.2021
3316 Clouds 25 1017 69 10000 6.17 150 22:21 25.01.2021
3317 Clouds 26 1017 69 10000 5.66 140 21:40 25.01.2021
3318 Clouds 26 1017 65 10000 5.14 140 20:59 25.01.2021
3319 Clouds 26 1017 65 10000 5.14 140 20:39 25.01.2021
3320 Clouds 26 1017 65 10000 5.14 140 20:19 25.01.2021
3321 Clouds 26 1018 69 10000 6.69 140 19:46 25.01.2021
3322 Clouds 26 1018 69 10000 6.69 140 19:22 25.01.2021
3323 Clouds 25 1018 65 10000 6.17 140 18:43 25.01.2021
3324 Clouds 25 1018 65 10000 6.17 140 18:24 25.01.2021
3325 Clouds 25 1019 65 10000 6.69 120 17:44 25.01.2021
3326 Clouds 25 1019 65 10000 6.69 120 17:44 25.01.2021
3327 Rain 25 1019 65 10000 6.69 130 17:24 25.01.2021
3328 Clouds 25 1019 73 10000 6.17 130 16:44 25.01.2021
3329 Clouds 25 1019 73 10000 6.17 130 16:25 25.01.2021
3330 Clouds 24 1018 83 10000 3.6 120 15:54 25.01.2021
3331 Clouds 24 1018 83 10000 3.6 120 15:54 25.01.2021
3332 Clouds 23 1018 83 10000 3.6 120 15:34 25.01.2021
3333 Rain 22 1018 83 10000 2.06 110 14:53 25.01.2021
3334 Clouds 22 1018 83 10000 2.06 110 14:21 25.01.2021
3335 Clouds 22 1018 88 10000 1.54 120 13:57 25.01.2021
3336 Clouds 22 1018 88 10000 1.54 120 13:57 25.01.2021
3337 Clouds 21 1018 88 10000 1.54 120 13:36 25.01.2021
3338 Clouds 21 1017 94 10000 1.54 120 12:50 25.01.2021
3339 Clouds 21 1017 94 10000 1.54 120 12:50 25.01.2021
3340 Clouds 21 1017 94 10000 1.54 120 12:27 25.01.2021
3341 Clouds 21 1017 88 10000 3.6 100 11:58 25.01.2021
3342 Clouds 21 1017 88 10000 3.6 100 11:27 25.01.2021
3343 Clouds 21 1018 88 10000 1.54 130 10:46 25.01.2021
3344 Clouds 21 1018 88 10000 1.54 130 10:22 25.01.2021
3345 Clouds 21 1018 83 10000 2.06 0 09:49 25.01.2021
3346 Clouds 22 1018 83 10000 2.06 0 09:28 25.01.2021
3347 Clouds 21 1018 88 10000 1.54 100 08:34 25.01.2021
3348 Clouds 22 1019 83 10000 1.54 140 07:56 25.01.2021
3349 Clouds 22 1019 83 10000 1.54 140 07:28 25.01.2021
3350 Clouds 22 1019 83 10000 1.54 150 06:27 25.01.2021
3351 Clouds 22 1019 78 10000 2.57 120 02:32 25.01.2021
3352 Clouds 23 1018 78 10000 4.12 120 00:40 25.01.2021
3353 Clouds 25 1018 65 10000 4.63 130 23:21 24.01.2021
3354 Clouds 25 1018 61 10000 4.12 110 22:59 24.01.2021
3355 Clouds 25 1018 61 10000 4.12 110 22:40 24.01.2021
3356 Clouds 25 1018 61 10000 4.12 110 22:40 24.01.2021
3357 Clouds 25 1018 61 10000 4.12 110 22:18 24.01.2021
3358 Clouds 26 1018 65 10000 4.12 140 21:31 24.01.2021
3359 Clouds 26 1018 57 10000 3.12 120 20:49 24.01.2021
3360 Clouds 26 1018 57 10000 2.6 109 20:24 24.01.2021
3361 Clouds 26 1019 61 10000 2.6 109 19:58 24.01.2021
3362 Clouds 26 1019 61 10000 2.6 109 19:39 24.01.2021
3363 Clouds 26 1019 61 10000 2.06 77 19:20 24.01.2021
3364 Clouds 26 1019 57 10000 2.06 0 18:55 24.01.2021
3365 Clouds 26 1020 65 10000 1.54 0 18:36 24.01.2021
3366 Clouds 25 1020 65 10000 1.54 0 18:18 24.01.2021
3367 Clouds 25 1021 69 10000 2.06 0 17:43 24.01.2021
3368 Clouds 24 1021 73 10000 2.06 0 17:19 24.01.2021
3369 Clouds 23 1021 78 10000 2.57 40 16:42 24.01.2021
3370 Clouds 23 1021 78 10000 2.57 40 16:21 24.01.2021
3371 Mist 21 1020 94 9656 2.06 330 15:47 24.01.2021
3372 Mist 20 1020 94 9656 2.06 330 15:21 24.01.2021
3373 Mist 19 1020 100 3219 1.54 320 14:57 24.01.2021
3374 Fog 19 1020 100 402 1.86 345 14:33 24.01.2021
3375 Fog 18 1020 100 402 1.54 350 13:40 24.01.2021
3376 Mist 18 1019 94 9656 1.18 318 12:56 24.01.2021
3377 Mist 19 1019 94 9656 0.31 62 12:36 24.01.2021
3378 Mist 18 1019 94 9656 0.59 10 12:18 24.01.2021
3379 Mist 19 1018 94 9656 0.59 10 11:46 24.01.2021
3380 Mist 18 1018 94 9656 0.55 30 11:22 24.01.2021
3381 Clouds 18 1018 94 10000 1.54 340 10:42 24.01.2021
3382 Clouds 18 1018 94 10000 0.68 96 09:57 24.01.2021
3383 Clouds 18 1018 94 10000 1.6 118 09:22 24.01.2021
3384 Clouds 18 1018 94 10000 1.6 118 08:52 24.01.2021
3385 Clear 18 1018 94 10000 2.06 270 07:22 24.01.2021
3386 Clear 21 1019 73 10000 2.06 80 02:34 24.01.2021
3387 Clouds 22 1018 64 10000 4.12 110 00:59 24.01.2021
3388 Clouds 22 1018 64 10000 4.12 110 00:24 24.01.2021
3389 Clouds 23 1018 60 10000 3.09 100 23:47 23.01.2021
3390 Clouds 23 1018 60 10000 3.09 100 23:24 23.01.2021
3391 Clear 24 1017 47 10000 2.57 350 22:42 23.01.2021
3392 Clear 24 1017 47 10000 2.57 350 22:21 23.01.2021
3393 Clouds 25 1017 47 10000 2.57 0 21:48 23.01.2021
3394 Clouds 25 1017 47 10000 2.57 0 21:21 23.01.2021
3395 Clouds 25 1017 38 10000 2.06 300 20:43 23.01.2021
3396 Clouds 26 1017 38 10000 2.06 300 20:21 23.01.2021
3397 Clouds 26 1018 50 10000 3.6 300 19:46 23.01.2021
3398 Clouds 26 1018 50 10000 3.6 300 19:46 23.01.2021
3399 Clouds 25 1018 50 10000 3.6 300 19:21 23.01.2021
3400 Clouds 25 1019 53 10000 3.09 330 18:49 23.01.2021
3401 Clouds 25 1019 53 10000 3.09 330 18:26 23.01.2021
3402 Clouds 24 1020 64 10000 2.06 280 17:48 23.01.2021
3403 Clouds 23 1020 64 10000 2.06 280 17:27 23.01.2021
3404 Clouds 22 1020 73 10000 2.57 300 16:48 23.01.2021
3405 Clouds 21 1020 73 10000 2.57 300 16:25 23.01.2021
3406 Clear 20 1019 88 10000 1.54 310 15:40 23.01.2021
3407 Clear 20 1019 88 10000 1.54 310 15:21 23.01.2021
3408 Clouds 17 1018 100 10000 2.91 300 14:32 23.01.2021
3409 Clouds 14 1018 94 10000 2.46 287 13:54 23.01.2021
3410 Clouds 14 1018 94 10000 2.46 287 13:35 23.01.2021
3411 Clouds 14 1017 94 10000 2.18 275 12:57 23.01.2021
3412 Clouds 14 1017 94 10000 2.15 285 12:57 23.01.2021
3413 Clouds 15 1017 94 10000 1.89 277 12:28 23.01.2021
3414 Clouds 15 1017 94 10000 1.89 277 11:47 23.01.2021
3415 Clouds 15 1017 94 10000 1.86 270 11:27 23.01.2021
3416 Clouds 15 1017 94 10000 3.09 260 10:50 23.01.2021
3417 Clouds 15 1017 94 10000 3.09 260 10:21 23.01.2021
3418 Clouds 16 1017 100 10000 2.37 287 09:47 23.01.2021
3419 Clear 16 1017 94 10000 2.57 180 08:54 23.01.2021
3420 Clear 16 1017 94 10000 2.57 180 08:31 23.01.2021
3421 Clear 17 1017 94 10000 1.54 230 07:25 23.01.2021
3422 Clear 20 1018 78 10000 3.09 260 03:36 23.01.2021
3423 Clear 22 1016 57 10000 3.09 260 00:42 23.01.2021
3424 Clear 24 1016 53 10000 5.66 270 23:41 22.01.2021
3425 Clouds 25 1016 47 10000 5.14 240 22:57 22.01.2021
3426 Clouds 25 1016 47 10000 5.14 240 22:38 22.01.2021
3427 Clouds 26 1016 50 10000 4.12 230 21:46 22.01.2021
3428 Clouds 26 1016 50 10000 4.12 230 21:27 22.01.2021
3429 Clouds 26 1016 50 10000 4.12 250 20:57 22.01.2021
3430 Clouds 26 1016 50 10000 4.12 250 20:38 22.01.2021
3431 Clouds 26 1017 53 10000 4.63 240 19:55 22.01.2021
3432 Clouds 25 1017 53 10000 4.63 240 19:22 22.01.2021
3433 Clouds 25 1018 60 10000 3.6 240 18:57 22.01.2021
3434 Clouds 25 1018 60 10000 3.6 240 18:39 22.01.2021
3435 Clouds 25 1018 60 10000 3.6 240 18:20 22.01.2021
3436 Clouds 24 1018 64 10000 2.06 0 17:42 22.01.2021
3437 Clouds 23 1018 64 10000 2.45 227 16:59 22.01.2021
3438 Clouds 23 1018 64 10000 2.45 227 16:38 22.01.2021
3439 Clouds 22 1018 64 10000 1.88 250 16:18 22.01.2021
3440 Clear 19 1018 68 10000 1.77 237 15:26 22.01.2021
3441 Clouds 16 1017 100 10000 1.77 237 14:51 22.01.2021
3442 Clouds 15 1017 100 10000 1.32 244 14:29 22.01.2021
3443 Rain 13 1017 94 10000 1.32 244 13:46 22.01.2021
3444 Clear 13 1017 94 10000 1.14 284 13:27 22.01.2021
3445 Clear 14 1017 94 10000 1.09 248 12:44 22.01.2021
3446 Clear 14 1017 94 10000 1.1 298 12:20 22.01.2021
3447 Clear 14 1016 94 10000 1.1 298 11:45 22.01.2021
3448 Clear 14 1016 94 10000 1.27 289 10:54 22.01.2021
3449 Clear 14 1016 94 10000 1.27 289 10:34 22.01.2021
3450 Clouds 14 1017 100 10000 1.28 290 09:55 22.01.2021
3451 Clouds 14 1017 100 10000 1.34 288 09:21 22.01.2021
3452 Clear 15 1017 88 10000 1.34 288 08:50 22.01.2021
3453 Clear 15 1017 88 10000 1.41 284 08:25 22.01.2021
3454 Clear 16 1018 88 10000 1.36 262 07:23 22.01.2021
3455 Clouds 19 1019 64 10000 2.06 170 02:42 22.01.2021
3456 Clouds 21 1018 60 10000 3.09 160 00:37 22.01.2021
3457 Clouds 22 1018 56 10000 4.12 140 23:50 21.01.2021
3458 Clouds 22 1018 56 10000 4.12 140 23:29 21.01.2021
3459 Clouds 23 1018 60 10000 4.63 120 22:48 21.01.2021
3460 Clouds 23 1018 60 10000 4.63 120 22:21 21.01.2021
3461 Clouds 24 1018 57 10000 5.14 130 21:43 21.01.2021
3462 Clouds 24 1018 57 10000 5.14 130 21:19 21.01.2021
3463 Clouds 24 1018 56 10000 1.54 0 20:47 21.01.2021
3464 Clouds 24 1018 56 10000 1.54 0 20:26 21.01.2021
3465 Clouds 24 1019 53 10000 2.57 0 19:51 21.01.2021
3466 Clouds 24 1019 53 10000 2.57 0 19:28 21.01.2021
3467 Clouds 24 1021 53 10000 2.06 160 18:55 21.01.2021
3468 Clouds 23 1021 53 10000 2.06 160 18:36 21.01.2021
3469 Clouds 24 1021 53 10000 2.06 160 18:18 21.01.2021
3470 Clouds 23 1022 46 10000 3.09 300 17:42 21.01.2021
3471 Clouds 23 1022 46 10000 3.09 300 17:18 21.01.2021
3472 Clouds 22 1022 49 10000 2.06 340 16:41 21.01.2021
3473 Clouds 21 1022 49 10000 2.06 340 16:23 21.01.2021
3474 Clouds 20 1022 68 10000 1.54 320 15:58 21.01.2021
3475 Clouds 19 1022 68 10000 1.54 320 15:33 21.01.2021
3476 Clouds 17 1021 77 10000 1.54 350 14:52 21.01.2021
3477 Clouds 16 1021 77 10000 1.54 350 14:31 21.01.2021
3478 Clouds 15 1021 88 10000 2.71 352 13:48 21.01.2021
3479 Clouds 15 1021 88 10000 2.5 351 13:27 21.01.2021
3480 Clouds 15 1021 82 10000 1.54 290 12:47 21.01.2021
3481 Clouds 15 1021 82 10000 1.54 290 12:27 21.01.2021
3482 Clouds 13 1021 88 10000 2.49 359 11:59 21.01.2021
3483 Clouds 13 1021 88 10000 2.49 359 11:41 21.01.2021
3484 Clouds 13 1021 88 10000 2.55 5 11:22 21.01.2021
3485 Clear 13 1021 88 10000 2.55 5 10:43 21.01.2021
3486 Clear 13 1021 88 10000 2.86 4 10:24 21.01.2021
3487 Clear 15 1021 77 10000 1.54 340 09:40 21.01.2021
3488 Clear 15 1021 77 10000 1.54 340 09:20 21.01.2021
3489 Clouds 15 1022 77 10000 2.83 17 08:35 21.01.2021
3490 Clouds 15 1022 77 10000 3.26 16 07:49 21.01.2021
3491 Clouds 15 1022 77 10000 2.96 15 07:26 21.01.2021
3492 Clear 17 1023 72 10000 1.54 20 06:37 21.01.2021
3493 Clear 18 1023 68 10000 3.1 40 04:56 21.01.2021
3494 Clouds 18 1022 64 10000 4.43 54 02:19 21.01.2021
3495 Clouds 20 1023 53 10000 4.12 40 00:43 21.01.2021
3496 Clouds 21 1022 53 10000 3.6 70 23:52 20.01.2021
3497 Clouds 22 1022 53 10000 3.6 70 23:30 20.01.2021
3498 Clouds 22 1022 53 10000 4.63 70 22:53 20.01.2021
3499 Clouds 22 1022 53 10000 4.63 70 22:32 20.01.2021
3500 Clouds 23 1022 49 10000 5.66 70 21:55 20.01.2021
3501 Clouds 23 1022 49 10000 5.66 70 21:23 20.01.2021
3502 Clouds 23 1023 46 10000 4.12 30 20:54 20.01.2021
3503 Clouds 23 1023 46 10000 4.12 30 20:24 20.01.2021
3504 Clouds 23 1023 49 10000 3.6 40 19:55 20.01.2021
3505 Clouds 23 1023 49 10000 3.6 40 19:37 20.01.2021
3506 Clouds 23 1023 49 10000 3.6 40 19:18 20.01.2021
3507 Clouds 23 1025 49 10000 2.57 0 18:41 20.01.2021
3508 Clouds 23 1026 49 10000 2.06 0 17:56 20.01.2021
3509 Clouds 23 1026 49 10000 2.06 0 17:36 20.01.2021
3510 Clouds 23 1025 56 10000 2.57 60 16:52 20.01.2021
3511 Clouds 22 1025 56 10000 2.57 60 16:30 20.01.2021
3512 Clouds 22 1025 56 10000 2.57 60 16:30 20.01.2021
3513 Clouds 21 1025 64 10000 2.99 28 15:47 20.01.2021
3514 Clouds 20 1025 64 10000 2.9 23 15:19 20.01.2021
3515 Clouds 18 1025 72 10000 2.06 0 14:46 20.01.2021
3516 Clouds 16 1025 72 10000 2.06 0 14:22 20.01.2021
3517 Clouds 15 1025 72 10000 2.06 360 13:41 20.01.2021
3518 Clouds 15 1025 72 10000 2.06 360 13:21 20.01.2021
3519 Clouds 15 1024 72 10000 2.57 350 12:35 20.01.2021
3520 Clouds 15 1024 72 10000 1.54 350 11:54 20.01.2021
3521 Clouds 15 1024 72 10000 1.54 350 11:35 20.01.2021
3522 Clouds 15 1024 72 10000 2.57 350 10:55 20.01.2021
3523 Clouds 15 1024 72 10000 2.57 350 10:28 20.01.2021
3524 Clouds 15 1024 72 10000 3.09 350 09:50 20.01.2021
3525 Clouds 15 1024 72 10000 3.09 350 09:24 20.01.2021
3526 Clouds 15 1025 77 10000 3.98 55 08:49 20.01.2021
3527 Clouds 15 1025 77 10000 4.45 68 08:27 20.01.2021
3528 Clouds 17 1025 72 10000 2.06 10 07:56 20.01.2021
3529 Clouds 17 1025 72 10000 2.06 10 07:25 20.01.2021
3530 Clouds 18 1026 67 10000 5.1 68 05:50 20.01.2021
3531 Clouds 19 1026 59 10000 1.54 360 03:27 20.01.2021
3532 Clouds 20 1026 52 10000 4.12 40 00:59 20.01.2021
3533 Clouds 20 1026 52 10000 4.12 40 00:31 20.01.2021
3534 Clear 21 1026 49 10000 5.14 100 23:46 19.01.2021
3535 Clear 21 1026 49 10000 5.14 100 23:20 19.01.2021
3536 Clouds 22 1025 49 10000 4.63 70 22:43 19.01.2021
3537 Clouds 22 1025 49 10000 4.63 70 22:22 19.01.2021
3538 Clouds 22 1025 49 10000 6.17 80 21:59 19.01.2021
3539 Clouds 23 1025 49 10000 6.17 80 21:41 19.01.2021
3540 Clouds 23 1025 49 10000 6.17 80 21:22 19.01.2021
3541 Clouds 23 1025 49 10000 4.63 100 20:43 19.01.2021
3542 Clouds 23 1025 49 10000 4.63 100 20:22 19.01.2021
3543 Clouds 23 1025 49 10000 6.17 70 19:42 19.01.2021
3544 Clouds 23 1025 49 10000 6.17 70 19:42 19.01.2021
3545 Clouds 23 1025 49 10000 6.17 70 19:23 19.01.2021
3546 Clouds 23 1026 49 10000 3.6 70 18:43 19.01.2021
3547 Clouds 23 1026 49 10000 3.6 70 18:25 19.01.2021
3548 Clouds 23 1027 49 10000 4.63 60 17:45 19.01.2021
3549 Clouds 23 1027 49 10000 4.63 60 17:25 19.01.2021
3550 Clouds 22 1027 49 10000 2.06 350 16:48 19.01.2021
3551 Clouds 21 1027 49 10000 2.06 350 16:26 19.01.2021
3552 Clouds 20 1026 52 10000 2.57 360 15:57 19.01.2021
3553 Clouds 19 1026 52 10000 2.57 360 15:37 19.01.2021
3554 Clouds 17 1025 59 10000 1.54 360 14:57 19.01.2021
3555 Clouds 17 1025 59 10000 1.54 360 14:38 19.01.2021
3556 Clouds 15 1025 59 10000 1.54 360 14:18 19.01.2021
3557 Clouds 14 1025 63 10000 3.91 36 13:40 19.01.2021
3558 Clouds 14 1025 63 10000 3.39 40 13:20 19.01.2021
3559 Clouds 14 1024 63 10000 3.32 42 12:42 19.01.2021
3560 Clouds 14 1024 63 10000 3.39 46 12:21 19.01.2021
3561 Clouds 14 1023 63 10000 1.54 360 11:43 19.01.2021
3562 Clouds 14 1023 63 10000 1.54 360 11:23 19.01.2021
3563 Clouds 14 1023 67 10000 1.54 350 10:50 19.01.2021
3564 Clouds 14 1023 67 10000 1.54 350 10:31 19.01.2021
3565 Clear 14 1023 72 10000 1.54 360 09:52 19.01.2021
3566 Clear 14 1023 72 10000 1.54 360 09:21 19.01.2021
3567 Clear 14 1023 72 10000 1.54 350 08:51 19.01.2021
3568 Clear 14 1023 72 10000 1.54 350 08:18 19.01.2021
3569 Clouds 15 1023 72 10000 2.06 350 07:28 19.01.2021
3570 Clouds 16 1024 59 10000 2.06 350 05:42 19.01.2021
3571 Clouds 18 1023 55 10000 3.09 30 02:27 19.01.2021
3572 Clear 19 1022 52 10000 3.09 350 00:47 19.01.2021
3573 Clouds 20 1021 49 10000 3.6 330 23:57 18.01.2021
3574 Clouds 21 1021 49 10000 4.89 59 23:29 18.01.2021
3575 Clouds 21 1020 49 10000 2.57 30 22:50 18.01.2021
3576 Clouds 21 1020 49 10000 2.57 30 22:24 18.01.2021
3577 Clouds 21 1020 56 10000 2.57 360 21:49 18.01.2021
3578 Clouds 21 1020 56 10000 2.57 360 21:24 18.01.2021
3579 Clouds 21 1020 53 10000 2.06 0 20:58 18.01.2021
3580 Clouds 22 1020 53 10000 2.06 0 20:37 18.01.2021
3581 Clouds 22 1020 53 10000 2.06 0 20:19 18.01.2021
3582 Clouds 22 1021 60 10000 3.09 330 19:42 18.01.2021
3583 Clouds 21 1021 60 10000 3.09 330 19:24 18.01.2021
3584 Clouds 22 1022 60 10000 4.12 330 18:43 18.01.2021
3585 Clouds 21 1022 60 10000 4.12 330 18:21 18.01.2021
3586 Clouds 21 1022 56 10000 3.09 340 17:40 18.01.2021
3587 Rain 20 1022 72 10000 2.57 330 16:56 18.01.2021
3588 Rain 20 1022 72 10000 2.57 330 16:36 18.01.2021
3589 Clouds 19 1022 72 10000 3.75 310 15:59 18.01.2021
3590 Clouds 18 1022 72 10000 3.75 310 15:41 18.01.2021
3591 Clouds 18 1022 72 10000 2.22 275 15:19 18.01.2021
3592 Clouds 17 1021 82 10000 2.22 275 14:43 18.01.2021
3593 Clouds 16 1021 82 10000 1.84 275 14:24 18.01.2021
3594 Clouds 16 1020 82 10000 1.84 275 13:45 18.01.2021
3595 Clouds 16 1020 82 10000 2.1 258 13:26 18.01.2021
3596 Clouds 16 1020 88 10000 2.61 273 12:51 18.01.2021
3597 Clouds 16 1020 88 10000 2.72 276 12:20 18.01.2021
3598 Clouds 16 1019 88 10000 2.72 276 11:53 18.01.2021
3599 Clouds 16 1019 88 10000 1.97 261 11:29 18.01.2021
3600 Clouds 17 1019 77 10000 1.97 261 10:53 18.01.2021
3601 Clouds 17 1019 77 10000 1.97 261 10:35 18.01.2021
3602 Clouds 17 1019 77 10000 1.54 250 09:43 18.01.2021
3603 Clouds 16 1019 77 10000 1.54 250 09:19 18.01.2021
3604 Clouds 17 1018 77 10000 1.75 274 08:48 18.01.2021
3605 Rain 17 1018 67 10000 2.57 170 07:55 18.01.2021
3606 Clouds 17 1018 67 10000 2.57 170 07:21 18.01.2021
3607 Clouds 17 1019 63 10000 1.54 200 04:58 18.01.2021
3608 Clouds 17 1019 63 10000 1.54 200 04:31 18.01.2021
3609 Clouds 17 1018 63 10000 1.54 170 03:57 18.01.2021
3610 Clouds 17 1018 63 10000 1.54 170 03:38 18.01.2021
3611 Clouds 17 1018 63 10000 1.54 170 03:18 18.01.2021
3612 Clouds 17 1019 55 10000 3.18 245 02:37 18.01.2021
3613 Clouds 18 1018 48 10000 2.9 280 00:43 18.01.2021
3614 Clouds 18 1018 48 10000 3.11 295 00:23 18.01.2021
3615 Clear 18 1017 48 10000 1.54 300 23:44 17.01.2021
3616 Clear 19 1017 48 10000 1.54 300 23:20 17.01.2021
3617 Clear 20 1017 45 10000 2.06 0 22:28 17.01.2021
3618 Clouds 20 1017 45 10000 3.09 260 21:59 17.01.2021
3619 Clouds 20 1017 45 10000 3.09 260 21:39 17.01.2021
3620 Clouds 20 1017 45 10000 3.09 260 21:39 17.01.2021
3621 Clouds 20 1017 45 10000 3.09 260 21:21 17.01.2021
3622 Clouds 20 1017 45 10000 3.09 240 20:47 17.01.2021
3623 Clouds 20 1017 45 10000 3.09 240 20:25 17.01.2021
3624 Clouds 20 1018 45 10000 2.06 350 19:42 17.01.2021
3625 Clouds 19 1018 45 10000 2.06 350 19:21 17.01.2021
3626 Clouds 19 1019 48 10000 3.09 350 18:38 17.01.2021
3627 Clouds 18 1019 48 10000 3.09 350 18:19 17.01.2021
3628 Clouds 18 1020 51 10000 1.54 0 17:45 17.01.2021
3629 Clouds 17 1020 51 10000 1.54 0 17:24 17.01.2021
3630 Clouds 17 1020 51 10000 1.54 10 16:43 17.01.2021
3631 Clouds 17 1020 51 10000 1.54 10 16:20 17.01.2021
3632 Clouds 16 1019 55 10000 3.09 40 15:42 17.01.2021
3633 Clouds 16 1019 55 10000 3.09 40 15:21 17.01.2021
3634 Clouds 14 1019 67 10000 1.54 30 14:48 17.01.2021
3635 Clouds 13 1019 67 10000 1.54 30 14:26 17.01.2021
3636 Clouds 12 1018 67 10000 2.06 10 13:45 17.01.2021
3637 Clouds 12 1018 67 10000 2.06 10 13:27 17.01.2021
3638 Clouds 12 1018 71 10000 1.54 30 12:53 17.01.2021
3639 Clouds 12 1018 71 10000 1.54 30 12:31 17.01.2021
3640 Clouds 11 1018 76 10000 3.35 340 11:56 17.01.2021
3641 Clouds 11 1018 76 10000 3.58 334 11:23 17.01.2021
3642 Clouds 11 1017 71 10000 3.58 334 10:48 17.01.2021
3643 Clouds 11 1017 71 10000 3.67 334 10:21 17.01.2021
3644 Clouds 13 1018 62 10000 1.54 340 09:26 17.01.2021
3645 Clouds 14 1018 67 10000 3.81 330 08:44 17.01.2021
3646 Clouds 15 1018 63 10000 1.54 0 06:52 17.01.2021
3647 Clouds 16 1018 63 10000 2.06 300 04:28 17.01.2021
3648 Clouds 17 1017 59 10000 2.06 280 02:46 17.01.2021
3649 Clouds 18 1016 52 10000 3.09 0 00:48 17.01.2021
3650 Clouds 19 1016 52 10000 3.09 0 00:18 17.01.2021
3651 Clear 19 1016 49 10000 7.72 300 23:49 16.01.2021
3652 Clouds 20 1016 49 10000 3.6 290 23:19 16.01.2021
3653 Clear 21 1016 46 10000 7.2 300 22:36 16.01.2021
3654 Clouds 22 1015 49 10000 4.63 290 21:58 16.01.2021
3655 Clouds 22 1015 49 10000 4.63 290 21:25 16.01.2021
3656 Clouds 22 1015 53 10000 4.63 310 20:59 16.01.2021
3657 Clouds 22 1015 53 10000 4.63 310 20:41 16.01.2021
3658 Clouds 22 1015 53 10000 4.63 310 20:19 16.01.2021
3659 Clouds 22 1016 53 10000 4.63 270 19:42 16.01.2021
3660 Clouds 22 1016 53 10000 4.63 270 19:24 16.01.2021
3661 Clouds 22 1017 53 10000 4.12 300 18:42 16.01.2021
3662 Clouds 22 1017 53 10000 4.12 300 18:24 16.01.2021
3663 Clouds 21 1017 59 10000 4.63 250 17:46 16.01.2021
3664 Clouds 20 1017 59 10000 4.63 250 17:28 16.01.2021
3665 Clouds 19 1017 59 10000 3.6 300 16:45 16.01.2021
3666 Clouds 19 1017 59 10000 3.6 300 16:26 16.01.2021
3667 Clouds 19 1017 59 10000 3.6 300 16:26 16.01.2021
3668 Clouds 18 1017 67 10000 2.06 280 15:48 16.01.2021
3669 Clouds 17 1017 67 10000 2.06 280 15:18 16.01.2021
3670 Clouds 16 1016 72 10000 2.57 310 14:21 16.01.2021
3671 Clouds 16 1015 72 10000 4.12 320 13:48 16.01.2021
3672 Clouds 16 1015 72 10000 4.12 320 13:21 16.01.2021
3673 Clouds 17 1014 72 10000 4.63 330 12:39 16.01.2021
3674 Clouds 17 1014 72 10000 4.63 330 12:20 16.01.2021
3675 Clouds 17 1014 55 10000 5.66 310 11:48 16.01.2021
3676 Clouds 18 1014 55 10000 5.66 310 11:24 16.01.2021
3677 Clouds 18 1014 55 10000 5.66 310 11:24 16.01.2021
3678 Clouds 19 1013 82 10000 4.12 310 10:45 16.01.2021
3679 Clouds 19 1013 83 10000 4.63 290 10:21 16.01.2021
3680 Clouds 20 1013 78 10000 5.14 270 09:33 16.01.2021
3681 Clouds 21 1013 78 10000 3.09 240 08:35 16.01.2021
3682 Clouds 21 1012 73 10000 3.09 220 07:32 16.01.2021
3683 Clouds 21 1013 64 10000 3.6 220 06:43 16.01.2021
3684 Clouds 21 1013 64 10000 3.09 200 04:39 16.01.2021
3685 Clouds 21 1012 64 10000 3.09 180 02:56 16.01.2021
3686 Clear 21 1012 49 10000 3.09 230 00:50 16.01.2021
3687 Clouds 22 1012 49 10000 2.06 210 00:28 16.01.2021
3688 Clouds 22 1012 49 10000 4.63 220 23:58 15.01.2021
3689 Clouds 22 1012 49 10000 4.63 220 23:21 15.01.2021
3690 Clouds 24 1011 43 10000 2.57 0 22:25 15.01.2021
3691 Clouds 24 1012 46 10000 1.54 0 21:46 15.01.2021
3692 Clouds 25 1013 43 10000 2.57 310 20:59 15.01.2021
3693 Clouds 25 1013 43 10000 2.57 310 20:40 15.01.2021
3694 Clouds 24 1013 43 10000 2.57 310 20:22 15.01.2021
3695 Clouds 24 1014 53 10000 2.06 0 19:41 15.01.2021
3696 Clouds 24 1014 53 10000 2.06 0 19:22 15.01.2021
3697 Clouds 23 1015 56 10000 3.09 320 18:44 15.01.2021
3698 Clouds 23 1015 56 10000 3.09 320 18:19 15.01.2021
3699 Clouds 23 1015 60 10000 2.28 303 17:52 15.01.2021
3700 Clouds 22 1015 60 10000 2.24 311 17:26 15.01.2021
3701 Clouds 22 1016 60 10000 2.24 311 16:55 15.01.2021
3702 Clouds 21 1016 60 10000 2 327 16:26 15.01.2021
3703 Clouds 19 1016 68 10000 1.54 320 15:44 15.01.2021
3704 Clouds 19 1016 68 10000 1.54 320 15:23 15.01.2021
3705 Clouds 18 1015 72 10000 2.06 300 14:56 15.01.2021
3706 Clouds 18 1015 72 10000 2.06 300 14:37 15.01.2021
3707 Clouds 18 1015 72 10000 2.06 300 14:18 15.01.2021
3708 Clouds 17 1015 77 10000 1.54 0 13:40 15.01.2021
3709 Clouds 18 1015 77 10000 1.54 0 13:19 15.01.2021
3710 Clouds 18 1015 72 10000 2.57 330 12:40 15.01.2021
3711 Clouds 18 1015 72 10000 2.57 330 12:21 15.01.2021
3712 Clouds 18 1014 72 10000 2.06 300 11:42 15.01.2021
3713 Clouds 18 1014 77 10000 0.99 320 10:59 15.01.2021
3714 Clouds 18 1014 77 10000 0.99 320 10:41 15.01.2021
3715 Clouds 18 1014 77 10000 1.54 300 10:21 15.01.2021
3716 Clouds 18 1015 68 10000 1.54 300 09:47 15.01.2021
3717 Clouds 18 1015 68 10000 1.54 300 09:28 15.01.2021
3718 Clouds 18 1015 68 10000 1.54 300 08:28 15.01.2021
3719 Clouds 18 1015 68 10000 1.28 104 07:44 15.01.2021
3720 Clouds 18 1015 68 10000 1.57 85 07:23 15.01.2021
3721 Clouds 18 1015 68 10000 1.39 43 06:35 15.01.2021
3722 Clouds 18 1016 72 10000 1.54 350 02:43 15.01.2021
3723 Clouds 19 1015 64 10000 2.57 30 00:41 15.01.2021
3724 Clouds 20 1015 68 10000 3.6 10 23:30 14.01.2021
3725 Clouds 20 1015 60 10000 2.57 0 22:56 14.01.2021
3726 Clouds 20 1015 64 10000 4.12 330 22:36 14.01.2021
3727 Clouds 20 1015 64 10000 4.12 330 22:36 14.01.2021
3728 Clouds 20 1015 64 10000 4.12 330 22:18 14.01.2021
3729 Clouds 20 1015 64 10000 2.06 310 21:39 14.01.2021
3730 Clouds 20 1015 64 10000 2.06 310 21:20 14.01.2021
3731 Clouds 20 1015 63 10000 2.54 27 20:44 14.01.2021
3732 Clouds 19 1015 63 10000 2.65 16 20:18 14.01.2021
3733 Clouds 19 1016 68 10000 3.6 330 19:38 14.01.2021
3734 Clouds 19 1016 68 10000 3.6 330 19:18 14.01.2021
3735 Clouds 18 1017 68 10000 4.63 360 18:44 14.01.2021
3736 Clouds 18 1018 72 10000 4.63 360 17:59 14.01.2021
3737 Clouds 18 1018 72 10000 4.63 360 17:59 14.01.2021
3738 Clouds 17 1018 72 10000 4.63 360 17:38 14.01.2021
3739 Clouds 17 1018 72 10000 4.63 360 17:19 14.01.2021
3740 Clouds 16 1019 77 10000 4.12 360 16:37 14.01.2021
3741 Clouds 16 1018 72 10000 3.6 350 15:55 14.01.2021
3742 Clouds 16 1018 72 10000 3.6 350 15:34 14.01.2021
3743 Clouds 15 1018 82 10000 3.09 340 14:50 14.01.2021
3744 Mist 15 1018 88 9656 4.63 340 14:31 14.01.2021
3745 Clouds 17 1017 88 10000 3.6 320 13:57 14.01.2021
3746 Clouds 17 1017 88 10000 3.6 320 13:39 14.01.2021
3747 Clouds 17 1017 88 10000 3.6 320 13:18 14.01.2021
3748 Clouds 17 1017 88 10000 4.63 340 12:38 14.01.2021
3749 Clouds 17 1016 88 10000 3.6 340 12:18 14.01.2021
3750 Clouds 17 1016 100 10000 3.06 7 11:41 14.01.2021
3751 Clouds 17 1016 100 10000 3.98 359 11:20 14.01.2021
3752 Mist 17 1016 94 9656 1.54 360 10:47 14.01.2021
3753 Mist 17 1016 94 9656 1.54 360 10:22 14.01.2021
3754 Mist 17 1016 100 8047 4.37 359 09:44 14.01.2021
3755 Mist 17 1016 100 8047 4.91 340 09:22 14.01.2021
3756 Mist 17 1017 94 8047 4.91 340 08:43 14.01.2021
3757 Mist 17 1017 94 8047 3.91 350 08:22 14.01.2021
3758 Mist 17 1017 94 8047 1.54 360 07:45 14.01.2021
3759 Rain 17 1017 94 2414 2.06 20 06:43 14.01.2021
3760 Rain 17 1018 94 4023 3.09 340 05:34 14.01.2021
3761 Clouds 20 1018 73 10000 4.12 330 00:44 14.01.2021
3762 Clouds 21 1018 68 10000 4.12 300 23:51 13.01.2021
3763 Clouds 22 1018 68 10000 4.12 300 23:21 13.01.2021
3764 Clouds 23 1017 64 10000 2.57 330 22:28 13.01.2021
3765 Clouds 23 1017 68 10000 3.09 300 21:50 13.01.2021
3766 Clouds 23 1017 68 10000 3.09 300 21:28 13.01.2021
3767 Clouds 24 1017 60 10000 2.22 84 20:57 13.01.2021
3768 Clouds 24 1017 60 10000 2.29 86 20:29 13.01.2021
3769 Clouds 24 1018 57 10000 3.09 360 19:57 13.01.2021
3770 Clouds 24 1018 57 10000 3.09 360 19:37 13.01.2021
3771 Clouds 24 1018 57 10000 3.09 360 19:18 13.01.2021
3772 Clouds 24 1019 60 10000 2.06 10 18:37 13.01.2021
3773 Clouds 22 1020 73 10000 2.45 15 17:51 13.01.2021
3774 Clouds 21 1020 73 10000 2.25 29 17:25 13.01.2021
3775 Clouds 19 1021 82 10000 2.57 350 16:51 13.01.2021
3776 Clouds 19 1021 82 10000 2.57 350 16:22 13.01.2021
3777 Clouds 18 1021 88 10000 3.09 320 15:52 13.01.2021
3778 Clouds 17 1021 88 10000 3.09 320 15:34 13.01.2021
3779 Clouds 17 1020 88 10000 2.06 40 14:48 13.01.2021
3780 Clouds 17 1020 88 10000 3.99 352 13:53 13.01.2021
3781 Clouds 17 1020 88 10000 3.99 352 13:31 13.01.2021
3782 Clouds 17 1021 88 10000 2.57 320 12:47 13.01.2021
3783 Clouds 17 1021 88 10000 2.57 320 12:29 13.01.2021
3784 Clouds 17 1020 82 10000 3.6 320 11:59 13.01.2021
3785 Clouds 18 1020 82 10000 3.6 320 11:40 13.01.2021
3786 Clouds 18 1020 82 10000 3.6 320 11:22 13.01.2021
3787 Clouds 18 1020 82 10000 3.09 340 10:41 13.01.2021
3788 Clouds 18 1020 82 10000 3.09 340 10:22 13.01.2021
3789 Clouds 18 1020 88 10000 2.57 360 09:34 13.01.2021
3790 Clouds 18 1020 88 10000 4.12 350 08:53 13.01.2021
3791 Clouds 18 1020 88 10000 4.12 350 08:32 13.01.2021
3792 Clouds 18 1021 82 10000 3.09 340 07:37 13.01.2021
3793 Clouds 19 1021 88 10000 2.57 330 06:58 13.01.2021
3794 Clouds 20 1022 83 10000 1.54 0 04:21 13.01.2021
3795 Clouds 20 1021 83 10000 1.54 0 03:48 13.01.2021
3796 Clouds 20 1021 83 10000 1.54 0 03:29 13.01.2021
3797 Clouds 21 1020 78 10000 4.12 330 01:44 13.01.2021
3798 Clouds 22 1020 73 10000 2.06 300 00:29 13.01.2021
3799 Clouds 23 1020 68 10000 1.1 61 23:29 12.01.2021
3800 Clouds 23 1020 64 10000 2.57 130 22:47 12.01.2021
3801 Clouds 24 1020 64 10000 2.57 130 22:25 12.01.2021
3802 Clouds 24 1020 64 10000 1 139 21:53 12.01.2021
3803 Clouds 24 1020 64 10000 1 139 21:31 12.01.2021
3804 Clouds 25 1020 69 10000 1.39 116 20:53 12.01.2021
3805 Clouds 25 1020 69 10000 2.22 53 20:29 12.01.2021
3806 Clouds 24 1021 69 10000 3.09 310 19:56 12.01.2021
3807 Clouds 24 1021 69 10000 3.09 310 19:37 12.01.2021
3808 Clouds 25 1022 69 10000 2.06 0 18:51 12.01.2021
3809 Clouds 25 1022 69 10000 2.06 0 18:25 12.01.2021
3810 Clouds 24 1023 73 10000 2.57 310 17:55 12.01.2021
3811 Clouds 24 1023 73 10000 2.57 310 17:31 12.01.2021
3812 Clouds 24 1023 73 10000 2.57 310 17:31 12.01.2021
3813 Clouds 23 1024 73 10000 2.57 340 16:44 12.01.2021
3814 Clouds 23 1024 78 10000 2.57 290 16:25 12.01.2021
3815 Clouds 22 1023 83 10000 1.65 317 15:45 12.01.2021
3816 Clouds 21 1023 83 10000 2.13 331 15:22 12.01.2021
3817 Clear 20 1022 88 10000 2.13 331 14:47 12.01.2021
3818 Clouds 20 1022 83 10000 2.32 319 14:26 12.01.2021
3819 Clouds 20 1021 83 10000 2.32 319 13:53 12.01.2021
3820 Clouds 19 1021 83 10000 2.06 302 13:29 12.01.2021
3821 Clouds 20 1021 83 10000 0.45 148 12:29 12.01.2021
3822 Clouds 19 1020 83 10000 0.45 148 11:42 12.01.2021
3823 Clouds 18 1020 94 10000 0.7 168 10:55 12.01.2021
3824 Clouds 19 1020 94 10000 1.11 180 10:26 12.01.2021
3825 Clouds 19 1020 88 10000 1.11 180 09:59 12.01.2021
3826 Clouds 19 1020 88 10000 1.11 180 09:39 12.01.2021
3827 Clouds 19 1020 88 10000 1.73 154 09:20 12.01.2021
3828 Clouds 19 1020 88 10000 1.54 160 08:26 12.01.2021
3829 Clouds 19 1021 88 10000 3.51 122 07:37 12.01.2021
3830 Clouds 19 1021 88 10000 2.05 130 06:59 12.01.2021
3831 Clouds 19 1022 83 10000 2.54 125 05:35 12.01.2021
3832 Clouds 20 1022 73 10000 1.77 135 03:33 12.01.2021
3833 Clouds 21 1022 68 10000 2.83 114 02:21 12.01.2021
3834 Clear 21 1021 68 10000 2.06 70 01:36 12.01.2021
3835 Clouds 22 1021 68 10000 1.82 102 00:30 12.01.2021
3836 Clouds 23 1021 60 10000 1.54 190 23:39 11.01.2021
3837 Clouds 23 1021 60 10000 1.54 190 23:18 11.01.2021
3838 Clouds 24 1020 57 10000 2.57 180 22:45 11.01.2021
3839 Clouds 24 1020 57 10000 2.57 180 22:27 11.01.2021
3840 Clouds 24 1021 60 10000 3.6 170 21:44 11.01.2021
3841 Clouds 24 1021 60 10000 3.6 170 21:25 11.01.2021
3842 Clouds 24 1021 57 10000 4.12 170 20:50 11.01.2021
3843 Clouds 24 1021 57 10000 4.12 170 20:31 11.01.2021
3844 Clouds 24 1022 57 10000 3.6 160 19:59 11.01.2021
3845 Clouds 24 1022 57 10000 3.6 160 19:37 11.01.2021
3846 Clouds 24 1022 57 10000 3.6 160 19:19 11.01.2021
3847 Clouds 24 1023 60 10000 5.14 130 18:41 11.01.2021
3848 Clouds 24 1023 60 10000 5.14 130 18:22 11.01.2021
3849 Clouds 24 1023 60 10000 4.63 140 17:42 11.01.2021
3850 Clouds 24 1023 60 10000 4.63 140 17:23 11.01.2021
3851 Clouds 23 1024 64 10000 3.09 150 16:47 11.01.2021
3852 Clouds 23 1024 64 10000 3.09 150 16:28 11.01.2021
3853 Clouds 22 1023 68 10000 2.06 140 15:50 11.01.2021
3854 Clouds 22 1023 68 10000 2.06 140 15:32 11.01.2021
3855 Clouds 21 1022 77 10000 4.12 100 14:41 11.01.2021
3856 Clouds 20 1022 77 10000 4.12 100 14:22 11.01.2021
3857 Clouds 20 1022 72 10000 3.09 110 13:44 11.01.2021
3858 Clouds 20 1022 72 10000 3.09 110 13:21 11.01.2021
3859 Clouds 20 1022 68 10000 1.54 100 12:42 11.01.2021
3860 Clouds 20 1022 68 10000 1.54 100 12:23 11.01.2021
3861 Clouds 20 1021 68 10000 2.06 100 11:45 11.01.2021
3862 Clouds 20 1020 60 10000 4.12 100 10:55 11.01.2021
3863 Clouds 20 1020 60 10000 4.12 100 10:35 11.01.2021
3864 Clouds 19 1021 63 10000 4.63 110 09:48 11.01.2021
3865 Clouds 20 1021 63 10000 4.63 110 09:29 11.01.2021
3866 Clouds 19 1022 63 10000 4.12 100 08:52 11.01.2021
3867 Clouds 19 1022 63 10000 4.12 100 08:32 11.01.2021
3868 Clouds 19 1022 59 10000 4.12 90 07:41 11.01.2021
3869 Clouds 19 1022 59 10000 4.12 90 07:21 11.01.2021
3870 Clouds 19 1022 72 10000 1.54 50 06:49 11.01.2021
3871 Clouds 17 1024 52 10000 2.06 330 02:23 11.01.2021
3872 Clouds 18 1022 48 10000 2.06 320 00:40 11.01.2021
3873 Clouds 19 1022 48 10000 3.09 310 23:47 10.01.2021
3874 Clouds 20 1022 45 10000 4.12 290 22:57 10.01.2021
3875 Clouds 20 1022 43 10000 3.09 310 22:38 10.01.2021
3876 Clouds 20 1022 43 10000 3.09 310 22:18 10.01.2021
3877 Clouds 20 1021 43 10000 2.61 63 21:40 10.01.2021
3878 Clouds 20 1021 43 10000 2.5 63 21:18 10.01.2021
3879 Clouds 20 1022 40 10000 2.06 330 20:47 10.01.2021
3880 Clouds 20 1022 40 10000 2.06 330 20:27 10.01.2021
3881 Clouds 20 1022 45 10000 1.54 0 19:40 10.01.2021
3882 Clouds 19 1022 45 10000 1.54 0 19:22 10.01.2021
3883 Clouds 19 1023 48 10000 2.35 53 18:45 10.01.2021
3884 Clouds 19 1023 48 10000 3.15 51 18:20 10.01.2021
3885 Clouds 17 1024 51 10000 3.34 48 17:26 10.01.2021
3886 Clouds 16 1024 62 10000 2.57 360 16:50 10.01.2021
3887 Clouds 15 1024 62 10000 2.57 360 16:30 10.01.2021
3888 Clouds 13 1024 71 10000 2.06 350 15:41 10.01.2021
3889 Clouds 12 1024 71 10000 2.06 350 15:22 10.01.2021
3890 Clouds 10 1023 76 10000 3.6 340 14:41 10.01.2021
3891 Clouds 10 1023 76 10000 3.6 340 14:22 10.01.2021
3892 Clear 9 1023 81 10000 2.57 340 13:43 10.01.2021
3893 Clear 9 1023 81 10000 2.57 340 13:24 10.01.2021
3894 Clouds 9 1023 76 10000 2.57 350 12:58 10.01.2021
3895 Clouds 9 1023 76 10000 2.57 350 12:40 10.01.2021
3896 Clear 10 1022 76 10000 2.06 10 11:56 10.01.2021
3897 Clear 10 1022 76 10000 2.06 10 11:21 10.01.2021
3898 Clouds 10 1022 76 10000 2.06 340 10:51 10.01.2021
3899 Clouds 10 1022 76 10000 2.06 340 10:24 10.01.2021
3900 Clear 10 1022 76 10000 2.57 0 09:46 10.01.2021
3901 Clear 11 1022 71 10000 2.06 340 08:49 10.01.2021
3902 Clear 11 1022 71 10000 2.57 330 07:47 10.01.2021
3903 Clear 12 1022 67 10000 4.63 330 06:50 10.01.2021
3904 Clear 12 1022 67 10000 4.63 330 06:18 10.01.2021
3905 Clear 13 1022 67 10000 3.6 340 05:27 10.01.2021
3906 Clear 16 1020 55 10000 2.06 350 01:58 10.01.2021
3907 Clouds 16 1019 55 10000 3.09 340 00:23 10.01.2021
3908 Clouds 17 1019 52 10000 2.06 310 23:41 09.01.2021
3909 Clouds 18 1019 52 10000 2.06 310 23:20 09.01.2021
3910 Clouds 19 1018 52 10000 2.06 320 22:22 09.01.2021
3911 Clouds 19 1018 52 10000 4.63 310 21:59 09.01.2021
3912 Clouds 19 1018 52 10000 4.63 310 21:59 09.01.2021
3913 Clouds 19 1018 52 10000 4.63 310 21:39 09.01.2021
3914 Clouds 19 1018 52 10000 4.63 310 21:21 09.01.2021
3915 Clouds 19 1018 52 10000 4.63 320 20:56 09.01.2021
3916 Clouds 19 1018 52 10000 4.63 320 20:32 09.01.2021
3917 Clouds 19 1019 52 10000 4.12 310 19:40 09.01.2021
3918 Clouds 18 1019 52 10000 4.12 310 19:21 09.01.2021
3919 Clear 18 1020 59 10000 4.12 300 18:38 09.01.2021
3920 Clear 18 1020 59 10000 4.12 300 18:38 09.01.2021
3921 Clear 18 1020 59 10000 4.12 300 18:18 09.01.2021
3922 Clouds 17 1021 55 10000 5.66 330 17:41 09.01.2021
3923 Clouds 17 1021 55 10000 5.66 330 17:22 09.01.2021
3924 Clouds 17 1021 59 10000 4.12 320 16:28 09.01.2021
3925 Clouds 16 1020 63 10000 3.09 320 15:41 09.01.2021
3926 Clouds 16 1020 63 10000 3.09 320 15:22 09.01.2021
3927 Clouds 15 1019 67 10000 2.57 0 14:37 09.01.2021
3928 Clouds 14 1019 67 10000 2.57 0 14:19 09.01.2021
3929 Clouds 14 1018 72 10000 3.09 330 13:45 09.01.2021
3930 Clouds 14 1018 72 10000 3.09 330 13:27 09.01.2021
3931 Clouds 14 1018 77 10000 4.12 330 12:29 09.01.2021
3932 Clouds 15 1017 72 10000 2.57 0 11:59 09.01.2021
3933 Clouds 14 1017 72 10000 4.63 330 11:40 09.01.2021
3934 Clouds 15 1017 72 10000 2.57 0 11:22 09.01.2021
3935 Clouds 15 1017 72 10000 4.12 330 10:48 09.01.2021
3936 Clouds 15 1017 72 10000 4.12 330 10:25 09.01.2021
3937 Clouds 15 1017 72 10000 3.09 0 09:45 09.01.2021
3938 Clouds 16 1017 72 10000 3.09 0 09:21 09.01.2021
3939 Clouds 16 1017 67 10000 3.09 320 08:25 09.01.2021
3940 Clouds 17 1017 68 10000 2.57 310 06:55 09.01.2021
3941 Clouds 17 1017 68 10000 2.57 310 06:37 09.01.2021
3942 Clouds 17 1017 68 10000 3.09 280 04:40 09.01.2021
3943 Clouds 19 1016 68 10000 4.12 280 02:48 09.01.2021
3944 Clouds 19 1016 68 10000 4.12 280 02:29 09.01.2021
3945 Clear 19 1015 63 10000 6.17 290 01:36 09.01.2021
3946 Clouds 21 1014 56 10000 6.17 270 00:34 09.01.2021
3947 Clouds 22 1014 53 10000 6.17 250 23:50 08.01.2021
3948 Clouds 23 1013 50 10000 6.69 260 22:54 08.01.2021
3949 Clouds 23 1013 60 10000 4.12 260 21:58 08.01.2021
3950 Clouds 23 1013 60 10000 4.12 260 21:31 08.01.2021
3951 Clouds 23 1013 64 10000 3.09 270 20:41 08.01.2021
3952 Clouds 23 1013 64 10000 3.09 270 20:23 08.01.2021
3953 Clouds 22 1014 60 10000 4.63 290 19:39 08.01.2021
3954 Clouds 22 1014 60 10000 4.63 290 19:21 08.01.2021
3955 Clouds 23 1015 60 10000 3.09 0 18:34 08.01.2021
3956 Clouds 23 1016 60 10000 4.63 310 17:55 08.01.2021
3957 Clouds 23 1016 60 10000 4.63 310 17:30 08.01.2021
3958 Clouds 22 1016 73 10000 4.12 320 16:51 08.01.2021
3959 Clouds 21 1016 73 10000 4.12 320 16:20 08.01.2021
3960 Clouds 21 1016 73 10000 4.12 310 15:40 08.01.2021
3961 Clouds 22 1015 83 10000 3.6 290 14:42 08.01.2021
3962 Clouds 21 1015 88 10000 3.6 270 14:23 08.01.2021
3963 Clouds 21 1014 94 10000 3.09 220 13:23 08.01.2021
3964 Clouds 21 1014 88 10000 3.09 210 12:53 08.01.2021
3965 Clouds 21 1014 88 10000 3.09 210 12:25 08.01.2021
3966 Clouds 21 1013 88 10000 3.09 210 11:59 08.01.2021
3967 Clouds 21 1013 88 10000 3.09 210 11:41 08.01.2021
3968 Clouds 21 1013 88 10000 3.09 210 11:20 08.01.2021
3969 Clouds 21 1013 88 10000 4.12 200 10:46 08.01.2021
3970 Clouds 21 1013 88 10000 4.12 200 10:23 08.01.2021
3971 Clouds 21 1014 83 10000 3.6 200 09:41 08.01.2021
3972 Clouds 21 1014 83 10000 3.6 200 09:20 08.01.2021
3973 Clouds 21 1015 88 10000 2.06 170 07:44 08.01.2021
3974 Clouds 21 1015 88 10000 2.06 170 07:25 08.01.2021
3975 Clouds 21 1015 88 10000 2.06 170 07:25 08.01.2021
3976 Clouds 21 1016 73 10000 3.09 0 04:18 08.01.2021
3977 Clouds 22 1016 56 10000 5.14 140 23:44 07.01.2021
3978 Clouds 23 1016 56 10000 5.14 140 23:25 07.01.2021
3979 Clouds 23 1015 53 10000 5.66 170 22:36 07.01.2021
3980 Clouds 24 1015 50 10000 5.14 130 21:53 07.01.2021
3981 Clouds 24 1015 50 10000 5.14 130 21:34 07.01.2021
3982 Clouds 24 1016 50 10000 6.69 130 20:57 07.01.2021
3983 Clouds 24 1016 50 10000 6.69 130 20:38 07.01.2021
3984 Clouds 24 1016 50 10000 6.69 130 20:18 07.01.2021
3985 Clouds 24 1017 50 10000 4.63 130 19:38 07.01.2021
3986 Clouds 24 1018 50 10000 3.6 140 18:50 07.01.2021
3987 Clouds 24 1018 50 10000 3.6 140 18:22 07.01.2021
3988 Clouds 24 1019 46 10000 5.66 120 17:42 07.01.2021
3989 Clouds 24 1019 46 10000 5.66 120 17:18 07.01.2021
3990 Clouds 24 1020 53 10000 5.66 130 16:51 07.01.2021
3991 Clouds 22 1020 53 10000 5.66 130 16:20 07.01.2021
3992 Clouds 21 1020 60 10000 4.37 150 15:34 07.01.2021
3993 Clouds 16 1019 77 10000 3.13 131 14:42 07.01.2021
3994 Clouds 16 1019 77 10000 3.13 131 14:42 07.01.2021
3995 Clouds 16 1019 77 10000 3.13 131 14:42 07.01.2021
3996 Clouds 16 1019 77 10000 3.13 131 14:42 07.01.2021
3997 Clouds 16 1019 77 10000 2.23 103 14:23 07.01.2021
3998 Clouds 13 1019 88 10000 2.23 103 13:31 07.01.2021
3999 Clouds 14 1019 98 10000 1.63 72 12:57 07.01.2021
4000 Clouds 14 1017 66 10000 2.6 20 12:33 07.01.2021
4001 Clouds 14 1018 87 10000 1.5 20 11:52 07.01.2021
4002 Clouds 14 1018 87 10000 1.5 20 11:30 07.01.2021
4003 Clouds 14 1018 77 10000 2.1 360 10:48 07.01.2021
4004 Clouds 15 1018 77 10000 2.1 360 10:19 07.01.2021
4005 Clouds 14 1017 82 10000 0.79 296 09:46 07.01.2021
4006 Clouds 15 1018 82 10000 0.77 262 09:18 07.01.2021
4007 Clouds 15 1018 82 10000 0.92 172 08:26 07.01.2021
4008 Clouds 15 1018 72 10000 0.92 172 07:45 07.01.2021
4009 Clouds 15 1018 72 10000 1.8 147 07:18 07.01.2021
4010 Clouds 16 1018 63 10000 2.79 125 04:22 07.01.2021
4011 Clouds 19 1018 45 10000 2.6 150 00:28 07.01.2021
4012 Clouds 20 1018 40 10000 3.1 170 23:38 06.01.2021
4013 Clouds 22 1018 28 10000 2.33 92 22:37 06.01.2021
4014 Clouds 22 1017 25 10000 2.1 90 21:44 06.01.2021
4015 Clouds 22 1017 25 10000 2.1 90 21:23 06.01.2021
4016 Clouds 22 1018 26 10000 2.1 0 20:51 06.01.2021
4017 Clouds 22 1018 28 10000 2.1 100 20:24 06.01.2021
4018 Clouds 22 1018 28 10000 2.1 100 20:24 06.01.2021
4019 Clouds 22 1018 28 10000 2.1 100 19:54 06.01.2021
4020 Clouds 22 1018 28 10000 2.1 100 19:36 06.01.2021
4021 Clouds 21 1018 28 10000 2.1 100 19:18 06.01.2021
4022 Clouds 21 1019 52 10000 2.1 0 18:40 06.01.2021
4023 Clouds 21 1020 52 10000 2.1 0 18:21 06.01.2021
4024 Clouds 20 1020 52 10000 2.1 0 17:42 06.01.2021
4025 Clouds 20 1020 52 10000 2.1 0 17:22 06.01.2021
4026 Clouds 19 1021 59 10000 1.5 350 16:41 06.01.2021
4027 Clouds 18 1021 59 10000 1.5 350 16:19 06.01.2021
4028 Clouds 16 1021 67 10000 2.1 310 15:50 06.01.2021
4029 Clouds 16 1021 67 10000 2.1 310 15:28 06.01.2021
4030 Clouds 14 1020 71 10000 1.5 0 14:44 06.01.2021
4031 Clouds 13 1020 71 10000 1.5 0 14:20 06.01.2021
4032 Clouds 13 1020 71 10000 1.5 0 14:20 06.01.2021
4033 Clouds 13 1019 82 10000 2.1 330 13:42 06.01.2021
4034 Clouds 13 1018 87 10000 2.1 340 13:21 06.01.2021
4035 Clouds 13 1018 87 10000 2.1 340 12:47 06.01.2021
4036 Clouds 12 1018 87 10000 4.53 343 11:51 06.01.2021
4037 Clouds 12 1018 87 10000 3.65 345 11:25 06.01.2021
4038 Clouds 11 1018 87 10000 3.65 345 10:56 06.01.2021
4039 Clouds 12 1018 87 10000 3.04 345 10:18 06.01.2021
4040 Clouds 12 1018 87 10000 3.04 345 10:18 06.01.2021
4041 Clouds 12 1018 87 10000 3.04 345 09:47 06.01.2021
4042 Clouds 13 1018 76 10000 3.04 339 08:57 06.01.2021
4043 Clouds 13 1018 76 10000 3.04 339 08:30 06.01.2021
4044 Clouds 14 1019 63 10000 1.5 290 07:54 06.01.2021
4045 Clear 14 1019 67 10000 3.83 340 06:46 06.01.2021
4046 Clear 14 1018 54 10000 4.12 343 05:33 06.01.2021
4047 Clear 15 1018 48 10000 1.5 360 04:34 06.01.2021
4048 Clear 16 1018 45 10000 4.05 343 02:46 06.01.2021
4049 Clear 16 1018 45 10000 4.09 343 02:23 06.01.2021
4050 Clouds 19 1017 37 10000 2.1 330 00:31 06.01.2021
4051 Clouds 20 1017 30 10000 2.6 0 23:29 05.01.2021
4052 Clouds 21 1017 33 10000 3.6 300 22:43 05.01.2021
4053 Clouds 21 1016 35 10000 3.6 320 22:21 05.01.2021
4054 Clouds 22 1016 35 10000 3.6 320 21:55 05.01.2021
4055 Clear 22 1016 28 10000 4.1 300 20:49 05.01.2021
4056 Clear 22 1016 28 10000 4.1 300 20:25 05.01.2021
4057 Clear 22 1017 33 10000 4.1 340 19:44 05.01.2021
4058 Clear 22 1017 33 10000 4.1 340 19:21 05.01.2021
4059 Clear 22 1018 30 10000 4.6 340 18:43 05.01.2021
4060 Clear 22 1018 30 10000 4.6 340 18:24 05.01.2021
4061 Clouds 20 1019 48 10000 5.1 300 17:50 05.01.2021
4062 Clouds 20 1019 48 10000 5.1 300 17:27 05.01.2021
4063 Clear 19 1019 55 10000 4.6 340 16:53 05.01.2021
4064 Clear 18 1019 55 10000 4.6 340 16:22 05.01.2021
4065 Clear 17 1019 59 10000 5.7 340 15:50 05.01.2021
4066 Clear 17 1019 59 10000 5.7 340 15:25 05.01.2021
4067 Clear 15 1018 67 10000 2.6 0 14:39 05.01.2021
4068 Clear 14 1017 67 10000 2.6 340 13:51 05.01.2021
4069 Clear 14 1017 67 10000 2.6 340 13:30 05.01.2021
4070 Clear 15 1017 67 10000 2.1 330 12:50 05.01.2021
4071 Clear 15 1017 67 10000 2.1 330 12:28 05.01.2021
4072 Clear 15 1016 67 10000 3.1 330 11:40 05.01.2021
4073 Clear 15 1016 67 10000 1.5 330 11:20 05.01.2021
4074 Clear 15 1016 67 10000 1.5 330 11:19 05.01.2021
4075 Clear 15 1016 67 10000 1.5 330 10:43 05.01.2021
4076 Clouds 16 1016 59 10000 2.6 340 09:51 05.01.2021
4077 Clouds 16 1016 59 10000 2.6 340 09:30 05.01.2021
4078 Clear 16 1016 59 10000 3.69 0 08:29 05.01.2021
4079 Clear 16 1016 59 10000 3.69 0 08:29 05.01.2021
4080 Clouds 17 1017 63 10000 2.6 350 07:50 05.01.2021
4081 Clouds 17 1017 52 10000 1.5 330 05:29 05.01.2021
4082 Clouds 19 1017 48 10000 2.6 340 02:36 05.01.2021
4083 Clouds 21 1017 49 10000 4.1 320 00:22 05.01.2021
4084 Clouds 22 1016 43 10000 2.6 300 23:39 04.01.2021
4085 Clouds 22 1016 43 10000 4.1 300 23:19 04.01.2021
4086 Clouds 22 1016 43 10000 4.1 300 22:42 04.01.2021
4087 Clouds 23 1016 38 10000 3.6 310 21:57 04.01.2021
4088 Clouds 23 1016 38 10000 3.6 310 21:38 04.01.2021
4089 Clouds 23 1016 46 10000 2.6 320 20:56 04.01.2021
4090 Clouds 23 1016 46 10000 2.6 320 20:34 04.01.2021
4091 Clouds 22 1016 52 10000 2.6 330 19:59 04.01.2021
4092 Clouds 22 1016 52 10000 2.6 330 19:38 04.01.2021
4093 Clouds 22 1018 56 10000 3.1 330 19:18 04.01.2021
4094 Clouds 22 1018 56 10000 3.1 330 18:40 04.01.2021
4095 Clouds 21 1019 56 10000 3.1 300 17:46 04.01.2021
4096 Clouds 20 1019 56 10000 3.1 300 17:28 04.01.2021
4097 Clouds 20 1019 72 10000 3.1 350 16:48 04.01.2021
4098 Clouds 20 1019 72 10000 3.1 350 16:28 04.01.2021
4099 Clouds 20 1019 77 10000 3.1 330 15:52 04.01.2021
4100 Clouds 20 1019 77 10000 3.1 330 15:52 04.01.2021
4101 Clouds 20 1018 77 10000 4.1 350 15:34 04.01.2021
4102 Clouds 20 1018 77 10000 4.1 350 14:52 04.01.2021
4103 Clouds 20 1018 83 10000 3.1 320 13:55 04.01.2021
4104 Clouds 20 1018 77 10000 3.1 320 13:35 04.01.2021
4105 Clouds 20 1017 83 10000 2.6 340 12:50 04.01.2021
4106 Clouds 20 1017 83 10000 2.6 340 12:25 04.01.2021
4107 Clouds 20 1016 88 10000 3.69 317 11:32 04.01.2021
4108 Clouds 20 1016 88 10000 3.1 310 10:56 04.01.2021
4109 Clouds 21 1016 88 10000 3.1 310 10:38 04.01.2021
4110 Clouds 21 1016 88 10000 3.1 310 10:19 04.01.2021
4111 Clouds 22 1016 94 10000 2.6 320 09:24 04.01.2021
4112 Clouds 22 1016 94 10000 2.1 270 08:50 04.01.2021
4113 Clouds 22 1016 88 10000 4.1 260 08:21 04.01.2021
4114 Clouds 22 1017 88 10000 2.1 180 07:45 04.01.2021
4115 Clouds 23 1018 88 10000 2.1 240 05:35 04.01.2021
4116 Clouds 23 1018 88 10000 2.1 270 04:50 04.01.2021
4117 Rain 24 1017 73 10000 3.6 220 01:30 04.01.2021
4118 Clouds 25 1016 26 10000 1.34 217 23:57 03.01.2021
4119 Clouds 25 1016 65 10000 3.1 230 23:34 03.01.2021
4120 Clear 26 1017 54 10000 4.6 240 22:57 03.01.2021
4121 Clear 26 1017 54 10000 4.6 240 22:39 03.01.2021
4122 Clouds 27 1016 54 10000 4.1 250 22:20 03.01.2021
4123 Clouds 27 1016 54 10000 3.1 200 21:37 03.01.2021
4124 Clouds 27 1017 61 10000 4.6 200 20:56 03.01.2021
4125 Clouds 27 1017 61 10000 4.6 200 20:38 03.01.2021
4126 Clouds 28 1017 61 10000 5.1 160 20:18 03.01.2021
4127 Clouds 28 1017 61 10000 5.1 160 19:44 03.01.2021
4128 Clouds 28 1017 61 10000 5.1 160 19:21 03.01.2021
4129 Clouds 27 1018 65 10000 4.6 160 18:43 03.01.2021
4130 Clouds 27 1018 65 10000 4.6 160 18:21 03.01.2021
4131 Clouds 27 1020 69 10000 4.6 160 17:51 03.01.2021
4132 Clouds 27 1020 69 10000 4.6 160 17:26 03.01.2021
4133 Clouds 26 1020 74 10000 4.1 160 16:45 03.01.2021
4134 Clouds 26 1020 74 10000 4.1 160 16:20 03.01.2021
4135 Clouds 25 1020 83 10000 1.5 170 15:52 03.01.2021
4136 Clouds 25 1020 83 10000 1.5 170 15:34 03.01.2021
4137 Clouds 24 1019 83 10000 1.5 0 14:58 03.01.2021
4138 Clouds 23 1019 83 10000 1.5 0 14:33 03.01.2021
4139 Clouds 22 1019 83 10000 4.61 180 13:48 03.01.2021
4140 Clouds 22 1019 83 10000 4.94 175 13:23 03.01.2021
4141 Clouds 22 1018 88 10000 2.1 150 12:51 03.01.2021
4142 Clouds 22 1018 83 10000 3.6 130 11:44 03.01.2021
4143 Clouds 22 1018 83 10000 3.6 130 11:25 03.01.2021
4144 Clear 22 1018 83 10000 2.1 150 10:55 03.01.2021
4145 Clear 22 1018 83 10000 2.1 150 10:30 03.01.2021
4146 Clear 20 1019 77 10000 1.5 140 09:41 03.01.2021
4147 Clear 20 1019 77 10000 1.5 140 09:23 03.01.2021
4148 Clouds 21 1019 78 10000 1.5 150 07:58 03.01.2021
4149 Clouds 23 1020 78 10000 2.1 0 05:59 03.01.2021
4150 Clear 23 1020 78 10000 2.6 140 02:45 03.01.2021
4151 Clear 23 1020 78 10000 2.6 140 02:20 03.01.2021
4152 Clouds 24 1020 69 10000 2.6 150 00:24 03.01.2021
4153 Clouds 25 1020 65 10000 5.7 160 23:30 02.01.2021
4154 Clouds 26 1020 65 10000 6.04 155 22:59 02.01.2021
4155 Clouds 26 1020 65 10000 6.04 155 22:33 02.01.2021
4156 Clouds 26 1020 61 10000 6.2 160 21:55 02.01.2021
4157 Clouds 27 1020 61 10000 6.2 160 21:33 02.01.2021
4158 Clouds 27 1020 61 10000 6.2 160 20:59 02.01.2021
4159 Clouds 27 1020 61 10000 6.2 160 20:39 02.01.2021
4160 Clouds 27 1020 61 10000 6.2 160 20:19 02.01.2021
4161 Clouds 27 1021 57 10000 6.2 170 19:43 02.01.2021
4162 Clouds 27 1021 57 10000 6.7 160 19:19 02.01.2021
4163 Clouds 27 1021 57 10000 6.7 160 18:42 02.01.2021
4164 Clouds 27 1021 57 10000 6.7 160 18:24 02.01.2021
4165 Clouds 27 1022 65 10000 6.2 140 17:45 02.01.2021
4166 Clouds 26 1022 65 10000 6.2 140 17:22 02.01.2021
4167 Clouds 26 1022 69 10000 7.48 151 16:38 02.01.2021
4168 Clouds 26 1022 69 10000 7.5 149 16:19 02.01.2021
4169 Clouds 25 1021 78 10000 5.1 130 15:41 02.01.2021
4170 Clouds 25 1021 83 10000 5.1 140 15:21 02.01.2021
4171 Clouds 24 1021 83 10000 5.1 140 14:37 02.01.2021
4172 Clouds 24 1021 83 10000 4.1 140 13:58 02.01.2021
4173 Clouds 24 1021 83 10000 4.1 140 13:32 02.01.2021
4174 Clouds 24 1020 83 10000 5.1 140 12:53 02.01.2021
4175 Clouds 24 1020 83 10000 5.1 140 12:32 02.01.2021
4176 Clouds 24 1020 83 10000 5.1 140 12:32 02.01.2021
4177 Clouds 24 1020 83 10000 4.6 130 11:45 02.01.2021
4178 Clouds 24 1020 83 10000 4.6 130 11:22 02.01.2021
4179 Clouds 24 1020 83 10000 4.1 120 10:51 02.01.2021
4180 Clouds 24 1020 83 10000 3.6 130 10:28 02.01.2021
4181 Clouds 24 1020 83 10000 4.1 140 09:52 02.01.2021
4182 Clouds 24 1020 83 10000 4.1 140 09:23 02.01.2021
4183 Clouds 24 1021 83 10000 5.1 130 08:50 02.01.2021
4184 Clouds 24 1021 83 10000 5.1 130 08:28 02.01.2021
4185 Clouds 24 1021 83 10000 4.1 130 07:47 02.01.2021
4186 Clouds 24 1021 83 10000 4.1 130 07:22 02.01.2021
4187 Clouds 24 1021 83 10000 4.6 130 06:42 02.01.2021
4188 Clouds 24 1022 83 10000 5.1 130 05:45 02.01.2021
4189 Clouds 24 1021 83 10000 5.1 130 00:58 02.01.2021
4190 Clouds 24 1021 83 10000 5.1 130 00:37 02.01.2021
4191 Clear 24 1020 33 10000 0.89 132 23:55 01.01.2021
4192 Clouds 25 1021 74 10000 5.7 130 23:21 01.01.2021
4193 Clouds 26 1021 65 10000 7.2 150 22:47 01.01.2021
4194 Clouds 26 1021 69 10000 7.2 140 22:24 01.01.2021
4195 Clouds 27 1020 69 10000 8.2 120 21:44 01.01.2021
4196 Clouds 27 1020 69 10000 8.2 120 21:22 01.01.2021
4197 Clouds 27 1020 69 10000 9.3 130 20:53 01.01.2021
4198 Clouds 27 1020 69 10000 9.3 130 20:22 01.01.2021
4199 Clouds 27 1021 69 10000 9.8 130 19:43 01.01.2021
4200 Clouds 27 1021 69 10000 9.8 130 19:24 01.01.2021
4201 Clouds 27 1022 69 10000 7.2 130 18:59 01.01.2021
4202 Clouds 27 1022 69 10000 7.2 130 18:40 01.01.2021
4203 Clouds 27 1022 69 10000 7.2 130 18:19 01.01.2021
4204 Clouds 27 1023 69 10000 8.7 130 17:42 01.01.2021
4205 Clouds 27 1023 69 10000 8.7 130 17:18 01.01.2021
4206 Clouds 26 1023 74 10000 6.7 140 16:40 01.01.2021
4207 Clouds 26 1023 78 10000 6.7 130 15:56 01.01.2021
4208 Clouds 25 1023 78 10000 6.7 130 15:37 01.01.2021
4209 Clouds 24 1022 83 10000 6.2 130 14:42 01.01.2021
4210 Clouds 24 1022 83 10000 6.2 130 14:19 01.01.2021
4211 Clouds 23 1022 88 10000 4.1 110 13:37 01.01.2021
4212 Clouds 23 1022 88 10000 5.1 120 12:48 01.01.2021
4213 Clouds 23 1022 88 10000 5.1 120 12:25 01.01.2021
4214 Clouds 23 1021 83 10000 5.1 130 11:40 01.01.2021
4215 Clouds 23 1021 83 10000 5.1 130 11:18 01.01.2021
4216 Clouds 23 1021 83 10000 5.1 130 10:51 01.01.2021
4217 Clouds 24 1020 83 10000 5.7 120 09:53 01.01.2021
4218 Clouds 24 1020 83 10000 5.7 120 09:24 01.01.2021
4219 Clouds 24 1020 83 10000 8.2 130 08:30 01.01.2021
4220 Clouds 24 1021 83 10000 6.2 120 06:24 01.01.2021
4221 Clouds 24 1020 73 10000 6.7 110 04:49 01.01.2021
4222 Clouds 24 1019 78 10000 5.7 110 01:40 01.01.2021
4223 Clouds 24 1019 78 10000 6.7 110 00:32 01.01.2021
4224 Clouds 24 1019 73 10000 6.2 120 23:38 31.12.2020
4225 Clear 25 1018 58 10000 1.79 118 23:20 31.12.2020
4226 Clouds 25 1018 69 10000 8.7 120 22:42 31.12.2020
4227 Clouds 26 1018 69 10000 8.7 120 22:21 31.12.2020
4228 Clouds 26 1018 69 10000 7.2 120 21:55 31.12.2020
4229 Clouds 26 1018 69 10000 7.2 120 21:33 31.12.2020
4230 Clouds 27 1019 65 10000 8.2 120 20:58 31.12.2020
4231 Clouds 27 1019 65 10000 8.2 120 20:26 31.12.2020
4232 Clouds 27 1019 61 10000 9.3 120 19:49 31.12.2020
4233 Clouds 27 1019 61 10000 9.3 120 19:31 31.12.2020
4234 Clouds 27 1020 57 10000 10.3 110 18:51 31.12.2020
4235 Clouds 27 1020 57 10000 10.3 110 18:25 31.12.2020
4236 Clouds 26 1021 65 10000 9.3 130 17:46 31.12.2020
4237 Clouds 26 1021 65 10000 9.3 130 17:26 31.12.2020
4238 Clouds 26 1021 61 10000 9.3 120 16:55 31.12.2020
4239 Clouds 26 1021 61 10000 9.3 120 16:37 31.12.2020
4240 Clouds 25 1020 65 10000 7.2 130 16:18 31.12.2020
4241 Clouds 25 1020 65 10000 7.2 130 15:42 31.12.2020
4242 Clouds 25 1020 65 10000 1.79 0 15:18 31.12.2020
4243 Clouds 24 1020 73 10000 5.7 110 14:40 31.12.2020
4244 Clouds 24 1020 73 10000 5.7 110 14:21 31.12.2020
4245 Clouds 23 1019 78 10000 5.1 110 13:42 31.12.2020
4246 Clouds 23 1019 78 10000 5.1 110 13:24 31.12.2020
4247 Clouds 23 1019 78 10000 7.2 110 12:55 31.12.2020
4248 Clouds 23 1019 78 10000 7.2 110 12:37 31.12.2020
4249 Clouds 23 1019 78 10000 6.7 110 11:58 31.12.2020
4250 Clouds 23 1019 78 10000 6.7 110 11:40 31.12.2020
4251 Clouds 23 1019 78 10000 6.7 110 11:40 31.12.2020
4252 Clouds 23 1019 78 10000 6.7 110 11:21 31.12.2020
4253 Clouds 23 1019 78 10000 7.7 100 10:40 31.12.2020
4254 Clouds 23 1019 78 10000 7.7 100 10:22 31.12.2020
4255 Clouds 23 1019 78 10000 6.7 110 09:47 31.12.2020
4256 Clouds 23 1019 78 10000 6.7 110 09:22 31.12.2020
4257 Clouds 23 1019 78 10000 9.3 100 08:46 31.12.2020
4258 Clouds 23 1019 78 10000 9.3 100 08:27 31.12.2020
4259 Clouds 23 1019 78 10000 8.2 110 07:54 31.12.2020
4260 Clouds 23 1019 78 10000 9.3 110 06:57 31.12.2020
4261 Clouds 23 1020 78 10000 6.7 110 05:30 31.12.2020
4262 Clouds 23 1020 78 10000 8.7 110 03:25 31.12.2020
4263 Clouds 23 1019 73 10000 8.7 100 02:27 31.12.2020
4264 Clouds 23 1019 69 10000 8.2 100 01:53 31.12.2020
4265 Clouds 23 1019 69 10000 8.2 100 01:33 31.12.2020
4266 Clouds 23 1019 69 10000 7.7 100 00:56 31.12.2020
4267 Clouds 23 1019 69 10000 7.7 100 00:26 31.12.2020
4268 Clouds 24 1019 69 10000 8.2 90 23:21 30.12.2020
4269 Clouds 24 1019 69 10000 8.7 100 22:59 30.12.2020
4270 Clouds 24 1019 69 10000 8.7 100 22:35 30.12.2020
4271 Clouds 24 1020 64 10000 8.2 100 21:52 30.12.2020
4272 Clouds 24 1020 64 10000 8.2 100 21:27 30.12.2020
4273 Clouds 24 1020 61 10000 10.3 90 20:53 30.12.2020
4274 Clouds 25 1019 61 10000 9.8 100 20:28 30.12.2020
4275 Clouds 25 1020 61 10000 7.7 90 19:58 30.12.2020
4276 Clouds 25 1020 61 10000 7.7 90 19:58 30.12.2020
4277 Clouds 25 1020 61 10000 7.7 90 19:37 30.12.2020
4278 Clouds 25 1021 61 10000 10.3 100 19:18 30.12.2020
4279 Clouds 25 1022 64 10000 8.7 100 18:38 30.12.2020
4280 Clouds 25 1023 64 10000 9.3 100 18:20 30.12.2020
4281 Clouds 25 1022 61 10000 9.8 90 17:43 30.12.2020
4282 Clouds 24 1022 61 10000 9.8 90 17:24 30.12.2020
4283 Clouds 24 1023 61 10000 10.8 80 16:43 30.12.2020
4284 Clouds 24 1022 64 10000 7.2 90 15:51 30.12.2020
4285 Clouds 24 1022 64 10000 7.2 90 15:30 30.12.2020
4286 Clouds 23 1022 64 10000 6.7 90 14:58 30.12.2020
4287 Clouds 23 1022 64 10000 6.7 90 14:39 30.12.2020
4288 Clouds 23 1021 60 10000 6.2 70 14:18 30.12.2020
4289 Clouds 22 1021 60 10000 8.2 90 13:18 30.12.2020
4290 Clouds 22 1021 60 10000 8.2 90 12:26 30.12.2020
4291 Clouds 22 1021 56 10000 6.2 70 11:44 30.12.2020
4292 Clouds 22 1021 56 10000 6.7 80 11:21 30.12.2020
4293 Clouds 22 1021 56 10000 6.7 80 10:57 30.12.2020
4294 Clouds 22 1021 56 10000 6.7 80 10:37 30.12.2020
4295 Clouds 22 1021 60 10000 5.7 70 10:18 30.12.2020
4296 Clouds 22 1021 60 10000 5.7 70 09:41 30.12.2020
4297 Clouds 22 1021 60 10000 6.2 70 08:36 30.12.2020
4298 Clouds 22 1022 68 10000 6.2 70 07:50 30.12.2020
4299 Clouds 22 1022 68 10000 6.2 70 07:24 30.12.2020
4300 Clouds 22 1022 73 10000 4.6 70 06:40 30.12.2020
4301 Clouds 22 1023 68 10000 6.2 70 05:47 30.12.2020
4302 Clouds 22 1023 68 10000 6.2 70 05:28 30.12.2020
4303 Clouds 22 1023 60 10000 9.3 70 03:29 30.12.2020
4304 Clouds 22 1022 68 10000 4.1 50 02:52 30.12.2020
4305 Clouds 22 1022 68 10000 4.1 50 02:31 30.12.2020
4306 Clouds 22 1022 60 10000 6.2 70 01:42 30.12.2020
4307 Clouds 22 1022 60 10000 6.2 70 01:23 30.12.2020
4308 Smoke 22 1022 68 10000 4.1 50 00:37 30.12.2020
4309 Clouds 22 1022 64 10000 7.2 70 23:59 29.12.2020
4310 Clouds 22 1022 64 10000 7.2 70 23:40 29.12.2020
4311 Smoke 22 1022 60 10000 7.2 50 23:22 29.12.2020
4312 Clouds 23 1022 56 10000 5.1 50 22:44 29.12.2020
4313 Clouds 23 1022 56 10000 5.1 50 22:26 29.12.2020
4314 Clouds 24 1022 53 10000 5.7 70 21:54 29.12.2020
4315 Clouds 24 1022 53 10000 5.7 70 21:36 29.12.2020
4316 Clouds 24 1022 50 10000 6.7 50 20:55 29.12.2020
4317 Clouds 24 1022 50 10000 6.7 50 20:37 29.12.2020
4318 Clouds 24 1023 47 10000 6.2 70 20:19 29.12.2020
4319 Clouds 24 1023 47 10000 6.2 70 19:40 29.12.2020
4320 Clouds 24 1023 47 10000 6.2 70 19:20 29.12.2020
4321 Clouds 24 1024 47 10000 5.7 60 18:46 29.12.2020
4322 Clouds 24 1024 47 10000 5.7 60 18:27 29.12.2020
4323 Clouds 24 1025 47 10000 7.2 70 17:44 29.12.2020
4324 Clouds 24 1025 50 10000 8.2 80 17:20 29.12.2020
4325 Clouds 24 1025 50 10000 8.2 80 16:52 29.12.2020
4326 Clouds 24 1025 50 10000 8.2 80 16:25 29.12.2020
4327 Clouds 23 1024 64 10000 2.6 50 15:38 29.12.2020
4328 Clouds 22 1024 72 10000 1.5 360 15:19 29.12.2020
4329 Clouds 21 1024 72 10000 1.5 360 14:40 29.12.2020
4330 Clouds 21 1024 72 10000 1.5 360 14:20 29.12.2020
4331 Clouds 20 1023 77 10000 2.1 350 13:48 29.12.2020
4332 Clouds 19 1023 77 10000 2.1 350 13:23 29.12.2020
4333 Clouds 20 1023 72 10000 2.6 350 12:42 29.12.2020
4334 Clouds 19 1023 72 10000 2.6 350 12:23 29.12.2020
4335 Clouds 19 1023 72 10000 2.1 340 11:56 29.12.2020
4336 Clouds 20 1023 72 10000 2.1 340 11:31 29.12.2020
4337 Clouds 20 1023 63 10000 2.1 350 10:38 29.12.2020
4338 Clouds 20 1022 64 10000 2.6 40 09:50 29.12.2020
4339 Clouds 20 1022 64 10000 2.6 40 09:28 29.12.2020
4340 Clouds 21 1023 60 10000 3.6 40 08:56 29.12.2020
4341 Clouds 21 1023 60 10000 3.6 40 08:36 29.12.2020
4342 Clouds 21 1023 56 10000 5.7 50 07:30 29.12.2020
4343 Clouds 22 1023 60 10000 4.1 60 06:48 29.12.2020
4344 Clouds 22 1024 60 10000 3.6 50 05:32 29.12.2020
4345 Clouds 22 1022 56 10000 3.6 40 00:56 29.12.2020
4346 Clouds 22 1022 56 10000 3.6 40 00:23 29.12.2020
4347 Clear 22 1022 56 10000 6.2 80 23:36 28.12.2020
4348 Clouds 23 1021 53 10000 7.7 80 22:30 28.12.2020
4349 Clouds 23 1021 53 10000 7.2 80 21:47 28.12.2020
4350 Clouds 24 1021 53 10000 7.2 80 21:28 28.12.2020
4351 Clouds 24 1021 56 10000 5.7 60 20:44 28.12.2020
4352 Clouds 24 1021 56 10000 5.7 60 20:44 28.12.2020
4353 Clouds 24 1021 56 10000 5.7 60 20:25 28.12.2020
4354 Clouds 24 1022 50 10000 4.6 40 19:50 28.12.2020
4355 Clouds 24 1022 50 10000 4.6 40 19:26 28.12.2020
4356 Clouds 24 1023 53 10000 5.1 50 18:59 28.12.2020
4357 Clouds 24 1023 53 10000 5.1 50 18:32 28.12.2020
4358 Clouds 23 1024 64 10000 4.1 50 17:51 28.12.2020
4359 Clouds 23 1024 64 10000 4.1 50 17:33 28.12.2020
4360 Clouds 22 1024 73 10000 2.1 30 16:59 28.12.2020
4361 Clouds 21 1024 73 10000 2.1 30 16:31 28.12.2020
4362 Clouds 19 1023 82 10000 2.6 30 15:54 28.12.2020
4363 Clouds 18 1023 82 10000 2.6 30 15:36 28.12.2020
4364 Clouds 16 1022 82 10000 2.1 10 14:34 28.12.2020
4365 Clouds 16 1022 88 10000 2.1 360 13:48 28.12.2020
4366 Clouds 16 1022 88 10000 2.1 360 13:21 28.12.2020
4367 Clouds 16 1021 88 10000 2.6 350 12:29 28.12.2020
4368 Clouds 17 1021 82 10000 2.6 10 11:58 28.12.2020
4369 Clouds 17 1021 82 10000 2.6 10 11:38 28.12.2020
4370 Clouds 18 1021 88 10000 3.1 340 11:18 28.12.2020
4371 Clouds 18 1021 88 10000 3.1 340 10:29 28.12.2020
4372 Clouds 18 1021 88 10000 2.1 310 09:59 28.12.2020
4373 Clouds 18 1021 88 10000 2.1 310 09:38 28.12.2020
4374 Mist 17 1021 93 8047 3.1 340 09:18 28.12.2020
4375 Rain 18 1021 88 10000 5.7 20 06:54 28.12.2020
4376 Rain 18 1022 88 10000 5.7 20 05:25 28.12.2020
4377 Rain 18 1022 72 10000 3.1 50 03:51 28.12.2020
4378 Clouds 19 1021 64 10000 2.6 50 01:55 28.12.2020
4379 Clouds 20 1020 56 10000 3.6 50 23:58 27.12.2020
4380 Clouds 20 1020 56 10000 3.6 50 23:35 27.12.2020
4381 Clear 21 1020 53 10000 6.7 80 22:40 27.12.2020
4382 Clouds 22 1019 53 10000 4.6 50 21:55 27.12.2020
4383 Clouds 23 1019 53 10000 4.6 50 21:22 27.12.2020
4384 Clouds 22 1020 49 10000 5.1 70 20:32 27.12.2020
4385 Clouds 22 1020 53 10000 6.7 90 19:24 27.12.2020
4386 Clouds 23 1021 53 10000 4.6 50 18:51 27.12.2020
4387 Clouds 22 1021 53 10000 4.6 50 18:22 27.12.2020
4388 Clouds 22 1021 52 10000 3.1 340 17:59 27.12.2020
4389 Clouds 21 1021 52 10000 3.1 340 17:39 27.12.2020
4390 Clear 20 1022 63 10000 2.6 360 17:18 27.12.2020
4391 Clear 20 1022 63 10000 2.6 360 17:18 27.12.2020
4392 Clouds 18 1022 67 10000 2.6 0 16:25 27.12.2020
4393 Clouds 15 1021 71 10000 2.6 340 15:34 27.12.2020
4394 Clouds 12 1021 76 10000 2.6 330 14:56 27.12.2020
4395 Clouds 11 1021 76 10000 2.6 330 14:38 27.12.2020
4396 Clouds 11 1020 71 10000 3.1 340 13:39 27.12.2020
4397 Clouds 11 1020 66 10000 3.1 340 12:56 27.12.2020
4398 Clouds 11 1020 66 10000 3.1 340 12:28 27.12.2020
4399 Clouds 11 1019 71 10000 3.1 350 11:42 27.12.2020
4400 Clouds 11 1019 71 10000 3.1 350 11:21 27.12.2020
4401 Clouds 11 1019 66 10000 3.6 330 10:45 27.12.2020
4402 Clouds 11 1019 66 10000 3.6 330 10:21 27.12.2020
4403 Clouds 11 1019 62 10000 2.1 320 09:39 27.12.2020
4404 Clouds 11 1020 62 10000 2.1 320 08:28 27.12.2020
4405 Clouds 12 1020 62 10000 3.6 330 07:29 27.12.2020
4406 Clouds 13 1020 62 10000 2.1 310 06:48 27.12.2020
4407 Clouds 13 1021 58 10000 3.6 330 05:38 27.12.2020
4408 Clouds 14 1020 62 10000 2.1 330 03:26 27.12.2020
4409 Clouds 14 1020 67 10000 2.6 320 02:30 27.12.2020
4410 Clouds 15 1019 55 10000 2.6 300 00:58 27.12.2020
4411 Clouds 16 1019 48 10000 1.5 300 23:44 26.12.2020
4412 Clouds 16 1019 48 10000 1.5 300 23:26 26.12.2020
4413 Clouds 17 1019 48 10000 2.1 10 22:46 26.12.2020
4414 Clouds 17 1019 48 10000 2.1 10 22:20 26.12.2020
4415 Clouds 17 1019 48 10000 2.1 290 21:54 26.12.2020
4416 Clouds 17 1019 48 10000 2.1 290 21:31 26.12.2020
4417 Clouds 17 1020 44 10000 2.6 300 20:48 26.12.2020
4418 Clouds 17 1020 44 10000 2.6 300 20:27 26.12.2020
4419 Clouds 16 1021 47 10000 2.6 0 19:57 26.12.2020
4420 Clouds 16 1021 47 10000 2.6 0 19:24 26.12.2020
4421 Clouds 15 1022 44 10000 3.1 0 18:37 26.12.2020
4422 Clouds 14 1023 43 10000 3.6 310 17:59 26.12.2020
4423 Clouds 14 1023 43 10000 3.6 310 17:39 26.12.2020
4424 Clouds 14 1023 46 10000 3.1 0 17:18 26.12.2020
4425 Clouds 13 1023 46 10000 3.1 0 16:31 26.12.2020
4426 Clouds 11 1023 50 10000 2.6 350 15:25 26.12.2020
4427 Clouds 9 1022 66 10000 3.6 350 14:46 26.12.2020
4428 Clouds 9 1022 66 10000 3.6 350 14:22 26.12.2020
4429 Clouds 8 1022 70 10000 3.1 360 13:43 26.12.2020
4430 Clouds 8 1022 70 10000 3.1 360 13:24 26.12.2020
4431 Clouds 9 1021 76 10000 3.6 350 12:44 26.12.2020
4432 Clouds 9 1021 76 10000 3.6 350 12:21 26.12.2020
4433 Clear 9 1021 71 10000 4.97 347 11:51 26.12.2020
4434 Clear 9 1021 71 10000 4.39 346 11:21 26.12.2020
4435 Clear 9 1021 71 10000 4.39 346 10:53 26.12.2020
4436 Clear 9 1021 71 10000 3.8 349 10:27 26.12.2020
4437 Clear 8 1021 87 10000 3.8 349 09:49 26.12.2020
4438 Clear 8 1021 87 10000 3.8 349 09:49 26.12.2020
4439 Clear 8 1021 87 10000 3 355 09:24 26.12.2020
4440 Clear 9 1021 76 10000 1.78 13 08:21 26.12.2020
4441 Clear 9 1022 81 10000 1.78 13 07:49 26.12.2020
4442 Clear 9 1022 76 10000 2.33 357 06:23 26.12.2020
4443 Clouds 10 1022 54 10000 2.1 30 02:49 26.12.2020
4444 Clouds 12 1021 50 10000 2.6 340 00:44 26.12.2020
4445 Clouds 12 1021 50 10000 2.6 340 00:24 26.12.2020
4446 Clear 12 1021 47 10000 5.1 340 23:39 25.12.2020
4447 Clouds 13 1020 47 10000 3.6 330 23:21 25.12.2020
4448 Clouds 14 1020 47 10000 4.6 330 22:40 25.12.2020
4449 Clouds 15 1020 50 10000 4.6 310 21:54 25.12.2020
4450 Clouds 15 1020 50 10000 4.6 310 21:34 25.12.2020
4451 Clouds 15 1021 50 10000 5.7 310 20:49 25.12.2020
4452 Clouds 15 1021 50 10000 5.7 310 20:30 25.12.2020
4453 Clouds 15 1021 58 10000 6.7 330 19:47 25.12.2020
4454 Clouds 14 1022 58 10000 7.2 330 18:58 25.12.2020
4455 Clouds 14 1022 58 10000 7.2 330 18:38 25.12.2020
4456 Clouds 13 1022 62 10000 6.7 340 17:40 25.12.2020
4457 Clouds 13 1022 62 10000 6.7 340 17:21 25.12.2020
4458 Clouds 12 1022 62 10000 5.1 320 16:33 25.12.2020
4459 Clouds 13 1021 62 10000 7.2 320 15:57 25.12.2020
4460 Clouds 13 1021 62 10000 7.2 320 15:35 25.12.2020
4461 Clouds 13 1019 71 10000 5.7 330 14:49 25.12.2020
4462 Clouds 13 1019 71 10000 5.7 330 14:28 25.12.2020
4463 Clouds 12 1019 71 10000 6.7 330 13:44 25.12.2020
4464 Clouds 12 1019 71 10000 6.7 330 13:26 25.12.2020
4465 Clouds 12 1018 76 10000 6.2 330 12:45 25.12.2020
4466 Clouds 17 1016 82 10000 4.1 330 11:56 25.12.2020
4467 Clouds 17 1017 68 10000 5.7 300 11:31 25.12.2020
4468 Clouds 17 1016 77 10000 6.7 310 10:57 25.12.2020
4469 Clouds 18 1016 77 10000 6.7 310 10:24 25.12.2020
4470 Clouds 18 1016 77 10000 6.7 310 09:37 25.12.2020
4471 Clouds 18 1015 82 10000 5.7 320 08:48 25.12.2020
4472 Clouds 23 1014 88 10000 4.6 230 07:59 25.12.2020
4473 Clouds 23 1014 94 10000 2.6 200 06:47 25.12.2020
4474 Clouds 23 1016 94 10000 2.6 210 04:29 25.12.2020
4475 Clouds 23 1015 94 10000 3.1 160 01:42 25.12.2020
4476 Clouds 24 1015 88 10000 4.1 210 00:18 25.12.2020
4477 Rain 25 1014 78 10000 5.1 170 23:23 24.12.2020
4478 Clouds 26 1014 74 10000 6.7 160 22:51 24.12.2020
4479 Clouds 26 1014 74 10000 6.7 160 22:22 24.12.2020
4480 Clouds 27 1014 69 10000 6.2 160 21:36 24.12.2020
4481 Clouds 27 1014 69 10000 6.7 160 20:48 24.12.2020
4482 Clouds 27 1016 74 10000 6.7 170 19:19 24.12.2020
4483 Clouds 27 1016 74 10000 6.7 170 18:20 24.12.2020
4484 Clouds 27 1017 74 10000 6.7 150 17:37 24.12.2020
4485 Clouds 27 1017 74 10000 6.7 150 17:37 24.12.2020
4486 Clouds 27 1017 74 10000 7.2 160 16:59 24.12.2020
4487 Clouds 26 1017 78 10000 5.7 150 16:23 24.12.2020
4488 Clouds 26 1017 78 10000 5.7 150 15:43 24.12.2020
4489 Clouds 25 1017 78 10000 5.7 150 15:20 24.12.2020
4490 Clouds 25 1016 83 10000 4.1 140 14:51 24.12.2020
4491 Clouds 24 1016 83 10000 4.1 140 14:24 24.12.2020
4492 Clouds 24 1016 83 10000 3.1 120 13:48 24.12.2020
4493 Clouds 24 1016 83 10000 3.1 120 13:30 24.12.2020
4494 Clouds 23 1016 83 10000 4.6 110 12:45 24.12.2020
4495 Clouds 23 1016 83 10000 4.6 110 12:22 24.12.2020
4496 Clouds 24 1016 83 10000 4.1 110 11:59 24.12.2020
4497 Clouds 24 1016 83 10000 4.1 110 11:37 24.12.2020
4498 Clouds 23 1016 88 10000 3.6 110 11:18 24.12.2020
4499 Clouds 24 1016 88 10000 3.6 110 10:42 24.12.2020
4500 Clouds 24 1016 78 10000 4.6 110 09:53 24.12.2020
4501 Clouds 24 1016 78 10000 4.6 110 09:32 24.12.2020
4502 Clouds 23 1017 73 10000 3.6 100 08:48 24.12.2020
4503 Clouds 23 1018 73 10000 4.6 100 07:48 24.12.2020
4504 Clouds 23 1018 73 10000 4.6 100 07:28 24.12.2020
4505 Clouds 23 1019 78 10000 5.1 90 06:20 24.12.2020
4506 Clouds 23 1020 69 10000 3.1 90 03:23 24.12.2020
4507 Clouds 23 1020 69 10000 6.2 100 01:48 24.12.2020
4508 Clouds 23 1020 69 10000 5.1 80 01:18 24.12.2020
4509 Clouds 23 1020 69 10000 5.1 80 01:18 24.12.2020
4510 Clouds 23 1020 69 10000 5.1 80 01:18 24.12.2020
4511 Clouds 23 1020 69 10000 5.1 80 00:23 24.12.2020
4512 Clouds 23 1020 60 10000 4.6 90 23:56 23.12.2020
4513 Clouds 23 1020 60 10000 4.6 90 23:38 23.12.2020
4514 Clouds 24 1020 60 10000 5.1 110 23:18 23.12.2020
4515 Clouds 24 1020 60 10000 5.1 110 22:42 23.12.2020
4516 Clouds 25 1019 54 10000 6.7 70 22:19 23.12.2020
4517 Clouds 25 1019 54 10000 6.7 70 21:32 23.12.2020
4518 Clouds 25 1020 57 10000 5.7 120 20:59 23.12.2020
4519 Clouds 25 1020 57 10000 5.7 120 20:37 23.12.2020
4520 Clouds 25 1021 50 10000 4.1 120 20:19 23.12.2020
4521 Clouds 25 1021 50 10000 4.1 120 19:42 23.12.2020
4522 Clouds 25 1021 50 10000 4.1 120 19:22 23.12.2020
4523 Clouds 25 1022 53 10000 7.7 90 18:52 23.12.2020
4524 Clouds 25 1022 53 10000 7.7 90 18:34 23.12.2020
4525 Clouds 24 1022 53 10000 6.2 110 17:43 23.12.2020
4526 Clouds 24 1023 53 10000 6.7 110 17:22 23.12.2020
4527 Clouds 24 1023 53 10000 6.7 110 17:22 23.12.2020
4528 Clouds 24 1023 56 10000 4.6 70 16:56 23.12.2020
4529 Clouds 23 1023 56 10000 4.6 70 16:31 23.12.2020
4530 Clouds 23 1022 68 10000 6.84 97 15:59 23.12.2020
4531 Clouds 22 1022 68 10000 6.84 97 15:39 23.12.2020
4532 Clouds 22 1022 68 10000 6.58 86 15:21 23.12.2020
4533 Clouds 20 1022 77 10000 6.58 86 14:46 23.12.2020
4534 Clouds 19 1022 77 10000 5.49 78 14:23 23.12.2020
4535 Clouds 16 1021 77 10000 2.1 350 13:46 23.12.2020
4536 Clouds 16 1021 82 10000 4.65 74 13:20 23.12.2020
4537 Clouds 16 1021 82 10000 5.43 87 12:58 23.12.2020
4538 Clouds 16 1021 82 10000 5.43 87 12:37 23.12.2020
4539 Clouds 16 1021 82 10000 1.5 340 12:18 23.12.2020
4540 Clouds 16 1021 82 10000 1.5 340 11:43 23.12.2020
4541 Clouds 16 1021 82 10000 2.1 350 10:57 23.12.2020
4542 Clouds 16 1021 82 10000 2.1 350 10:57 23.12.2020
4543 Clouds 16 1021 82 10000 2.1 350 10:39 23.12.2020
4544 Clouds 16 1022 87 10000 1.5 330 09:45 23.12.2020
4545 Clouds 16 1022 87 10000 1.5 330 09:25 23.12.2020
4546 Clouds 18 1022 82 10000 1.5 350 08:42 23.12.2020
4547 Clouds 18 1022 82 10000 2.1 350 07:51 23.12.2020
4548 Clouds 17 1022 82 10000 2.1 340 06:59 23.12.2020
4549 Clouds 17 1022 82 10000 2.1 340 06:37 23.12.2020
4550 Clouds 19 1023 82 10000 2.1 350 05:25 23.12.2020
4551 Clouds 20 1023 77 10000 1.5 10 04:28 23.12.2020
4552 Clouds 21 1022 56 10000 3.1 40 00:33 23.12.2020
4553 Clouds 22 1021 60 10000 5.7 30 23:45 22.12.2020
4554 Clouds 22 1021 56 10000 4.6 20 23:26 22.12.2020
4555 Clouds 23 1021 56 10000 5.7 40 22:43 22.12.2020
4556 Clouds 23 1021 56 10000 5.7 40 22:25 22.12.2020
4557 Clouds 23 1021 53 10000 5.1 70 21:55 22.12.2020
4558 Clouds 23 1021 53 10000 5.1 70 21:22 22.12.2020
4559 Clouds 24 1021 53 10000 4.6 50 20:57 22.12.2020
4560 Clouds 24 1021 53 10000 4.6 50 20:38 22.12.2020
4561 Clouds 24 1021 53 10000 4.6 50 20:20 22.12.2020
4562 Clouds 24 1021 56 10000 4.6 20 19:42 22.12.2020
4563 Clouds 24 1021 56 10000 4.6 20 19:20 22.12.2020
4564 Clouds 24 1022 53 10000 3.1 30 18:47 22.12.2020
4565 Clouds 24 1022 53 10000 3.1 30 18:27 22.12.2020
4566 Clouds 23 1023 56 10000 3.6 20 17:50 22.12.2020
4567 Clouds 23 1023 56 10000 3.6 20 17:23 22.12.2020
4568 Clouds 22 1023 60 10000 4.1 30 16:54 22.12.2020
4569 Clouds 21 1023 60 10000 4.1 30 16:36 22.12.2020
4570 Clouds 21 1022 67 10000 1.34 25 16:18 22.12.2020
4571 Clouds 19 1023 72 10000 4.1 360 15:41 22.12.2020
4572 Clear 18 1023 72 10000 4.1 360 15:18 22.12.2020
4573 Clouds 17 1022 72 10000 2.6 340 14:43 22.12.2020
4574 Clouds 17 1022 72 10000 2.6 340 14:25 22.12.2020
4575 Clouds 16 1022 77 10000 2.6 340 13:47 22.12.2020
4576 Clouds 16 1021 72 10000 3.6 340 13:19 22.12.2020
4577 Clouds 16 1021 72 10000 3.6 340 12:55 22.12.2020
4578 Clouds 16 1021 72 10000 3.6 340 12:37 22.12.2020
4579 Clouds 16 1021 77 10000 2.6 340 12:18 22.12.2020
4580 Clouds 16 1021 77 10000 2.6 340 11:40 22.12.2020
4581 Clouds 16 1021 77 10000 2.6 340 11:21 22.12.2020
4582 Clear 16 1020 77 10000 2.6 340 10:54 22.12.2020
4583 Clear 16 1020 77 10000 2.6 340 10:26 22.12.2020
4584 Clear 16 1020 77 10000 2.6 340 09:58 22.12.2020
4585 Clear 16 1020 77 10000 2.6 340 09:29 22.12.2020
4586 Clouds 16 1020 77 10000 2.1 340 08:54 22.12.2020
4587 Clouds 16 1020 77 10000 2.1 340 08:34 22.12.2020
4588 Clear 17 1020 72 10000 2.1 340 07:57 22.12.2020
4589 Clear 17 1020 72 10000 2.1 340 07:26 22.12.2020
4590 Clouds 18 1021 63 10000 2.1 340 05:54 22.12.2020
4591 Clouds 18 1021 63 10000 2.1 340 05:25 22.12.2020
4592 Clear 21 1019 60 10000 2.6 30 01:48 22.12.2020
4593 Clouds 22 1018 56 10000 3.6 340 00:21 22.12.2020
4594 Clear 22 1018 56 10000 4.6 350 23:41 21.12.2020
4595 Clear 23 1017 57 10000 4.6 310 23:18 21.12.2020
4596 Clouds 24 1017 61 10000 3.1 360 22:36 21.12.2020
4597 Clouds 25 1017 65 10000 4.1 300 22:18 21.12.2020
4598 Clouds 25 1017 65 10000 4.1 300 21:44 21.12.2020
4599 Clouds 25 1017 65 10000 4.1 300 21:26 21.12.2020
4600 Clouds 25 1017 69 10000 4.6 310 20:43 21.12.2020
4601 Clouds 25 1017 69 10000 4.6 310 20:21 21.12.2020
4602 Clouds 25 1017 73 10000 4.6 310 19:47 21.12.2020
4603 Clouds 25 1017 73 10000 4.6 310 19:20 21.12.2020
4604 Clouds 25 1018 69 10000 3.1 300 18:57 21.12.2020
4605 Clouds 26 1018 69 10000 3.1 300 18:39 21.12.2020
4606 Clouds 26 1018 73 10000 3.6 260 18:20 21.12.2020
4607 Clouds 26 1018 73 10000 3.1 290 17:42 21.12.2020
4608 Clouds 26 1018 73 10000 3.1 290 17:22 21.12.2020
4609 Clouds 25 1019 83 10000 4.1 270 16:41 21.12.2020
4610 Clouds 25 1018 32 10000 1.79 318 16:19 21.12.2020
4611 Clouds 24 1018 88 10000 2.6 250 15:41 21.12.2020
4612 Clouds 23 1018 88 10000 1.5 250 14:58 21.12.2020
4613 Clouds 23 1018 88 10000 1.5 250 14:23 21.12.2020
4614 Clouds 22 1017 88 10000 2.6 210 13:54 21.12.2020
4615 Clouds 22 1017 88 10000 2.6 210 13:35 21.12.2020
4616 Clouds 22 1016 94 10000 2.6 230 12:59 21.12.2020
4617 Clouds 22 1016 94 10000 2.6 230 12:39 21.12.2020
4618 Clouds 22 1016 94 10000 2.6 230 12:19 21.12.2020
4619 Clouds 22 1015 94 10000 2.6 200 11:43 21.12.2020
4620 Clouds 22 1015 94 10000 2.6 200 11:22 21.12.2020
4621 Clouds 22 1016 94 10000 1.5 200 10:57 21.12.2020
4622 Clouds 22 1016 94 10000 1.5 200 10:38 21.12.2020
4623 Clouds 22 1016 94 10000 1.5 190 09:55 21.12.2020
4624 Clouds 22 1016 94 10000 1.5 190 09:37 21.12.2020
4625 Clouds 22 1016 94 10000 1.5 190 09:18 21.12.2020
4626 Clouds 22 1016 94 10000 2.6 190 08:25 21.12.2020
4627 Clouds 23 1017 88 10000 3.1 160 06:48 21.12.2020
4628 Clouds 23 1017 88 10000 3.1 160 06:48 21.12.2020
4629 Clouds 23 1017 88 10000 3.1 180 05:39 21.12.2020
4630 Clouds 23 1017 88 10000 2.1 160 04:30 21.12.2020
4631 Clouds 23 1016 78 10000 3.1 150 00:36 21.12.2020
4632 Clouds 24 1016 69 10000 5.7 160 23:47 20.12.2020
4633 Clouds 24 1016 69 10000 5.7 160 23:20 20.12.2020
4634 Clouds 25 1016 65 10000 4.6 160 22:44 20.12.2020
4635 Clouds 26 1016 65 10000 4.6 160 22:23 20.12.2020
4636 Clouds 26 1016 65 10000 4.6 170 21:42 20.12.2020
4637 Clouds 26 1016 65 10000 4.6 170 21:24 20.12.2020
4638 Clouds 27 1016 61 10000 3.6 160 20:59 20.12.2020
4639 Clouds 27 1016 61 10000 3.6 160 20:40 20.12.2020
4640 Clouds 27 1016 61 10000 3.6 160 20:21 20.12.2020
4641 Clouds 27 1017 65 10000 4.6 150 19:42 20.12.2020
4642 Clouds 26 1017 65 10000 4.6 150 19:20 20.12.2020
4643 Clouds 26 1018 61 10000 3.1 0 18:47 20.12.2020
4644 Clouds 26 1018 61 10000 3.1 0 18:29 20.12.2020
4645 Clouds 26 1019 65 10000 4.6 140 17:47 20.12.2020
4646 Clouds 26 1019 65 10000 4.6 140 17:28 20.12.2020
4647 Clouds 26 1019 69 10000 5.1 140 16:48 20.12.2020
4648 Clouds 25 1019 69 10000 5.1 140 16:29 20.12.2020
4649 Clouds 24 1019 78 10000 2.6 130 15:51 20.12.2020
4650 Clouds 23 1019 78 10000 2.6 130 15:28 20.12.2020
4651 Clouds 22 1019 88 10000 5.76 153 14:56 20.12.2020
4652 Clouds 22 1019 88 10000 5.76 153 14:35 20.12.2020
4653 Clouds 20 1018 93 10000 5.9 151 13:56 20.12.2020
4654 Clouds 20 1018 93 10000 5.9 151 13:36 20.12.2020
4655 Clouds 19 1018 93 10000 5.58 152 13:18 20.12.2020
4656 Clouds 21 1018 88 10000 5.55 147 12:44 20.12.2020
4657 Clouds 21 1018 88 10000 5.42 147 12:21 20.12.2020
4658 Clouds 21 1018 93 10000 5.42 147 11:45 20.12.2020
4659 Clouds 20 1018 93 10000 4.93 138 11:26 20.12.2020
4660 Clouds 21 1018 88 10000 4.93 138 10:49 20.12.2020
4661 Clouds 21 1018 88 10000 5.28 127 10:21 20.12.2020
4662 Clouds 21 1019 82 10000 5.28 127 09:46 20.12.2020
4663 Clouds 21 1019 82 10000 5.28 127 09:46 20.12.2020
4664 Clouds 21 1019 82 10000 5.01 128 09:28 20.12.2020
4665 Clouds 22 1018 77 10000 1.5 130 08:59 20.12.2020
4666 Clouds 22 1018 77 10000 1.5 130 08:40 20.12.2020
4667 Clouds 22 1019 77 10000 4.55 127 07:29 20.12.2020
4668 Clouds 22 1019 73 10000 3.6 90 06:28 20.12.2020
4669 Clouds 22 1021 68 10000 5.04 95 02:37 20.12.2020
4670 Clouds 21 1021 60 10000 3.1 100 00:41 20.12.2020
4671 Clouds 22 1020 56 10000 5.1 90 23:36 19.12.2020
4672 Clouds 22 1020 56 10000 5.1 80 23:18 19.12.2020
4673 Clouds 23 1020 56 10000 5.1 80 22:41 19.12.2020
4674 Clouds 23 1020 56 10000 5.1 80 22:20 19.12.2020
4675 Clouds 24 1020 53 10000 4.6 80 21:44 19.12.2020
4676 Clouds 24 1020 53 10000 4.6 80 21:25 19.12.2020
4677 Clouds 24 1021 53 10000 2.6 90 20:58 19.12.2020
4678 Clouds 24 1021 53 10000 2.6 90 20:24 19.12.2020
4679 Clouds 24 1022 53 10000 3.6 90 19:59 19.12.2020
4680 Clouds 24 1022 53 10000 3.6 90 19:41 19.12.2020
4681 Clouds 24 1022 53 10000 3.6 90 19:21 19.12.2020
4682 Clouds 23 1023 56 10000 3.6 90 18:33 19.12.2020
4683 Clouds 23 1024 56 10000 4.1 100 17:56 19.12.2020
4684 Clouds 23 1024 56 10000 4.1 100 17:32 19.12.2020
4685 Clouds 22 1024 60 10000 1.5 20 16:59 19.12.2020
4686 Clouds 22 1024 60 10000 1.5 20 16:39 19.12.2020
4687 Clouds 22 1024 60 10000 1.5 20 16:21 19.12.2020
4688 Clouds 20 1024 72 10000 1.5 330 15:49 19.12.2020
4689 Clouds 19 1024 72 10000 1.5 330 15:20 19.12.2020
4690 Clouds 15 1023 82 10000 1.5 360 14:37 19.12.2020
4691 Clouds 13 1023 87 10000 4.81 64 13:55 19.12.2020
4692 Clouds 13 1023 87 10000 4.81 64 13:36 19.12.2020
4693 Clouds 14 1022 82 10000 4.59 58 13:18 19.12.2020
4694 Clouds 14 1022 82 10000 4.59 58 12:42 19.12.2020
4695 Clouds 14 1022 82 10000 5.53 60 12:24 19.12.2020
4696 Clouds 13 1022 87 10000 2.1 340 11:53 19.12.2020
4697 Clouds 13 1022 87 10000 2.1 340 11:32 19.12.2020
4698 Clouds 13 1022 87 10000 5.11 56 10:42 19.12.2020
4699 Clouds 13 1023 87 10000 2.6 340 10:19 19.12.2020
4700 Clouds 13 1023 87 10000 2.6 340 09:42 19.12.2020
4701 Clouds 14 1023 82 10000 1.5 330 08:59 19.12.2020
4702 Clouds 14 1023 82 10000 1.5 330 08:23 19.12.2020
4703 Clouds 15 1024 77 10000 2.6 340 07:22 19.12.2020
4704 Clouds 15 1024 77 10000 2.6 340 06:51 19.12.2020
4705 Clouds 15 1024 82 10000 2.1 330 05:25 19.12.2020
4706 Clouds 17 1024 72 10000 3.1 350 03:55 19.12.2020
4707 Clouds 19 1023 63 10000 3.1 360 01:21 19.12.2020
4708 Clear 19 1023 63 10000 3.1 0 00:36 19.12.2020
4709 Clear 19 1023 63 10000 6.7 30 00:18 19.12.2020
4710 Clear 19 1023 63 10000 6.7 30 23:44 18.12.2020
4711 Clear 20 1023 63 10000 6.7 30 23:21 18.12.2020
4712 Clouds 21 1022 60 10000 5.7 20 22:43 18.12.2020
4713 Clouds 21 1022 60 10000 5.7 20 22:20 18.12.2020
4714 Clouds 22 1022 56 10000 4.6 30 21:47 18.12.2020
4715 Clouds 22 1022 56 10000 4.6 30 21:28 18.12.2020
4716 Clouds 22 1022 56 10000 3.1 0 20:38 18.12.2020
4717 Clouds 22 1023 60 10000 3.6 30 20:19 18.12.2020
4718 Clouds 22 1023 60 10000 3.6 30 19:41 18.12.2020
4719 Clouds 21 1024 63 10000 4.6 30 18:57 18.12.2020
4720 Clouds 20 1024 63 10000 4.6 30 18:38 18.12.2020
4721 Clouds 20 1024 63 10000 4.6 30 18:20 18.12.2020
4722 Clear 19 1025 68 10000 2.6 350 17:22 18.12.2020
4723 Clouds 18 1025 67 10000 3.1 330 16:49 18.12.2020
4724 Clouds 17 1025 67 10000 3.1 330 16:27 18.12.2020
4725 Clouds 16 1025 71 10000 3.6 330 15:58 18.12.2020
4726 Clouds 16 1025 71 10000 3.6 330 15:39 18.12.2020
4727 Clouds 15 1024 76 10000 2.1 350 15:20 18.12.2020
4728 Clouds 13 1024 76 10000 2.1 350 14:54 18.12.2020
4729 Clouds 13 1023 76 10000 3.6 350 14:21 18.12.2020
4730 Clouds 13 1023 76 10000 3.6 350 13:49 18.12.2020
4731 Clouds 13 1023 76 10000 3.6 350 13:25 18.12.2020
4732 Clouds 13 1023 76 10000 3.1 0 12:46 18.12.2020
4733 Clouds 14 1022 76 10000 4.6 340 11:51 18.12.2020
4734 Clouds 14 1022 76 10000 4.6 340 11:22 18.12.2020
4735 Clouds 14 1022 77 10000 4.6 350 10:39 18.12.2020
4736 Clouds 15 1022 77 10000 5.7 350 10:20 18.12.2020
4737 Clouds 15 1022 77 10000 4.1 330 09:39 18.12.2020
4738 Clouds 15 1022 77 10000 4.1 330 09:21 18.12.2020
4739 Clouds 16 1022 77 10000 3.6 340 08:53 18.12.2020
4740 Clouds 16 1021 72 10000 6.7 340 08:30 18.12.2020
4741 Clouds 17 1021 77 10000 4.1 330 07:39 18.12.2020
4742 Clouds 17 1022 72 10000 3.6 330 07:18 18.12.2020
4743 Clouds 17 1022 72 10000 3.6 330 06:49 18.12.2020
4744 Clouds 18 1021 72 10000 3.6 340 05:41 18.12.2020
4745 Clouds 19 1021 82 10000 4.1 340 04:51 18.12.2020
4746 Clouds 22 1020 73 10000 4.6 330 01:58 18.12.2020
4747 Clouds 22 1019 73 10000 4.6 320 01:39 18.12.2020
4748 Clouds 23 1018 78 10000 6.2 330 23:59 17.12.2020
4749 Clouds 25 1018 78 10000 4.1 330 23:25 17.12.2020
4750 Clouds 26 1017 69 10000 3.6 280 22:58 17.12.2020
4751 Clouds 26 1017 69 10000 3.6 280 22:58 17.12.2020
4752 Clouds 27 1017 69 10000 3.6 280 22:40 17.12.2020
4753 Clouds 27 1017 69 10000 3.6 280 22:40 17.12.2020
4754 Clouds 27 1017 69 10000 3.6 280 22:22 17.12.2020
4755 Clouds 28 1016 65 10000 3.6 260 21:42 17.12.2020
4756 Clouds 28 1016 65 10000 3.6 260 21:42 17.12.2020
4757 Clouds 28 1016 65 10000 4.6 260 21:19 17.12.2020
4758 Clouds 28 1016 65 10000 4.6 260 20:41 17.12.2020
4759 Clouds 28 1016 62 10000 4.6 270 20:19 17.12.2020
4760 Clouds 29 1016 62 10000 4.6 270 19:48 17.12.2020
4761 Clouds 29 1016 62 10000 4.6 270 19:24 17.12.2020
4762 Clouds 28 1017 65 10000 6.7 210 18:42 17.12.2020
4763 Clouds 28 1017 65 10000 6.7 210 18:24 17.12.2020
4764 Clouds 28 1017 65 10000 5.7 230 17:54 17.12.2020
4765 Clouds 28 1017 65 10000 4.1 230 17:33 17.12.2020
4766 Clouds 27 1018 78 10000 2.6 200 16:47 17.12.2020
4767 Clouds 27 1018 78 10000 2.6 200 16:47 17.12.2020
4768 Clouds 26 1018 78 10000 2.6 200 16:28 17.12.2020
4769 Clouds 25 1018 94 10000 3.6 220 15:57 17.12.2020
4770 Clouds 25 1018 94 10000 3.6 220 15:39 17.12.2020
4771 Mist 24 1017 100 4828 2.6 220 14:57 17.12.2020
4772 Mist 23 1017 100 4828 2.6 220 14:37 17.12.2020
4773 Mist 23 1017 100 4828 2.6 220 14:37 17.12.2020
4774 Mist 23 1016 100 2414 3.1 200 13:59 17.12.2020
4775 Mist 22 1016 100 1207 1.5 180 13:41 17.12.2020
4776 Clouds 22 1016 100 10000 3.2 219 12:58 17.12.2020
4777 Clear 22 1015 100 10000 1.5 210 12:36 17.12.2020
4778 Clouds 22 1015 94 10000 3.4 211 11:58 17.12.2020
4779 Clouds 22 1015 94 10000 3.4 211 11:58 17.12.2020
4780 Clouds 23 1015 94 10000 3.4 211 11:38 17.12.2020
4781 Clouds 23 1015 94 10000 3.62 210 11:20 17.12.2020
4782 Clouds 23 1015 100 10000 1.5 190 10:33 17.12.2020
4783 Clouds 23 1015 94 10000 1.5 200 09:36 17.12.2020
4784 Clouds 23 1015 94 10000 2.6 190 08:40 17.12.2020
4785 Clouds 23 1015 94 10000 2.1 180 07:41 17.12.2020
4786 Clouds 23 1015 94 10000 2.1 180 07:20 17.12.2020
4787 Clouds 23 1015 94 10000 3.13 215 06:45 17.12.2020
4788 Clouds 23 1015 94 10000 3.44 215 06:27 17.12.2020
4789 Clouds 23 1016 88 10000 1.5 160 03:29 17.12.2020
4790 Clouds 25 1015 83 10000 3.1 170 00:20 17.12.2020
4791 Clouds 25 1014 78 10000 6.2 160 23:38 16.12.2020
4792 Clouds 25 1014 20 10000 1.79 200 23:18 16.12.2020
4793 Clouds 26 1014 78 10000 5.1 160 22:47 16.12.2020
4794 Clouds 26 1014 78 10000 5.1 160 22:28 16.12.2020
4795 Clouds 27 1013 74 10000 5.1 150 21:42 16.12.2020
4796 Clouds 27 1013 74 10000 5.1 150 21:22 16.12.2020
4797 Clouds 27 1013 74 10000 5.7 180 20:49 16.12.2020
4798 Clouds 27 1013 74 10000 5.7 180 20:20 16.12.2020
4799 Clouds 27 1014 74 10000 6.2 160 19:38 16.12.2020
4800 Clouds 27 1015 69 10000 5.7 140 19:18 16.12.2020
4801 Clouds 27 1015 69 10000 5.7 140 18:44 16.12.2020
4802 Clouds 27 1015 69 10000 5.7 140 18:22 16.12.2020
4803 Clouds 27 1016 74 10000 5.7 160 17:36 16.12.2020
4804 Clouds 26 1016 78 10000 4.1 150 16:46 16.12.2020
4805 Clouds 26 1016 88 10000 1.5 110 16:28 16.12.2020
4806 Clouds 25 1016 88 10000 1.5 110 15:57 16.12.2020
4807 Clouds 24 1016 88 10000 1.5 110 15:37 16.12.2020
4808 Clouds 23 1016 94 10000 3.65 175 15:18 16.12.2020
4809 Clouds 22 1016 94 10000 3.65 175 14:41 16.12.2020
4810 Clouds 22 1016 94 10000 2 189 14:22 16.12.2020
4811 Clouds 21 1015 94 10000 2 189 13:40 16.12.2020
4812 Clouds 21 1015 94 10000 1.35 211 13:20 16.12.2020
4813 Clouds 20 1015 94 10000 1.23 213 12:43 16.12.2020
4814 Clouds 20 1015 94 10000 1.68 224 11:49 16.12.2020
4815 Clouds 20 1015 94 10000 2.12 214 11:27 16.12.2020
4816 Clouds 21 1015 94 10000 2.12 214 10:54 16.12.2020
4817 Clouds 21 1015 94 10000 2.26 208 10:28 16.12.2020
4818 Clouds 22 1015 88 10000 2.26 208 09:55 16.12.2020
4819 Clouds 22 1015 88 10000 2.3 212 09:24 16.12.2020
4820 Clouds 22 1015 88 10000 1.5 260 08:22 16.12.2020
4821 Clouds 22 1015 88 10000 2.59 212 07:44 16.12.2020
4822 Clouds 22 1015 88 10000 3 207 07:20 16.12.2020
4823 Clouds 23 1016 88 10000 3 220 03:35 16.12.2020
4824 Clouds 24 1015 83 10000 2.1 140 01:59 16.12.2020
4825 Clouds 25 1014 65 10000 3.6 170 23:50 15.12.2020
4826 Clouds 25 1014 65 10000 3.6 170 23:31 15.12.2020
4827 Clouds 26 1014 69 10000 3.1 140 22:41 15.12.2020
4828 Clouds 26 1014 69 10000 3.1 140 22:21 15.12.2020
4829 Clouds 27 1014 65 10000 1.5 120 21:47 15.12.2020
4830 Clouds 27 1014 65 10000 1.5 120 21:23 15.12.2020
4831 Clouds 27 1015 61 10000 2.1 260 20:45 15.12.2020
4832 Clouds 27 1015 61 10000 2.1 260 20:27 15.12.2020
4833 Clouds 27 1015 69 10000 1.5 0 19:55 15.12.2020
4834 Clouds 27 1015 69 10000 1.5 0 19:33 15.12.2020
4835 Clouds 27 1016 69 10000 1.5 0 18:42 15.12.2020
4836 Clouds 26 1016 69 10000 1.5 0 18:22 15.12.2020
4837 Clouds 26 1017 74 10000 1.5 0 17:59 15.12.2020
4838 Clouds 26 1017 74 10000 1.5 0 17:41 15.12.2020
4839 Clouds 26 1017 74 10000 1.5 0 17:20 15.12.2020
4840 Clouds 25 1017 74 10000 0.88 180 16:32 15.12.2020
4841 Clouds 24 1017 83 10000 0.57 275 15:55 15.12.2020
4842 Clouds 24 1017 83 10000 0.57 275 15:32 15.12.2020
4843 Clouds 22 1017 94 10000 0.47 253 14:49 15.12.2020
4844 Clouds 22 1017 94 10000 0.92 283 14:23 15.12.2020
4845 Clouds 21 1017 100 10000 0.92 283 13:52 15.12.2020
4846 Clouds 21 1016 88 10000 1.5 280 13:32 15.12.2020
4847 Clouds 21 1016 94 10000 1.73 285 12:47 15.12.2020
4848 Clouds 22 1016 94 10000 1.71 273 12:22 15.12.2020
4849 Clouds 22 1016 100 10000 1.5 260 11:56 15.12.2020
4850 Clouds 22 1016 100 10000 1.5 260 11:27 15.12.2020
4851 Clouds 22 1016 94 10000 1.94 258 10:57 15.12.2020
4852 Clouds 22 1016 94 10000 1.5 260 10:35 15.12.2020
4853 Clouds 22 1016 94 10000 1.5 250 09:53 15.12.2020
4854 Clouds 22 1016 94 10000 1.5 250 09:32 15.12.2020
4855 Clouds 22 1016 94 10000 1.5 250 09:32 15.12.2020
4856 Clouds 22 1016 94 10000 1.5 220 08:57 15.12.2020
4857 Clouds 22 1016 94 10000 1.5 220 08:29 15.12.2020
4858 Clouds 22 1016 94 10000 1.5 220 07:52 15.12.2020
4859 Clouds 22 1016 94 10000 1.5 220 07:28 15.12.2020
4860 Clouds 22 1016 94 10000 2.1 200 06:37 15.12.2020
4861 Rain 23 1017 83 10000 2.1 260 04:18 15.12.2020
4862 Rain 25 1016 61 10000 2.6 250 00:36 15.12.2020
4863 Rain 26 1016 61 10000 3.6 250 23:27 14.12.2020
4864 Rain 27 1015 54 10000 4.1 250 22:58 14.12.2020
4865 Rain 27 1016 58 10000 5.1 270 22:36 14.12.2020
4866 Rain 28 1015 58 10000 4.6 230 21:54 14.12.2020
4867 Rain 28 1015 58 10000 4.6 230 21:54 14.12.2020
4868 Rain 28 1015 58 10000 4.6 230 21:35 14.12.2020
4869 Clouds 28 1016 62 10000 4.1 250 20:52 14.12.2020
4870 Rain 28 1016 62 10000 4.1 250 20:30 14.12.2020
4871 Rain 28 1017 58 10000 4.1 240 19:55 14.12.2020
4872 Rain 28 1017 58 10000 4.1 240 19:30 14.12.2020
4873 Clouds 28 1018 65 10000 4.1 200 18:53 14.12.2020
4874 Clouds 28 1018 65 10000 4.1 200 18:32 14.12.2020
4875 Clouds 27 1019 69 10000 3.1 170 17:52 14.12.2020
4876 Clouds 27 1019 69 10000 3.1 170 17:31 14.12.2020
4877 Clouds 26 1019 78 10000 3.6 170 16:52 14.12.2020
4878 Clouds 26 1019 78 10000 3.6 170 16:29 14.12.2020
4879 Clear 25 1019 88 10000 2.6 160 15:46 14.12.2020
4880 Clear 24 1019 88 10000 2.6 160 15:25 14.12.2020
4881 Clouds 22 1019 94 10000 3.24 193 14:44 14.12.2020
4882 Clouds 22 1019 94 10000 2.76 191 14:25 14.12.2020
4883 Clear 19 1018 88 10000 2.76 191 13:46 14.12.2020
4884 Clear 19 1018 88 10000 2.67 183 13:22 14.12.2020
4885 Clear 19 1018 88 10000 2.65 183 12:53 14.12.2020
4886 Clear 19 1018 88 10000 3.35 171 12:28 14.12.2020
4887 Clear 19 1017 88 10000 3.35 171 11:35 14.12.2020
4888 Clear 19 1017 88 10000 2.1 150 10:43 14.12.2020
4889 Clear 19 1017 88 10000 2.1 150 10:25 14.12.2020
4890 Clear 19 1017 88 10000 2.1 130 09:44 14.12.2020
4891 Clear 20 1018 83 10000 1.5 130 08:48 14.12.2020
4892 Clear 20 1018 83 10000 1.5 130 08:30 14.12.2020
4893 Clear 19 1018 83 10000 1.5 130 07:49 14.12.2020
4894 Clear 20 1018 83 10000 2.1 140 06:48 14.12.2020
4895 Rain 21 1019 83 10000 1.5 130 05:37 14.12.2020
4896 Clear 23 1019 83 10000 3.6 120 02:39 14.12.2020
4897 Clouds 24 1018 73 10000 2.6 140 00:56 14.12.2020
4898 Clouds 24 1018 73 10000 2.6 140 00:34 14.12.2020
4899 Clouds 24 1018 65 10000 3.6 120 23:57 13.12.2020
4900 Rain 25 1018 61 10000 4.6 120 23:39 13.12.2020
4901 Clouds 26 1018 54 10000 3.6 130 22:49 13.12.2020
4902 Clouds 26 1018 54 10000 3.6 130 22:20 13.12.2020
4903 Clouds 27 1018 57 10000 3.6 120 21:47 13.12.2020
4904 Clouds 27 1018 57 10000 3.6 120 21:28 13.12.2020
4905 Clouds 27 1018 54 10000 3.6 120 20:42 13.12.2020
4906 Clouds 27 1018 54 10000 3.6 120 20:23 13.12.2020
4907 Clouds 27 1019 51 10000 3.1 140 19:43 13.12.2020
4908 Clouds 27 1019 51 10000 3.1 140 19:22 13.12.2020
4909 Clouds 27 1019 51 10000 3.1 140 19:22 13.12.2020
4910 Clouds 27 1020 57 10000 3.1 120 18:44 13.12.2020
4911 Clouds 27 1020 57 10000 3.1 120 18:21 13.12.2020
4912 Clouds 27 1021 65 10000 4.1 130 17:59 13.12.2020
4913 Clouds 27 1021 65 10000 4.1 130 17:41 13.12.2020
4914 Clouds 27 1021 65 10000 4.1 130 17:18 13.12.2020
4915 Clouds 26 1021 69 10000 3.6 140 16:39 13.12.2020
4916 Clouds 26 1021 69 10000 3.6 140 16:19 13.12.2020
4917 Clouds 25 1020 78 10000 1.5 0 15:45 13.12.2020
4918 Clouds 24 1020 78 10000 1.5 0 15:24 13.12.2020
4919 Clouds 23 1020 94 10000 1.87 111 14:45 13.12.2020
4920 Clouds 22 1020 94 10000 1.36 102 14:27 13.12.2020
4921 Clouds 19 1019 93 10000 1.5 0 13:44 13.12.2020
4922 Clouds 19 1019 93 10000 1.58 101 13:25 13.12.2020
4923 Clouds 19 1019 93 10000 2.27 112 12:52 13.12.2020
4924 Clouds 19 1019 93 10000 2.76 112 12:23 13.12.2020
4925 Clouds 19 1018 93 10000 2.76 112 11:47 13.12.2020
4926 Clouds 19 1018 93 10000 2.92 110 11:23 13.12.2020
4927 Clouds 20 1018 94 10000 2.92 110 10:41 13.12.2020
4928 Clouds 21 1018 94 10000 2.69 105 09:59 13.12.2020
4929 Clouds 21 1018 94 10000 2.69 105 09:31 13.12.2020
4930 Clouds 22 1018 88 10000 2.23 108 08:35 13.12.2020
4931 Clouds 22 1018 78 10000 1.5 40 07:52 13.12.2020
4932 Clouds 22 1019 83 10000 3.1 100 05:49 13.12.2020
4933 Clouds 23 1019 73 10000 1.5 120 02:43 13.12.2020
4934 Clouds 23 1018 73 10000 2.6 120 01:58 13.12.2020
4935 Clouds 23 1018 73 10000 2.6 120 01:19 13.12.2020
4936 Clouds 23 1018 73 10000 3.6 100 00:33 13.12.2020
4937 Clouds 24 1018 69 10000 3.1 130 23:33 12.12.2020
4938 Clouds 25 1018 65 10000 4.6 130 22:57 12.12.2020
4939 Clouds 25 1017 65 10000 4.6 140 22:27 12.12.2020
4940 Clouds 26 1017 65 10000 4.1 130 21:45 12.12.2020
4941 Clouds 26 1017 65 10000 4.1 130 21:18 12.12.2020
4942 Clouds 25 1018 78 10000 1.5 0 20:43 12.12.2020
4943 Clouds 25 1018 78 10000 1.5 0 20:19 12.12.2020
4944 Clouds 26 1018 69 10000 3.1 130 19:47 12.12.2020
4945 Clouds 26 1018 69 10000 3.1 130 19:29 12.12.2020
4946 Clouds 25 1019 73 10000 6.37 120 18:48 12.12.2020
4947 Clouds 25 1019 73 10000 6.75 121 18:30 12.12.2020
4948 Clouds 24 1020 78 10000 4.6 180 17:51 12.12.2020
4949 Clouds 25 1020 78 10000 4.6 180 17:32 12.12.2020
4950 Clouds 25 1020 78 10000 2.1 0 16:28 12.12.2020
4951 Clouds 24 1020 83 10000 3.1 150 15:53 12.12.2020
4952 Clouds 24 1020 83 10000 3.1 150 15:35 12.12.2020
4953 Clouds 23 1019 88 10000 4.1 110 14:53 12.12.2020
4954 Clouds 22 1019 88 10000 4.1 110 14:20 12.12.2020
4955 Clouds 21 1019 83 9656 6.2 120 13:40 12.12.2020
4956 Clouds 21 1019 83 9656 6.2 120 13:22 12.12.2020
4957 Clouds 21 1019 88 10000 1.5 350 12:32 12.12.2020
4958 Clouds 21 1018 83 10000 5.1 110 11:19 12.12.2020
4959 Mist 21 1018 83 8047 4.1 110 10:45 12.12.2020
4960 Clouds 21 1018 94 10000 1.5 90 09:23 12.12.2020
4961 Clouds 21 1018 83 10000 4.6 110 07:26 12.12.2020
4962 Rain 20 1019 88 10000 6.4 74 00:50 12.12.2020
4963 Clouds 21 1018 68 10000 4.1 60 23:21 11.12.2020
4964 Clouds 23 1018 53 10000 5.1 80 20:57 11.12.2020
4965 Clouds 24 1019 53 10000 2.6 0 19:42 11.12.2020
4966 Clouds 22 1022 56 10000 2.6 0 16:52 11.12.2020
4967 Clouds 17 1021 63 10000 1.5 310 14:37 11.12.2020
4968 Clouds 16 1020 67 10000 2.26 30 13:42 11.12.2020
4969 Clouds 16 1020 63 10000 2.1 350 12:23 11.12.2020
4970 Clouds 15 1020 63 10000 2.1 340 11:54 11.12.2020
4971 Clouds 15 1020 63 10000 2.1 340 11:35 11.12.2020
4972 Clouds 15 1020 63 10000 2.1 340 10:40 11.12.2020
4973 Clouds 16 1021 67 10000 1.5 30 07:42 11.12.2020
4974 Clouds 18 1022 55 10000 2.1 350 05:36 11.12.2020
4975 Clouds 18 1022 52 10000 1.5 0 04:47 11.12.2020
4976 Clouds 19 1021 60 10000 2.6 10 00:48 11.12.2020
4977 Clouds 20 1020 56 10000 2.1 40 23:28 10.12.2020
4978 Clouds 21 1020 43 10000 1.5 0 21:37 10.12.2020
4979 Clouds 21 1020 43 10000 3.1 20 20:51 10.12.2020
4980 Clouds 21 1020 43 10000 3.1 20 20:29 10.12.2020
4981 Clouds 21 1021 43 10000 3.61 34 19:29 10.12.2020
4982 Clouds 20 1022 45 10000 3.1 0 18:49 10.12.2020
4983 Clouds 19 1023 55 10000 2.1 0 17:35 10.12.2020
4984 Clouds 16 1023 63 10000 2.6 340 15:59 10.12.2020
4985 Clouds 15 1023 63 10000 2.6 340 15:24 10.12.2020
4986 Clouds 12 1023 67 10000 2.1 350 14:46 10.12.2020
4987 Clouds 10 1022 71 10000 4.14 357 13:51 10.12.2020
4988 Clouds 10 1022 76 10000 1.5 340 12:24 10.12.2020
4989 Clouds 8 1022 87 10000 3.62 341 10:57 10.12.2020
4990 Clear 9 1021 76 10000 3.8 336 08:42 10.12.2020
4991 Clear 10 1021 76 10000 3.53 332 07:31 10.12.2020
4992 Clear 10 1022 71 10000 3.41 328 06:33 10.12.2020
4993 Clear 13 1022 47 10000 4.04 340 02:50 10.12.2020
4994 Clear 14 1021 44 10000 4.12 335 01:50 10.12.2020
4995 Clouds 16 1021 39 10000 3.6 320 23:49 09.12.2020
4996 Clouds 18 1021 42 10000 4.6 330 20:41 09.12.2020
4997 Clear 18 1022 45 10000 6.2 330 20:20 09.12.2020
4998 Clear 17 1023 42 10000 4.6 320 18:58 09.12.2020
4999 Clear 16 1024 41 10000 5.1 310 17:37 09.12.2020
5000 Clear 15 1024 47 10000 5.1 340 16:40 09.12.2020
5001 Clear 14 1024 54 10000 3.6 340 16:20 09.12.2020
5002 Clear 11 1023 66 10000 4.1 340 14:53 09.12.2020
5003 Clear 11 1023 66 10000 4.1 340 14:27 09.12.2020
5004 Clear 10 1022 62 10000 3.1 340 13:51 09.12.2020
5005 Clear 10 1022 71 10000 3.6 330 13:18 09.12.2020
5006 Clear 10 1022 71 10000 3.6 330 12:43 09.12.2020
5007 Clear 10 1021 71 10000 3.1 0 11:46 09.12.2020
5008 Clear 10 1021 66 10000 3.1 320 09:59 09.12.2020
5009 Clear 11 1021 58 10000 3.1 310 08:42 09.12.2020
5010 Clear 12 1021 54 10000 2.6 300 06:56 09.12.2020
5011 Clear 12 1021 50 10000 2.6 310 05:42 09.12.2020
5012 Clear 13 1019 44 10000 2.6 320 02:59 09.12.2020
5013 Clear 15 1018 41 10000 2.6 310 00:56 09.12.2020
5014 Clear 15 1018 44 10000 5.1 300 23:37 08.12.2020
5015 Clear 16 1017 33 10000 5.1 340 22:43 08.12.2020
5016 Clouds 17 1017 39 10000 5.1 300 20:49 08.12.2020
5017 Clouds 17 1018 42 10000 5.7 300 19:32 08.12.2020
5018 Clouds 17 1019 45 10000 5.7 310 18:57 08.12.2020
5019 Clear 16 1019 55 10000 6.2 300 17:28 08.12.2020
5020 Clear 14 1019 62 10000 4.6 330 15:27 08.12.2020
5021 Clear 12 1017 66 10000 2.1 10 13:53 08.12.2020
5022 Clear 12 1017 66 10000 2.1 10 13:24 08.12.2020
5023 Clear 13 1016 66 10000 4.1 340 12:23 08.12.2020
5024 Clouds 13 1015 62 10000 4.1 340 11:28 08.12.2020
5025 Clear 14 1015 71 10000 7.2 350 10:42 08.12.2020
5026 Clouds 15 1015 72 10000 5.7 330 09:46 08.12.2020
5027 Clear 16 1014 79 10000 0.45 0 07:47 08.12.2020
5028 Clear 16 1015 72 10000 2.6 300 06:33 08.12.2020
5029 Clouds 19 1012 72 10000 4.1 320 02:59 08.12.2020
5030 Clouds 21 1010 68 10000 3.6 290 00:45 08.12.2020
5031 Clouds 22 1009 68 10000 5.7 290 23:50 07.12.2020
5032 Clouds 22 1009 68 10000 6.7 290 22:33 07.12.2020
5033 Clouds 24 1008 65 10000 5.7 290 21:49 07.12.2020
5034 Clouds 24 1009 78 10000 3.6 260 19:46 07.12.2020
5035 Clouds 24 1010 78 10000 2.6 240 18:29 07.12.2020
5036 Clouds 21 1011 83 10000 2.91 248 17:26 07.12.2020
5037 Clouds 20 1011 83 10000 2.91 248 16:52 07.12.2020
5038 Clouds 19 1012 88 10000 3.1 0 15:26 07.12.2020
5039 Clouds 19 1011 93 10000 3.1 60 14:44 07.12.2020
5040 Rain 19 1011 88 10000 3.6 360 13:44 07.12.2020
5041 Fog 20 1010 94 402 4.6 330 12:38 07.12.2020
5042 Rain 22 1009 88 10000 6.2 310 11:43 07.12.2020
5043 Clouds 24 1009 94 10000 5.7 230 10:56 07.12.2020
5044 Clouds 23 1008 88 10000 6.2 170 09:40 07.12.2020
5045 Clouds 23 1011 83 10000 2.1 140 07:58 07.12.2020
5046 Clouds 24 1013 83 10000 1.5 160 06:21 07.12.2020
5047 Clouds 24 1014 83 10000 5.32 194 04:48 07.12.2020
5048 Clouds 24 1014 83 10000 2.1 160 01:48 07.12.2020
5049 Clouds 25 1014 69 10000 2.6 210 23:32 06.12.2020
5050 Clouds 25 1013 73 10000 4.6 130 22:23 06.12.2020
5051 Clouds 26 1014 69 10000 2.6 130 20:53 06.12.2020
5052 Clouds 26 1014 69 10000 2.6 130 20:34 06.12.2020
5053 Clouds 26 1015 65 10000 1.5 0 19:53 06.12.2020
5054 Clouds 27 1016 65 10000 2.6 120 18:18 06.12.2020
5055 Clear 26 1016 65 10000 2.1 40 16:44 06.12.2020
5056 Clouds 22 1016 83 10000 2.1 360 14:57 06.12.2020
5057 Clouds 21 1016 88 10000 2.1 340 13:42 06.12.2020
5058 Clouds 21 1016 88 10000 1.5 330 12:42 06.12.2020
5059 Clouds 21 1015 88 10000 1.5 310 11:57 06.12.2020
5060 Clouds 21 1015 88 10000 1.5 310 11:32 06.12.2020
5061 Clouds 21 1015 94 10000 1.5 320 10:45 06.12.2020
5062 Clouds 21 1015 94 10000 2.1 330 09:49 06.12.2020
5063 Mist 21 1016 94 9656 2.94 259 08:29 06.12.2020
5064 Clear 22 1017 88 10000 3.6 290 05:51 06.12.2020
5065 Clouds 24 1016 73 10000 2.6 170 00:57 06.12.2020
5066 Clouds 24 1016 73 10000 2.6 170 00:38 06.12.2020
5067 Clouds 24 1016 73 10000 2.6 170 00:20 06.12.2020
5068 Clouds 27 1015 58 10000 1.5 260 22:43 05.12.2020
5069 Clouds 27 1015 58 10000 1.5 260 22:20 05.12.2020
5070 Clouds 27 1015 61 10000 2.6 240 21:47 05.12.2020
5071 Clouds 27 1015 61 10000 2.6 240 21:23 05.12.2020
5072 Clouds 28 1016 58 10000 3.6 300 19:21 05.12.2020
5073 Clouds 28 1017 62 10000 2.6 0 18:39 05.12.2020
5074 Clouds 26 1018 65 10000 2.1 0 17:20 05.12.2020
5075 Clouds 25 1019 69 10000 1.58 276 16:29 05.12.2020
5076 Clouds 24 1018 83 10000 1.58 276 15:47 05.12.2020
5077 Clouds 21 1018 83 10000 1.75 306 14:24 05.12.2020
5078 Clouds 20 1017 78 10000 2.6 0 11:52 05.12.2020
5079 Clear 20 1017 88 10000 1.59 289 11:30 05.12.2020
5080 Clouds 21 1017 78 10000 2.07 265 10:30 05.12.2020
5081 Clouds 20 1018 83 10000 2.86 198 07:48 05.12.2020
5082 Clouds 20 1018 83 10000 1.77 207 06:28 05.12.2020
5083 Clouds 21 1020 78 10000 1.5 250 03:44 05.12.2020
5084 Clouds 23 1018 69 10000 3.1 130 23:50 04.12.2020
5085 Clouds 24 1018 60 10000 3.1 130 22:24 04.12.2020
5086 Clouds 25 1019 60 10000 5.7 130 20:24 04.12.2020
5087 Clear 25 1020 60 10000 5.7 120 18:53 04.12.2020
5088 Clear 25 1020 60 10000 5.7 120 18:18 04.12.2020
5089 Clouds 25 1021 60 10000 5.1 130 17:26 04.12.2020
5090 Clouds 23 1021 64 10000 3.6 110 15:39 04.12.2020
5091 Clouds 22 1021 73 10000 4.99 102 13:40 04.12.2020
5092 Clouds 22 1021 73 10000 4.53 106 13:21 04.12.2020
5093 Clouds 21 1021 68 10000 2.6 110 12:49 04.12.2020
5094 Clouds 22 1020 68 10000 2.1 90 10:40 04.12.2020
5095 Clouds 21 1020 64 10000 3.6 110 09:46 04.12.2020
5096 Clouds 22 1021 60 10000 4.6 90 06:42 04.12.2020
5097 Clouds 22 1022 60 10000 2.6 130 05:59 04.12.2020
5098 Clouds 22 1021 60 10000 4.6 90 01:56 04.12.2020
5099 Clear 23 1020 53 10000 4.6 80 22:52 03.12.2020
5100 Clear 23 1020 53 10000 4.6 80 22:27 03.12.2020
5101 Clouds 24 1021 56 10000 5.7 80 20:49 03.12.2020
5102 Clouds 24 1022 50 10000 6.2 90 19:29 03.12.2020
5103 Clouds 23 1023 53 10000 5.7 100 18:51 03.12.2020
5104 Clouds 23 1023 56 10000 6.7 90 17:53 03.12.2020
5105 Clouds 23 1023 53 10000 7.7 100 17:18 03.12.2020
5106 Clouds 22 1023 56 10000 4.6 70 15:55 03.12.2020
5107 Clouds 22 1023 56 10000 4.6 70 15:30 03.12.2020
5108 Clouds 20 1022 68 10000 2.1 60 14:48 03.12.2020
5109 Clouds 19 1022 72 10000 1.5 0 13:36 03.12.2020
5110 Clouds 18 1022 82 10000 5.56 66 12:28 03.12.2020
5111 Clouds 19 1021 77 10000 5.56 66 11:31 03.12.2020
5112 Clouds 18 1021 77 10000 2.1 360 10:25 03.12.2020
5113 Clouds 17 1022 77 10000 1.5 10 07:47 03.12.2020
5114 Clouds 19 1023 68 10000 2.6 350 03:22 03.12.2020
5115 Clouds 20 1022 60 10000 2.1 20 01:19 03.12.2020
5116 Clouds 22 1021 53 10000 5.7 60 22:48 02.12.2020
5117 Clouds 22 1021 53 10000 5.7 60 22:28 02.12.2020
5118 Clouds 23 1021 46 10000 5.1 40 21:28 02.12.2020
5119 Clouds 23 1022 53 10000 5.7 60 20:47 02.12.2020
5120 Clouds 23 1022 53 10000 5.7 60 20:29 02.12.2020
5121 Clouds 22 1023 56 10000 3.6 20 18:39 02.12.2020
5122 Clouds 21 1024 60 10000 3.6 360 17:47 02.12.2020
5123 Clouds 20 1024 60 10000 3.6 360 17:28 02.12.2020
5124 Clouds 16 1023 62 10000 3.6 340 15:37 02.12.2020
5125 Clear 11 1022 66 10000 2.6 0 12:50 02.12.2020
5126 Clear 11 1021 58 10000 2.6 340 10:32 02.12.2020
5127 Clear 11 1021 66 10000 2.6 340 09:32 02.12.2020
5128 Clear 13 1022 50 10000 2.6 340 05:53 02.12.2020
5129 Clouds 18 1020 45 10000 3.6 360 22:54 01.12.2020
5130 Clouds 19 1019 45 10000 4.1 330 22:18 01.12.2020
5131 Clear 19 1019 52 10000 2.68 0 19:36 01.12.2020
5132 Clear 18 1021 52 10000 3.6 330 18:45 01.12.2020
5133 Clear 17 1021 63 10000 5.7 330 16:37 01.12.2020
5134 Clouds 15 1019 63 10000 6.2 330 14:21 01.12.2020
5135 Clear 16 1018 77 10000 5.7 340 12:28 01.12.2020
5136 Clouds 16 1017 67 10000 4.1 320 11:28 01.12.2020
5137 Clouds 17 1016 68 10000 6.7 330 10:44 01.12.2020
5138 Clouds 17 1016 68 10000 6.7 330 10:25 01.12.2020
5139 Clouds 19 1016 77 10000 4.1 320 07:19 01.12.2020
5140 Rain 22 1013 88 10000 4.1 260 02:41 01.12.2020
5141 Clouds 23 1013 88 10000 3.6 250 00:57 01.12.2020
5142 Thunderstorm 23 1012 94 10000 3.6 210 23:22 30.11.2020
5143 Mist 23 1012 88 8047 5.7 210 22:45 30.11.2020
5144 Rain 24 1012 88 8047 5.7 210 22:26 30.11.2020
5145 Rain 26 1011 61 10000 8.2 220 21:56 30.11.2020
5146 Clouds 28 1013 58 10000 6.2 250 19:45 30.11.2020
5147 Clouds 29 1014 58 10000 6.2 200 18:40 30.11.2020
5148 Clouds 28 1014 61 10000 6.7 210 18:20 30.11.2020
5149 Clouds 28 1014 61 10000 6.7 210 17:43 30.11.2020
5150 Clouds 28 1014 61 10000 6.7 210 17:43 30.11.2020
5151 Clouds 27 1015 74 10000 5.7 230 16:44 30.11.2020
5152 Clouds 24 1014 88 10000 3.1 200 14:47 30.11.2020
5153 Clouds 23 1014 88 10000 1.5 190 13:55 30.11.2020
5154 Clouds 22 1014 88 10000 2.6 200 12:40 30.11.2020
5155 Clouds 22 1014 88 10000 2.6 200 12:20 30.11.2020
5156 Clouds 22 1014 83 10000 1.5 190 10:32 30.11.2020
5157 Clouds 21 1014 83 10000 1.5 0 09:53 30.11.2020
5158 Clouds 22 1016 83 10000 5.14 184 07:58 30.11.2020
5159 Clear 24 1016 73 10000 3.1 130 01:21 30.11.2020
5160 Clouds 26 1015 65 10000 4.6 150 22:22 29.11.2020
5161 Clouds 27 1015 65 10000 4.1 140 21:44 29.11.2020
5162 Clouds 27 1015 65 10000 4.1 140 21:25 29.11.2020
5163 Clouds 27 1017 65 10000 3.6 120 18:31 29.11.2020
5164 Clouds 27 1018 61 10000 4.6 110 17:31 29.11.2020
5165 Clouds 21 1017 94 10000 1.86 184 13:35 29.11.2020
5166 Clouds 21 1017 94 10000 1.86 184 13:35 29.11.2020
5167 Clouds 20 1016 94 10000 1.76 199 12:43 29.11.2020
5168 Clouds 21 1016 94 10000 1.89 218 11:22 29.11.2020
5169 Clouds 21 1016 88 10000 2.2 210 08:53 29.11.2020
5170 Clouds 21 1016 88 10000 2.2 210 08:34 29.11.2020
5171 Clouds 24 1017 83 10000 1.5 130 02:31 29.11.2020
5172 Clouds 25 1016 65 10000 2.1 50 22:59 28.11.2020
5173 Clouds 25 1016 65 10000 2.1 50 22:18 28.11.2020
5174 Clouds 26 1017 69 10000 2.1 110 19:56 28.11.2020
5175 Clouds 26 1017 69 10000 2.1 110 19:27 28.11.2020
5176 Clouds 25 1018 73 10000 1.84 112 18:55 28.11.2020
5177 Clouds 25 1018 73 10000 3.32 135 18:19 28.11.2020
5178 Clouds 24 1019 83 10000 3.05 119 16:56 28.11.2020
5179 Clouds 23 1017 94 10000 2.96 103 14:58 28.11.2020
5180 Clear 21 1017 94 10000 2.84 106 13:47 28.11.2020
5181 Clouds 22 1016 88 10000 2.5 102 11:27 28.11.2020
5182 Clouds 23 1016 88 10000 1.5 20 09:25 28.11.2020
5183 Clouds 24 1018 73 10000 1.5 360 03:39 28.11.2020
5184 Clear 25 1018 69 10000 1.5 360 01:52 28.11.2020
5185 Clouds 25 1017 65 10000 4.1 60 23:21 27.11.2020
5186 Clouds 26 1017 65 10000 4.6 100 22:24 27.11.2020
5187 Rain 27 1017 65 10000 2.1 0 20:39 27.11.2020
5188 Clouds 27 1018 61 10000 3.6 90 19:34 27.11.2020
5189 Clouds 27 1019 69 10000 5.1 100 18:57 27.11.2020
5190 Clouds 26 1020 69 10000 1.5 0 16:27 27.11.2020
5191 Clouds 24 1019 88 10000 1.5 350 14:45 27.11.2020
5192 Clouds 23 1018 94 10000 3.02 90 13:18 27.11.2020
5193 Clouds 23 1018 94 10000 3.02 93 12:46 27.11.2020
5194 Clouds 23 1018 94 10000 2.1 350 11:34 27.11.2020
5195 Clouds 23 1018 83 10000 2.1 90 10:43 27.11.2020
5196 Clouds 23 1018 94 10000 3.39 88 09:31 27.11.2020
5197 Clouds 25 1017 71 10000 0.45 0 23:39 26.11.2020
5198 Clouds 26 1017 66 10000 1.34 106 22:25 26.11.2020
5199 Clouds 27 1017 64 10000 1.79 102 21:45 26.11.2020
5200 Clouds 28 1018 54 10000 3.6 70 20:43 26.11.2020
5201 Clouds 28 1020 51 10000 3.6 130 18:37 26.11.2020
5202 Clouds 27 1021 54 10000 6.2 110 17:31 26.11.2020
5203 Clouds 24 1020 78 10000 5.62 107 13:58 26.11.2020
5204 Clear 23 1020 78 10000 4.1 100 12:58 26.11.2020
5205 Clear 23 1020 78 10000 4.1 100 12:39 26.11.2020
5206 Clouds 23 1019 73 10000 2.6 90 10:50 26.11.2020
5207 Clouds 23 1019 73 10000 2.6 90 10:23 26.11.2020
5208 Clear 24 1019 69 10000 2.6 110 09:37 26.11.2020
5209 Clear 24 1020 64 10000 3.6 120 08:58 26.11.2020
5210 Clear 24 1020 64 10000 3.6 120 08:34 26.11.2020
5211 Clouds 25 1022 61 10000 6.7 100 02:19 26.11.2020
5212 Clouds 26 1020 61 10000 7.2 80 22:30 25.11.2020
5213 Clouds 26 1021 61 10000 7.2 90 20:38 25.11.2020
5214 Clouds 26 1021 54 10000 6.7 90 19:26 25.11.2020
5215 Clouds 26 1022 61 10000 8.2 90 17:29 25.11.2020
5216 Clouds 24 1022 88 10000 6.7 110 15:47 25.11.2020
5217 Clouds 24 1022 88 10000 6.7 110 15:23 25.11.2020
5218 Clouds 23 1022 94 10000 5.1 60 13:46 25.11.2020
5219 Clouds 22 1021 94 10000 4.1 90 12:59 25.11.2020
5220 Clouds 24 1020 73 10000 4.6 80 11:26 25.11.2020
5221 Clouds 24 1020 73 10000 6.2 90 09:22 25.11.2020
5222 Clouds 24 1020 73 10000 5.7 90 08:50 25.11.2020
5223 Clouds 24 1021 73 10000 6.2 90 07:53 25.11.2020
5224 Clouds 25 1021 69 10000 2.6 50 03:54 25.11.2020
5225 Clouds 24 1021 64 10000 2.6 50 01:50 25.11.2020
5226 Clouds 24 1020 64 10000 4.6 50 00:22 25.11.2020
5227 Clouds 25 1020 60 10000 6.7 60 23:36 24.11.2020
5228 Clouds 25 1020 60 10000 6.7 60 23:36 24.11.2020
5229 Clouds 25 1020 57 10000 7.2 70 22:51 24.11.2020
5230 Clouds 26 1019 54 10000 5.7 60 21:50 24.11.2020
5231 Clouds 26 1019 54 10000 5.7 60 21:27 24.11.2020
5232 Clouds 27 1019 57 10000 7.7 80 20:19 24.11.2020
5233 Clouds 27 1021 61 10000 6.2 70 17:54 24.11.2020
5234 Clouds 27 1021 61 10000 6.2 70 17:28 24.11.2020
5235 Clouds 27 1021 61 10000 5.1 70 16:38 24.11.2020
5236 Clouds 26 1021 73 10000 3.1 20 15:56 24.11.2020
5237 Clouds 25 1021 73 10000 3.1 20 15:20 24.11.2020
5238 Clouds 24 1020 78 10000 2.6 360 14:45 24.11.2020
5239 Clouds 24 1020 78 10000 2.6 360 14:21 24.11.2020
5240 Clouds 22 1018 83 10000 2.1 0 12:42 24.11.2020
5241 Clouds 22 1018 83 10000 2.1 0 12:21 24.11.2020
5242 Clouds 21 1018 83 10000 2.6 340 11:35 24.11.2020
5243 Clouds 23 1018 83 10000 2.1 340 10:26 24.11.2020
5244 Clouds 21 1018 88 10000 2.6 340 09:42 24.11.2020
5245 Clouds 20 1018 88 10000 2.6 340 09:22 24.11.2020
5246 Clouds 21 1018 83 10000 3.6 330 06:50 24.11.2020
5247 Clouds 21 1018 78 10000 3.6 360 04:19 24.11.2020
5248 Clouds 25 1016 65 10000 4.1 320 22:28 23.11.2020
5249 Clouds 26 1016 69 10000 3.6 310 21:35 23.11.2020
5250 Clouds 26 1016 69 10000 4.6 340 20:50 23.11.2020
5251 Clouds 26 1016 69 10000 4.6 340 20:21 23.11.2020
5252 Clouds 26 1017 74 10000 4.6 340 18:48 23.11.2020
5253 Clouds 27 1017 69 10000 4.1 320 17:25 23.11.2020
5254 Clouds 26 1017 74 10000 4.1 330 16:22 23.11.2020
5255 Clouds 23 1017 88 10000 3.6 330 14:47 23.11.2020
5256 Clouds 22 1016 94 10000 2.1 0 13:20 23.11.2020
5257 Clouds 22 1016 94 10000 1.5 350 12:37 23.11.2020
5258 Clouds 22 1015 94 10000 2.1 340 11:48 23.11.2020
5259 Clouds 22 1015 94 10000 2.1 340 11:19 23.11.2020
5260 Clouds 23 1015 94 10000 1.5 330 09:32 23.11.2020
5261 Clouds 23 1016 94 10000 3.03 47 08:49 23.11.2020
5262 Clouds 23 1016 94 10000 1.5 30 07:28 23.11.2020
5263 Clouds 24 1016 94 10000 1.5 330 00:38 23.11.2020
5264 Clouds 25 1016 94 10000 1.5 0 23:36 22.11.2020
5265 Clouds 26 1015 74 10000 5.1 70 22:18 22.11.2020
5266 Clouds 26 1015 74 10000 5.1 70 22:18 22.11.2020
5267 Clouds 27 1015 78 10000 3.6 70 20:54 22.11.2020
5268 Clouds 26 1016 78 10000 3.1 0 19:58 22.11.2020
5269 Thunderstorm 26 1016 78 10000 5.5 75 18:54 22.11.2020
5270 Clouds 26 1017 74 10000 3.1 20 17:33 22.11.2020
5271 Clouds 26 1018 88 10000 2.1 100 15:58 22.11.2020
5272 Mist 24 1018 94 9656 1.5 50 14:40 22.11.2020
5273 Clouds 24 1017 94 10000 2.6 340 12:50 22.11.2020
5274 Clouds 24 1017 88 10000 2.1 330 12:18 22.11.2020
5275 Clouds 24 1017 88 10000 2.1 330 11:35 22.11.2020
5276 Clouds 24 1017 88 10000 2.1 340 10:45 22.11.2020
5277 Clouds 24 1017 88 10000 2.1 350 09:42 22.11.2020
5278 Clouds 24 1019 94 10000 2.1 0 01:50 22.11.2020
5279 Mist 24 1019 94 4828 3.1 150 23:53 21.11.2020
5280 Rain 25 1018 69 10000 6.7 40 22:31 21.11.2020
5281 Clouds 26 1018 69 10000 6.7 60 21:30 21.11.2020
5282 Clouds 27 1019 65 10000 5.1 70 20:49 21.11.2020
5283 Clouds 27 1019 65 10000 4.1 60 19:57 21.11.2020
5284 Clouds 27 1019 65 10000 4.1 60 19:37 21.11.2020
5285 Clouds 26 1020 61 10000 4.6 60 18:31 21.11.2020
5286 Clouds 26 1021 69 10000 5.1 50 17:28 21.11.2020
5287 Clouds 26 1022 69 10000 5.7 50 16:40 21.11.2020
5288 Clouds 25 1021 73 10000 3.1 50 15:23 21.11.2020
5289 Clouds 25 1021 78 10000 3.1 30 14:48 21.11.2020
5290 Clouds 25 1021 78 10000 3.1 30 14:27 21.11.2020
5291 Clouds 24 1020 83 10000 2.6 30 12:42 21.11.2020
5292 Clouds 24 1020 83 10000 2.6 30 12:20 21.11.2020
5293 Clouds 24 1020 78 10000 3.1 50 10:57 21.11.2020
5294 Clouds 24 1020 78 10000 3.1 50 10:26 21.11.2020
5295 Clouds 24 1020 78 10000 3.6 50 08:51 21.11.2020
5296 Clouds 24 1022 73 10000 5.1 40 06:51 21.11.2020
5297 Clouds 24 1022 73 10000 4.6 50 05:24 21.11.2020
5298 Clouds 24 1022 78 10000 5.1 40 01:43 21.11.2020
5299 Clouds 23 1022 88 10000 4.6 40 23:59 20.11.2020
5300 Rain 24 1021 83 10000 4.6 60 22:26 20.11.2020
5301 Clouds 25 1021 73 10000 6.2 60 21:42 20.11.2020
5302 Rain 25 1021 73 10000 6.2 60 21:21 20.11.2020
5303 Clouds 26 1022 65 10000 7.2 60 19:52 20.11.2020
5304 Clouds 26 1024 61 10000 5.1 50 18:53 20.11.2020
5305 Clouds 26 1024 61 10000 7.2 50 17:53 20.11.2020
5306 Clouds 26 1024 61 10000 7.2 50 17:28 20.11.2020
5307 Clouds 26 1025 57 10000 7.2 50 16:40 20.11.2020
5308 Clouds 25 1024 61 10000 6.2 60 15:59 20.11.2020
5309 Clouds 25 1024 61 10000 6.2 60 15:27 20.11.2020
5310 Clouds 23 1024 78 10000 2.6 50 13:48 20.11.2020
5311 Clouds 23 1024 78 10000 2.6 50 13:19 20.11.2020
5312 Clouds 23 1023 83 10000 3.1 40 12:36 20.11.2020
5313 Clouds 23 1023 73 10000 3.6 60 11:45 20.11.2020
5314 Clouds 23 1023 73 10000 3.6 60 11:20 20.11.2020
5315 Clouds 22 1023 83 10000 3.6 40 09:31 20.11.2020
5316 Clouds 22 1023 83 10000 4.6 40 08:26 20.11.2020
5317 Clouds 22 1023 78 10000 4.6 50 07:34 20.11.2020
5318 Clouds 23 1024 73 10000 5.1 60 03:44 20.11.2020
5319 Clouds 24 1023 61 10000 6.2 60 23:25 19.11.2020
5320 Clouds 25 1023 57 10000 9.3 60 22:27 19.11.2020
5321 Clouds 25 1023 57 10000 8.7 60 21:49 19.11.2020
5322 Clouds 26 1023 61 10000 7.2 60 20:34 19.11.2020
5323 Clouds 26 1024 57 10000 8.7 80 19:54 19.11.2020
5324 Clouds 26 1024 57 10000 8.7 80 19:25 19.11.2020
5325 Clouds 26 1025 54 10000 9.3 70 17:50 19.11.2020
5326 Clouds 26 1025 54 10000 6.7 60 16:59 19.11.2020
5327 Clouds 25 1025 50 10000 8.2 70 15:59 19.11.2020
5328 Clouds 25 1025 50 10000 8.2 70 15:28 19.11.2020
5329 Clouds 23 1024 56 10000 6.2 60 13:46 19.11.2020
5330 Clouds 23 1024 56 10000 6.2 60 13:24 19.11.2020
5331 Clouds 23 1023 53 10000 5.7 60 12:44 19.11.2020
5332 Clouds 23 1023 53 10000 5.7 60 12:24 19.11.2020
5333 Clouds 23 1023 53 10000 6.7 50 11:39 19.11.2020
5334 Clouds 23 1023 53 10000 5.1 50 10:54 19.11.2020
5335 Clouds 23 1023 53 10000 5.1 50 10:27 19.11.2020
5336 Clouds 22 1023 56 10000 4.6 50 09:44 19.11.2020
5337 Clouds 22 1023 56 10000 4.6 50 09:25 19.11.2020
5338 Clouds 23 1023 53 10000 4.6 50 08:20 19.11.2020
5339 Clouds 23 1024 53 10000 5.7 70 06:20 19.11.2020
5340 Clouds 24 1023 53 10000 6.7 40 01:46 19.11.2020
5341 Clouds 24 1023 60 10000 6.7 50 00:28 19.11.2020
5342 Clouds 24 1022 57 10000 9.3 50 23:25 18.11.2020
5343 Clouds 24 1022 57 10000 8.2 50 22:36 18.11.2020
5344 Clouds 25 1022 57 10000 8.2 50 22:18 18.11.2020
5345 Clouds 25 1022 54 10000 9.8 50 21:39 18.11.2020
5346 Clouds 25 1022 54 10000 9.8 50 21:20 18.11.2020
5347 Clouds 26 1022 51 10000 8.7 50 19:48 18.11.2020
5348 Clouds 26 1022 51 10000 8.7 50 19:27 18.11.2020
5349 Clouds 26 1022 54 10000 7.2 50 18:55 18.11.2020
5350 Clouds 26 1022 54 10000 7.2 50 18:37 18.11.2020
5351 Clouds 26 1023 54 10000 8.2 70 17:37 18.11.2020
5352 Clouds 25 1023 54 10000 7.2 40 16:24 18.11.2020
5353 Clouds 25 1022 53 10000 5.1 40 15:47 18.11.2020
5354 Clouds 24 1022 60 10000 3.6 40 14:41 18.11.2020
5355 Clouds 23 1021 73 10000 2.1 340 13:43 18.11.2020
5356 Clouds 23 1021 73 10000 2.1 340 13:20 18.11.2020
5357 Clouds 23 1021 77 10000 2.1 340 12:30 18.11.2020
5358 Clouds 23 1021 77 10000 1.5 340 11:34 18.11.2020
5359 Clouds 23 1021 68 10000 2.1 350 10:31 18.11.2020
5360 Clouds 23 1021 68 10000 3.1 350 09:52 18.11.2020
5361 Clouds 23 1021 73 10000 1.5 350 07:45 18.11.2020
5362 Clouds 24 1021 69 10000 2.6 360 06:34 18.11.2020
5363 Clouds 25 1019 65 10000 6.2 20 00:29 18.11.2020
5364 Clouds 25 1019 65 10000 6.7 30 23:34 17.11.2020
5365 Clouds 26 1018 61 10000 6.7 20 22:49 17.11.2020
5366 Clouds 26 1018 61 10000 6.7 20 22:28 17.11.2020
5367 Clouds 27 1018 61 10000 8.2 20 21:50 17.11.2020
5368 Clouds 27 1018 61 10000 8.2 20 21:50 17.11.2020
5369 Clouds 27 1018 61 10000 8.2 20 21:30 17.11.2020
5370 Clouds 27 1018 61 10000 7.7 30 20:47 17.11.2020
5371 Clouds 28 1018 65 10000 7.2 40 20:25 17.11.2020
5372 Clouds 28 1019 65 10000 8.2 50 19:54 17.11.2020
5373 Clouds 28 1019 69 10000 4.6 40 18:25 17.11.2020
5374 Clouds 27 1020 78 10000 4.6 40 17:39 17.11.2020
5375 Clouds 26 1020 78 10000 2.6 0 16:53 17.11.2020
5376 Clouds 26 1020 83 10000 5.1 30 16:18 17.11.2020
5377 Clouds 26 1020 83 10000 5.1 30 16:18 17.11.2020
5378 Clouds 25 1020 83 10000 5.1 30 15:40 17.11.2020
5379 Clouds 25 1020 83 10000 5.1 30 15:22 17.11.2020
5380 Clouds 24 1020 88 10000 2.6 340 14:54 17.11.2020
5381 Clouds 24 1020 88 10000 2.6 340 14:21 17.11.2020
5382 Clouds 24 1019 88 10000 3.6 350 13:34 17.11.2020
5383 Clouds 24 1019 94 10000 2.6 360 12:46 17.11.2020
5384 Clouds 24 1019 94 10000 1.5 360 12:22 17.11.2020
5385 Clouds 24 1019 88 10000 2.1 330 11:41 17.11.2020
5386 Clouds 24 1019 94 10000 1.5 330 10:45 17.11.2020
5387 Clouds 24 1019 94 10000 1.5 330 10:23 17.11.2020
5388 Clouds 24 1018 94 10000 1.5 350 09:48 17.11.2020
5389 Clouds 24 1018 94 10000 1.5 350 09:20 17.11.2020
5390 Clouds 25 1018 88 10000 1.5 340 08:21 17.11.2020
5391 Clouds 25 1019 88 10000 2.1 360 07:35 17.11.2020
5392 Clouds 25 1019 74 10000 4.02 60 05:18 17.11.2020
5393 Clouds 25 1019 74 10000 1.5 30 03:29 17.11.2020
5394 Clouds 26 1019 78 10000 2.6 40 02:30 17.11.2020
5395 Clouds 26 1018 69 10000 2.6 60 00:57 17.11.2020
5396 Clouds 26 1018 69 10000 2.6 60 00:19 17.11.2020
5397 Clouds 26 1017 65 10000 4.1 50 23:41 16.11.2020
5398 Clouds 27 1017 54 10000 2.6 70 23:19 16.11.2020
5399 Clouds 28 1017 54 10000 2.6 70 22:26 16.11.2020
5400 Clouds 28 1017 45 10000 3.6 60 21:59 16.11.2020
5401 Clouds 29 1017 45 10000 3.6 60 21:40 16.11.2020
5402 Clouds 29 1017 45 10000 3.6 60 21:20 16.11.2020
5403 Clouds 29 1017 54 10000 3.6 70 20:26 16.11.2020
5404 Clouds 29 1018 58 10000 4.1 70 19:55 16.11.2020
5405 Clouds 29 1018 58 10000 4.1 70 19:30 16.11.2020
5406 Clouds 29 1019 61 10000 4.6 60 18:52 16.11.2020
5407 Clouds 28 1019 61 10000 4.6 60 18:26 16.11.2020
5408 Clouds 28 1019 54 10000 5.1 80 17:37 16.11.2020
5409 Clouds 28 1020 65 10000 3.6 50 17:19 16.11.2020
5410 Clouds 28 1020 65 10000 3.6 50 16:51 16.11.2020
5411 Clouds 28 1020 65 10000 3.6 50 16:26 16.11.2020
5412 Clouds 27 1019 74 10000 2.1 70 15:45 16.11.2020
5413 Clouds 27 1019 74 10000 2.1 70 15:45 16.11.2020
5414 Clouds 27 1019 74 10000 2.1 70 15:27 16.11.2020
5415 Clouds 26 1018 83 10000 4.58 72 14:48 16.11.2020
5416 Clouds 24 1018 94 10000 2.1 350 13:50 16.11.2020
5417 Clouds 22 1018 94 10000 2.1 350 13:21 16.11.2020
5418 Clear 22 1018 94 10000 3.15 76 12:30 16.11.2020
5419 Clouds 23 1018 94 10000 2.88 81 11:42 16.11.2020
5420 Clouds 23 1018 94 10000 2.47 84 11:22 16.11.2020
5421 Clear 24 1017 94 10000 1.5 350 10:44 16.11.2020
5422 Clear 24 1017 94 10000 1.5 350 10:26 16.11.2020
5423 Clouds 25 1017 88 10000 2.6 120 09:52 16.11.2020
5424 Clouds 25 1017 88 10000 2.6 120 09:34 16.11.2020
5425 Clouds 25 1018 88 10000 3.54 114 08:48 16.11.2020
5426 Clouds 25 1018 88 10000 4.29 118 08:19 16.11.2020
5427 Clouds 25 1018 88 10000 2.6 90 07:19 16.11.2020
5428 Clouds 25 1018 83 10000 2.1 110 06:45 16.11.2020
5429 Clear 26 1018 83 10000 2.1 120 05:44 16.11.2020
5430 Clear 26 1018 74 10000 2.1 90 03:54 16.11.2020
5431 Clear 26 1017 74 10000 3.1 80 01:45 16.11.2020
5432 Clouds 26 1017 74 10000 3.1 120 00:29 16.11.2020
5433 Clouds 27 1017 65 10000 3.6 130 23:29 15.11.2020
5434 Clouds 28 1017 65 10000 3.6 130 22:57 15.11.2020
5435 Clouds 28 1017 65 10000 3.6 130 22:24 15.11.2020
5436 Clouds 28 1017 69 10000 3.6 130 21:54 15.11.2020
5437 Clouds 28 1017 69 10000 3.6 130 21:35 15.11.2020
5438 Clouds 29 1017 58 10000 3.1 0 20:58 15.11.2020
5439 Clouds 29 1017 58 10000 3.1 0 20:38 15.11.2020
5440 Clouds 29 1017 62 10000 4.1 130 19:56 15.11.2020
5441 Clouds 29 1017 62 10000 4.1 130 19:38 15.11.2020
5442 Clouds 29 1017 62 10000 4.1 130 19:19 15.11.2020
5443 Clouds 29 1018 66 10000 4.6 100 18:45 15.11.2020
5444 Clouds 30 1018 66 10000 4.6 100 18:25 15.11.2020
5445 Clouds 29 1019 70 10000 4.1 140 17:47 15.11.2020
5446 Clouds 29 1019 70 10000 4.1 140 17:26 15.11.2020
5447 Clouds 29 1019 69 10000 4.1 110 16:58 15.11.2020
5448 Clouds 29 1019 69 10000 4.1 110 16:38 15.11.2020
5449 Clouds 28 1019 69 10000 4.1 110 16:18 15.11.2020
5450 Clouds 28 1019 74 10000 4.6 110 15:42 15.11.2020
5451 Clouds 28 1019 74 10000 4.6 110 15:22 15.11.2020
5452 Clouds 27 1018 83 10000 1.5 80 14:50 15.11.2020
5453 Clouds 27 1018 83 10000 1.5 80 14:25 15.11.2020
5454 Clouds 25 1018 94 10000 4.73 117 13:41 15.11.2020
5455 Clouds 25 1017 94 10000 4.9 120 13:18 15.11.2020
5456 Clouds 25 1017 94 10000 4.35 119 12:42 15.11.2020
5457 Clouds 25 1017 94 10000 4.45 123 12:18 15.11.2020
5458 Clouds 25 1017 94 10000 1.5 90 11:42 15.11.2020
5459 Clouds 25 1017 94 10000 1.5 90 11:18 15.11.2020
5460 Clouds 25 1016 88 10000 2.6 120 10:49 15.11.2020
5461 Clouds 25 1016 88 10000 2.6 120 10:30 15.11.2020
5462 Clouds 25 1016 88 10000 2.6 110 09:46 15.11.2020
5463 Clouds 25 1016 88 10000 2.6 110 09:23 15.11.2020
5464 Clouds 26 1016 83 10000 3.1 90 08:54 15.11.2020
5465 Clouds 26 1016 83 10000 3.1 90 08:31 15.11.2020
5466 Clouds 26 1017 83 10000 3.1 100 07:44 15.11.2020
5467 Clouds 26 1018 83 10000 3.6 80 05:37 15.11.2020
5468 Clouds 26 1018 83 10000 4.1 90 04:52 15.11.2020
5469 Clouds 26 1017 78 10000 4.1 80 01:37 15.11.2020
5470 Clouds 26 1016 78 10000 3.6 70 00:29 15.11.2020
5471 Clouds 27 1016 74 10000 4.6 110 23:42 14.11.2020
5472 Clouds 28 1016 66 10000 4.1 110 22:53 14.11.2020
5473 Clouds 28 1016 66 10000 4.1 110 22:33 14.11.2020
5474 Clouds 29 1016 66 10000 4.1 110 21:55 14.11.2020
5475 Clouds 29 1016 66 10000 4.1 110 21:36 14.11.2020
5476 Clouds 29 1016 66 10000 4.1 110 21:18 14.11.2020
5477 Clouds 29 1016 66 10000 4.6 120 20:34 14.11.2020
5478 Clouds 29 1017 70 10000 4.6 120 19:58 14.11.2020
5479 Clouds 29 1017 70 10000 4.6 120 19:36 14.11.2020
5480 Clouds 29 1017 70 10000 4.6 120 19:36 14.11.2020
5481 Clouds 29 1017 70 10000 4.6 120 19:36 14.11.2020
5482 Clouds 29 1017 74 10000 5.7 110 18:57 14.11.2020
5483 Clouds 29 1017 74 10000 5.7 110 18:38 14.11.2020
5484 Clouds 29 1017 74 10000 5.7 110 18:20 14.11.2020
5485 Clouds 28 1018 88 10000 2.1 350 17:42 14.11.2020
5486 Clouds 28 1018 88 10000 2.1 350 17:23 14.11.2020
5487 Clouds 29 1018 83 10000 2.1 210 16:51 14.11.2020
5488 Clouds 28 1018 83 10000 2.1 150 16:26 14.11.2020
5489 Clouds 27 1018 88 10000 2.1 30 15:53 14.11.2020
5490 Clouds 27 1018 88 10000 2.1 30 15:31 14.11.2020
5491 Clouds 26 1017 88 10000 2.6 10 14:54 14.11.2020
5492 Clouds 26 1017 88 10000 2.6 10 14:29 14.11.2020
5493 Clouds 26 1017 88 10000 2.6 350 13:51 14.11.2020
5494 Clouds 25 1017 88 10000 2.6 350 13:29 14.11.2020
5495 Clouds 25 1016 94 10000 2.1 360 12:49 14.11.2020
5496 Clouds 25 1016 94 10000 2.1 360 12:30 14.11.2020
5497 Clouds 25 1016 94 10000 1.5 350 11:55 14.11.2020
5498 Clouds 25 1016 94 10000 1.5 350 11:36 14.11.2020
5499 Clouds 25 1016 94 10000 1.87 80 10:51 14.11.2020
5500 Clouds 25 1016 94 10000 2.15 85 10:27 14.11.2020
5501 Clouds 25 1016 88 10000 2.15 85 09:58 14.11.2020
5502 Clouds 25 1016 88 10000 2.15 85 09:40 14.11.2020
5503 Clouds 25 1016 88 10000 2.51 85 09:22 14.11.2020
5504 Clouds 25 1016 83 10000 2.1 360 08:40 14.11.2020
5505 Clouds 25 1016 83 10000 2.1 360 08:18 14.11.2020
5506 Clouds 25 1016 88 10000 1.5 10 07:41 14.11.2020
5507 Clouds 25 1016 83 10000 1.5 10 06:38 14.11.2020
5508 Clouds 25 1016 83 10000 1.5 10 06:20 14.11.2020
5509 Clouds 25 1017 83 10000 1.5 10 04:45 14.11.2020
5510 Clouds 26 1016 83 10000 3.1 60 01:42 14.11.2020
5511 Clouds 26 1015 78 10000 2.1 30 00:24 14.11.2020
5512 Clouds 26 1015 88 10000 2.1 280 23:33 13.11.2020
5513 Clouds 27 1015 88 10000 1.5 300 22:58 13.11.2020
5514 Clouds 27 1015 78 10000 3.1 70 22:39 13.11.2020
5515 Clouds 27 1015 78 10000 3.1 70 22:20 13.11.2020
5516 Clouds 28 1015 83 10000 2.1 0 21:44 13.11.2020
5517 Clouds 28 1015 83 10000 2.1 0 21:23 13.11.2020
5518 Clouds 28 1015 78 10000 3.6 90 20:51 13.11.2020
5519 Clouds 29 1015 78 10000 3.6 90 20:29 13.11.2020
5520 Clouds 29 1015 66 10000 3.52 84 19:54 13.11.2020
5521 Clouds 29 1015 66 10000 3.52 84 19:36 13.11.2020
5522 Clouds 29 1015 66 10000 2.65 73 19:18 13.11.2020
5523 Clouds 29 1016 70 10000 2.49 59 18:32 13.11.2020
5524 Clouds 28 1017 74 10000 1.8 38 17:43 13.11.2020
5525 Clouds 28 1017 74 10000 2.04 7 17:21 13.11.2020
5526 Clouds 27 1017 78 10000 2.04 7 16:51 13.11.2020
5527 Clouds 26 1017 78 10000 1.5 340 16:25 13.11.2020
5528 Clouds 26 1017 78 10000 1.5 340 16:25 13.11.2020
5529 Clouds 25 1017 100 10000 2.75 354 15:59 13.11.2020
5530 Clouds 25 1017 100 10000 2.75 354 15:39 13.11.2020
5531 Clouds 25 1017 100 10000 3.35 341 15:21 13.11.2020
5532 Clouds 25 1016 100 10000 3.35 341 14:37 13.11.2020
5533 Clouds 24 1016 94 10000 2.91 328 14:18 13.11.2020
5534 Clouds 24 1016 100 10000 2.91 328 13:32 13.11.2020
5535 Clouds 24 1015 100 10000 2.71 313 12:55 13.11.2020
5536 Clouds 23 1015 100 10000 2.71 313 12:37 13.11.2020
5537 Clouds 24 1015 100 10000 2.32 300 12:18 13.11.2020
5538 Clouds 24 1015 100 10000 2.32 300 11:45 13.11.2020
5539 Clouds 24 1015 100 10000 1.97 277 11:20 13.11.2020
5540 Clouds 24 1014 100 10000 1.97 277 10:47 13.11.2020
5541 Clouds 24 1014 100 10000 2.22 268 10:29 13.11.2020
5542 Clouds 24 1014 100 10000 2.22 268 09:47 13.11.2020
5543 Clouds 24 1014 100 10000 2.32 253 09:27 13.11.2020
5544 Clouds 24 1014 100 10000 2.32 253 09:27 13.11.2020
5545 Clouds 24 1014 100 10000 2.32 253 09:27 13.11.2020
5546 Clouds 24 1014 100 10000 1.5 210 08:53 13.11.2020
5547 Clouds 24 1014 100 10000 1.5 210 08:26 13.11.2020
5548 Clouds 24 1014 100 10000 2.1 240 07:50 13.11.2020
5549 Clouds 24 1014 100 10000 2.1 240 07:27 13.11.2020
5550 Clouds 24 1015 94 10000 2.1 150 06:55 13.11.2020
5551 Clouds 24 1015 94 10000 2.1 150 06:36 13.11.2020
5552 Clouds 24 1015 94 10000 1.5 130 05:41 13.11.2020
5553 Clouds 24 1015 100 10000 1.5 230 03:41 13.11.2020
5554 Rain 25 1014 94 4828 2.6 160 01:42 13.11.2020
5555 Mist 26 1013 100 9656 4.62 218 00:36 13.11.2020
5556 Mist 26 1013 100 3219 2.1 300 23:50 12.11.2020
5557 Mist 26 1013 94 6437 3.1 340 23:21 12.11.2020
5558 Clouds 27 1012 94 10000 5.06 199 22:55 12.11.2020
5559 Clouds 27 1012 94 10000 5.06 199 22:37 12.11.2020
5560 Mist 27 1012 88 4828 2.6 0 21:58 12.11.2020
5561 Rain 27 1012 94 10000 6.2 180 21:40 12.11.2020
5562 Clouds 26 1012 94 10000 6.2 180 21:22 12.11.2020
5563 Clouds 26 1013 94 10000 2.6 140 20:42 12.11.2020
5564 Clouds 26 1013 94 10000 2.6 140 20:23 12.11.2020
5565 Rain 26 1013 94 9656 3.6 130 19:53 12.11.2020
5566 Rain 27 1013 100 4023 5.7 160 19:34 12.11.2020
5567 Clouds 27 1013 94 10000 3.6 150 18:59 12.11.2020
5568 Clouds 27 1014 83 10000 3.1 150 18:41 12.11.2020
5569 Clouds 27 1014 83 10000 3.1 150 18:20 12.11.2020
5570 Clouds 26 1014 88 10000 3.1 200 17:40 12.11.2020
5571 Rain 26 1014 88 10000 3.1 200 17:22 12.11.2020
5572 Mist 26 1014 88 1609 2.6 220 16:45 12.11.2020
5573 Mist 27 1014 88 1609 2.6 220 16:23 12.11.2020
5574 Clouds 27 1014 88 10000 3.1 0 15:53 12.11.2020
5575 Clouds 27 1014 88 10000 3.1 0 15:28 12.11.2020
5576 Rain 26 1014 88 10000 2.1 140 14:56 12.11.2020
5577 Clouds 26 1014 88 10000 2.1 140 14:37 12.11.2020
5578 Clouds 26 1013 94 10000 1.5 150 14:18 12.11.2020
5579 Clouds 25 1013 94 10000 1.5 150 13:45 12.11.2020
5580 Clouds 25 1013 94 10000 1.5 150 13:19 12.11.2020
5581 Clouds 25 1013 94 10000 3.1 120 12:48 12.11.2020
5582 Clouds 25 1013 94 10000 3.1 120 12:25 12.11.2020
5583 Clouds 25 1012 100 10000 3.1 160 11:54 12.11.2020
5584 Clouds 25 1012 100 10000 3.1 160 11:35 12.11.2020
5585 Clouds 25 1012 94 10000 2.1 170 10:53 12.11.2020
5586 Clouds 25 1012 94 10000 2.1 170 10:53 12.11.2020
5587 Clouds 25 1012 94 10000 2.1 170 10:34 12.11.2020
5588 Clouds 25 1012 94 10000 3.1 170 09:56 12.11.2020
5589 Clouds 25 1013 88 10000 3.1 170 09:28 12.11.2020
5590 Clouds 25 1013 94 10000 4.1 150 08:59 12.11.2020
5591 Clouds 25 1013 94 10000 4.1 150 08:40 12.11.2020
5592 Clouds 25 1013 94 10000 4.1 150 08:40 12.11.2020
5593 Clouds 25 1013 94 10000 4.1 150 08:20 12.11.2020
5594 Clouds 25 1013 94 10000 3.1 150 07:54 12.11.2020
5595 Clouds 25 1013 94 10000 3.1 150 07:31 12.11.2020
5596 Clouds 25 1013 100 10000 1.5 160 06:52 12.11.2020
5597 Clouds 25 1013 100 10000 1.5 160 06:25 12.11.2020
5598 Clouds 25 1014 94 10000 3.6 140 03:50 12.11.2020
5599 Clouds 25 1014 94 10000 3.6 140 03:20 12.11.2020
5600 Rain 27 1012 83 10000 5.1 150 00:36 12.11.2020
5601 Clouds 27 1011 83 10000 5.1 150 23:44 11.11.2020
5602 Clouds 27 1011 83 10000 5.1 150 23:25 11.11.2020
5603 Clouds 28 1011 78 10000 6.2 150 22:48 11.11.2020
5604 Clouds 28 1011 78 10000 6.2 150 22:23 11.11.2020
5605 Clouds 28 1011 78 10000 8.2 160 21:58 11.11.2020
5606 Clouds 28 1011 78 10000 8.2 160 21:40 11.11.2020
5607 Clouds 28 1011 78 10000 8.2 160 21:20 11.11.2020
5608 Clouds 28 1011 78 10000 6.7 150 20:54 11.11.2020
5609 Clouds 28 1011 78 10000 7.7 150 20:36 11.11.2020
5610 Clouds 29 1011 78 10000 7.7 150 20:18 11.11.2020
5611 Clouds 29 1012 83 10000 6.7 140 19:41 11.11.2020
5612 Clouds 29 1012 83 10000 6.7 140 19:22 11.11.2020
5613 Clouds 28 1012 83 10000 6.7 140 18:44 11.11.2020
5614 Clouds 28 1012 83 10000 6.7 140 18:26 11.11.2020
5615 Clouds 28 1012 83 10000 9.8 140 17:41 11.11.2020
5616 Clouds 28 1012 83 10000 9.8 140 17:21 11.11.2020
5617 Clouds 28 1013 83 10000 8.7 130 16:44 11.11.2020
5618 Clouds 28 1013 83 10000 8.7 130 16:25 11.11.2020
5619 Clouds 27 1012 83 10000 8.2 140 15:44 11.11.2020
5620 Clouds 27 1012 83 10000 8.2 140 15:24 11.11.2020
5621 Clouds 27 1011 83 10000 8.2 130 14:51 11.11.2020
5622 Clouds 27 1011 83 10000 8.2 130 14:31 11.11.2020
5623 Clouds 27 1011 88 10000 7.7 130 13:52 11.11.2020
5624 Clouds 27 1011 88 10000 7.7 130 13:32 11.11.2020
5625 Clouds 27 1010 83 10000 7.7 140 12:40 11.11.2020
5626 Clouds 26 1010 83 10000 7.7 140 12:20 11.11.2020
5627 Clouds 26 1010 88 10000 6.7 130 11:48 11.11.2020
5628 Clouds 27 1010 88 10000 6.7 130 11:26 11.11.2020
5629 Clouds 27 1010 88 10000 5.7 140 10:40 11.11.2020
5630 Clouds 27 1010 88 10000 5.7 140 10:20 11.11.2020
5631 Clouds 27 1010 88 10000 6.7 120 09:44 11.11.2020
5632 Clouds 27 1010 88 10000 6.7 120 09:25 11.11.2020
5633 Clouds 27 1010 88 10000 6.7 130 08:46 11.11.2020
5634 Clouds 27 1010 88 10000 6.7 130 08:46 11.11.2020
5635 Clouds 27 1010 88 10000 6.7 130 08:27 11.11.2020
5636 Clouds 27 1011 83 10000 6.2 120 07:49 11.11.2020
5637 Clouds 27 1011 83 10000 6.2 120 07:49 11.11.2020
5638 Clouds 27 1011 88 10000 6.2 130 06:51 11.11.2020
5639 Clouds 26 1011 94 10000 5.1 120 06:25 11.11.2020
5640 Clouds 27 1011 88 10000 5.7 130 03:40 11.11.2020
5641 Clouds 26 1009 88 10000 5.1 110 00:59 11.11.2020
5642 Clouds 26 1009 88 10000 5.1 110 00:28 11.11.2020
5643 Clouds 25 1009 94 10000 6.7 130 23:43 10.11.2020
5644 Rain 24 1009 94 10000 6.7 130 23:24 10.11.2020
5645 Rain 25 1009 83 10000 8.7 130 22:56 10.11.2020
5646 Rain 25 1009 83 10000 8.7 130 22:27 10.11.2020
5647 Clouds 27 1009 78 10000 5.7 120 21:44 10.11.2020
5648 Clouds 27 1009 78 10000 5.7 120 21:25 10.11.2020
5649 Clouds 27 1010 74 10000 9.8 170 20:59 10.11.2020
5650 Clouds 27 1010 74 10000 9.8 170 20:41 10.11.2020
5651 Clouds 27 1010 74 10000 9.8 170 20:22 10.11.2020
5652 Clouds 28 1009 78 10000 10.3 140 19:49 10.11.2020
5653 Clouds 28 1010 78 10000 10.3 120 19:30 10.11.2020
5654 Clouds 29 1010 83 10000 9.8 130 18:59 10.11.2020
5655 Clouds 29 1011 78 10000 8.2 120 18:40 10.11.2020
5656 Clouds 29 1011 78 10000 8.2 120 18:19 10.11.2020
5657 Clouds 29 1011 79 10000 9.3 120 17:43 10.11.2020
5658 Clouds 29 1011 79 10000 9.3 120 17:25 10.11.2020
5659 Clouds 29 1011 74 10000 9.8 120 16:46 10.11.2020
5660 Clouds 29 1011 74 10000 9.8 120 16:24 10.11.2020
5661 Clouds 28 1011 78 10000 7.7 130 15:57 10.11.2020
5662 Clouds 28 1011 78 10000 7.7 130 15:38 10.11.2020
5663 Clouds 28 1011 78 10000 7.7 130 15:20 10.11.2020
5664 Clouds 28 1010 83 10000 7.2 120 14:41 10.11.2020
5665 Clouds 27 1010 83 10000 7.2 120 14:22 10.11.2020
5666 Clouds 27 1009 88 10000 5.1 110 13:41 10.11.2020
5667 Clouds 26 1009 88 10000 5.1 110 13:23 10.11.2020
5668 Clouds 26 1009 83 10000 6.7 100 12:58 10.11.2020
5669 Clouds 26 1009 83 10000 6.7 100 12:39 10.11.2020
5670 Clouds 26 1009 83 10000 6.7 100 12:20 10.11.2020
5671 Clouds 26 1009 83 10000 6.2 100 11:39 10.11.2020
5672 Clouds 26 1009 83 10000 6.2 100 11:19 10.11.2020
5673 Clouds 26 1008 88 10000 8.2 110 10:42 10.11.2020
5674 Clouds 26 1008 88 10000 8.2 110 10:24 10.11.2020
5675 Clouds 26 1008 94 10000 6.2 100 09:51 10.11.2020
5676 Clouds 26 1008 88 10000 6.7 110 09:26 10.11.2020
5677 Clouds 26 1009 83 10000 6.7 110 08:58 10.11.2020
5678 Clouds 26 1009 83 10000 6.7 110 08:30 10.11.2020
5679 Clouds 26 1009 88 10000 7.7 110 07:56 10.11.2020
5680 Clouds 27 1009 88 10000 7.2 110 07:37 10.11.2020
5681 Clouds 27 1009 88 10000 7.2 110 07:18 10.11.2020
5682 Clouds 27 1009 88 10000 8.7 110 06:38 10.11.2020
5683 Clouds 27 1009 88 10000 8.7 110 05:27 10.11.2020
5684 Mist 26 1009 88 6437 5.7 90 02:59 10.11.2020
5685 Clouds 27 1008 78 10000 9.8 110 01:41 10.11.2020
5686 Clouds 27 1008 88 10000 7.2 100 00:30 10.11.2020
5687 Clouds 27 1007 83 10000 7.7 100 23:42 09.11.2020
5688 Clouds 27 1008 83 8047 6.7 120 22:58 09.11.2020
5689 Clouds 27 1007 83 10000 7.7 100 22:40 09.11.2020
5690 Clouds 28 1007 78 10000 8.7 100 22:20 09.11.2020
5691 Clouds 28 1007 78 10000 8.7 100 21:40 09.11.2020
5692 Clouds 28 1007 78 10000 8.7 100 21:21 09.11.2020
5693 Clouds 29 1007 78 10000 9.8 100 20:41 09.11.2020
5694 Clouds 29 1007 78 10000 9.8 100 20:22 09.11.2020
5695 Clouds 29 1007 78 10000 9.3 110 19:46 09.11.2020
5696 Clouds 29 1007 78 10000 9.3 110 19:23 09.11.2020
5697 Clouds 29 1008 78 10000 8.7 110 18:58 09.11.2020
5698 Clouds 28 1008 78 10000 8.7 110 18:39 09.11.2020
5699 Clouds 28 1008 83 10000 8.7 100 18:19 09.11.2020
5700 Clouds 28 1008 83 10000 8.7 100 17:43 09.11.2020
5701 Clouds 28 1008 83 10000 8.7 100 17:25 09.11.2020
5702 Clouds 27 1009 88 10000 9.8 110 16:44 09.11.2020
5703 Clouds 27 1009 88 10000 9.8 110 16:23 09.11.2020
5704 Rain 26 1008 88 4023 7.2 120 15:45 09.11.2020
5705 Rain 26 1008 88 4023 7.2 120 15:25 09.11.2020
5706 Rain 26 1007 88 3219 10.3 110 14:49 09.11.2020
5707 Rain 26 1007 88 10000 9.3 100 14:28 09.11.2020
5708 Rain 25 1007 88 10000 8.7 110 13:53 09.11.2020
5709 Rain 25 1006 100 4023 7.2 110 13:28 09.11.2020
5710 Rain 24 1006 94 3219 7.7 130 12:58 09.11.2020
5711 Rain 24 1005 94 805 11.3 110 12:40 09.11.2020
5712 Rain 24 1005 100 805 7.7 130 12:20 09.11.2020
5713 Rain 25 1005 94 402 8.2 100 11:42 09.11.2020
5714 Rain 25 1005 94 402 8.2 100 11:24 09.11.2020
5715 Rain 25 1004 94 4828 8.7 110 10:44 09.11.2020
5716 Rain 25 1004 94 4828 8.7 110 10:25 09.11.2020
5717 Rain 25 1004 100 10000 10.3 110 09:54 09.11.2020
5718 Rain 25 1004 100 402 7.7 120 09:29 09.11.2020
5719 Rain 24 1003 94 10000 7.2 110 08:50 09.11.2020
5720 Rain 24 1003 94 10000 7.2 110 08:27 09.11.2020
5721 Rain 24 1003 88 10000 12.9 100 07:43 09.11.2020
5722 Rain 25 1003 88 10000 12.9 100 07:22 09.11.2020
5723 Rain 24 1004 94 8047 13.4 90 06:48 09.11.2020
5724 Clouds 25 1004 94 10000 7.7 60 03:51 09.11.2020
5725 Rain 25 1004 94 10000 9.8 50 01:57 09.11.2020
5726 Clouds 25 1004 94 10000 9.8 50 01:39 09.11.2020
5727 Rain 24 1004 94 6437 8.2 60 00:35 09.11.2020
5728 Rain 24 1004 100 1609 7.7 50 23:40 08.11.2020
5729 Rain 24 1004 100 1609 7.7 50 23:22 08.11.2020
5730 Rain 24 1005 94 10000 7.2 50 22:42 08.11.2020
5731 Rain 25 1005 94 10000 7.2 50 22:21 08.11.2020
5732 Rain 24 1005 88 10000 6.7 50 21:45 08.11.2020
5733 Rain 24 1005 94 10000 7.7 70 21:21 08.11.2020
5734 Clouds 24 1006 94 10000 6.2 60 20:56 08.11.2020
5735 Mist 24 1006 94 1609 11.8 70 20:38 08.11.2020
5736 Rain 24 1006 94 1609 11.8 70 20:19 08.11.2020
5737 Rain 24 1006 94 1609 11.8 70 20:19 08.11.2020
5738 Rain 24 1005 20 2904 4.02 72 19:43 08.11.2020
5739 Rain 24 1007 88 9656 6.7 60 19:21 08.11.2020
5740 Rain 24 1008 94 4828 10.8 80 18:55 08.11.2020
5741 Mist 25 1008 94 4828 10.8 80 18:37 08.11.2020
5742 Mist 24 1008 94 4828 10.8 80 18:19 08.11.2020
5743 Rain 25 1008 88 9656 6.7 60 17:41 08.11.2020
5744 Rain 25 1008 88 9656 6.7 60 17:20 08.11.2020
5745 Rain 25 1009 83 9656 9.3 60 16:57 08.11.2020
5746 Rain 25 1009 88 3219 12.9 80 16:37 08.11.2020
5747 Rain 25 1009 94 1609 10.3 80 16:18 08.11.2020
5748 Rain 24 1009 94 8047 7.2 70 15:44 08.11.2020
5749 Mist 24 1009 94 8047 7.2 70 15:25 08.11.2020
5750 Rain 24 1009 88 9656 7.2 70 14:42 08.11.2020
5751 Rain 24 1009 88 9656 7.2 70 14:23 08.11.2020
5752 Rain 24 1009 88 9656 7.2 70 14:23 08.11.2020
5753 Rain 25 1009 88 10000 8.7 80 13:50 08.11.2020
5754 Rain 24 1009 88 10000 8.2 80 13:24 08.11.2020
5755 Rain 24 1009 88 10000 8.2 80 13:24 08.11.2020
5756 Rain 25 1008 83 9656 6.7 70 12:47 08.11.2020
5757 Rain 25 1008 88 10000 8.7 90 12:29 08.11.2020
5758 Mist 25 1008 88 8047 6.2 70 11:59 08.11.2020
5759 Mist 25 1008 88 8047 6.2 70 11:41 08.11.2020
5760 Rain 25 1008 88 8047 6.2 70 11:22 08.11.2020
5761 Rain 25 1008 88 10000 6.7 80 10:52 08.11.2020
5762 Rain 25 1008 83 10000 6.7 70 10:20 08.11.2020
5763 Clouds 25 1008 83 10000 5.1 70 09:59 08.11.2020
5764 Clouds 25 1008 83 10000 5.1 70 09:41 08.11.2020
5765 Clouds 25 1009 88 10000 8.2 80 09:18 08.11.2020
5766 Clouds 25 1009 88 10000 8.2 80 08:42 08.11.2020
5767 Clouds 24 1009 88 10000 8.2 80 08:22 08.11.2020
5768 Rain 25 1009 88 10000 6.7 70 07:53 08.11.2020
5769 Clouds 24 1010 88 10000 5.7 70 07:31 08.11.2020
5770 Rain 25 1010 88 10000 4.6 60 06:27 08.11.2020
5771 Clouds 24 1010 94 10000 3.6 20 05:54 08.11.2020
5772 Rain 24 1012 94 6437 5.1 60 04:50 08.11.2020
5773 Clouds 26 1011 83 10000 3.6 40 01:55 08.11.2020
5774 Clouds 25 1011 83 10000 4.1 60 01:19 08.11.2020
5775 Clouds 25 1011 83 10000 4.1 60 01:19 08.11.2020
5776 Clouds 25 1011 83 10000 6.2 70 00:30 08.11.2020
5777 Rain 25 1011 94 10000 8.2 80 23:50 07.11.2020
5778 Rain 25 1011 83 10000 5.7 50 23:31 07.11.2020
5779 Rain 25 1011 83 10000 5.7 50 23:31 07.11.2020
5780 Clouds 26 1010 78 10000 7.7 70 22:48 07.11.2020
5781 Clouds 26 1010 78 10000 7.7 70 22:28 07.11.2020
5782 Clouds 26 1011 78 10000 6.7 70 21:58 07.11.2020
5783 Clouds 26 1011 78 10000 8.2 70 21:39 07.11.2020
5784 Clouds 26 1011 78 10000 6.7 70 21:19 07.11.2020
5785 Clouds 27 1011 74 10000 9.3 90 20:45 07.11.2020
5786 Clouds 27 1011 74 10000 9.3 90 20:26 07.11.2020
5787 Clouds 27 1012 74 10000 7.2 90 19:46 07.11.2020
5788 Clouds 27 1011 74 10000 9.3 80 19:27 07.11.2020
5789 Clouds 27 1013 78 10000 6.7 60 18:45 07.11.2020
5790 Clouds 27 1013 78 10000 6.7 60 18:26 07.11.2020
5791 Clouds 27 1013 78 10000 8.2 80 17:53 07.11.2020
5792 Clouds 27 1013 78 10000 8.2 80 17:34 07.11.2020
5793 Clouds 27 1014 74 10000 8.2 70 16:47 07.11.2020
5794 Clouds 27 1014 74 10000 8.2 70 16:26 07.11.2020
5795 Clouds 27 1014 69 10000 6.2 70 15:58 07.11.2020
5796 Clouds 27 1014 69 10000 6.2 70 15:40 07.11.2020
5797 Clouds 27 1014 69 10000 6.2 70 15:20 07.11.2020
5798 Clouds 27 1014 69 10000 6.2 70 14:43 07.11.2020
5799 Clouds 26 1014 69 10000 6.2 70 14:24 07.11.2020
5800 Clouds 26 1013 65 10000 7.2 70 13:55 07.11.2020
5801 Clouds 26 1013 65 10000 7.2 70 13:30 07.11.2020
5802 Clouds 26 1012 74 10000 6.7 70 12:47 07.11.2020
5803 Clouds 26 1012 74 10000 6.7 70 12:25 07.11.2020
5804 Clouds 26 1012 74 10000 6.7 70 11:43 07.11.2020
5805 Clouds 26 1012 74 10000 6.7 70 11:22 07.11.2020
5806 Clouds 26 1012 74 10000 8.2 80 10:45 07.11.2020
5807 Clouds 26 1012 74 10000 8.2 80 10:27 07.11.2020
5808 Clouds 26 1012 78 10000 8.2 80 09:53 07.11.2020
5809 Clouds 26 1012 83 10000 4.6 70 09:34 07.11.2020
5810 Clouds 25 1013 83 10000 6.7 70 08:53 07.11.2020
5811 Clouds 25 1013 83 10000 6.7 70 08:35 07.11.2020
5812 Clouds 25 1013 83 10000 5.1 70 07:51 07.11.2020
5813 Clouds 25 1013 83 10000 5.1 70 07:29 07.11.2020
5814 Clouds 25 1014 88 10000 5.1 100 06:47 07.11.2020
5815 Clouds 25 1014 83 10000 7.2 80 05:24 07.11.2020
5816 Clouds 26 1014 74 10000 6.7 70 03:24 07.11.2020
5817 Clouds 26 1014 78 10000 4.1 70 01:29 07.11.2020
5818 Clouds 26 1013 74 10000 6.7 80 00:59 07.11.2020
5819 Clouds 26 1013 74 10000 6.7 80 00:22 07.11.2020
5820 Clouds 26 1013 74 10000 4.6 70 23:24 06.11.2020
5821 Clouds 27 1013 83 10000 6.2 70 22:44 06.11.2020
5822 Clouds 27 1013 69 10000 6.7 70 22:20 06.11.2020
5823 Clouds 27 1013 69 10000 6.2 70 21:47 06.11.2020
5824 Clouds 28 1013 69 10000 6.2 70 21:22 06.11.2020
5825 Clouds 28 1013 69 10000 7.2 80 20:59 06.11.2020
5826 Clouds 28 1013 69 10000 7.2 80 20:41 06.11.2020
5827 Clouds 28 1013 69 10000 7.2 80 20:19 06.11.2020
5828 Clouds 28 1014 69 10000 8.2 80 19:45 06.11.2020
5829 Clouds 28 1014 69 10000 8.2 80 19:26 06.11.2020
5830 Clouds 28 1015 69 10000 8.2 60 18:46 06.11.2020
5831 Clouds 28 1015 69 10000 8.2 60 18:24 06.11.2020
5832 Clouds 28 1016 74 10000 5.7 80 17:51 06.11.2020
5833 Clouds 28 1016 74 10000 5.7 80 17:31 06.11.2020
5834 Clouds 27 1016 78 10000 6.2 60 16:50 06.11.2020
5835 Clouds 27 1016 78 10000 6.2 60 16:32 06.11.2020
5836 Clouds 27 1016 78 10000 6.2 70 15:55 06.11.2020
5837 Clouds 27 1016 69 10000 7.2 80 15:33 06.11.2020
5838 Clouds 26 1015 83 10000 2.6 50 14:54 06.11.2020
5839 Clouds 26 1015 83 10000 2.6 50 14:28 06.11.2020
5840 Clouds 25 1015 88 10000 3.6 60 13:50 06.11.2020
5841 Clouds 25 1015 88 10000 3.6 60 13:26 06.11.2020
5842 Clouds 25 1015 94 10000 2.6 50 12:55 06.11.2020
5843 Clouds 25 1015 94 10000 2.6 50 12:36 06.11.2020
5844 Clouds 25 1015 94 10000 2.6 60 12:18 06.11.2020
5845 Clouds 25 1015 94 10000 1.5 50 11:36 06.11.2020
5846 Clouds 25 1015 74 4828 3.1 60 10:58 06.11.2020
5847 Clouds 25 1015 74 4828 3.1 60 10:34 06.11.2020
5848 Clouds 25 1015 74 10000 3.6 60 09:55 06.11.2020
5849 Clouds 26 1015 74 10000 3.6 60 09:36 06.11.2020
5850 Clouds 26 1015 74 10000 3.6 60 09:18 06.11.2020
5851 Clouds 26 1015 74 10000 3.6 60 08:46 06.11.2020
5852 Clouds 25 1015 74 10000 3.6 60 08:19 06.11.2020
5853 Clouds 26 1016 78 10000 3.6 60 07:42 06.11.2020
5854 Clouds 26 1016 78 10000 3.6 60 07:18 06.11.2020
5855 Clouds 26 1016 78 10000 4.6 70 06:40 06.11.2020
5856 Clouds 26 1017 78 10000 5.7 80 05:37 06.11.2020
5857 Clouds 26 1017 83 10000 4.1 60 01:59 06.11.2020
5858 Mist 25 1017 88 9656 5.7 110 00:29 06.11.2020
5859 Clouds 25 1017 78 10000 4.6 70 23:51 05.11.2020
5860 Clouds 25 1017 78 10000 4.6 70 23:24 05.11.2020
5861 Rain 25 1017 78 10000 4.6 80 22:45 05.11.2020
5862 Clouds 25 1017 78 10000 4.6 80 22:26 05.11.2020
5863 Clouds 25 1017 94 10000 7.7 80 21:57 05.11.2020
5864 Clouds 25 1017 94 10000 7.7 80 21:38 05.11.2020
5865 Clouds 25 1017 94 10000 7.7 80 21:18 05.11.2020
5866 Rain 25 1017 78 10000 9.3 70 20:43 05.11.2020
5867 Rain 26 1017 94 3219 10.3 110 20:22 05.11.2020
5868 Clouds 27 1017 69 10000 10.3 90 19:44 05.11.2020
5869 Clouds 28 1017 69 10000 10.3 90 19:26 05.11.2020
5870 Clouds 28 1017 69 10000 10.3 90 19:26 05.11.2020
5871 Clouds 28 1018 74 10000 6.7 70 18:57 05.11.2020
5872 Clouds 28 1018 74 10000 6.7 70 18:38 05.11.2020
5873 Clouds 28 1019 69 10000 9.8 80 18:20 05.11.2020
5874 Clouds 28 1019 69 10000 9.8 80 17:43 05.11.2020
5875 Clouds 28 1019 69 10000 9.8 80 17:25 05.11.2020
5876 Clouds 27 1019 74 10000 8.2 80 16:46 05.11.2020
5877 Clouds 27 1019 74 10000 8.2 80 16:27 05.11.2020
5878 Clouds 27 1019 78 10000 7.7 80 15:51 05.11.2020
5879 Clouds 27 1019 83 10000 5.7 80 15:27 05.11.2020
5880 Clouds 26 1019 83 10000 8.2 90 14:55 05.11.2020
5881 Clouds 26 1019 83 10000 8.2 90 14:36 05.11.2020
5882 Clouds 25 1019 83 10000 8.2 90 14:18 05.11.2020
5883 Clouds 25 1019 94 10000 3.6 60 13:40 05.11.2020
5884 Mist 24 1019 94 8047 5.1 70 12:56 05.11.2020
5885 Mist 24 1019 94 8047 5.1 70 12:56 05.11.2020
5886 Mist 24 1018 88 9656 4.6 70 12:38 05.11.2020
5887 Rain 24 1018 88 9656 4.6 70 12:19 05.11.2020
5888 Clouds 25 1018 83 10000 5.1 60 11:41 05.11.2020
5889 Rain 25 1018 83 10000 5.1 60 11:22 05.11.2020
5890 Clouds 25 1018 78 10000 5.7 70 10:48 05.11.2020
5891 Clouds 25 1018 78 10000 5.7 70 10:26 05.11.2020
5892 Clouds 26 1018 78 10000 6.2 70 09:49 05.11.2020
5893 Clouds 26 1018 78 10000 6.2 70 09:24 05.11.2020
5894 Clouds 26 1019 78 10000 7.2 70 08:49 05.11.2020
5895 Clouds 26 1019 78 10000 7.2 70 08:49 05.11.2020
5896 Clouds 25 1019 83 10000 5.7 60 08:30 05.11.2020
5897 Clouds 25 1019 83 10000 3.6 50 07:55 05.11.2020
5898 Clouds 25 1019 83 10000 3.6 50 07:27 05.11.2020
5899 Clouds 25 1020 83 10000 5.1 60 06:43 05.11.2020
5900 Clouds 25 1021 73 10000 8.7 80 05:59 05.11.2020
5901 Clouds 26 1020 69 10000 7.2 60 02:42 05.11.2020
5902 Clouds 25 1020 69 10000 7.7 50 00:35 05.11.2020
5903 Clouds 26 1020 69 10000 6.7 60 23:51 04.11.2020
5904 Clouds 26 1020 69 10000 6.7 60 23:27 04.11.2020
5905 Clouds 26 1020 69 10000 8.2 70 22:57 04.11.2020
5906 Clouds 26 1020 69 10000 8.2 70 22:37 04.11.2020
5907 Clouds 26 1020 69 10000 8.2 70 22:19 04.11.2020
5908 Clouds 26 1020 61 10000 7.7 50 21:43 04.11.2020
5909 Clouds 26 1020 61 10000 7.7 50 21:25 04.11.2020
5910 Clouds 27 1020 61 10000 9.3 60 20:46 04.11.2020
5911 Clouds 27 1020 61 10000 9.3 60 20:28 04.11.2020
5912 Clouds 26 1021 65 10000 6.7 60 19:55 04.11.2020
5913 Clouds 26 1021 65 10000 6.7 60 19:37 04.11.2020
5914 Clouds 26 1021 65 10000 6.7 60 19:19 04.11.2020
5915 Clouds 26 1021 61 10000 10.3 60 18:39 04.11.2020
5916 Clouds 26 1021 61 10000 10.3 60 18:21 04.11.2020
5917 Clouds 26 1022 61 10000 9.3 70 17:46 04.11.2020
5918 Clouds 26 1022 61 10000 9.3 70 17:25 04.11.2020
5919 Clouds 26 1022 61 10000 7.7 70 16:45 04.11.2020
5920 Clouds 26 1022 61 10000 7.7 70 16:25 04.11.2020
5921 Clouds 25 1021 57 10000 6.2 60 15:55 04.11.2020
5922 Clouds 25 1022 57 10000 8.2 70 15:37 04.11.2020
5923 Clouds 25 1021 57 10000 6.2 60 15:18 04.11.2020
5924 Clouds 25 1021 57 10000 5.7 60 14:42 04.11.2020
5925 Clouds 25 1021 57 10000 5.7 60 14:24 04.11.2020
5926 Clouds 24 1020 60 10000 4.6 60 13:50 04.11.2020
5927 Clouds 24 1020 60 10000 4.6 60 13:21 04.11.2020
5928 Clouds 24 1020 64 10000 4.6 60 12:56 04.11.2020
5929 Clouds 24 1020 64 10000 4.6 60 12:38 04.11.2020
5930 Clouds 24 1020 64 10000 4.6 60 12:19 04.11.2020
5931 Clouds 24 1020 69 10000 5.1 50 11:44 04.11.2020
5932 Clouds 24 1020 69 10000 5.1 50 11:20 04.11.2020
5933 Clouds 24 1019 60 10000 5.1 60 10:47 04.11.2020
5934 Clouds 24 1019 60 10000 5.1 60 10:23 04.11.2020
5935 Clouds 24 1020 60 10000 5.1 50 09:54 04.11.2020
5936 Clouds 24 1020 60 10000 5.1 50 09:26 04.11.2020
5937 Clouds 24 1020 60 10000 5.7 50 08:47 04.11.2020
5938 Clouds 24 1020 60 10000 5.7 50 08:22 04.11.2020
5939 Clouds 24 1020 57 10000 3.6 50 07:56 04.11.2020
5940 Clouds 24 1020 57 10000 3.6 50 07:30 04.11.2020
5941 Clouds 24 1021 53 10000 5.1 70 06:56 04.11.2020
5942 Clouds 24 1021 53 10000 5.1 70 06:37 04.11.2020
5943 Clouds 24 1021 53 10000 5.1 70 06:37 04.11.2020
5944 Clouds 24 1021 57 10000 5.7 50 04:18 04.11.2020
5945 Clouds 24 1020 53 10000 4.6 50 02:28 04.11.2020
5946 Clouds 24 1020 53 10000 5.1 60 01:22 04.11.2020
5947 Clouds 24 1020 60 10000 7.7 70 23:50 03.11.2020
5948 Clouds 24 1020 60 10000 7.7 70 23:24 03.11.2020
5949 Clouds 25 1019 50 10000 9.3 70 22:42 03.11.2020
5950 Clouds 25 1019 50 10000 7.2 40 22:22 03.11.2020
5951 Clouds 25 1019 54 10000 8.2 60 21:59 03.11.2020
5952 Clouds 25 1019 54 10000 8.2 60 21:41 03.11.2020
5953 Clouds 25 1019 54 10000 8.2 60 21:21 03.11.2020
5954 Clouds 26 1019 50 10000 9.3 60 20:45 03.11.2020
5955 Clouds 26 1019 50 10000 9.3 60 20:26 03.11.2020
5956 Clouds 26 1020 44 10000 8.2 60 19:45 03.11.2020
5957 Clouds 26 1020 44 10000 8.2 60 19:25 03.11.2020
5958 Clouds 26 1020 44 10000 8.2 60 19:25 03.11.2020
5959 Clouds 26 1020 50 10000 8.2 50 18:56 03.11.2020
5960 Clouds 26 1020 54 10000 8.7 50 18:38 03.11.2020
5961 Clouds 26 1020 54 10000 8.7 50 18:18 03.11.2020
5962 Clouds 26 1021 50 10000 10.3 70 17:42 03.11.2020
5963 Clouds 26 1021 50 10000 10.3 70 17:23 03.11.2020
5964 Clouds 25 1021 53 10000 7.7 60 16:45 03.11.2020
5965 Clouds 25 1021 53 10000 7.7 60 16:25 03.11.2020
5966 Clouds 24 1021 50 10000 10.3 50 15:52 03.11.2020
5967 Clouds 24 1021 50 10000 10.3 50 15:29 03.11.2020
5968 Clouds 24 1020 60 10000 6.2 50 14:53 03.11.2020
5969 Clouds 24 1020 60 10000 6.2 50 14:33 03.11.2020
5970 Clouds 23 1019 60 10000 5.1 50 13:47 03.11.2020
5971 Clouds 23 1019 60 10000 5.1 50 13:26 03.11.2020
5972 Clouds 23 1019 56 10000 6.2 40 12:59 03.11.2020
5973 Clouds 23 1019 56 10000 6.2 40 12:41 03.11.2020
5974 Clouds 23 1019 56 10000 6.2 40 12:20 03.11.2020
5975 Clouds 23 1019 56 10000 6.2 50 11:46 03.11.2020
5976 Clouds 23 1019 56 10000 6.2 50 11:21 03.11.2020
5977 Clouds 23 1018 56 10000 4.6 40 10:41 03.11.2020
5978 Clouds 23 1018 56 10000 4.6 40 10:22 03.11.2020
5979 Clouds 23 1019 56 10000 5.1 40 09:59 03.11.2020
5980 Clouds 23 1019 56 10000 5.1 40 09:41 03.11.2020
5981 Clouds 23 1019 56 10000 5.1 40 09:18 03.11.2020
5982 Clouds 23 1019 60 10000 8.7 50 08:44 03.11.2020
5983 Clouds 23 1019 60 10000 8.7 50 08:25 03.11.2020
5984 Clouds 23 1019 60 10000 6.7 50 07:35 03.11.2020
5985 Clouds 23 1019 56 10000 5.7 50 06:53 03.11.2020
5986 Clouds 23 1019 56 10000 5.7 50 06:20 03.11.2020
5987 Clouds 23 1020 56 10000 6.7 40 03:38 03.11.2020
5988 Clouds 24 1018 57 10000 6.2 20 00:43 03.11.2020
5989 Clouds 24 1018 57 10000 6.2 20 00:20 03.11.2020
5990 Clouds 24 1017 64 10000 8.2 30 23:41 02.11.2020
5991 Clouds 24 1017 65 10000 9.3 30 22:57 02.11.2020
5992 Clouds 25 1017 65 10000 9.3 30 22:37 02.11.2020
5993 Clouds 25 1017 61 10000 9.3 30 22:19 02.11.2020
5994 Clouds 25 1016 61 10000 5.7 30 21:39 02.11.2020
5995 Clouds 25 1017 61 10000 9.3 30 21:20 02.11.2020
5996 Clouds 25 1016 65 10000 8.2 20 20:42 02.11.2020
5997 Clouds 25 1017 69 10000 7.2 20 20:20 02.11.2020
5998 Clouds 26 1017 69 10000 7.2 20 19:59 02.11.2020
5999 Clouds 26 1017 69 10000 7.2 20 19:41 02.11.2020
6000 Clouds 26 1017 69 10000 7.2 20 19:21 02.11.2020
6001 Clouds 26 1017 74 10000 5.7 20 18:41 02.11.2020
6002 Clouds 26 1017 74 10000 5.7 20 18:21 02.11.2020
6003 Clouds 26 1017 74 10000 6.7 20 17:56 02.11.2020
6004 Clouds 26 1017 74 10000 6.7 20 17:37 02.11.2020
6005 Clouds 26 1018 74 10000 6.2 30 17:18 02.11.2020
6006 Clouds 26 1018 74 10000 6.2 30 16:40 02.11.2020
6007 Clouds 26 1018 74 10000 6.2 30 16:21 02.11.2020
6008 Clouds 26 1018 74 10000 5.1 350 15:39 02.11.2020
6009 Clouds 26 1018 74 10000 5.1 350 15:21 02.11.2020
6010 Clouds 25 1017 83 10000 6.2 360 14:53 02.11.2020
6011 Clouds 25 1017 83 10000 6.2 360 14:20 02.11.2020
6012 Clouds 25 1017 83 10000 4.6 360 13:53 02.11.2020
6013 Clouds 25 1016 83 10000 3.6 360 13:23 02.11.2020
6014 Clouds 24 1016 88 10000 5.1 360 12:55 02.11.2020
6015 Clouds 25 1016 94 10000 5.7 10 12:30 02.11.2020
6016 Clouds 25 1015 88 10000 3.6 340 11:56 02.11.2020
6017 Clouds 25 1015 88 10000 2.6 340 11:37 02.11.2020
6018 Clouds 25 1015 88 10000 2.6 340 11:19 02.11.2020
6019 Clouds 25 1015 88 10000 4.84 12 10:42 02.11.2020
6020 Clouds 25 1015 88 10000 4.15 18 10:21 02.11.2020
6021 Clouds 25 1015 88 10000 4.15 18 09:49 02.11.2020
6022 Clouds 25 1015 88 10000 3.18 28 09:24 02.11.2020
6023 Clear 25 1016 88 10000 1.5 330 08:45 02.11.2020
6024 Clouds 25 1015 88 10000 1.5 320 08:24 02.11.2020
6025 Clouds 25 1016 88 10000 2.58 29 07:50 02.11.2020
6026 Clouds 25 1016 88 10000 2.58 29 07:50 02.11.2020
6027 Clouds 26 1016 88 10000 2.17 50 06:59 02.11.2020
6028 Clouds 26 1016 88 10000 3.5 54 06:36 02.11.2020
6029 Clouds 27 1016 83 10000 3.47 55 03:27 02.11.2020
6030 Clouds 28 1016 78 10000 2.1 70 01:25 02.11.2020
6031 Clouds 27 1016 83 10000 4.1 100 00:35 02.11.2020
6032 Clouds 28 1016 74 10000 3.1 60 23:42 01.11.2020
6033 Clouds 28 1016 74 10000 3.1 60 23:24 01.11.2020
6034 Clouds 28 1016 78 10000 3.6 70 22:46 01.11.2020
6035 Clouds 29 1016 78 10000 3.6 70 22:26 01.11.2020
6036 Clouds 29 1016 78 10000 5.1 70 21:59 01.11.2020
6037 Clouds 29 1016 78 10000 5.1 70 21:59 01.11.2020
6038 Clouds 29 1016 78 10000 5.1 70 21:38 01.11.2020
6039 Clouds 29 1016 78 10000 5.1 70 21:20 01.11.2020
6040 Clouds 30 1016 78 10000 5.1 80 20:42 01.11.2020
6041 Clouds 30 1016 78 10000 5.1 80 20:23 01.11.2020
6042 Clouds 30 1017 66 10000 5.1 80 19:43 01.11.2020
6043 Clouds 30 1017 66 10000 5.1 80 19:25 01.11.2020
6044 Clouds 30 1018 74 10000 6.2 90 18:54 01.11.2020
6045 Clouds 30 1018 74 10000 6.2 90 18:36 01.11.2020
6046 Clouds 30 1018 74 10000 6.2 90 18:18 01.11.2020
6047 Clouds 30 1018 70 10000 5.7 80 17:41 01.11.2020
6048 Clouds 29 1018 70 10000 5.7 80 17:22 01.11.2020
6049 Clouds 30 1019 70 10000 6.2 90 16:42 01.11.2020
6050 Clouds 29 1019 70 10000 6.2 90 16:21 01.11.2020
6051 Clouds 29 1018 78 10000 6.2 90 15:54 01.11.2020
6052 Clouds 29 1018 78 10000 6.2 90 15:36 01.11.2020
6053 Clouds 29 1018 78 10000 6.2 90 15:18 01.11.2020
6054 Clouds 28 1018 78 10000 4.6 90 14:44 01.11.2020
6055 Clouds 28 1018 78 10000 4.6 90 14:21 01.11.2020
6056 Clouds 27 1018 83 10000 2.6 80 13:49 01.11.2020
6057 Clouds 27 1018 83 10000 2.6 80 13:31 01.11.2020
6058 Clouds 27 1017 83 10000 5.27 85 12:44 01.11.2020
6059 Clouds 27 1017 83 10000 5.27 85 12:44 01.11.2020
6060 Clouds 27 1017 83 10000 5.7 81 12:26 01.11.2020
6061 Clouds 27 1017 83 10000 3.1 100 11:55 01.11.2020
6062 Clouds 27 1017 83 10000 3.1 100 11:37 01.11.2020
6063 Clouds 27 1017 78 10000 3.1 80 11:18 01.11.2020
6064 Clouds 27 1017 78 10000 3.1 80 10:40 01.11.2020
6065 Clouds 27 1017 78 10000 3.1 80 10:22 01.11.2020
6066 Clouds 27 1017 83 10000 2.6 90 09:46 01.11.2020
6067 Clouds 26 1018 83 10000 3.1 90 08:50 01.11.2020
6068 Clouds 27 1018 83 10000 3.1 90 08:24 01.11.2020
6069 Clouds 26 1018 83 10000 3.6 90 07:45 01.11.2020
6070 Clouds 27 1019 83 10000 4.1 80 05:30 01.11.2020
6071 Clouds 26 1018 83 10000 3.1 20 01:52 01.11.2020
6072 Rain 26 1018 88 10000 3.1 40 00:53 01.11.2020
6073 Clouds 27 1017 83 10000 4.1 100 23:39 31.10.2020
6074 Clouds 27 1017 83 10000 4.1 100 23:18 31.10.2020
6075 Clouds 28 1017 70 10000 6.2 80 22:43 31.10.2020
6076 Clouds 28 1017 70 10000 6.2 80 22:23 31.10.2020
6077 Clouds 29 1017 66 10000 5.7 80 21:46 31.10.2020
6078 Clouds 29 1017 66 10000 5.7 80 21:20 31.10.2020
6079 Clouds 29 1017 58 10000 4.1 60 20:39 31.10.2020
6080 Clouds 29 1017 58 10000 4.1 60 20:19 31.10.2020
6081 Clouds 29 1018 70 10000 5.1 80 19:44 31.10.2020
6082 Clouds 29 1018 70 10000 5.1 80 19:24 31.10.2020
6083 Clouds 29 1018 66 10000 5.7 90 18:56 31.10.2020
6084 Clouds 29 1018 66 10000 5.7 90 18:38 31.10.2020
6085 Clouds 29 1019 74 10000 3.6 70 17:44 31.10.2020
6086 Clouds 29 1019 74 10000 3.6 70 17:25 31.10.2020
6087 Clouds 29 1019 78 10000 2.6 60 16:55 31.10.2020
6088 Clouds 29 1019 78 10000 2.6 60 16:33 31.10.2020
6089 Clouds 28 1019 78 10000 3.6 60 15:55 31.10.2020
6090 Clouds 27 1018 88 10000 2.6 90 15:26 31.10.2020
6091 Clouds 26 1018 88 10000 2.1 60 14:55 31.10.2020
6092 Clouds 26 1018 88 10000 2.1 60 14:32 31.10.2020
6093 Clouds 25 1017 94 10000 4.24 79 13:55 31.10.2020
6094 Clouds 25 1017 94 10000 4.24 79 13:37 31.10.2020
6095 Clouds 25 1017 94 10000 4.41 72 13:18 31.10.2020
6096 Clouds 25 1017 88 10000 3.1 30 12:25 31.10.2020
6097 Clouds 25 1016 94 10000 2.1 40 11:42 31.10.2020
6098 Clouds 25 1016 94 10000 2.1 40 11:23 31.10.2020
6099 Clouds 25 1016 94 10000 1.5 360 10:49 31.10.2020
6100 Clouds 25 1016 94 10000 1.5 360 10:30 31.10.2020
6101 Clouds 25 1015 94 10000 1.5 40 09:40 31.10.2020
6102 Clouds 25 1015 94 10000 1.5 40 09:20 31.10.2020
6103 Clouds 25 1016 88 10000 1.5 360 08:28 31.10.2020
6104 Clouds 25 1016 94 10000 3.6 50 07:47 31.10.2020
6105 Clouds 25 1016 94 10000 3.6 50 07:26 31.10.2020
6106 Rain 25 1016 88 10000 4.1 60 06:37 31.10.2020
6107 Mist 26 1016 94 9656 6.02 46 03:50 31.10.2020
6108 Clouds 27 1016 74 10000 2.1 310 02:48 31.10.2020
6109 Clouds 28 1014 78 10000 3.6 140 00:57 31.10.2020
6110 Clouds 28 1014 78 10000 3.6 140 00:21 31.10.2020
6111 Clouds 28 1014 78 10000 3.6 130 23:46 30.10.2020
6112 Clouds 28 1014 78 10000 3.6 130 23:23 30.10.2020
6113 Clouds 29 1013 70 10000 5.1 100 22:43 30.10.2020
6114 Clouds 29 1013 70 10000 5.1 100 22:22 30.10.2020
6115 Clouds 30 1013 62 10000 2.6 190 21:50 30.10.2020
6116 Clouds 30 1013 62 10000 2.6 190 21:29 30.10.2020
6117 Clouds 30 1013 74 10000 3.22 174 20:58 30.10.2020
6118 Clouds 30 1013 74 10000 3.22 174 20:37 30.10.2020
6119 Clouds 30 1013 74 10000 3.45 159 20:18 30.10.2020
6120 Clouds 31 1014 66 10000 4.1 140 19:41 30.10.2020
6121 Clouds 30 1014 66 10000 4.1 140 19:18 30.10.2020
6122 Clouds 30 1014 66 10000 4.6 110 18:44 30.10.2020
6123 Clouds 31 1014 66 10000 4.6 110 18:24 30.10.2020
6124 Clouds 31 1015 66 10000 3.1 0 17:47 30.10.2020
6125 Clouds 30 1015 70 10000 1.5 180 17:22 30.10.2020
6126 Clouds 30 1015 70 10000 1.5 180 16:55 30.10.2020
6127 Clouds 29 1015 70 10000 1.5 180 16:26 30.10.2020
6128 Clouds 29 1015 78 10000 2.1 180 15:58 30.10.2020
6129 Clouds 29 1015 78 10000 2.1 180 15:40 30.10.2020
6130 Clouds 28 1015 78 10000 2.1 180 15:18 30.10.2020
6131 Clouds 28 1015 88 10000 2.1 0 14:44 30.10.2020
6132 Clouds 27 1015 88 10000 2.1 0 14:25 30.10.2020
6133 Clouds 26 1014 88 10000 1.93 219 13:44 30.10.2020
6134 Clouds 26 1014 88 10000 1.99 224 13:21 30.10.2020
6135 Clouds 26 1014 94 10000 1.5 210 12:49 30.10.2020
6136 Clouds 26 1014 94 10000 1.5 210 12:22 30.10.2020
6137 Clouds 26 1013 88 10000 1.74 226 11:56 30.10.2020
6138 Clouds 26 1013 88 10000 1.95 217 11:23 30.10.2020
6139 Clouds 26 1013 88 10000 1.5 170 10:52 30.10.2020
6140 Clouds 26 1013 88 10000 1.5 170 10:26 30.10.2020
6141 Clouds 26 1013 88 10000 2.61 212 09:59 30.10.2020
6142 Clouds 26 1013 88 10000 2.61 212 09:41 30.10.2020
6143 Clouds 26 1013 88 10000 3.07 214 09:19 30.10.2020
6144 Clouds 26 1014 88 10000 2.84 224 08:33 30.10.2020
6145 Clouds 27 1014 88 10000 1.5 210 07:58 30.10.2020
6146 Clouds 27 1014 88 10000 1.5 210 07:40 30.10.2020
6147 Clouds 27 1014 88 10000 1.5 210 07:21 30.10.2020
6148 Clouds 27 1014 88 10000 2.1 150 06:20 30.10.2020
6149 Clouds 27 1014 88 10000 4.11 187 04:23 30.10.2020
6150 Clouds 28 1013 78 10000 3.1 180 01:28 30.10.2020
6151 Clouds 28 1013 78 10000 3.6 150 00:31 30.10.2020
6152 Clear 28 1012 74 10000 5.7 140 23:46 29.10.2020
6153 Clear 29 1012 74 10000 5.7 140 23:28 29.10.2020
6154 Clouds 29 1012 70 10000 6.2 140 22:48 29.10.2020
6155 Clouds 30 1012 70 10000 6.2 140 22:27 29.10.2020
6156 Clouds 30 1012 66 10000 5.1 150 21:50 29.10.2020
6157 Clouds 30 1012 66 10000 5.1 150 21:26 29.10.2020
6158 Clouds 31 1013 66 10000 4.6 150 20:57 29.10.2020
6159 Clouds 31 1013 66 10000 4.6 150 20:39 29.10.2020
6160 Clouds 31 1014 66 10000 4.6 130 20:18 29.10.2020
6161 Clouds 31 1014 66 10000 4.6 130 19:39 29.10.2020
6162 Clouds 31 1014 66 10000 4.6 130 19:19 29.10.2020
6163 Clouds 31 1014 66 10000 5.1 140 18:46 29.10.2020
6164 Clouds 31 1014 66 10000 5.1 140 18:26 29.10.2020
6165 Clouds 30 1015 70 10000 4.6 170 17:43 29.10.2020
6166 Clouds 30 1015 70 10000 4.6 170 17:24 29.10.2020
6167 Clouds 30 1015 74 10000 6.2 140 16:55 29.10.2020
6168 Clouds 30 1016 70 10000 7.2 120 16:37 29.10.2020
6169 Clouds 30 1016 74 10000 5.1 130 16:18 29.10.2020
6170 Clouds 29 1016 74 10000 5.1 130 15:41 29.10.2020
6171 Clouds 29 1016 74 10000 5.1 130 15:22 29.10.2020
6172 Clouds 29 1015 78 10000 4.6 130 14:59 29.10.2020
6173 Clouds 28 1015 78 10000 4.6 130 14:40 29.10.2020
6174 Clouds 28 1015 78 10000 4.6 130 14:18 29.10.2020
6175 Clouds 27 1015 83 10000 2.1 130 13:41 29.10.2020
6176 Clouds 27 1015 83 10000 2.1 130 13:22 29.10.2020
6177 Clouds 27 1014 83 10000 3.6 140 12:42 29.10.2020
6178 Clouds 27 1014 83 10000 4.1 130 12:19 29.10.2020
6179 Clouds 27 1014 83 10000 4.1 130 11:48 29.10.2020
6180 Clouds 27 1014 83 10000 4.1 130 11:26 29.10.2020
6181 Clouds 27 1014 83 10000 3.6 140 10:38 29.10.2020
6182 Clouds 27 1014 83 10000 3.6 140 10:20 29.10.2020
6183 Clouds 27 1014 83 10000 3.1 140 09:56 29.10.2020
6184 Clouds 27 1014 83 10000 5.1 120 09:29 29.10.2020
6185 Clouds 27 1014 83 10000 5.7 120 08:59 29.10.2020
6186 Clouds 27 1014 83 10000 5.7 120 08:40 29.10.2020
6187 Clouds 27 1014 83 10000 5.7 120 08:19 29.10.2020
6188 Clouds 27 1015 83 10000 4.1 120 07:46 29.10.2020
6189 Clouds 27 1015 83 10000 5.1 110 06:58 29.10.2020
6190 Clouds 27 1015 83 10000 5.1 110 06:21 29.10.2020
6191 Clouds 27 1016 78 10000 5.1 100 04:46 29.10.2020
6192 Clouds 28 1015 69 10000 1.79 98 01:37 29.10.2020
6193 Clouds 28 1015 71 10000 0.89 0 00:31 29.10.2020
6194 Clouds 28 1014 72 10000 1.34 98 23:59 28.10.2020
6195 Clouds 28 1014 74 10000 1.34 108 23:22 28.10.2020
6196 Clouds 29 1014 75 10000 2.24 106 22:46 28.10.2020
6197 Clouds 29 1015 66 10000 5.7 110 22:28 28.10.2020
6198 Clouds 30 1015 62 10000 6.2 130 21:59 28.10.2020
6199 Clouds 30 1015 62 10000 6.2 130 21:41 28.10.2020
6200 Clouds 30 1015 62 10000 6.2 130 21:23 28.10.2020
6201 Clouds 30 1015 66 10000 5.7 120 20:42 28.10.2020
6202 Clouds 30 1015 66 10000 5.7 120 20:22 28.10.2020
6203 Clouds 30 1016 66 10000 6.7 120 19:51 28.10.2020
6204 Clouds 30 1016 66 10000 6.7 120 19:30 28.10.2020
6205 Clouds 30 1017 66 10000 8.2 100 18:51 28.10.2020
6206 Clouds 30 1017 66 10000 8.2 100 18:22 28.10.2020
6207 Clouds 30 1017 62 10000 6.7 100 17:58 28.10.2020
6208 Clouds 30 1018 70 10000 7.2 100 17:39 28.10.2020
6209 Clouds 29 1018 70 10000 6.2 90 17:18 28.10.2020
6210 Clouds 29 1018 70 10000 6.2 90 16:44 28.10.2020
6211 Clouds 29 1018 70 10000 6.2 90 16:25 28.10.2020
6212 Clouds 29 1018 74 10000 5.7 110 15:41 28.10.2020
6213 Clouds 29 1018 74 10000 5.7 110 15:19 28.10.2020
6214 Clouds 28 1017 78 10000 4.6 100 14:44 28.10.2020
6215 Clouds 28 1017 78 10000 4.6 100 14:26 28.10.2020
6216 Clouds 27 1016 90 10000 6.04 94 12:55 28.10.2020
6217 Clouds 27 1016 60 10000 0.89 131 12:36 28.10.2020
6218 Clouds 27 1015 59 10000 1.34 87 12:18 28.10.2020
6219 Clouds 27 1015 58 10000 1.34 101 11:41 28.10.2020
6220 Clouds 27 1016 83 10000 2.6 110 11:20 28.10.2020
6221 Clouds 27 1015 60 10000 1.79 100 10:53 28.10.2020
6222 Clouds 27 1015 59 10000 1.79 117 10:33 28.10.2020
6223 Clouds 27 1016 83 10000 3.1 100 09:46 28.10.2020
6224 Clouds 27 1016 83 10000 3.1 100 09:25 28.10.2020
6225 Clouds 27 1016 83 10000 4.1 90 08:56 28.10.2020
6226 Clouds 27 1017 78 10000 4.1 90 08:37 28.10.2020
6227 Clouds 27 1017 78 10000 4.1 90 08:18 28.10.2020
6228 Clouds 27 1017 78 10000 5.7 90 07:41 28.10.2020
6229 Clouds 27 1017 78 10000 5.7 90 07:19 28.10.2020
6230 Clouds 27 1017 78 10000 5.1 80 06:39 28.10.2020
6231 Clouds 27 1018 78 10000 5.1 90 05:48 28.10.2020
6232 Clouds 27 1018 78 10000 5.7 90 04:52 28.10.2020
6233 Clouds 27 1018 78 10000 5.7 90 04:23 28.10.2020
6234 Clouds 27 1017 78 10000 6.7 80 02:25 28.10.2020
6235 Clouds 28 1017 78 10000 4.6 80 00:36 28.10.2020
6236 Clouds 28 1016 74 10000 4.6 80 23:51 27.10.2020
6237 Clouds 28 1016 74 10000 4.6 80 23:22 27.10.2020
6238 Clouds 29 1016 66 10000 7.2 90 22:45 27.10.2020
6239 Clouds 30 1016 66 10000 7.2 90 22:25 27.10.2020
6240 Clouds 30 1016 62 10000 6.2 80 21:57 27.10.2020
6241 Clouds 30 1016 62 10000 6.2 80 21:39 27.10.2020
6242 Clouds 31 1017 58 10000 6.7 110 21:20 27.10.2020
6243 Clouds 31 1017 58 10000 6.7 110 20:54 27.10.2020
6244 Clouds 31 1017 58 10000 6.7 110 20:36 27.10.2020
6245 Clouds 31 1017 58 10000 6.7 110 20:18 27.10.2020
6246 Clouds 31 1017 58 10000 6.7 100 19:39 27.10.2020
6247 Clouds 31 1017 58 10000 6.7 100 19:20 27.10.2020
6248 Clouds 31 1018 59 10000 8.2 100 18:57 27.10.2020
6249 Clouds 31 1018 59 10000 8.2 100 18:39 27.10.2020
6250 Clouds 31 1019 62 10000 6.2 110 18:18 27.10.2020
6251 Clouds 30 1019 62 10000 6.2 110 17:40 27.10.2020
6252 Clouds 30 1019 62 10000 6.2 110 17:20 27.10.2020
6253 Clouds 30 1019 66 10000 7.2 90 16:48 27.10.2020
6254 Clouds 30 1019 66 10000 7.2 90 16:25 27.10.2020
6255 Clouds 30 1018 74 10000 7.7 90 15:47 27.10.2020
6256 Clouds 29 1018 74 10000 7.7 90 15:29 27.10.2020
6257 Clouds 29 1018 78 10000 5.7 90 14:55 27.10.2020
6258 Clouds 29 1018 78 10000 5.7 90 14:37 27.10.2020
6259 Clouds 28 1018 78 10000 5.7 90 14:19 27.10.2020
6260 Clouds 27 1017 83 10000 3.6 80 13:33 27.10.2020
6261 Clouds 27 1017 83 10000 3.6 90 12:58 27.10.2020
6262 Clouds 27 1017 83 10000 3.6 90 12:38 27.10.2020
6263 Clouds 27 1017 83 10000 3.6 90 12:20 27.10.2020
6264 Clouds 27 1017 83 10000 3.6 90 11:42 27.10.2020
6265 Clouds 27 1017 83 10000 3.6 90 11:22 27.10.2020
6266 Clouds 27 1016 83 10000 3.6 90 10:47 27.10.2020
6267 Clouds 27 1016 83 10000 3.6 90 10:25 27.10.2020
6268 Clouds 27 1016 83 10000 3.1 90 09:45 27.10.2020
6269 Clouds 27 1016 83 10000 3.1 90 09:23 27.10.2020
6270 Clouds 27 1016 83 10000 4.6 100 08:38 27.10.2020
6271 Clouds 27 1016 83 10000 4.6 100 08:18 27.10.2020
6272 Clouds 27 1017 83 10000 3.6 100 07:44 27.10.2020
6273 Clouds 27 1017 83 10000 3.6 100 07:25 27.10.2020
6274 Clouds 27 1017 78 10000 3.6 100 06:22 27.10.2020
6275 Clouds 27 1017 78 10000 3.6 100 06:22 27.10.2020
6276 Clouds 27 1017 78 10000 4.6 110 05:52 27.10.2020
6277 Clouds 27 1017 78 10000 4.6 110 05:34 27.10.2020
6278 Clouds 28 1017 78 10000 4.1 120 04:44 27.10.2020
6279 Clouds 27 1016 78 10000 3.1 110 02:30 27.10.2020
6280 Clouds 28 1015 78 10000 4.1 110 00:53 27.10.2020
6281 Clouds 28 1015 74 10000 4.6 120 23:43 26.10.2020
6282 Clouds 28 1015 74 10000 4.6 120 23:19 26.10.2020
6283 Clouds 29 1015 74 10000 6.2 120 22:46 26.10.2020
6284 Clouds 29 1015 70 10000 7.2 110 22:21 26.10.2020
6285 Clouds 29 1015 70 10000 6.7 120 21:45 26.10.2020
6286 Clouds 30 1015 70 10000 6.7 120 21:21 26.10.2020
6287 Clouds 30 1015 70 10000 4.6 130 20:58 26.10.2020
6288 Clouds 30 1015 70 10000 4.6 130 20:39 26.10.2020
6289 Clouds 31 1015 66 10000 5.7 120 20:18 26.10.2020
6290 Clouds 30 1015 66 10000 5.7 120 19:47 26.10.2020
6291 Clouds 30 1015 74 10000 6.2 120 19:23 26.10.2020
6292 Clouds 30 1016 70 10000 6.7 120 18:44 26.10.2020
6293 Clouds 30 1016 70 10000 6.7 120 18:24 26.10.2020
6294 Clouds 30 1016 74 10000 6.7 110 17:59 26.10.2020
6295 Clouds 30 1016 74 10000 6.7 110 17:38 26.10.2020
6296 Clouds 30 1016 70 10000 6.2 100 17:19 26.10.2020
6297 Clouds 29 1016 70 10000 6.2 100 16:40 26.10.2020
6298 Clouds 29 1016 74 10000 5.1 120 16:21 26.10.2020
6299 Clouds 29 1016 74 10000 5.1 120 15:42 26.10.2020
6300 Clouds 29 1016 74 10000 5.1 120 15:22 26.10.2020
6301 Clouds 28 1015 78 10000 4.1 90 14:52 26.10.2020
6302 Clouds 28 1015 78 10000 4.1 90 14:31 26.10.2020
6303 Clouds 27 1015 88 10000 2.6 80 13:44 26.10.2020
6304 Clouds 26 1015 88 10000 2.6 80 13:24 26.10.2020
6305 Clouds 26 1014 88 10000 2.6 130 12:51 26.10.2020
6306 Clouds 26 1014 88 10000 2.6 130 12:29 26.10.2020
6307 Clouds 26 1013 88 10000 3.1 110 11:57 26.10.2020
6308 Clouds 26 1013 88 10000 3.1 110 11:37 26.10.2020
6309 Clouds 26 1013 88 10000 3.1 110 11:19 26.10.2020
6310 Clouds 25 1013 88 10000 1.5 50 10:46 26.10.2020
6311 Clouds 25 1013 88 10000 1.5 50 10:25 26.10.2020
6312 Clouds 25 1013 94 10000 1.5 60 09:51 26.10.2020
6313 Clouds 25 1013 94 10000 1.5 60 09:28 26.10.2020
6314 Clouds 25 1012 100 10000 2.1 100 08:50 26.10.2020
6315 Clouds 25 1013 100 10000 1.5 80 08:22 26.10.2020
6316 Clouds 25 1014 88 10000 1.5 10 07:38 26.10.2020
6317 Clouds 25 1014 88 10000 1.5 10 07:18 26.10.2020
6318 Clouds 25 1015 94 10000 3.1 120 05:31 26.10.2020
6319 Rain 25 1015 94 6437 4.1 180 04:19 26.10.2020
6320 Clouds 26 1014 88 10000 2.1 20 03:20 26.10.2020
6321 Clouds 26 1014 88 10000 2.1 20 03:20 26.10.2020
6322 Clouds 26 1014 88 10000 2.1 20 03:20 26.10.2020
6323 Clouds 26 1014 88 10000 2.1 20 03:20 26.10.2020
6324 Clouds 26 1012 83 10000 2.6 90 01:34 26.10.2020
6325 Clouds 26 1012 83 10000 7.2 150 00:35 26.10.2020
6326 Clouds 27 1011 83 10000 3.6 160 23:46 25.10.2020
6327 Clouds 27 1011 83 10000 3.6 160 23:25 25.10.2020
6328 Clouds 28 1011 83 10000 4.1 150 22:45 25.10.2020
6329 Clouds 28 1011 83 10000 4.1 150 22:26 25.10.2020
6330 Clouds 28 1011 74 10000 5.7 160 21:50 25.10.2020
6331 Clouds 28 1011 74 10000 5.7 160 21:31 25.10.2020
6332 Clouds 28 1012 70 10000 4.1 150 20:59 25.10.2020
6333 Clouds 28 1012 70 10000 4.1 150 20:40 25.10.2020
6334 Clouds 28 1012 70 10000 4.1 150 20:22 25.10.2020
6335 Clouds 28 1012 70 10000 5.7 150 19:50 25.10.2020
6336 Clouds 28 1012 70 10000 5.7 150 19:27 25.10.2020
6337 Clouds 28 1013 79 10000 6.2 160 18:59 25.10.2020
6338 Clouds 28 1013 79 10000 6.2 160 18:40 25.10.2020
6339 Clouds 28 1013 79 10000 6.2 160 18:21 25.10.2020
6340 Clouds 28 1013 78 10000 3.6 150 17:54 25.10.2020
6341 Clouds 28 1013 78 10000 3.6 150 17:36 25.10.2020
6342 Clouds 27 1013 78 10000 3.6 150 17:18 25.10.2020
6343 Clouds 26 1014 88 10000 3.1 140 16:39 25.10.2020
6344 Clouds 26 1014 88 10000 3.1 140 16:21 25.10.2020
6345 Mist 26 1014 88 9656 4.6 130 15:47 25.10.2020
6346 Rain 25 1014 94 10000 3.1 120 15:26 25.10.2020
6347 Clouds 25 1013 94 10000 1.5 0 14:52 25.10.2020
6348 Mist 25 1013 94 8047 4.6 130 14:29 25.10.2020
6349 Rain 25 1012 94 10000 6.08 142 13:44 25.10.2020
6350 Clouds 25 1012 94 10000 5.54 158 13:24 25.10.2020
6351 Rain 24 1012 100 10000 3.39 123 12:50 25.10.2020
6352 Clouds 24 1012 100 10000 2.71 143 12:28 25.10.2020
6353 Clouds 24 1011 100 10000 2.1 90 11:59 25.10.2020
6354 Clouds 24 1011 100 10000 2.1 90 11:41 25.10.2020
6355 Clouds 24 1011 100 10000 2.1 90 11:19 25.10.2020
6356 Clouds 24 1011 94 10000 2.1 50 10:46 25.10.2020
6357 Rain 24 1011 94 10000 2.1 50 10:25 25.10.2020
6358 Clouds 24 1011 94 10000 5.94 143 09:51 25.10.2020
6359 Clouds 24 1011 94 10000 6.34 122 09:21 25.10.2020
6360 Rain 24 1012 94 6437 3.1 110 08:59 25.10.2020
6361 Mist 24 1012 94 6437 3.1 110 08:40 25.10.2020
6362 Rain 24 1012 94 6437 3.1 110 08:40 25.10.2020
6363 Rain 24 1012 94 6437 3.1 110 08:22 25.10.2020
6364 Clouds 24 1011 94 10000 2.1 40 07:42 25.10.2020
6365 Clouds 24 1012 100 10000 5.87 126 06:52 25.10.2020
6366 Clouds 24 1012 100 10000 5.15 97 06:27 25.10.2020
6367 Rain 24 1013 94 10000 5.56 110 05:19 25.10.2020
6368 Rain 25 1012 94 10000 5.56 110 04:48 25.10.2020
6369 Clouds 26 1011 88 10000 2.1 100 02:24 25.10.2020
6370 Thunderstorm 25 1011 88 10000 4.1 100 00:53 25.10.2020
6371 Thunderstorm 25 1011 88 10000 4.1 100 00:28 25.10.2020
6372 Thunderstorm 25 1011 94 10000 3.6 100 23:54 24.10.2020
6373 Mist 25 1010 94 8047 4.1 110 23:31 24.10.2020
6374 Clouds 27 1011 78 10000 5.1 130 22:58 24.10.2020
6375 Rain 27 1011 78 10000 6.2 100 22:40 24.10.2020
6376 Rain 28 1011 78 10000 6.2 100 22:21 24.10.2020
6377 Clouds 28 1011 70 10000 7.2 110 21:54 24.10.2020
6378 Clouds 28 1011 70 10000 7.2 110 21:36 24.10.2020
6379 Clouds 29 1011 70 10000 7.2 110 21:18 24.10.2020
6380 Clouds 29 1012 70 10000 6.7 100 20:42 24.10.2020
6381 Clouds 29 1012 70 10000 6.7 100 20:20 24.10.2020
6382 Clouds 29 1013 78 10000 7.2 90 19:41 24.10.2020
6383 Clouds 28 1013 78 10000 7.2 90 19:23 24.10.2020
6384 Clouds 29 1014 70 10000 8.2 100 18:51 24.10.2020
6385 Clouds 29 1014 70 10000 8.2 100 18:30 24.10.2020
6386 Clouds 29 1014 70 10000 7.2 80 17:46 24.10.2020
6387 Clouds 29 1014 70 10000 7.2 80 17:26 24.10.2020
6388 Clouds 28 1014 69 10000 5.7 70 16:53 24.10.2020
6389 Clouds 28 1014 69 10000 5.7 70 16:35 24.10.2020
6390 Clouds 27 1014 69 10000 5.1 80 15:57 24.10.2020
6391 Clouds 27 1014 69 10000 5.1 80 15:38 24.10.2020
6392 Clouds 27 1014 69 10000 5.1 80 15:18 24.10.2020
6393 Clouds 26 1013 74 10000 3.6 80 14:38 24.10.2020
6394 Clouds 26 1013 74 10000 3.6 80 14:19 24.10.2020
6395 Clouds 26 1013 74 10000 3.1 70 13:44 24.10.2020
6396 Clouds 26 1013 78 10000 5.1 100 13:19 24.10.2020
6397 Clouds 26 1013 78 10000 5.1 100 12:37 24.10.2020
6398 Clouds 26 1013 78 10000 5.1 100 12:19 24.10.2020
6399 Clouds 26 1013 78 10000 5.1 90 11:50 24.10.2020
6400 Clouds 26 1013 78 10000 5.1 90 11:23 24.10.2020
6401 Clouds 26 1013 78 10000 5.7 100 10:44 24.10.2020
6402 Clouds 26 1013 78 10000 5.7 100 10:26 24.10.2020
6403 Clouds 26 1013 78 10000 4.1 90 09:46 24.10.2020
6404 Clouds 26 1013 78 10000 4.1 90 09:26 24.10.2020
6405 Clouds 26 1013 74 10000 4.6 90 08:57 24.10.2020
6406 Clouds 26 1013 74 10000 4.6 90 08:19 24.10.2020
6407 Clouds 26 1014 74 10000 4.6 100 07:51 24.10.2020
6408 Clouds 26 1014 74 10000 4.6 100 07:21 24.10.2020
6409 Clouds 27 1014 74 10000 5.1 80 06:50 24.10.2020
6410 Clouds 27 1014 74 10000 6.2 70 05:46 24.10.2020
6411 Clouds 27 1014 74 10000 6.2 80 02:26 24.10.2020
6412 Clouds 27 1013 78 10000 6.7 100 00:56 24.10.2020
6413 Clouds 27 1013 78 10000 6.7 100 00:37 24.10.2020
6414 Clouds 27 1013 78 10000 6.7 100 00:19 24.10.2020
6415 Clouds 28 1013 66 10000 5.7 80 23:41 23.10.2020
6416 Clouds 29 1013 66 10000 5.7 80 23:22 23.10.2020
6417 Clouds 29 1013 69 10000 6.7 90 22:42 23.10.2020
6418 Clouds 29 1013 69 10000 6.7 90 22:22 23.10.2020
6419 Clouds 29 1013 62 10000 8.2 100 21:58 23.10.2020
6420 Clouds 29 1013 62 10000 8.2 100 21:39 23.10.2020
6421 Clouds 29 1013 62 10000 8.2 100 21:20 23.10.2020
6422 Clouds 30 1014 58 10000 6.2 90 20:39 23.10.2020
6423 Clouds 29 1014 58 10000 6.2 90 20:20 23.10.2020
6424 Clouds 30 1015 55 10000 6.2 80 19:45 23.10.2020
6425 Clouds 30 1015 55 10000 6.2 80 19:26 23.10.2020
6426 Clouds 30 1015 62 10000 8.2 90 18:48 23.10.2020
6427 Clouds 30 1015 62 10000 8.2 90 18:30 23.10.2020
6428 Clouds 29 1015 66 10000 6.7 110 17:47 23.10.2020
6429 Clouds 29 1015 66 10000 6.7 110 17:22 23.10.2020
6430 Clouds 29 1015 66 10000 6.7 90 16:55 23.10.2020
6431 Clouds 29 1015 66 10000 6.7 90 16:35 23.10.2020
6432 Clouds 28 1015 69 10000 5.7 100 15:58 23.10.2020
6433 Clouds 28 1015 69 10000 5.7 100 15:40 23.10.2020
6434 Clouds 28 1015 69 10000 5.7 100 15:20 23.10.2020
6435 Clouds 28 1015 69 10000 5.7 100 15:20 23.10.2020
6436 Clouds 27 1015 78 10000 4.1 90 14:48 23.10.2020
6437 Clouds 27 1015 78 10000 4.1 90 14:29 23.10.2020
6438 Clouds 26 1014 78 10000 4.1 90 13:43 23.10.2020
6439 Clouds 26 1014 78 10000 4.1 90 13:24 23.10.2020
6440 Clouds 26 1014 78 10000 3.6 90 12:51 23.10.2020
6441 Clouds 26 1014 78 10000 3.6 90 12:31 23.10.2020
6442 Clouds 26 1014 74 10000 4.1 100 11:56 23.10.2020
6443 Clouds 26 1014 74 10000 4.1 100 11:38 23.10.2020
6444 Clouds 26 1014 74 10000 4.1 100 11:19 23.10.2020
6445 Clouds 26 1013 78 10000 4.1 90 10:39 23.10.2020
6446 Clouds 26 1013 78 10000 4.1 90 10:20 23.10.2020
6447 Clouds 26 1014 83 10000 3.6 90 09:43 23.10.2020
6448 Clouds 26 1014 83 10000 3.6 90 09:23 23.10.2020
6449 Clouds 26 1014 74 10000 4.1 100 08:51 23.10.2020
6450 Clouds 27 1014 74 10000 4.1 100 08:26 23.10.2020
6451 Clouds 27 1015 74 10000 4.6 100 07:27 23.10.2020
6452 Clouds 27 1015 74 10000 6.7 90 06:49 23.10.2020
6453 Clouds 27 1015 74 10000 6.7 90 06:20 23.10.2020
6454 Clouds 27 1015 74 10000 5.7 90 04:42 23.10.2020
6455 Clouds 27 1014 78 10000 6.2 90 02:28 23.10.2020
6456 Clouds 27 1014 74 10000 4.6 90 00:54 23.10.2020
6457 Clouds 27 1014 74 10000 4.6 90 00:32 23.10.2020
6458 Clouds 28 1013 74 10000 6.7 80 23:38 22.10.2020
6459 Clouds 27 1013 74 10000 6.7 80 23:19 22.10.2020
6460 Clouds 28 1013 74 10000 7.2 100 22:45 22.10.2020
6461 Clouds 28 1013 74 10000 7.2 100 22:26 22.10.2020
6462 Clouds 28 1014 74 10000 5.1 120 21:56 22.10.2020
6463 Clouds 28 1014 74 10000 5.1 120 21:37 22.10.2020
6464 Clouds 28 1014 78 10000 5.1 100 21:18 22.10.2020
6465 Clouds 29 1014 78 10000 5.1 100 20:42 22.10.2020
6466 Clouds 29 1014 78 10000 5.1 100 20:24 22.10.2020
6467 Clouds 28 1015 78 10000 7.2 80 19:43 22.10.2020
6468 Clouds 28 1015 78 10000 7.2 80 19:20 22.10.2020
6469 Clouds 28 1015 70 10000 8.2 70 18:44 22.10.2020
6470 Clouds 28 1015 70 10000 8.2 70 18:22 22.10.2020
6471 Clouds 28 1015 69 10000 7.2 90 17:58 22.10.2020
6472 Clouds 28 1015 69 10000 7.2 90 17:39 22.10.2020
6473 Clouds 28 1015 69 10000 7.2 90 17:20 22.10.2020
6474 Clouds 27 1015 83 10000 3.1 70 16:42 22.10.2020
6475 Clouds 27 1015 83 10000 3.1 70 16:23 22.10.2020
6476 Clouds 26 1015 94 10000 3.6 60 15:48 22.10.2020
6477 Clouds 25 1015 94 10000 3.6 60 15:26 22.10.2020
6478 Clouds 25 1015 88 10000 4.6 50 14:50 22.10.2020
6479 Mist 24 1014 94 9656 3.1 40 14:27 22.10.2020
6480 Rain 23 1014 94 10000 5.1 60 13:57 22.10.2020
6481 Rain 24 1014 94 10000 5.1 60 13:38 22.10.2020
6482 Clouds 24 1014 94 10000 5.1 60 13:20 22.10.2020
6483 Rain 26 1013 88 10000 2.1 30 12:28 22.10.2020
6484 Clouds 26 1013 88 10000 3.1 30 11:51 22.10.2020
6485 Clouds 26 1013 88 10000 3.1 30 11:21 22.10.2020
6486 Clouds 26 1013 94 10000 2.1 20 10:56 22.10.2020
6487 Clouds 26 1013 94 10000 2.1 20 10:38 22.10.2020
6488 Clouds 25 1013 94 10000 2.1 20 10:18 22.10.2020
6489 Clouds 25 1013 88 10000 3.1 40 09:42 22.10.2020
6490 Clouds 25 1014 94 10000 3.6 50 08:58 22.10.2020
6491 Clouds 25 1014 94 10000 3.6 50 08:39 22.10.2020
6492 Clouds 25 1014 94 10000 3.6 50 08:19 22.10.2020
6493 Mist 25 1014 94 9656 4.1 50 07:43 22.10.2020
6494 Clouds 25 1015 100 10000 4.1 60 06:59 22.10.2020
6495 Clouds 24 1015 94 10000 2.1 20 06:37 22.10.2020
6496 Clouds 24 1016 88 10000 4.6 120 05:42 22.10.2020
6497 Clouds 24 1016 88 10000 4.6 120 05:22 22.10.2020
6498 Clouds 25 1014 88 10000 2.6 30 02:40 22.10.2020
6499 Clouds 25 1014 94 10000 2.6 30 00:36 22.10.2020
6500 Clouds 25 1014 88 10000 3.6 70 00:18 22.10.2020
6501 Rain 25 1014 88 10000 3.6 70 23:38 21.10.2020
6502 Mist 25 1014 94 8047 2.1 90 22:58 21.10.2020
6503 Rain 25 1014 94 8047 2.1 90 22:37 21.10.2020
6504 Rain 25 1014 94 8047 2.1 90 22:18 21.10.2020
6505 Rain 25 1014 94 10000 2.6 80 21:44 21.10.2020
6506 Rain 25 1014 94 10000 2.6 80 21:19 21.10.2020
6507 Rain 25 1015 88 10000 3.1 60 20:48 21.10.2020
6508 Rain 25 1015 88 10000 3.1 60 20:19 21.10.2020
6509 Rain 24 1016 94 10000 1.5 50 19:59 21.10.2020
6510 Rain 25 1016 94 10000 1.5 50 19:40 21.10.2020
6511 Rain 25 1016 94 10000 1.5 50 19:22 21.10.2020
6512 Rain 25 1015 78 10000 10.3 90 18:47 21.10.2020
6513 Rain 25 1015 78 10000 10.3 90 18:26 21.10.2020
6514 Rain 25 1015 83 10000 5.1 70 17:47 21.10.2020
6515 Clouds 25 1015 83 10000 5.1 70 17:21 21.10.2020
6516 Rain 25 1015 94 10000 4.6 70 16:57 21.10.2020
6517 Rain 25 1015 94 10000 4.6 70 16:36 21.10.2020
6518 Rain 25 1015 94 9656 4.6 60 16:18 21.10.2020
6519 Rain 25 1015 94 8047 4.1 70 15:44 21.10.2020
6520 Rain 25 1014 88 9656 2.6 80 15:21 21.10.2020
6521 Rain 25 1014 94 10000 4.1 50 14:48 21.10.2020
6522 Rain 25 1014 94 10000 4.1 50 14:28 21.10.2020
6523 Mist 24 1014 88 8047 7.7 60 13:47 21.10.2020
6524 Mist 24 1014 88 8047 7.7 60 13:27 21.10.2020
6525 Mist 24 1013 94 9656 3.6 50 12:57 21.10.2020
6526 Rain 24 1013 94 9656 3.6 50 12:37 21.10.2020
6527 Rain 24 1013 94 9656 3.6 50 12:19 21.10.2020
6528 Rain 23 1013 94 9656 5.7 70 11:40 21.10.2020
6529 Rain 23 1013 100 4023 6.7 70 11:20 21.10.2020
6530 Rain 24 1013 94 3219 6.7 80 10:46 21.10.2020
6531 Rain 25 1013 94 9656 7.7 80 10:25 21.10.2020
6532 Clouds 24 1013 94 10000 5.7 90 09:54 21.10.2020
6533 Rain 24 1013 94 10000 5.7 90 09:33 21.10.2020
6534 Clouds 25 1013 88 10000 6.7 70 08:56 21.10.2020
6535 Clouds 25 1013 88 10000 6.7 70 08:38 21.10.2020
6536 Rain 25 1013 88 10000 7.7 80 08:19 21.10.2020
6537 Mist 24 1013 94 2414 5.7 80 07:37 21.10.2020
6538 Rain 25 1013 88 10000 4.1 80 06:55 21.10.2020
6539 Rain 25 1014 94 9656 6.7 70 06:30 21.10.2020
6540 Clouds 25 1014 94 10000 5.7 100 04:47 21.10.2020
6541 Thunderstorm 26 1012 83 10000 2.6 30 00:57 21.10.2020
6542 Clouds 26 1012 78 10000 4.6 50 23:51 20.10.2020
6543 Clouds 27 1012 78 10000 4.6 50 23:20 20.10.2020
6544 Clouds 27 1012 78 10000 5.7 70 22:29 20.10.2020
6545 Clouds 27 1013 78 10000 5.1 80 21:51 20.10.2020
6546 Clouds 27 1013 78 10000 5.1 80 21:21 20.10.2020
6547 Clouds 28 1013 74 10000 7.2 80 20:59 20.10.2020
6548 Clouds 28 1013 74 10000 7.2 80 20:41 20.10.2020
6549 Clouds 28 1013 74 10000 7.2 80 20:22 20.10.2020
6550 Clouds 28 1014 70 10000 8.2 100 19:44 20.10.2020
6551 Clouds 28 1014 70 10000 8.2 100 19:22 20.10.2020
6552 Clouds 29 1014 70 10000 6.2 90 18:55 20.10.2020
6553 Clouds 29 1014 70 10000 6.2 90 18:36 20.10.2020
6554 Clouds 29 1014 70 10000 6.2 90 18:36 20.10.2020
6555 Clouds 28 1014 74 10000 6.7 100 17:50 20.10.2020
6556 Clouds 28 1014 74 10000 6.7 100 17:32 20.10.2020
6557 Clouds 27 1015 74 10000 4.1 70 16:49 20.10.2020
6558 Clouds 27 1015 74 10000 4.1 70 16:31 20.10.2020
6559 Clouds 27 1014 78 10000 4.1 90 15:59 20.10.2020
6560 Clouds 27 1014 78 10000 4.1 90 15:41 20.10.2020
6561 Clouds 27 1014 78 10000 4.1 90 15:22 20.10.2020
6562 Clouds 27 1014 74 10000 4.6 90 14:44 20.10.2020
6563 Clouds 27 1014 74 10000 4.6 90 14:24 20.10.2020
6564 Clouds 27 1013 78 10000 4.6 80 13:56 20.10.2020
6565 Rain 27 1013 78 10000 4.6 80 13:37 20.10.2020
6566 Clouds 27 1013 78 10000 4.6 80 13:19 20.10.2020
6567 Clouds 26 1013 83 10000 3.1 70 12:40 20.10.2020
6568 Clouds 26 1012 83 10000 2.6 60 12:22 20.10.2020
6569 Clouds 26 1012 83 10000 2.1 50 11:45 20.10.2020
6570 Clouds 25 1012 83 10000 2.1 50 11:27 20.10.2020
6571 Thunderstorm 24 1012 94 10000 5.1 90 10:40 20.10.2020
6572 Thunderstorm 24 1012 94 10000 5.1 90 10:40 20.10.2020
6573 Clouds 25 1013 88 10000 4.6 90 10:21 20.10.2020
6574 Clouds 25 1013 83 10000 4.1 80 09:44 20.10.2020
6575 Rain 25 1013 83 10000 4.1 80 09:19 20.10.2020
6576 Mist 25 1013 88 8047 7.2 100 08:39 20.10.2020
6577 Rain 27 1013 74 10000 5.7 80 07:54 20.10.2020
6578 Clouds 27 1013 74 10000 5.7 80 07:26 20.10.2020
6579 Clouds 27 1014 83 10000 3.6 60 06:55 20.10.2020
6580 Clouds 27 1014 83 10000 3.6 60 06:18 20.10.2020
6581 Clouds 27 1014 78 10000 2.1 360 03:59 20.10.2020
6582 Clouds 27 1014 83 10000 2.6 10 02:30 20.10.2020
6583 Clouds 27 1013 74 10000 5.7 60 01:22 20.10.2020
6584 Clouds 27 1013 74 10000 6.7 70 00:50 20.10.2020
6585 Clouds 27 1013 74 10000 6.7 70 00:23 20.10.2020
6586 Clouds 27 1013 74 10000 4.6 70 23:49 19.10.2020
6587 Clouds 27 1013 74 10000 4.6 70 23:24 19.10.2020
6588 Clouds 28 1013 74 10000 8.2 80 22:51 19.10.2020
6589 Clouds 28 1013 74 10000 8.2 80 22:25 19.10.2020
6590 Clouds 28 1013 74 10000 6.2 70 21:50 19.10.2020
6591 Clouds 27 1013 74 10000 6.2 70 21:23 19.10.2020
6592 Clouds 27 1014 65 10000 5.7 50 20:54 19.10.2020
6593 Clouds 28 1014 65 10000 5.7 50 20:36 19.10.2020
6594 Clouds 28 1014 65 10000 5.7 50 19:59 19.10.2020
6595 Clouds 27 1015 69 10000 5.1 70 19:41 19.10.2020
6596 Clouds 27 1015 69 10000 5.1 70 19:19 19.10.2020
6597 Clouds 27 1016 74 10000 5.1 60 18:43 19.10.2020
6598 Clouds 26 1016 74 10000 5.1 60 18:19 19.10.2020
6599 Clouds 26 1016 83 10000 6.2 80 17:46 19.10.2020
6600 Clouds 26 1016 83 10000 6.2 80 17:26 19.10.2020
6601 Clouds 25 1015 83 10000 8.2 100 16:52 19.10.2020
6602 Clouds 25 1015 83 10000 8.2 100 16:28 19.10.2020
6603 Clouds 25 1015 86 3612 0.89 321 15:46 19.10.2020
6604 Rain 26 1014 76 10000 2.24 0 15:25 19.10.2020
6605 Rain 26 1014 76 10000 2.24 0 15:25 19.10.2020
6606 Clouds 25 1013 75 10000 3.13 101 14:53 19.10.2020
6607 Rain 25 1016 92 10000 3.13 57 14:28 19.10.2020
6608 Clouds 25 1013 89 10000 2.68 91 13:55 19.10.2020
6609 Rain 25 1013 86 10000 7.45 76 13:37 19.10.2020
6610 Rain 26 1012 70 10000 4.47 100 13:18 19.10.2020
6611 Rain 26 1012 78 10000 1.34 79 12:43 19.10.2020
6612 Rain 26 1012 78 10000 1.79 80 12:25 19.10.2020
6613 Rain 27 1012 78 10000 2.24 91 11:42 19.10.2020
6614 Clouds 27 1013 78 10000 6.2 80 11:21 19.10.2020
6615 Clouds 27 1013 78 10000 6.2 80 10:44 19.10.2020
6616 Clouds 27 1013 78 10000 6.2 80 10:44 19.10.2020
6617 Clouds 27 1013 78 10000 6.2 80 10:21 19.10.2020
6618 Clouds 27 1014 74 10000 4.1 90 09:52 19.10.2020
6619 Clouds 27 1014 74 10000 4.1 90 09:23 19.10.2020
6620 Clouds 27 1014 78 10000 4.6 70 08:49 19.10.2020
6621 Clouds 27 1014 78 10000 4.6 70 08:24 19.10.2020
6622 Clouds 27 1015 74 10000 7.7 70 07:55 19.10.2020
6623 Clouds 27 1015 74 10000 7.7 70 07:20 19.10.2020
6624 Clouds 27 1015 74 10000 5.7 70 06:20 19.10.2020
6625 Clouds 27 1015 69 10000 7.2 60 04:30 19.10.2020
6626 Clouds 27 1015 74 10000 4.1 60 03:44 19.10.2020
6627 Clouds 28 1015 69 10000 7.2 50 01:28 19.10.2020
6628 Clouds 28 1015 69 10000 7.2 70 00:26 19.10.2020
6629 Clouds 28 1014 66 10000 6.7 50 23:48 18.10.2020
6630 Clouds 28 1014 66 10000 6.7 50 23:29 18.10.2020
6631 Clouds 29 1014 66 10000 6.7 40 22:57 18.10.2020
6632 Clouds 28 1014 66 10000 6.7 40 22:24 18.10.2020
6633 Clouds 29 1015 62